# Wetter Temperatur Luftdruck Luftfeuchtigkeit Sichtweite Windgeschwindigkeit Windrichtung Zeit
1 Clouds 14 1015 87 10000 1 0 07:59 14.07.2020
2 Clouds 14 1015 93 10000 1 0 07:38 14.07.2020
3 Clouds 13 1015 93 10000 1.84 206 07:18 14.07.2020
4 Clouds 12 1015 100 10000 1.84 206 06:47 14.07.2020
5 Clouds 12 1015 100 10000 1.82 188 06:24 14.07.2020
6 Clouds 12 1015 93 10000 1.82 188 05:36 14.07.2020
7 Clouds 11 1016 100 10000 1.97 166 04:38 14.07.2020
8 Clouds 12 1017 93 10000 2.03 160 03:48 14.07.2020
9 Clouds 12 1017 93 10000 0.5 0 02:58 14.07.2020
10 Clouds 13 1017 82 10000 0.5 0 02:26 14.07.2020
11 Clouds 14 1017 82 10000 1 80 01:38 14.07.2020
12 Clouds 15 1018 77 10000 2.1 60 00:58 14.07.2020
13 Clouds 15 1018 77 10000 2.1 60 00:40 14.07.2020
14 Clouds 15 1018 72 10000 2.6 60 00:20 14.07.2020
15 Clouds 16 1018 67 10000 3.1 60 23:38 13.07.2020
16 Clouds 17 1019 68 10000 2.6 40 23:19 13.07.2020
17 Clouds 17 1019 59 10000 3.1 20 22:56 13.07.2020
18 Clouds 18 1019 59 10000 3.1 20 22:38 13.07.2020
19 Clouds 18 1019 59 10000 3.6 20 22:19 13.07.2020
20 Clouds 19 1019 56 10000 3.1 20 21:54 13.07.2020
21 Clouds 20 1019 56 10000 3.1 20 21:36 13.07.2020
22 Clear 21 1019 49 10000 2.1 330 21:18 13.07.2020
23 Clouds 22 1019 46 10000 2.6 340 20:42 13.07.2020
24 Clouds 22 1019 46 10000 2.6 310 20:23 13.07.2020
25 Clouds 23 1019 40 10000 2.6 270 19:59 13.07.2020
26 Clouds 23 1019 40 10000 2.6 270 19:41 13.07.2020
27 Clouds 23 1019 41 10000 2.6 290 19:22 13.07.2020
28 Clouds 23 1020 43 10000 2.6 280 18:56 13.07.2020
29 Clouds 23 1020 43 10000 2.6 280 18:38 13.07.2020
30 Clouds 23 1020 40 10000 1.5 220 18:19 13.07.2020
31 Clouds 23 1020 38 10000 2.6 230 17:43 13.07.2020
32 Clouds 23 1021 40 10000 1 0 17:22 13.07.2020
33 Clouds 23 1021 40 10000 1 0 16:59 13.07.2020
34 Clouds 23 1021 40 10000 3.6 270 16:41 13.07.2020
35 Clouds 23 1021 43 10000 2.6 300 16:20 13.07.2020
36 Clouds 23 1022 41 10000 3.6 270 15:58 13.07.2020
37 Clouds 23 1022 41 10000 3.6 270 15:39 13.07.2020
38 Clouds 22 1022 43 10000 2.1 0 15:20 13.07.2020
39 Clouds 22 1022 43 10000 2.1 0 14:58 13.07.2020
40 Clouds 22 1022 46 10000 2.1 0 14:39 13.07.2020
41 Clouds 22 1023 43 10000 2.6 0 14:20 13.07.2020
42 Clouds 22 1023 49 10000 4.1 250 13:55 13.07.2020
43 Clouds 22 1023 49 10000 4.1 250 13:37 13.07.2020
44 Clouds 22 1023 52 10000 2.1 350 13:19 13.07.2020
45 Clouds 21 1024 56 10000 3.1 300 12:43 13.07.2020
46 Clouds 20 1024 52 10000 2.1 0 12:22 13.07.2020
47 Clouds 20 1024 52 10000 2.1 230 11:56 13.07.2020
48 Clouds 20 1024 52 10000 2.1 230 11:36 13.07.2020
49 Clouds 20 1024 55 10000 1.5 0 11:18 13.07.2020
50 Clouds 18 1025 59 10000 1 0 10:38 13.07.2020
51 Clouds 18 1025 59 10000 1 0 10:20 13.07.2020
52 Clear 17 1025 59 10000 1 0 09:43 13.07.2020
53 Clouds 16 1025 63 10000 0.5 0 09:24 13.07.2020
54 Clouds 15 1025 72 10000 0.5 0 08:53 13.07.2020
55 Clouds 15 1025 72 10000 0.5 0 08:34 13.07.2020
56 Clouds 12 1025 93 10000 0.5 0 07:42 13.07.2020
57 Clouds 11 1025 100 10000 0.5 0 07:19 13.07.2020
58 Fog 9 1025 93 6000 1.37 260 06:42 13.07.2020
59 Fog 8 1026 100 1800 1.39 238 06:22 13.07.2020
60 Mist 9 1026 93 10000 1 210 04:43 13.07.2020
61 Clouds 11 1027 87 10000 0.5 0 01:57 13.07.2020
62 Clouds 11 1027 81 10000 1 0 01:29 13.07.2020
63 Clouds 12 1027 71 10000 2.1 360 00:59 13.07.2020
64 Clouds 12 1027 71 10000 2.1 350 00:28 13.07.2020
65 Clouds 14 1027 62 10000 1.5 360 23:59 12.07.2020
66 Clouds 14 1027 62 10000 1.5 360 23:40 12.07.2020
67 Clouds 14 1027 62 10000 1.5 340 23:22 12.07.2020
68 Clouds 14 1027 59 10000 3.1 340 22:54 12.07.2020
69 Clouds 15 1027 59 10000 3.1 340 22:36 12.07.2020
70 Clouds 15 1027 59 10000 3.1 340 22:36 12.07.2020
71 Clouds 15 1027 59 10000 3.1 340 22:36 12.07.2020
72 Clouds 15 1027 59 10000 3.1 340 22:36 12.07.2020
73 Clouds 15 1027 67 10000 3.6 360 22:18 12.07.2020
74 Clouds 16 1027 67 10000 4.1 360 21:42 12.07.2020
75 Clouds 17 1027 67 10000 4.1 360 21:20 12.07.2020
76 Clouds 17 1027 67 10000 4.1 360 20:59 12.07.2020
77 Clouds 18 1027 63 10000 3.6 10 20:41 12.07.2020
78 Clouds 18 1027 63 10000 3.6 10 20:41 12.07.2020
79 Clouds 19 1027 59 10000 3.6 30 20:20 12.07.2020
80 Clouds 19 1027 59 10000 3.6 30 19:59 12.07.2020
81 Clouds 20 1027 59 10000 4.1 20 19:39 12.07.2020
82 Clouds 20 1027 56 10000 3.6 10 19:19 12.07.2020
83 Clouds 20 1027 52 10000 2.6 350 18:44 12.07.2020
84 Clouds 20 1027 49 10000 3.6 300 18:21 12.07.2020
85 Clouds 20 1027 52 10000 3.1 310 17:59 12.07.2020
86 Clouds 20 1027 52 10000 3.1 310 17:38 12.07.2020
87 Rain 19 1027 55 10000 3.6 310 17:20 12.07.2020
88 Rain 19 1027 52 10000 4.1 300 16:47 12.07.2020
89 Rain 20 1028 49 10000 3.1 310 16:22 12.07.2020
90 Rain 20 1028 45 10000 3.6 300 15:50 12.07.2020
91 Rain 20 1028 45 10000 3.6 300 15:30 12.07.2020
92 Rain 20 1028 45 10000 2.6 300 14:58 12.07.2020
93 Rain 20 1028 45 10000 3.6 280 14:40 12.07.2020
94 Rain 20 1028 45 10000 3.6 280 14:40 12.07.2020
95 Clouds 19 1028 45 10000 3.1 260 14:22 12.07.2020
96 Clouds 19 1028 48 10000 3.6 0 13:40 12.07.2020
97 Clouds 19 1028 48 10000 3.1 280 13:21 12.07.2020
98 Clouds 18 1028 48 10000 3.6 290 12:57 12.07.2020
99 Clouds 18 1028 48 10000 3.6 290 12:57 12.07.2020
100 Clouds 19 1028 48 10000 3.6 290 12:38 12.07.2020
101 Clouds 19 1028 48 10000 3.6 290 12:38 12.07.2020
102 Clouds 19 1028 52 10000 3.1 300 12:18 12.07.2020
103 Clouds 18 1028 51 10000 3.1 280 11:45 12.07.2020
104 Clouds 17 1028 55 10000 3.1 310 11:21 12.07.2020
105 Clouds 18 1028 59 10000 3.6 290 10:57 12.07.2020
106 Clouds 17 1028 59 10000 3.6 290 10:39 12.07.2020
107 Clouds 17 1028 67 10000 4.1 320 10:19 12.07.2020
108 Clouds 15 1028 67 10000 3.6 320 09:43 12.07.2020
109 Clouds 14 1028 72 10000 3.1 310 09:21 12.07.2020
110 Clouds 14 1027 82 10000 1 0 08:57 12.07.2020
111 Clouds 13 1027 82 10000 1 0 08:38 12.07.2020
112 Clear 12 1027 93 10000 1.5 270 08:19 12.07.2020
113 Clear 11 1027 93 10000 0.5 0 07:47 12.07.2020
114 Clear 10 1027 93 10000 0.5 0 07:28 12.07.2020
115 Clear 10 1027 93 10000 0.5 0 07:28 12.07.2020
116 Fog 9 1027 100 900 1 0 06:53 12.07.2020
117 Fog 8 1026 100 500 1 230 06:22 12.07.2020
118 Fog 8 1026 100 500 1.5 230 05:59 12.07.2020
119 Fog 8 1026 100 500 1 260 04:58 12.07.2020
120 Fog 8 1026 100 700 0.5 270 04:29 12.07.2020
121 Fog 9 1026 100 800 0.5 270 03:45 12.07.2020
122 Fog 9 1026 100 900 1.5 250 03:24 12.07.2020
123 Fog 10 1026 100 600 0.5 240 02:21 12.07.2020
124 Fog 10 1026 100 800 1.5 230 01:28 12.07.2020
125 Fog 11 1026 93 800 1 250 00:39 12.07.2020
126 Fog 11 1026 100 10000 0.5 300 00:20 12.07.2020
127 Clouds 12 1026 100 10000 0.5 0 23:41 11.07.2020
128 Clouds 12 1026 100 10000 0.5 240 23:21 11.07.2020
129 Clouds 13 1025 93 10000 0.5 230 22:57 11.07.2020
130 Clouds 13 1025 93 10000 0.5 230 22:38 11.07.2020
131 Clouds 14 1025 87 10000 0.5 0 22:20 11.07.2020
132 Clouds 15 1025 93 10000 1.5 250 21:54 11.07.2020
133 Clouds 15 1025 93 10000 1.5 250 21:36 11.07.2020
134 Rain 16 1025 87 10000 1.5 270 21:18 11.07.2020
135 Rain 16 1025 82 10000 1.5 250 20:54 11.07.2020
136 Rain 16 1025 82 10000 1.5 250 20:36 11.07.2020
137 Clouds 16 1025 82 10000 2.1 280 20:18 11.07.2020
138 Clouds 16 1025 82 10000 2.1 280 20:18 11.07.2020
139 Clouds 16 1024 82 10000 1.5 290 19:44 11.07.2020
140 Clouds 16 1024 87 10000 2.1 280 19:26 11.07.2020
141 Rain 16 1024 82 10000 2.6 270 18:58 11.07.2020
142 Rain 16 1024 82 10000 2.6 270 18:39 11.07.2020
143 Clouds 15 1024 82 10000 1.5 250 18:20 11.07.2020
144 Rain 16 1024 63 10000 7.7 310 17:56 11.07.2020
145 Rain 16 1024 63 10000 7.7 310 17:38 11.07.2020
146 Clouds 17 1024 59 10000 3.1 290 17:19 11.07.2020
147 Clouds 17 1024 67 10000 4.1 340 16:56 11.07.2020
148 Clouds 17 1024 67 10000 4.1 340 16:36 11.07.2020
149 Clouds 17 1024 63 10000 4.6 310 16:18 11.07.2020
150 Clouds 17 1024 67 10000 3.6 310 15:41 11.07.2020
151 Clouds 16 1024 72 10000 3.6 270 15:21 11.07.2020
152 Clouds 16 1024 72 10000 3.6 270 14:58 11.07.2020
153 Clouds 16 1024 87 10000 4.6 290 14:39 11.07.2020
154 Clouds 16 1023 63 10000 5.7 350 14:20 11.07.2020
155 Clouds 17 1023 59 10000 5.7 300 13:44 11.07.2020
156 Clouds 17 1023 55 10000 3.1 300 13:22 11.07.2020
157 Clouds 17 1023 59 10000 4.6 320 12:59 11.07.2020
158 Clouds 17 1023 59 10000 4.6 320 12:40 11.07.2020
159 Clouds 18 1023 59 10000 5.1 280 12:21 11.07.2020
160 Clouds 17 1023 63 10000 5.1 280 11:57 11.07.2020
161 Clouds 17 1023 63 10000 5.1 280 11:39 11.07.2020
162 Clouds 17 1022 67 10000 5.7 270 11:19 11.07.2020
163 Clouds 17 1022 67 10000 4.6 270 10:44 11.07.2020
164 Clouds 17 1022 67 10000 4.6 270 10:44 11.07.2020
165 Clouds 17 1022 67 10000 5.1 280 10:25 11.07.2020
166 Clouds 16 1022 72 10000 5.7 280 09:55 11.07.2020
167 Clouds 15 1022 72 10000 5.7 280 09:36 11.07.2020
168 Clouds 14 1022 76 10000 5.1 290 09:18 11.07.2020
169 Clouds 14 1021 76 10000 5.1 280 08:37 11.07.2020
170 Clouds 12 1021 82 10000 4.1 270 08:19 11.07.2020
171 Clouds 11 1021 87 10000 3.6 260 07:45 11.07.2020
172 Rain 11 1021 87 10000 3.1 260 07:27 11.07.2020
173 Rain 10 1021 93 10000 2.6 260 06:56 11.07.2020
174 Clouds 10 1021 100 10000 1 0 06:22 11.07.2020
175 Clouds 9 1020 100 10000 2.1 260 05:36 11.07.2020
176 Clouds 9 1020 93 10000 1 0 04:57 11.07.2020
177 Clouds 9 1020 93 10000 1 0 04:33 11.07.2020
178 Clouds 9 1020 93 10000 2.1 250 03:38 11.07.2020
179 Clouds 9 1019 93 10000 1.5 230 02:48 11.07.2020
180 Clear 10 1019 87 10000 1.5 220 01:53 11.07.2020
181 Clear 10 1018 93 10000 1 0 01:20 11.07.2020
182 Clear 10 1018 93 10000 2.1 250 00:41 11.07.2020
183 Clear 10 1018 93 10000 2.1 250 00:22 11.07.2020
184 Clear 10 1018 87 10000 2.6 290 23:58 10.07.2020
185 Clear 10 1018 87 10000 2.6 290 23:58 10.07.2020
186 Clear 11 1018 87 10000 2.6 290 23:40 10.07.2020
187 Clear 10 1017 87 10000 3.1 290 23:21 10.07.2020
188 Clouds 11 1017 87 10000 3.1 290 22:49 10.07.2020
189 Clouds 12 1017 81 10000 3.6 300 22:24 10.07.2020
190 Clouds 12 1017 81 10000 3.6 300 21:59 10.07.2020
191 Clouds 14 1016 76 10000 4.1 290 21:38 10.07.2020
192 Clouds 14 1016 82 10000 3.1 300 21:20 10.07.2020
193 Clouds 15 1016 82 10000 3.6 280 20:54 10.07.2020
194 Clouds 15 1016 82 10000 3.6 280 20:36 10.07.2020
195 Clouds 15 1016 72 10000 3.1 290 20:18 10.07.2020
196 Clouds 14 1015 76 10000 4.1 290 19:43 10.07.2020
197 Rain 15 1015 72 10000 4.6 320 19:22 10.07.2020
198 Rain 15 1015 72 10000 6.2 310 18:58 10.07.2020
199 Rain 15 1015 72 10000 6.2 310 18:58 10.07.2020
200 Rain 15 1015 72 10000 6.2 310 18:37 10.07.2020
201 Rain 15 1014 72 10000 5.7 300 18:18 10.07.2020
202 Rain 16 1014 67 10000 5.1 300 17:55 10.07.2020
203 Rain 16 1014 67 10000 5.1 300 17:36 10.07.2020
204 Clouds 16 1014 77 10000 5.1 290 17:18 10.07.2020
205 Rain 15 1013 77 10000 6.7 310 16:40 10.07.2020
206 Clouds 15 1013 72 10000 7.2 310 16:19 10.07.2020
207 Rain 15 1012 77 10000 6.2 330 15:44 10.07.2020
208 Rain 15 1011 77 10000 5.7 330 15:22 10.07.2020
209 Clouds 14 1011 82 10000 6.2 340 14:54 10.07.2020
210 Clouds 14 1011 82 10000 6.2 340 14:36 10.07.2020
211 Rain 14 1010 87 10000 6.7 340 14:18 10.07.2020
212 Drizzle 13 1009 93 10000 5.7 330 13:55 10.07.2020
213 Drizzle 13 1009 93 10000 5.7 330 13:36 10.07.2020
214 Clouds 13 1009 93 6000 6.7 330 13:18 10.07.2020
215 Drizzle 13 1008 93 8000 5.7 330 12:42 10.07.2020
216 Clouds 13 1007 93 10000 5.7 340 12:24 10.07.2020
217 Drizzle 14 1007 93 10000 4.6 320 11:58 10.07.2020
218 Drizzle 14 1007 93 10000 4.6 320 11:38 10.07.2020
219 Drizzle 14 1006 93 4600 5.23 252 11:18 10.07.2020
220 Drizzle 14 1006 93 4600 5.23 252 10:54 10.07.2020
221 Drizzle 14 1005 100 4200 4.1 340 10:36 10.07.2020
222 Drizzle 14 1005 100 4200 4.1 340 10:18 10.07.2020
223 Drizzle 14 1005 93 4200 3.6 340 09:37 10.07.2020
224 Drizzle 15 1005 93 3800 4.1 220 09:19 10.07.2020
225 Clouds 15 1005 93 8000 3.1 210 08:56 10.07.2020
226 Clouds 15 1005 93 8000 3.1 210 08:38 10.07.2020
227 Clouds 15 1005 100 8000 2.1 200 08:20 10.07.2020
228 Clouds 15 1005 100 8000 2.1 210 07:42 10.07.2020
229 Clouds 15 1006 93 8000 2.1 180 07:22 10.07.2020
230 Drizzle 14 1006 100 3200 1.5 170 06:49 10.07.2020
231 Drizzle 13 1006 100 2500 1.5 320 06:24 10.07.2020
232 Drizzle 13 1007 93 2800 2.6 80 04:43 10.07.2020
233 Clouds 13 1008 100 7000 1.5 100 03:38 10.07.2020
234 Drizzle 13 1009 100 3800 3.1 80 02:52 10.07.2020
235 Drizzle 13 1010 100 2300 3.1 70 01:50 10.07.2020
236 Drizzle 13 1010 100 4500 2.6 80 00:49 10.07.2020
237 Drizzle 13 1011 100 4500 2.1 60 00:21 10.07.2020
238 Drizzle 13 1011 100 2500 2.6 50 23:49 09.07.2020
239 Drizzle 13 1011 100 3200 2.1 50 23:24 09.07.2020
240 Drizzle 13 1011 100 3200 2.1 50 22:59 09.07.2020
241 Drizzle 13 1011 100 4500 2.1 70 22:41 09.07.2020
242 Drizzle 13 1011 100 3500 2.1 50 22:21 09.07.2020
243 Drizzle 13 1011 100 3500 2.1 50 21:59 09.07.2020
244 Drizzle 13 1011 93 3500 1.5 60 21:39 09.07.2020
245 Drizzle 14 1011 93 7000 2.1 50 21:19 09.07.2020
246 Drizzle 14 1011 93 7000 2.1 50 20:58 09.07.2020
247 Drizzle 14 1011 93 4200 2.1 40 20:39 09.07.2020
248 Drizzle 14 1011 93 4200 2.1 20 20:21 09.07.2020
249 Drizzle 14 1011 93 3800 1.5 30 19:43 09.07.2020
250 Drizzle 14 1011 93 4200 1.5 30 19:21 09.07.2020
251 Drizzle 14 1011 93 3800 2.1 20 18:56 09.07.2020
252 Drizzle 14 1011 93 3800 2.1 20 18:38 09.07.2020
253 Drizzle 14 1011 93 3800 2.1 10 18:18 09.07.2020
254 Drizzle 14 1011 93 4000 2.6 10 17:42 09.07.2020
255 Drizzle 14 1011 93 5000 2.6 360 17:22 09.07.2020
256 Drizzle 14 1011 93 4500 2.1 360 16:56 09.07.2020
257 Drizzle 14 1011 93 4500 2.1 360 16:38 09.07.2020
258 Clouds 14 1011 93 8000 3.1 10 16:19 09.07.2020
259 Clouds 14 1011 93 7000 3.1 360 15:57 09.07.2020
260 Clouds 14 1011 93 7000 3.1 360 15:37 09.07.2020
261 Drizzle 14 1011 93 4500 2.6 20 15:18 09.07.2020
262 Clouds 14 1010 93 8000 3.6 20 14:57 09.07.2020
263 Clouds 14 1010 93 8000 3.6 20 14:39 09.07.2020
264 Clouds 14 1010 93 8000 3.6 20 14:39 09.07.2020
265 Clouds 13 1010 93 7000 4.1 10 14:20 09.07.2020
266 Drizzle 13 1010 93 6000 4.1 30 13:56 09.07.2020
267 Drizzle 13 1010 93 6000 4.1 30 13:38 09.07.2020
268 Drizzle 13 1010 93 6000 3.6 40 13:18 09.07.2020
269 Drizzle 13 1010 100 4000 2.6 50 12:41 09.07.2020
270 Drizzle 12 1010 100 3600 3.6 50 12:23 09.07.2020
271 Mist 12 1010 100 5000 3.6 70 11:57 09.07.2020
272 Drizzle 12 1010 100 5000 3.6 70 11:38 09.07.2020
273 Rain 12 1011 93 6000 4.1 70 11:18 09.07.2020
274 Rain 12 1011 100 4800 4.6 70 10:55 09.07.2020
275 Rain 12 1011 100 4800 4.6 70 10:37 09.07.2020
276 Rain 12 1011 100 5000 5.1 70 10:19 09.07.2020
277 Rain 12 1012 100 4800 4.6 60 09:42 09.07.2020
278 Rain 12 1012 100 5000 3.6 70 09:22 09.07.2020
279 Drizzle 12 1012 100 4400 4.1 70 08:49 09.07.2020
280 Drizzle 12 1013 100 2500 4.1 60 08:26 09.07.2020
281 Drizzle 12 1013 100 3600 3.1 50 07:56 09.07.2020
282 Mist 12 1013 100 3600 3.1 50 07:37 09.07.2020
283 Drizzle 12 1013 93 4600 3.6 70 07:19 09.07.2020
284 Mist 12 1014 100 4000 2.6 70 06:20 09.07.2020
285 Mist 12 1014 100 4000 3.1 60 05:50 09.07.2020
286 Drizzle 12 1014 100 7000 2.6 50 04:29 09.07.2020
287 Clouds 13 1015 93 10000 1 100 02:47 09.07.2020
288 Clouds 13 1015 93 10000 1.5 150 01:55 09.07.2020
289 Rain 13 1016 87 10000 1.28 73 00:59 09.07.2020
290 Clouds 13 1016 87 10000 1.28 73 00:40 09.07.2020
291 Clouds 14 1016 87 10000 0.5 0 00:21 09.07.2020
292 Clouds 14 1016 87 10000 0.5 0 23:43 08.07.2020
293 Clouds 14 1016 87 10000 1 190 23:25 08.07.2020
294 Clouds 14 1016 87 10000 2.1 180 22:56 08.07.2020
295 Clouds 14 1016 87 10000 2.1 180 22:38 08.07.2020
296 Clouds 15 1016 82 10000 1.5 200 22:19 08.07.2020
297 Clouds 15 1016 82 10000 1.5 180 21:56 08.07.2020
298 Clouds 15 1016 82 10000 1.5 180 21:36 08.07.2020
299 Clouds 15 1016 77 10000 1.5 90 21:18 08.07.2020
300 Clouds 16 1015 77 10000 2.1 70 20:41 08.07.2020
301 Clouds 16 1015 72 10000 1.5 260 20:23 08.07.2020
302 Clouds 16 1015 72 10000 1 0 19:56 08.07.2020
303 Clouds 17 1015 72 10000 1 0 19:37 08.07.2020
304 Clouds 17 1015 72 10000 1.5 260 19:19 08.07.2020
305 Clouds 17 1015 72 10000 1.5 220 18:42 08.07.2020
306 Clouds 17 1015 72 10000 1.5 210 18:21 08.07.2020
307 Clouds 17 1016 67 10000 1 280 17:58 08.07.2020
308 Clouds 17 1016 67 10000 1 280 17:39 08.07.2020
309 Clouds 17 1015 72 10000 3.1 10 17:20 08.07.2020
310 Clouds 16 1015 72 10000 3.1 10 16:58 08.07.2020
311 Clouds 16 1015 72 10000 3.1 10 16:38 08.07.2020
312 Clouds 16 1015 63 10000 2.6 310 16:19 08.07.2020
313 Clouds 16 1015 63 10000 2.6 310 15:58 08.07.2020
314 Clouds 16 1015 55 10000 2.6 260 15:38 08.07.2020
315 Clouds 17 1015 59 10000 3.1 250 15:19 08.07.2020
316 Clouds 17 1015 59 10000 2.6 240 14:44 08.07.2020
317 Clouds 17 1015 59 10000 3.1 280 14:25 08.07.2020
318 Clouds 17 1015 59 10000 3.1 280 13:58 08.07.2020
319 Clouds 17 1015 55 10000 3.1 230 13:40 08.07.2020
320 Clouds 18 1015 55 10000 2.6 220 13:19 08.07.2020
321 Rain 17 1015 59 10000 2.6 0 12:42 08.07.2020
322 Clouds 17 1015 63 10000 2.6 250 12:21 08.07.2020
323 Clouds 17 1014 67 10000 2.1 260 11:56 08.07.2020
324 Clouds 17 1014 67 10000 2.1 260 11:38 08.07.2020
325 Clouds 16 1015 67 10000 2.6 250 11:20 08.07.2020
326 Clouds 17 1015 67 10000 2.1 250 10:44 08.07.2020
327 Clouds 15 1014 72 10000 2.6 260 10:25 08.07.2020
328 Clouds 15 1014 72 10000 3.1 260 09:46 08.07.2020
329 Clouds 14 1014 76 10000 2.1 240 09:26 08.07.2020
330 Clouds 14 1014 76 10000 2.1 240 08:58 08.07.2020
331 Clouds 14 1014 76 10000 3.1 230 08:39 08.07.2020
332 Clouds 13 1014 82 10000 2.1 240 08:20 08.07.2020
333 Clouds 13 1014 82 10000 2.6 250 07:44 08.07.2020
334 Clouds 12 1014 87 10000 2.6 240 07:22 08.07.2020
335 Clouds 12 1014 87 10000 1 230 06:53 08.07.2020
336 Clouds 12 1014 87 10000 1 230 06:31 08.07.2020
337 Clouds 11 1014 93 10000 1.5 230 05:50 08.07.2020
338 Clouds 11 1015 93 10000 1.5 230 04:58 08.07.2020
339 Clouds 11 1015 87 10000 2.1 250 04:20 08.07.2020
340 Rain 12 1015 87 10000 2.1 230 02:20 08.07.2020
341 Rain 12 1016 76 10000 2.1 270 01:44 08.07.2020
342 Rain 13 1016 71 10000 3.6 270 00:59 08.07.2020
343 Clouds 13 1016 71 10000 4.6 270 00:25 08.07.2020
344 Clouds 13 1016 71 10000 4.6 260 23:55 07.07.2020
345 Clouds 13 1016 71 10000 4.6 260 23:37 07.07.2020
346 Rain 13 1016 76 10000 3.6 260 23:18 07.07.2020
347 Rain 14 1016 71 10000 3.6 270 22:41 07.07.2020
348 Clouds 14 1016 71 10000 4.1 280 22:22 07.07.2020
349 Clouds 14 1016 71 10000 4.1 280 21:59 07.07.2020
350 Clouds 14 1016 67 10000 4.1 270 21:39 07.07.2020
351 Clouds 15 1016 62 10000 4.1 280 21:21 07.07.2020
352 Clouds 15 1016 67 10000 2.6 280 20:57 07.07.2020
353 Clouds 15 1016 67 10000 2.6 280 20:39 07.07.2020
354 Clouds 15 1016 62 10000 3.6 290 20:20 07.07.2020
355 Clouds 16 1016 67 10000 5.1 290 19:41 07.07.2020
356 Clouds 16 1017 67 10000 6.2 290 19:21 07.07.2020
357 Clouds 16 1017 67 10000 4.6 300 18:58 07.07.2020
358 Clouds 16 1017 67 10000 4.6 300 18:40 07.07.2020
359 Clouds 16 1017 82 10000 3.1 290 18:21 07.07.2020
360 Clouds 15 1017 82 10000 3.6 260 17:58 07.07.2020
361 Clouds 15 1017 82 10000 3.6 260 17:38 07.07.2020
362 Rain 15 1017 87 10000 5.1 260 17:20 07.07.2020
363 Rain 15 1017 76 10000 6.7 270 16:43 07.07.2020
364 Rain 15 1017 87 10000 4.6 280 16:24 07.07.2020
365 Rain 15 1017 87 10000 4.6 280 15:58 07.07.2020
366 Rain 16 1016 59 10000 6.2 240 15:39 07.07.2020
367 Clouds 18 1016 52 10000 9.3 230 15:20 07.07.2020
368 Clouds 18 1017 48 10000 8.7 240 14:47 07.07.2020
369 Clouds 19 1017 48 10000 8.2 240 14:27 07.07.2020
370 Clouds 19 1017 48 10000 8.2 240 13:59 07.07.2020
371 Clouds 19 1017 48 10000 8.2 230 13:38 07.07.2020
372 Clouds 19 1017 52 10000 7.7 230 13:18 07.07.2020
373 Clouds 19 1018 52 10000 5.7 240 12:41 07.07.2020
374 Clouds 18 1018 55 10000 4.1 220 12:22 07.07.2020
375 Clouds 18 1018 55 10000 4.1 220 12:22 07.07.2020
376 Clouds 17 1018 55 10000 4.1 240 11:58 07.07.2020
377 Clouds 17 1018 55 10000 4.1 240 11:40 07.07.2020
378 Clouds 16 1019 63 10000 4.1 250 11:20 07.07.2020
379 Clouds 16 1019 63 10000 6.2 250 10:57 07.07.2020
380 Clouds 16 1019 63 10000 6.2 250 10:37 07.07.2020
381 Clouds 16 1019 63 10000 5.7 250 10:18 07.07.2020
382 Clouds 15 1019 67 10000 5.7 270 09:41 07.07.2020
383 Clouds 14 1019 72 10000 5.1 250 09:21 07.07.2020
384 Clouds 13 1019 71 10000 4.6 250 08:42 07.07.2020
385 Clouds 13 1019 82 10000 4.1 250 08:24 07.07.2020
386 Clouds 12 1019 81 10000 4.1 250 07:47 07.07.2020
387 Clouds 12 1019 87 10000 4.1 260 07:25 07.07.2020
388 Clouds 11 1019 93 10000 3.1 260 06:50 07.07.2020
389 Clouds 11 1019 93 10000 3.1 260 06:50 07.07.2020
390 Clear 10 1019 93 10000 1 0 06:31 07.07.2020
391 Clear 10 1018 93 10000 2.1 270 05:54 07.07.2020
392 Clear 10 1018 93 10000 3.1 250 05:23 07.07.2020
393 Clouds 10 1018 93 10000 3.6 250 04:42 07.07.2020
394 Clouds 11 1019 87 10000 4.1 260 03:41 07.07.2020
395 Clouds 11 1019 87 10000 4.6 270 02:28 07.07.2020
396 Clear 11 1018 93 10000 3.6 250 01:25 07.07.2020
397 Clouds 11 1018 93 10000 4.6 260 00:56 07.07.2020
398 Clouds 11 1018 93 10000 4.6 260 00:38 07.07.2020
399 Clouds 12 1018 93 10000 3.1 260 00:19 07.07.2020
400 Clouds 12 1018 87 10000 3.6 270 23:42 06.07.2020
401 Clouds 12 1017 93 10000 4.1 260 23:23 06.07.2020
402 Clouds 13 1017 87 10000 4.1 260 22:55 06.07.2020
403 Clouds 13 1017 87 10000 4.1 260 22:37 06.07.2020
404 Clouds 13 1017 87 10000 4.1 260 22:18 06.07.2020
405 Clouds 13 1016 87 10000 3.6 260 21:55 06.07.2020
406 Clouds 13 1016 87 10000 3.6 260 21:36 06.07.2020
407 Rain 13 1016 82 10000 4.6 270 21:18 06.07.2020
408 Rain 14 1016 76 8000 8.2 290 20:40 06.07.2020
409 Clouds 15 1015 67 10000 7.2 280 20:20 06.07.2020
410 Rain 16 1015 67 10000 8.7 300 19:58 06.07.2020
411 Rain 16 1015 67 10000 8.7 300 19:39 06.07.2020
412 Clouds 16 1014 63 10000 10.8 300 19:21 06.07.2020
413 Clouds 17 1014 55 10000 9.8 290 18:57 06.07.2020
414 Clouds 17 1014 55 10000 9.8 290 18:39 06.07.2020
415 Clouds 17 1014 59 10000 9.3 280 18:21 06.07.2020
416 Clouds 18 1013 63 10000 7.7 270 17:46 06.07.2020
417 Rain 16 1013 72 10000 10.3 290 17:28 06.07.2020
418 Clouds 16 1013 63 10000 10.8 300 16:59 06.07.2020
419 Clouds 17 1013 63 10000 10.8 300 16:41 06.07.2020
420 Clouds 18 1012 55 10000 11.3 300 16:22 06.07.2020
421 Clouds 18 1012 59 10000 11.3 300 15:44 06.07.2020
422 Clouds 18 1012 67 10000 8.7 300 15:26 06.07.2020
423 Clouds 17 1012 67 10000 8.7 300 14:57 06.07.2020
424 Clouds 17 1012 67 10000 8.7 300 14:57 06.07.2020
425 Clouds 16 1011 72 10000 9.3 300 14:38 06.07.2020
426 Thunderstorm 16 1011 82 10000 8.7 270 14:20 06.07.2020
427 Thunderstorm 15 1011 82 10000 8.7 270 13:58 06.07.2020
428 Clouds 16 1010 59 10000 9.3 250 13:39 06.07.2020
429 Rain 16 1010 72 10000 11.3 250 13:20 06.07.2020
430 Clouds 18 1010 59 10000 9.8 250 12:43 06.07.2020
431 Clouds 18 1009 59 10000 9.8 260 12:20 06.07.2020
432 Clouds 17 1009 67 10000 9.8 250 11:58 06.07.2020
433 Clouds 17 1009 67 10000 9.8 250 11:40 06.07.2020
434 Clouds 17 1009 77 10000 7.2 260 11:22 06.07.2020
435 Rain 16 1009 72 10000 8.2 260 10:58 06.07.2020
436 Rain 16 1009 72 10000 8.2 260 10:39 06.07.2020
437 Clouds 16 1009 67 10000 9.8 250 10:18 06.07.2020
438 Clouds 16 1008 67 10000 9.3 250 09:45 06.07.2020
439 Clouds 15 1008 77 10000 7.7 250 09:22 06.07.2020
440 Clouds 15 1008 77 10000 7.7 250 09:22 06.07.2020
441 Clouds 15 1008 77 10000 7.7 250 08:59 06.07.2020
442 Clouds 13 1008 82 10000 7.7 260 08:40 06.07.2020
443 Clouds 14 1008 72 10000 8.7 240 08:20 06.07.2020
444 Clear 14 1008 72 10000 7.7 240 07:47 06.07.2020
445 Clear 13 1008 76 10000 6.7 240 07:29 06.07.2020
446 Clear 13 1007 82 10000 5.7 230 06:49 06.07.2020
447 Clear 13 1007 82 10000 4.6 220 06:31 06.07.2020
448 Clouds 13 1007 82 10000 5.1 230 05:44 06.07.2020
449 Clouds 13 1007 82 10000 5.7 240 05:25 06.07.2020
450 Clouds 15 1007 72 10000 6.7 240 03:53 06.07.2020
451 Clouds 14 1007 82 10000 4.6 230 02:29 06.07.2020
452 Clouds 15 1007 87 10000 3.1 200 01:54 06.07.2020
453 Clouds 15 1007 87 10000 3.1 250 00:49 06.07.2020
454 Clouds 14 1008 93 10000 1.5 270 00:23 06.07.2020
455 Clouds 15 1007 87 10000 1.5 250 23:56 05.07.2020
456 Clouds 15 1007 87 10000 1.5 250 23:38 05.07.2020
457 Clouds 16 1008 82 10000 1.5 290 23:19 05.07.2020
458 Clouds 16 1008 77 10000 2.6 300 22:42 05.07.2020
459 Clouds 17 1007 68 10000 3.6 320 22:21 05.07.2020
460 Clouds 18 1007 72 10000 4.1 310 21:59 05.07.2020
461 Clouds 18 1007 72 10000 4.1 310 21:41 05.07.2020
462 Rain 19 1007 60 10000 7.2 270 21:19 05.07.2020
463 Rain 19 1007 60 10000 7.2 270 20:59 05.07.2020
464 Clouds 20 1007 56 10000 7.7 270 20:41 05.07.2020
465 Clouds 20 1007 56 10000 8.2 270 20:22 05.07.2020
466 Clouds 21 1007 53 10000 8.2 260 19:57 05.07.2020
467 Clouds 21 1007 53 10000 8.2 260 19:39 05.07.2020
468 Clouds 21 1007 53 10000 8.2 260 19:19 05.07.2020
469 Clouds 22 1007 53 10000 8.7 260 18:42 05.07.2020
470 Clouds 22 1007 56 10000 8.7 260 18:23 05.07.2020
471 Clouds 22 1007 56 10000 8.2 260 17:59 05.07.2020
472 Clouds 21 1007 56 10000 8.2 260 17:41 05.07.2020
473 Clouds 23 1007 50 10000 10.8 250 17:19 05.07.2020
474 Clouds 21 1008 60 10000 11.3 250 16:45 05.07.2020
475 Clouds 21 1007 60 10000 11.3 250 16:26 05.07.2020
476 Clouds 21 1007 60 10000 11.3 250 15:59 05.07.2020
477 Clouds 21 1007 68 10000 9.3 250 15:39 05.07.2020
478 Clouds 21 1007 77 10000 9.8 250 15:19 05.07.2020
479 Rain 20 1007 88 10000 9.8 240 14:43 05.07.2020
480 Drizzle 20 1007 88 10000 10.3 240 14:23 05.07.2020
481 Drizzle 19 1007 88 10000 10.3 240 13:59 05.07.2020
482 Drizzle 19 1007 88 10000 8.7 230 13:40 05.07.2020
483 Rain 19 1007 88 10000 8.7 230 13:20 05.07.2020
484 Rain 19 1007 88 10000 7.2 230 12:44 05.07.2020
485 Rain 18 1007 93 7000 7.7 230 12:20 05.07.2020
486 Rain 18 1007 88 7000 9.3 240 11:56 05.07.2020
487 Rain 18 1007 88 7000 9.3 240 11:38 05.07.2020
488 Rain 19 1007 82 8000 9.3 230 11:18 05.07.2020
489 Rain 19 1007 82 8000 9.3 230 11:18 05.07.2020
490 Clouds 19 1007 77 10000 10.3 240 10:54 05.07.2020
491 Clouds 19 1007 77 10000 10.3 240 10:36 05.07.2020
492 Clouds 19 1007 77 10000 9.8 230 10:18 05.07.2020
493 Clouds 19 1006 82 10000 9.8 230 09:41 05.07.2020
494 Clouds 18 1006 88 10000 8.2 220 09:20 05.07.2020
495 Clouds 18 1006 82 10000 8.2 230 08:56 05.07.2020
496 Clouds 18 1006 82 10000 8.2 230 08:37 05.07.2020
497 Clouds 18 1006 82 10000 8.7 220 08:18 05.07.2020
498 Clouds 18 1007 82 10000 7.7 240 07:39 05.07.2020
499 Clouds 18 1007 88 10000 6.2 230 07:21 05.07.2020
500 Clouds 18 1007 88 10000 6.7 240 06:45 05.07.2020
501 Clouds 18 1007 93 10000 6.2 220 04:27 05.07.2020
502 Drizzle 18 1008 93 3500 5.1 220 03:18 05.07.2020
503 Clouds 18 1008 93 10000 6.2 220 02:40 05.07.2020
504 Drizzle 18 1009 93 5000 6.2 220 01:59 05.07.2020
505 Drizzle 18 1009 93 10000 5.7 210 01:28 05.07.2020
506 Clouds 18 1009 88 10000 6.2 210 00:53 05.07.2020
507 Clouds 18 1009 88 10000 6.2 210 00:31 05.07.2020
508 Clouds 18 1010 88 10000 5.7 210 23:58 04.07.2020
509 Clouds 18 1010 88 10000 5.7 210 23:40 04.07.2020
510 Clouds 18 1010 88 10000 6.2 220 23:22 04.07.2020
511 Drizzle 18 1010 88 10000 6.7 210 22:43 04.07.2020
512 Clouds 18 1010 88 10000 5.7 220 22:25 04.07.2020
513 Clouds 17 1010 88 10000 5.7 220 21:58 04.07.2020
514 Drizzle 17 1010 88 10000 6.2 230 21:40 04.07.2020
515 Drizzle 17 1011 88 10000 6.2 220 21:22 04.07.2020
516 Drizzle 17 1011 88 10000 6.7 220 20:54 04.07.2020
517 Drizzle 17 1011 88 10000 6.7 220 20:36 04.07.2020
518 Clouds 17 1011 88 10000 5.1 220 20:18 04.07.2020
519 Clouds 17 1011 88 10000 6.7 220 19:41 04.07.2020
520 Drizzle 17 1011 93 10000 6.2 220 19:21 04.07.2020
521 Drizzle 17 1011 93 2200 5.1 230 18:55 04.07.2020
522 Drizzle 17 1011 93 2200 5.1 230 18:36 04.07.2020
523 Drizzle 17 1012 93 2200 5.1 230 18:18 04.07.2020
524 Drizzle 17 1011 93 3500 7.7 230 17:42 04.07.2020
525 Clouds 18 1011 82 10000 8.2 230 17:22 04.07.2020
526 Clouds 18 1011 82 10000 8.7 220 16:56 04.07.2020
527 Clouds 18 1011 82 10000 8.7 220 16:37 04.07.2020
528 Clouds 19 1011 72 10000 8.7 230 16:18 04.07.2020
529 Clouds 19 1011 68 10000 8.7 230 15:45 04.07.2020
530 Clouds 19 1011 72 10000 9.3 230 15:26 04.07.2020
531 Clouds 19 1011 72 10000 9.3 230 14:59 04.07.2020
532 Clouds 19 1011 72 10000 9.3 230 14:59 04.07.2020
533 Clouds 19 1011 68 10000 9.8 230 14:37 04.07.2020
534 Clouds 20 1011 64 10000 8.7 220 14:19 04.07.2020
535 Clouds 20 1011 64 10000 7.2 210 13:56 04.07.2020
536 Clouds 20 1011 64 10000 7.2 210 13:37 04.07.2020
537 Clouds 18 1011 72 10000 6.7 210 13:18 04.07.2020
538 Clouds 18 1011 72 10000 8.2 210 12:42 04.07.2020
539 Clouds 18 1012 72 10000 6.7 220 12:20 04.07.2020
540 Clouds 17 1012 77 10000 7.7 220 11:46 04.07.2020
541 Clouds 17 1012 77 10000 7.2 220 11:25 04.07.2020
542 Clouds 17 1012 77 10000 7.2 220 11:00 04.07.2020
543 Clouds 17 1012 72 10000 8.2 230 10:41 04.07.2020
544 Clouds 17 1012 72 10000 8.2 230 10:21 04.07.2020
545 Clouds 16 1012 77 10000 8.7 230 09:58 04.07.2020
546 Clouds 16 1012 77 10000 8.7 230 09:58 04.07.2020
547 Clouds 16 1012 77 10000 8.7 230 09:37 04.07.2020
548 Clouds 16 1012 72 10000 7.2 230 09:18 04.07.2020
549 Clouds 16 1012 82 10000 7.2 240 08:46 04.07.2020
550 Clouds 15 1012 82 10000 6.2 230 08:27 04.07.2020
551 Rain 15 1012 82 10000 3.6 210 07:46 04.07.2020
552 Rain 15 1013 82 10000 4.1 220 07:28 04.07.2020
553 Rain 15 1013 77 10000 6.7 230 06:55 04.07.2020
554 Rain 16 1013 72 10000 6.2 220 06:23 04.07.2020
555 Rain 16 1013 67 10000 6.2 220 05:36 04.07.2020
556 Clouds 16 1013 63 10000 6.7 230 04:44 04.07.2020
557 Clouds 16 1013 72 10000 4.6 220 03:18 04.07.2020
558 Clouds 16 1014 77 10000 4.1 220 02:26 04.07.2020
559 Clouds 16 1014 82 10000 3.6 210 01:32 04.07.2020
560 Clouds 16 1014 87 10000 3.1 200 00:44 04.07.2020
561 Clouds 17 1014 82 10000 2.6 210 00:25 04.07.2020
562 Clouds 17 1014 77 10000 2.6 210 23:41 03.07.2020
563 Clouds 17 1014 87 10000 2.1 200 23:19 03.07.2020
564 Clouds 17 1014 87 10000 2.1 200 22:59 03.07.2020
565 Clouds 18 1014 82 10000 2.1 220 22:39 03.07.2020
566 Clouds 19 1014 77 10000 2.6 210 22:21 03.07.2020
567 Clouds 18 1014 77 10000 2.1 210 21:54 03.07.2020
568 Clouds 19 1014 77 10000 2.1 210 21:36 03.07.2020
569 Clouds 19 1014 72 10000 3.6 230 21:18 03.07.2020
570 Clouds 20 1014 72 10000 3.6 210 20:42 03.07.2020
571 Clouds 20 1014 72 10000 3.6 210 20:23 03.07.2020
572 Rain 19 1014 72 10000 3.6 220 19:42 03.07.2020
573 Clouds 20 1014 72 10000 3.6 220 19:21 03.07.2020
574 Clouds 20 1014 77 10000 3.1 210 18:58 03.07.2020
575 Clouds 20 1014 77 10000 3.1 210 18:40 03.07.2020
576 Rain 19 1014 82 10000 8.2 230 18:22 03.07.2020
577 Rain 20 1014 60 10000 6.7 230 17:45 03.07.2020
578 Clouds 21 1014 56 10000 7.2 230 17:23 03.07.2020
579 Clouds 22 1014 56 10000 7.2 230 16:59 03.07.2020
580 Clouds 22 1014 53 10000 7.7 230 16:39 03.07.2020
581 Clouds 22 1014 53 10000 7.7 230 16:20 03.07.2020
582 Clouds 21 1014 56 10000 6.7 230 15:42 03.07.2020
583 Clouds 21 1015 60 10000 8.2 230 15:22 03.07.2020
584 Clouds 21 1015 60 10000 8.2 230 15:22 03.07.2020
585 Clouds 21 1015 56 10000 7.7 220 14:55 03.07.2020
586 Clouds 21 1015 56 10000 7.7 220 14:37 03.07.2020
587 Clouds 20 1015 60 10000 6.2 230 14:18 03.07.2020
588 Clouds 20 1015 64 10000 7.2 240 13:41 03.07.2020
589 Clouds 20 1015 64 10000 6.2 230 13:23 03.07.2020
590 Clouds 20 1015 68 10000 5.7 250 12:45 03.07.2020
591 Clouds 19 1015 63 10000 5.7 240 12:23 03.07.2020
592 Clouds 19 1015 72 10000 4.6 260 11:57 03.07.2020
593 Clouds 18 1015 72 10000 4.6 260 11:39 03.07.2020
594 Rain 18 1015 77 10000 5.7 220 11:19 03.07.2020
595 Clouds 18 1015 77 10000 4.1 250 10:55 03.07.2020
596 Clouds 17 1015 77 10000 4.1 250 10:36 03.07.2020
597 Clouds 17 1015 82 10000 4.1 240 10:18 03.07.2020
598 Clouds 16 1014 87 10000 3.6 250 09:40 03.07.2020
599 Clouds 15 1014 87 10000 3.1 250 09:22 03.07.2020
600 Clouds 15 1014 87 10000 3.1 250 08:58 03.07.2020
601 Clouds 15 1014 87 10000 2.6 250 08:38 03.07.2020
602 Clouds 14 1014 87 10000 2.1 230 08:18 03.07.2020
603 Clouds 14 1014 93 10000 1 0 07:47 03.07.2020
604 Clouds 14 1014 93 10000 3.41 229 07:23 03.07.2020
605 Clouds 12 1014 93 10000 0.5 0 06:40 03.07.2020
606 Mist 11 1013 100 3500 1 0 05:56 03.07.2020
607 Clear 12 1013 93 10000 2.6 210 04:28 03.07.2020
608 Clear 13 1013 100 10000 1.5 230 02:57 03.07.2020
609 Clear 13 1013 100 10000 1.5 230 02:32 03.07.2020
610 Clouds 13 1012 100 8000 2.1 220 01:54 03.07.2020
611 Clouds 14 1012 100 8000 2.6 220 01:23 03.07.2020
612 Clouds 14 1012 100 8000 1.5 210 00:44 03.07.2020
613 Clouds 14 1012 93 10000 1.5 210 00:20 03.07.2020
614 Clouds 14 1012 93 10000 2.1 270 23:43 02.07.2020
615 Rain 15 1012 87 10000 3.1 290 23:20 02.07.2020
616 Thunderstorm 15 1011 93 10000 2.6 280 22:57 02.07.2020
617 Thunderstorm 15 1011 93 10000 2.6 280 22:39 02.07.2020
618 Thunderstorm 15 1011 93 4000 4.6 330 22:20 02.07.2020
619 Thunderstorm 15 1011 93 4000 4.6 330 22:20 02.07.2020
620 Rain 16 1010 88 10000 1.5 240 21:54 02.07.2020
621 Rain 16 1010 88 10000 1.5 240 21:36 02.07.2020
622 Rain 16 1010 88 10000 1.5 240 21:36 02.07.2020
623 Thunderstorm 17 1010 77 10000 2.6 200 21:18 02.07.2020
624 Clouds 18 1010 77 10000 2.1 220 20:42 02.07.2020
625 Clouds 19 1010 72 10000 2.6 220 20:21 02.07.2020
626 Clouds 19 1010 72 10000 3.1 260 19:57 02.07.2020
627 Clouds 18 1010 82 10000 2.6 270 19:38 02.07.2020
628 Clouds 18 1010 82 10000 2.6 270 19:20 02.07.2020
629 Clouds 18 1010 82 10000 3.1 290 18:57 02.07.2020
630 Clouds 18 1010 82 10000 3.1 290 18:38 02.07.2020
631 Clouds 18 1010 82 10000 3.6 290 18:20 02.07.2020
632 Clouds 18 1009 77 10000 4.6 290 17:40 02.07.2020
633 Rain 18 1010 82 10000 3.6 290 17:20 02.07.2020
634 Rain 18 1010 82 7000 7.2 300 16:56 02.07.2020
635 Rain 18 1010 82 7000 7.2 300 16:38 02.07.2020
636 Rain 20 1008 53 10000 7.7 230 16:19 02.07.2020
637 Rain 22 1009 53 10000 5.7 230 15:55 02.07.2020
638 Rain 22 1009 53 10000 5.7 230 15:36 02.07.2020
639 Clouds 22 1009 50 10000 6.7 230 15:18 02.07.2020
640 Rain 21 1009 56 10000 7.2 240 14:43 02.07.2020
641 Rain 21 1009 64 10000 6.7 240 14:20 02.07.2020
642 Rain 21 1009 68 10000 5.1 230 13:56 02.07.2020
643 Rain 21 1009 68 10000 5.1 230 13:37 02.07.2020
644 Rain 21 1009 64 10000 5.1 240 13:18 02.07.2020
645 Rain 20 1009 68 10000 6.2 240 12:41 02.07.2020
646 Rain 19 1009 82 10000 4.6 230 12:22 02.07.2020
647 Rain 19 1009 82 10000 4.6 230 12:22 02.07.2020
648 Clouds 19 1009 72 10000 5.1 260 11:55 02.07.2020
649 Clouds 19 1009 72 10000 5.1 260 11:37 02.07.2020
650 Clouds 19 1009 72 10000 5.7 240 11:19 02.07.2020
651 Clouds 18 1008 72 10000 4.1 250 10:42 02.07.2020
652 Rain 17 1008 82 10000 4.6 230 10:23 02.07.2020
653 Clouds 17 1008 77 10000 5.1 230 09:44 02.07.2020
654 Clouds 17 1008 77 10000 5.7 230 09:23 02.07.2020
655 Clouds 17 1008 77 10000 5.7 230 08:59 02.07.2020
656 Clouds 16 1008 87 10000 4.6 240 08:40 02.07.2020
657 Rain 16 1008 82 10000 4.1 240 08:20 02.07.2020
658 Rain 15 1008 87 10000 4.6 240 07:42 02.07.2020
659 Rain 14 1007 87 10000 3.1 230 07:22 02.07.2020
660 Clouds 14 1007 87 10000 2.6 210 06:47 02.07.2020
661 Clouds 14 1007 87 10000 2.1 200 06:27 02.07.2020
662 Clouds 14 1007 87 10000 2.1 200 05:49 02.07.2020
663 Clouds 14 1007 87 10000 2.6 210 04:55 02.07.2020
664 Clear 14 1007 87 10000 2.6 220 03:34 02.07.2020
665 Clouds 14 1007 82 10000 3.1 210 01:51 02.07.2020
666 Clouds 15 1007 82 10000 2.6 220 00:44 02.07.2020
667 Clouds 15 1007 82 10000 3.1 230 00:19 02.07.2020
668 Clouds 16 1006 82 10000 3.6 240 23:43 01.07.2020
669 Clouds 17 1006 77 10000 4.1 260 23:23 01.07.2020
670 Clouds 18 1006 68 10000 5.1 280 22:55 01.07.2020
671 Clouds 18 1006 68 10000 5.1 280 22:37 01.07.2020
672 Clouds 18 1006 68 10000 5.1 280 22:18 01.07.2020
673 Clouds 18 1005 63 10000 7.7 260 21:57 01.07.2020
674 Clouds 19 1005 63 10000 7.7 260 21:39 01.07.2020
675 Clouds 20 1005 60 10000 7.7 260 21:20 01.07.2020
676 Clouds 20 1005 64 10000 7.7 270 20:46 01.07.2020
677 Clouds 20 1005 64 10000 7.7 270 20:28 01.07.2020
678 Clouds 21 1004 73 10000 7.2 220 19:58 01.07.2020
679 Clouds 21 1004 73 10000 7.2 220 19:40 01.07.2020
680 Clouds 20 1004 82 10000 5.7 210 19:20 01.07.2020
681 Clouds 21 1004 82 10000 5.1 210 18:56 01.07.2020
682 Clouds 21 1004 82 10000 5.1 210 18:38 01.07.2020
683 Clouds 21 1004 82 10000 6.2 210 18:20 01.07.2020
684 Clouds 20 1004 82 10000 6.7 210 17:55 01.07.2020
685 Clouds 20 1004 82 10000 6.7 210 17:37 01.07.2020
686 Rain 21 1004 82 10000 4.6 220 17:18 01.07.2020
687 Rain 19 1004 88 10000 5.7 210 16:42 01.07.2020
688 Clouds 19 1004 88 10000 7.2 210 16:23 01.07.2020
689 Rain 19 1004 100 10000 6.2 210 15:43 01.07.2020
690 Rain 19 1004 88 10000 5.7 220 15:23 01.07.2020
691 Rain 20 1004 88 10000 5.7 220 14:58 01.07.2020
692 Clouds 20 1005 82 10000 4.1 220 14:39 01.07.2020
693 Clouds 20 1005 88 10000 3.1 190 14:20 01.07.2020
694 Rain 19 1005 88 10000 3.6 200 13:55 01.07.2020
695 Rain 19 1005 88 10000 3.6 200 13:37 01.07.2020
696 Rain 18 1005 88 10000 4.1 210 13:18 01.07.2020
697 Rain 19 1005 88 10000 3.1 200 12:41 01.07.2020
698 Rain 18 1005 93 10000 4.1 200 12:23 01.07.2020
699 Rain 18 1005 93 10000 4.1 200 11:59 01.07.2020
700 Rain 18 1005 88 10000 4.1 190 11:40 01.07.2020
701 Clouds 18 1005 88 10000 4.6 180 11:21 01.07.2020
702 Rain 17 1005 88 10000 3.6 180 10:57 01.07.2020
703 Rain 17 1005 88 10000 3.6 180 10:57 01.07.2020
704 Rain 17 1005 88 10000 3.6 180 10:39 01.07.2020
705 Clouds 17 1006 93 10000 3.1 220 10:20 01.07.2020
706 Clouds 17 1005 88 10000 2.6 210 09:39 01.07.2020
707 Clouds 16 1005 93 10000 3.1 200 09:20 01.07.2020
708 Clouds 16 1005 93 10000 3.1 200 08:59 01.07.2020
709 Clouds 16 1005 87 10000 2.1 210 08:40 01.07.2020
710 Clouds 15 1005 93 10000 3.1 190 08:20 01.07.2020
711 Clouds 15 1005 93 10000 2.1 210 07:43 01.07.2020
712 Clouds 15 1005 93 10000 2.1 210 07:25 01.07.2020
713 Clouds 14 1005 100 10000 2.1 220 06:59 01.07.2020
714 Clouds 14 1005 100 10000 2.1 220 06:40 01.07.2020
715 Clouds 14 1005 93 10000 2.6 200 06:20 01.07.2020
716 Clouds 14 1005 93 10000 3.1 210 04:30 01.07.2020
717 Clouds 14 1005 93 10000 3.6 250 03:44 01.07.2020
718 Drizzle 14 1005 93 5000 2.1 250 03:22 01.07.2020
719 Clouds 14 1005 93 10000 1.5 260 02:33 01.07.2020
720 Drizzle 14 1005 93 3800 5.7 300 01:25 01.07.2020
721 Rain 15 1005 93 10000 5.7 220 00:38 01.07.2020
722 Clouds 15 1005 93 8000 5.7 210 00:20 01.07.2020
723 Rain 15 1005 93 10000 4.6 200 23:40 30.06.2020
724 Rain 15 1005 93 10000 4.6 200 23:40 30.06.2020
725 Rain 15 1006 93 10000 3.6 200 23:20 30.06.2020
726 Clouds 15 1006 87 10000 3.6 220 22:42 30.06.2020
727 Clouds 15 1006 87 10000 2.1 210 22:20 30.06.2020
728 Clouds 15 1006 82 10000 2.1 210 21:55 30.06.2020
729 Clouds 15 1006 82 10000 2.1 210 21:37 30.06.2020
730 Clouds 16 1006 82 10000 3.1 240 21:19 30.06.2020
731 Clouds 15 1007 87 10000 3.1 250 20:43 30.06.2020
732 Rain 16 1007 82 10000 6.7 240 20:21 30.06.2020
733 Clouds 16 1007 82 10000 5.1 240 19:55 30.06.2020
734 Clouds 16 1007 82 10000 5.1 240 19:36 30.06.2020
735 Clouds 17 1007 63 10000 7.2 250 19:18 30.06.2020
736 Clouds 17 1007 68 10000 7.2 240 18:42 30.06.2020
737 Clouds 17 1007 63 10000 8.7 250 18:20 30.06.2020
738 Clouds 18 1007 63 10000 10.3 240 17:54 30.06.2020
739 Clouds 18 1007 63 10000 10.3 240 17:36 30.06.2020
740 Clouds 18 1007 59 10000 8.7 230 17:18 30.06.2020
741 Rain 17 1007 82 8000 9.8 230 16:41 30.06.2020
742 Rain 18 1006 59 10000 6.2 230 16:21 30.06.2020
743 Clouds 18 1007 55 10000 7.2 240 15:57 30.06.2020
744 Clouds 18 1007 55 10000 7.2 240 15:38 30.06.2020
745 Clouds 18 1007 59 10000 6.2 240 15:20 30.06.2020
746 Clouds 17 1007 59 10000 6.7 230 14:44 30.06.2020
747 Clouds 17 1007 63 10000 7.7 230 14:22 30.06.2020
748 Clouds 17 1007 63 10000 7.7 230 13:59 30.06.2020
749 Clouds 16 1007 67 10000 8.7 240 13:38 30.06.2020
750 Clouds 16 1007 67 10000 9.3 230 13:19 30.06.2020
751 Clouds 15 1007 67 10000 9.3 240 12:57 30.06.2020
752 Clouds 15 1007 67 10000 9.3 240 12:39 30.06.2020
753 Clouds 15 1007 67 10000 8.7 230 12:20 30.06.2020
754 Clouds 16 1007 67 10000 7.7 220 11:57 30.06.2020
755 Clouds 15 1007 67 10000 7.7 220 11:38 30.06.2020
756 Clouds 15 1007 67 10000 9.3 220 11:18 30.06.2020
757 Clouds 15 1007 72 10000 7.7 220 10:55 30.06.2020
758 Clouds 22 1012 49 10000 8.2 250 16:38 28.06.2020
759 Clouds 22 1012 46 10000 6.2 230 16:19 28.06.2020
760 Clouds 22 1012 49 10000 5.7 210 15:55 28.06.2020
761 Clouds 22 1012 49 10000 5.7 210 15:37 28.06.2020
762 Clouds 22 1012 49 10000 6.2 230 15:18 28.06.2020
763 Clouds 21 1012 49 10000 7.7 220 14:42 28.06.2020
764 Clouds 21 1012 46 10000 8.2 230 14:24 28.06.2020
765 Clouds 21 1012 56 10000 6.2 240 13:55 28.06.2020
766 Clouds 21 1012 56 10000 6.2 240 13:36 28.06.2020
767 Clouds 20 1011 60 10000 4.6 250 13:18 28.06.2020
768 Clouds 20 1011 60 10000 6.7 230 12:55 28.06.2020
769 Clouds 20 1011 60 10000 6.7 230 12:36 28.06.2020
770 Clouds 20 1011 60 10000 7.2 230 12:18 28.06.2020
771 Clouds 20 1011 64 10000 6.2 230 11:43 28.06.2020
772 Clouds 20 1011 64 10000 5.7 240 11:21 28.06.2020
773 Clouds 20 1011 64 10000 5.7 240 11:21 28.06.2020
774 Clouds 20 1011 64 10000 5.7 240 10:59 28.06.2020
775 Clouds 20 1010 64 10000 5.7 240 10:41 28.06.2020
776 Clouds 20 1010 64 10000 5.7 240 10:41 28.06.2020
777 Clouds 19 1010 72 10000 4.6 260 10:22 28.06.2020
778 Rain 19 1010 72 10000 4.1 240 09:42 28.06.2020
779 Rain 18 1010 72 10000 4.6 260 09:23 28.06.2020
780 Rain 18 1010 72 10000 4.6 260 09:23 28.06.2020
781 Rain 19 1010 72 10000 4.6 260 08:57 28.06.2020
782 Clouds 19 1009 72 10000 3.1 230 08:39 28.06.2020
783 Clouds 19 1009 72 10000 3.6 270 08:20 28.06.2020
784 Clouds 18 1009 93 10000 1 0 07:39 28.06.2020
785 Rain 17 1009 100 10000 1 0 06:58 28.06.2020
786 Rain 17 1009 93 10000 1 0 06:32 28.06.2020
787 Rain 17 1009 100 10000 1 120 05:54 28.06.2020
788 Clouds 17 1009 100 10000 1 270 04:36 28.06.2020
789 Clouds 17 1009 88 10000 3.1 150 03:18 28.06.2020
790 Rain 17 1009 93 10000 2.6 150 02:23 28.06.2020
791 Clouds 18 1009 93 10000 3.1 140 01:46 28.06.2020
792 Clouds 18 1009 88 10000 2.6 140 01:22 28.06.2020
793 Clouds 18 1009 93 10000 1.5 150 00:42 28.06.2020
794 Clouds 18 1009 93 10000 1 0 00:21 28.06.2020
795 Clouds 18 1009 93 10000 1 240 23:40 27.06.2020
796 Clouds 18 1009 93 10000 1 0 23:21 27.06.2020
797 Clouds 18 1009 88 10000 1 0 22:56 27.06.2020
798 Clouds 18 1009 88 10000 1 0 22:38 27.06.2020
799 Clouds 18 1009 93 10000 3.1 270 22:19 27.06.2020
800 Clouds 19 1008 77 10000 2.6 330 21:42 27.06.2020
801 Rain 20 1008 82 10000 3.1 330 21:20 27.06.2020
802 Rain 21 1008 82 10000 7.2 310 20:57 27.06.2020
803 Rain 21 1008 82 10000 7.2 310 20:37 27.06.2020
804 Thunderstorm 23 1007 64 10000 4.6 10 20:18 27.06.2020
805 Clouds 23 1007 69 10000 4.1 20 19:54 27.06.2020
806 Clouds 24 1007 69 10000 4.1 20 19:36 27.06.2020
807 Clouds 26 1007 51 10000 3.6 210 19:18 27.06.2020
808 Clouds 27 1007 51 10000 4.6 200 18:43 27.06.2020
809 Clouds 27 1007 54 10000 2.6 190 18:22 27.06.2020
810 Clouds 27 1007 61 10000 1.5 190 17:55 27.06.2020
811 Clouds 26 1007 61 10000 1.5 190 17:37 27.06.2020
812 Clouds 25 1007 69 10000 2.1 160 17:18 27.06.2020
813 Clouds 25 1008 69 10000 1 0 16:42 27.06.2020
814 Thunderstorm 23 1008 82 10000 4.1 200 16:24 27.06.2020
815 Thunderstorm 25 1008 61 10000 4.1 210 15:54 27.06.2020
816 Thunderstorm 26 1008 61 10000 4.1 210 15:36 27.06.2020
817 Clouds 27 1008 54 10000 4.6 210 15:18 27.06.2020
818 Clouds 28 1008 45 10000 5.1 230 14:41 27.06.2020
819 Clouds 28 1008 51 10000 4.1 200 14:22 27.06.2020
820 Clouds 27 1008 54 10000 5.1 200 13:57 27.06.2020
821 Clouds 27 1008 54 10000 5.1 200 13:37 27.06.2020
822 Clouds 27 1008 57 10000 5.1 190 13:19 27.06.2020
823 Clouds 27 1008 61 10000 4.1 190 12:56 27.06.2020
824 Clouds 27 1008 61 10000 4.1 190 12:37 27.06.2020
825 Clouds 25 1008 73 10000 3.1 210 12:19 27.06.2020
826 Clouds 23 1008 83 10000 2.6 180 11:41 27.06.2020
827 Clouds 22 1009 88 10000 1.5 200 11:23 27.06.2020
828 Rain 21 1009 88 10000 1 0 10:57 27.06.2020
829 Rain 21 1009 88 10000 1 0 10:38 27.06.2020
830 Rain 22 1009 73 10000 5.7 240 10:18 27.06.2020
831 Clouds 22 1009 73 10000 5.1 210 09:41 27.06.2020
832 Clouds 22 1009 68 10000 3.6 210 09:21 27.06.2020
833 Clouds 22 1009 68 10000 3.6 210 09:21 27.06.2020
834 Clouds 22 1009 68 10000 3.1 190 08:56 27.06.2020
835 Clouds 22 1009 68 10000 3.1 190 08:38 27.06.2020
836 Clouds 21 1008 73 10000 3.1 160 08:19 27.06.2020
837 Clouds 20 1009 72 10000 2.1 120 07:38 27.06.2020
838 Clouds 20 1009 72 10000 2.1 120 07:19 27.06.2020
839 Clouds 18 1008 77 10000 2.1 90 06:38 27.06.2020
840 Clouds 18 1009 82 10000 2.1 110 06:18 27.06.2020
841 Clouds 18 1009 77 10000 1 0 04:22 27.06.2020
842 Clouds 19 1009 72 10000 2.1 110 03:51 27.06.2020
843 Clouds 19 1010 72 10000 3.1 100 02:49 27.06.2020
844 Clouds 20 1010 72 10000 3.1 100 02:29 27.06.2020
845 Clouds 19 1010 72 10000 1.5 150 01:41 27.06.2020
846 Clear 20 1010 64 10000 1.5 140 00:56 27.06.2020
847 Clear 21 1010 60 10000 3.1 120 00:28 27.06.2020
848 Clear 22 1010 53 10000 3.1 120 23:41 26.06.2020
849 Clear 22 1010 53 10000 2.6 120 23:22 26.06.2020
850 Clear 22 1011 64 10000 3.1 100 22:56 26.06.2020
851 Clear 23 1011 64 10000 3.1 100 22:38 26.06.2020
852 Clear 24 1010 50 10000 1.5 130 22:19 26.06.2020
853 Clear 26 1010 44 10000 1.5 130 21:57 26.06.2020
854 Clear 26 1010 44 10000 1.5 130 21:37 26.06.2020
855 Clear 26 1010 44 10000 2.6 150 21:19 26.06.2020
856 Clear 27 1010 44 10000 3.1 160 20:43 26.06.2020
857 Rain 28 1010 39 10000 3.6 140 20:21 26.06.2020
858 Rain 29 1010 35 10000 4.6 130 19:47 26.06.2020
859 Rain 29 1010 35 10000 3.6 130 19:23 26.06.2020
860 Rain 29 1010 37 10000 4.1 120 18:57 26.06.2020
861 Rain 29 1010 37 10000 4.1 120 18:37 26.06.2020
862 Clear 29 1011 37 10000 5.1 120 18:19 26.06.2020
863 Clear 28 1011 39 10000 3.6 120 17:44 26.06.2020
864 Clear 29 1012 37 10000 4.6 110 17:24 26.06.2020
865 Clear 29 1012 37 10000 5.1 120 16:49 26.06.2020
866 Clear 29 1012 37 10000 5.1 120 16:27 26.06.2020
867 Clear 30 1012 33 10000 5.7 130 15:55 26.06.2020
868 Clear 30 1012 33 10000 5.7 130 15:37 26.06.2020
869 Clear 29 1012 33 10000 6.2 150 15:19 26.06.2020
870 Clear 28 1013 35 10000 5.1 120 14:57 26.06.2020
871 Clear 29 1013 35 10000 5.1 120 14:38 26.06.2020
872 Clear 28 1013 35 10000 4.6 150 14:20 26.06.2020
873 Clear 28 1013 34 10000 5.1 140 13:44 26.06.2020
874 Clear 28 1014 37 10000 6.7 140 13:23 26.06.2020
875 Clear 27 1014 39 10000 6.7 150 12:56 26.06.2020
876 Clear 27 1014 39 10000 6.7 150 12:37 26.06.2020
877 Clear 27 1014 39 10000 6.2 130 12:18 26.06.2020
878 Clear 27 1015 42 10000 5.7 140 11:55 26.06.2020
879 Clear 26 1015 42 10000 5.7 140 11:36 26.06.2020
880 Clear 26 1015 44 10000 6.2 150 11:18 26.06.2020
881 Clear 25 1015 47 10000 5.7 130 10:55 26.06.2020
882 Clear 26 1015 47 10000 5.7 130 10:37 26.06.2020
883 Clear 26 1015 47 10000 4.6 130 10:18 26.06.2020
884 Clear 24 1016 50 10000 4.1 130 09:41 26.06.2020
885 Clear 22 1016 56 10000 5.1 140 09:20 26.06.2020
886 Clear 21 1016 56 10000 3.6 130 08:45 26.06.2020
887 Clear 20 1016 64 10000 4.1 120 08:27 26.06.2020
888 Clear 20 1016 64 10000 3.6 100 07:48 26.06.2020
889 Clear 19 1016 68 10000 3.6 100 07:23 26.06.2020
890 Clear 17 1016 68 10000 3.1 110 06:52 26.06.2020
891 Clear 17 1016 72 10000 2.6 110 06:30 26.06.2020
892 Clear 17 1016 72 10000 2.6 110 05:55 26.06.2020
893 Clear 18 1016 72 10000 2.6 110 05:29 26.06.2020
894 Clear 19 1017 72 10000 2.6 100 02:40 26.06.2020
895 Clear 19 1017 72 10000 2.6 100 01:39 26.06.2020
896 Clear 20 1017 68 10000 2.1 90 00:55 26.06.2020
897 Clear 20 1017 68 10000 2.1 90 00:32 26.06.2020
898 Clear 22 1018 57 10000 2.1 130 23:48 25.06.2020
899 Clear 22 1018 57 10000 3.1 100 23:23 25.06.2020
900 Clear 23 1018 57 10000 3.1 100 22:59 25.06.2020
901 Clear 23 1018 53 10000 3.1 110 22:39 25.06.2020
902 Clear 23 1018 53 10000 2.1 100 22:20 25.06.2020
903 Clear 23 1018 53 10000 2.1 100 22:20 25.06.2020
904 Clear 25 1017 47 10000 2.6 110 21:58 25.06.2020
905 Clear 26 1017 47 10000 2.6 110 21:40 25.06.2020
906 Clear 26 1017 47 10000 2.6 110 21:40 25.06.2020
907 Clouds 26 1017 44 10000 3.1 110 21:21 25.06.2020
908 Clouds 27 1017 44 10000 3.1 110 20:59 25.06.2020
909 Clouds 27 1017 44 10000 3.6 130 20:41 25.06.2020
910 Rain 27 1017 42 10000 5.1 110 20:22 25.06.2020
911 Rain 28 1018 45 10000 4.6 110 19:56 25.06.2020
912 Rain 27 1018 45 10000 4.6 110 19:37 25.06.2020
913 Clouds 27 1018 45 10000 5.1 130 19:18 25.06.2020
914 Clouds 27 1018 51 10000 5.1 90 18:40 25.06.2020
915 Clouds 27 1018 51 10000 6.2 90 18:21 25.06.2020
916 Clouds 27 1018 51 10000 6.7 90 17:55 25.06.2020
917 Clouds 27 1018 51 10000 6.7 90 17:37 25.06.2020
918 Clouds 27 1019 48 10000 5.7 100 17:19 25.06.2020
919 Clouds 27 1019 48 10000 6.2 90 16:41 25.06.2020
920 Clouds 28 1019 51 10000 6.7 100 16:20 25.06.2020
921 Clouds 28 1019 51 10000 6.2 100 15:45 25.06.2020
922 Rain 27 1019 48 10000 5.1 90 15:27 25.06.2020
923 Rain 28 1019 48 10000 5.1 90 14:58 25.06.2020
924 Clear 27 1020 47 10000 6.7 90 14:40 25.06.2020
925 Clouds 27 1020 47 10000 7.7 60 14:22 25.06.2020
926 Clouds 27 1020 45 10000 6.7 70 13:56 25.06.2020
927 Clouds 27 1020 45 10000 6.7 70 13:37 25.06.2020
928 Clear 27 1021 45 10000 5.1 50 13:19 25.06.2020
929 Clear 27 1021 47 10000 5.1 80 12:44 25.06.2020
930 Clear 26 1021 50 10000 5.1 60 12:20 25.06.2020
931 Clear 25 1021 53 10000 5.1 70 11:56 25.06.2020
932 Clear 25 1021 53 10000 5.1 70 11:38 25.06.2020
933 Clear 25 1022 53 10000 4.6 60 11:20 25.06.2020
934 Clear 25 1022 53 10000 3.6 50 10:42 25.06.2020
935 Clear 24 1022 60 10000 3.1 60 10:23 25.06.2020
936 Clear 22 1022 60 10000 2.6 40 09:41 25.06.2020
937 Clear 21 1022 64 10000 3.1 60 09:23 25.06.2020
938 Clear 20 1022 68 10000 4.1 70 08:47 25.06.2020
939 Clouds 19 1022 72 10000 3.6 60 08:21 25.06.2020
940 Clouds 18 1023 72 10000 4.6 60 07:57 25.06.2020
941 Clouds 18 1023 72 10000 4.6 60 07:38 25.06.2020
942 Clouds 18 1023 77 10000 4.1 60 07:20 25.06.2020
943 Clouds 17 1023 82 10000 2.6 50 06:30 25.06.2020
944 Clouds 16 1023 82 10000 2.6 50 05:55 25.06.2020
945 Clouds 16 1023 82 10000 2.6 50 05:29 25.06.2020
946 Clouds 17 1023 77 10000 3.6 70 03:36 25.06.2020
947 Clouds 18 1024 77 10000 3.6 70 02:45 25.06.2020
948 Clouds 18 1024 77 10000 3.1 70 02:19 25.06.2020
949 Clouds 19 1024 72 10000 4.6 80 01:41 25.06.2020
950 Clouds 19 1024 64 10000 4.1 80 00:50 25.06.2020
951 Clouds 20 1024 64 10000 4.6 70 00:22 25.06.2020
952 Clouds 20 1024 68 10000 3.1 70 23:58 24.06.2020
953 Clouds 19 1024 68 10000 3.1 70 23:38 24.06.2020
954 Clouds 21 1023 60 10000 2.6 100 23:19 24.06.2020
955 Clouds 22 1023 56 10000 2.6 110 22:42 24.06.2020
956 Clouds 22 1023 56 10000 2.6 110 22:42 24.06.2020
957 Clouds 23 1023 47 10000 4.1 110 22:21 24.06.2020
958 Clouds 23 1023 47 10000 3.1 90 21:57 24.06.2020
959 Clouds 24 1023 47 10000 3.1 90 21:37 24.06.2020
960 Clouds 25 1023 41 10000 4.1 100 21:19 24.06.2020
961 Clouds 25 1023 41 10000 4.1 100 20:59 24.06.2020
962 Clouds 25 1023 39 10000 4.6 110 20:40 24.06.2020
963 Clouds 26 1023 39 10000 5.1 90 20:22 24.06.2020
964 Clouds 26 1023 39 10000 5.1 90 19:59 24.06.2020
965 Clouds 27 1023 36 10000 3.6 90 19:39 24.06.2020
966 Clouds 26 1023 36 10000 4.1 90 19:21 24.06.2020
967 Clouds 26 1023 36 10000 4.6 90 18:58 24.06.2020
968 Clouds 26 1023 36 10000 4.6 90 18:58 24.06.2020
969 Clouds 27 1023 36 10000 4.6 90 18:40 24.06.2020
970 Clouds 27 1023 36 10000 5.1 90 18:21 24.06.2020
971 Clouds 27 1023 36 10000 3.6 90 17:56 24.06.2020
972 Clouds 27 1023 36 10000 3.6 90 17:38 24.06.2020
973 Clear 27 1023 34 10000 5.1 80 17:19 24.06.2020
974 Clear 27 1024 34 10000 4.1 100 16:56 24.06.2020
975 Clear 27 1024 34 10000 4.1 100 16:38 24.06.2020
976 Clear 27 1024 32 10000 4.1 70 16:20 24.06.2020
977 Clear 27 1024 30 10000 5.7 90 15:56 24.06.2020
978 Clear 26 1024 30 10000 5.7 90 15:37 24.06.2020
979 Clear 26 1024 30 10000 4.1 100 15:19 24.06.2020
980 Clear 26 1024 29 10000 3.6 90 14:43 24.06.2020
981 Clear 25 1024 29 10000 4.1 90 14:24 24.06.2020
982 Clear 26 1025 27 10000 3.6 0 13:43 24.06.2020
983 Clear 25 1025 31 10000 3.1 90 13:22 24.06.2020
984 Clear 25 1025 36 10000 3.6 50 12:57 24.06.2020
985 Clear 25 1025 36 10000 3.6 50 12:38 24.06.2020
986 Clear 24 1025 38 10000 3.6 60 12:20 24.06.2020
987 Clear 23 1025 41 10000 3.1 80 11:55 24.06.2020
988 Clear 24 1025 41 10000 3.1 80 11:37 24.06.2020
989 Clear 23 1025 40 10000 3.6 80 11:18 24.06.2020
990 Clear 22 1025 46 10000 3.6 90 10:43 24.06.2020
991 Clear 23 1026 46 10000 4.6 80 10:19 24.06.2020
992 Clear 21 1025 49 10000 3.1 100 09:43 24.06.2020
993 Clear 20 1026 52 10000 3.1 110 09:22 24.06.2020
994 Clear 19 1025 56 10000 2.6 60 08:44 24.06.2020
995 Clear 18 1025 59 10000 1.5 70 08:26 24.06.2020
996 Clear 17 1025 63 10000 1.5 60 07:55 24.06.2020
997 Clear 16 1025 77 10000 0.5 0 07:37 24.06.2020
998 Clear 16 1025 77 10000 0.5 0 07:18 24.06.2020
999 Clear 13 1025 82 10000 2.1 60 06:39 24.06.2020
1000 Clear 13 1025 76 10000 1.5 60 06:21 24.06.2020
1001 Clear 13 1025 71 10000 1.5 70 05:32 24.06.2020
1002 Clear 13 1025 71 10000 2.1 90 04:37 24.06.2020
1003 Clear 13 1025 71 10000 1 0 03:37 24.06.2020
1004 Clear 15 1025 63 10000 1.5 70 02:52 24.06.2020
1005 Clear 15 1025 77 10000 0.5 0 01:59 24.06.2020
1006 Clear 16 1025 63 10000 2.1 40 00:50 24.06.2020
1007 Clear 17 1025 63 10000 2.1 50 00:31 24.06.2020
1008 Clear 17 1025 59 10000 2.6 30 23:47 23.06.2020
1009 Clear 18 1025 59 10000 3.1 30 23:21 23.06.2020
1010 Clear 19 1025 56 10000 4.1 40 22:58 23.06.2020
1011 Clear 19 1025 56 10000 4.1 40 22:40 23.06.2020
1012 Clear 21 1025 52 10000 4.1 40 22:18 23.06.2020
1013 Clear 21 1025 53 10000 4.1 40 21:54 23.06.2020
1014 Clear 22 1025 53 10000 4.1 40 21:36 23.06.2020
1015 Clear 22 1024 46 10000 5.1 30 21:18 23.06.2020
1016 Clear 23 1024 38 10000 3.6 30 20:54 23.06.2020
1017 Clear 23 1024 38 10000 3.6 30 20:36 23.06.2020
1018 Clear 24 1024 36 10000 4.1 30 20:18 23.06.2020
1019 Clear 25 1024 36 10000 3.1 10 19:41 23.06.2020
1020 Clear 25 1024 36 10000 3.1 10 19:23 23.06.2020
1021 Clear 25 1024 34 10000 3.6 0 18:38 23.06.2020
1022 Clear 25 1024 31 10000 2.1 0 18:19 23.06.2020
1023 Clear 25 1024 31 10000 2.6 320 17:43 23.06.2020
1024 Clear 25 1024 29 10000 4.1 320 17:25 23.06.2020
1025 Clear 25 1025 31 10000 3.1 270 16:57 23.06.2020
1026 Clear 25 1025 31 10000 3.1 270 16:38 23.06.2020
1027 Clear 25 1025 29 10000 3.1 0 16:20 23.06.2020
1028 Clear 24 1025 31 10000 3.6 320 15:59 23.06.2020
1029 Clear 24 1025 31 10000 3.6 320 15:41 23.06.2020
1030 Clear 24 1025 33 10000 3.1 320 15:22 23.06.2020
1031 Clear 25 1025 36 10000 3.1 350 14:54 23.06.2020
1032 Clear 25 1025 36 10000 3.1 350 14:36 23.06.2020
1033 Clear 24 1025 36 10000 3.1 330 14:18 23.06.2020
1034 Clear 24 1026 36 10000 2.6 330 13:42 23.06.2020
1035 Clear 24 1026 38 10000 2.1 50 13:23 23.06.2020
1036 Clear 24 1026 40 10000 2.1 0 12:46 23.06.2020
1037 Clouds 22 1026 46 10000 2.1 0 12:23 23.06.2020
1038 Clouds 22 1026 46 10000 1 0 11:59 23.06.2020
1039 Clouds 23 1026 46 10000 1 0 11:40 23.06.2020
1040 Clouds 22 1026 46 10000 2.1 0 11:20 23.06.2020
1041 Clouds 21 1026 53 10000 1.5 0 10:58 23.06.2020
1042 Clouds 22 1026 53 10000 1.5 0 10:39 23.06.2020
1043 Clear 20 1026 56 10000 1.5 0 10:21 23.06.2020
1044 Clear 20 1026 60 10000 2.1 0 09:55 23.06.2020
1045 Clear 20 1026 60 10000 2.1 0 09:37 23.06.2020
1046 Clear 18 1026 68 10000 2.1 120 09:18 23.06.2020
1047 Clear 16 1026 67 10000 1.5 130 08:42 23.06.2020
1048 Clouds 16 1026 72 10000 0.5 0 08:22 23.06.2020
1049 Clouds 14 1026 87 10000 0.5 0 07:45 23.06.2020
1050 Clouds 13 1026 93 10000 0.5 0 07:24 23.06.2020
1051 Clouds 10 1026 100 10000 1 240 06:52 23.06.2020
1052 Fog 10 1026 93 10000 0.69 252 06:32 23.06.2020
1053 Fog 10 1026 100 10000 0.95 235 05:54 23.06.2020
1054 Fog 10 1026 100 10000 0.74 228 04:42 23.06.2020
1055 Clear 12 1026 93 10000 0.19 312 03:21 23.06.2020
1056 Clear 12 1025 100 10000 0.5 220 02:48 23.06.2020
1057 Clouds 12 1025 93 10000 1.5 230 02:29 23.06.2020
1058 Clear 12 1025 87 10000 0.5 240 01:46 23.06.2020
1059 Clear 13 1025 87 10000 0.5 0 01:22 23.06.2020
1060 Clear 14 1025 82 10000 1 60 00:41 23.06.2020
1061 Clear 15 1025 72 10000 1.5 10 00:20 23.06.2020
1062 Clear 16 1025 63 10000 2.1 10 23:54 22.06.2020
1063 Clear 16 1025 63 10000 2.1 10 23:36 22.06.2020
1064 Clear 16 1025 59 10000 3.1 350 23:18 22.06.2020
1065 Clear 17 1025 59 10000 3.6 350 22:54 22.06.2020
1066 Clear 17 1025 59 10000 3.6 350 22:36 22.06.2020
1067 Clear 18 1025 59 10000 3.6 330 22:18 22.06.2020
1068 Clear 18 1025 59 10000 3.6 330 22:18 22.06.2020
1069 Clear 19 1024 52 10000 4.1 340 21:40 22.06.2020
1070 Clear 20 1024 46 10000 4.1 340 21:22 22.06.2020
1071 Clear 21 1024 49 10000 4.1 330 20:59 22.06.2020
1072 Clear 21 1024 49 10000 4.1 330 20:40 22.06.2020
1073 Clouds 21 1024 49 10000 5.1 360 20:20 22.06.2020
1074 Clouds 22 1024 49 10000 4.6 340 19:44 22.06.2020
1075 Clouds 22 1024 49 10000 4.1 350 19:19 22.06.2020
1076 Clouds 22 1024 49 10000 4.1 350 18:57 22.06.2020
1077 Clouds 23 1024 46 10000 4.6 310 18:38 22.06.2020
1078 Clouds 23 1024 46 10000 4.6 310 18:19 22.06.2020
1079 Clouds 23 1024 49 10000 3.6 10 17:56 22.06.2020
1080 Clouds 23 1024 46 10000 4.1 310 17:37 22.06.2020
1081 Clouds 23 1024 46 10000 4.1 310 17:19 22.06.2020
1082 Clouds 23 1024 40 10000 6.2 300 16:43 22.06.2020
1083 Rain 23 1024 40 10000 6.2 300 16:20 22.06.2020
1084 Rain 24 1024 38 10000 5.1 320 15:59 22.06.2020
1085 Rain 25 1024 38 10000 6.2 270 15:40 22.06.2020
1086 Rain 24 1024 38 10000 6.2 270 15:22 22.06.2020
1087 Rain 24 1024 41 10000 4.6 270 14:41 22.06.2020
1088 Rain 24 1024 41 10000 4.6 270 14:22 22.06.2020
1089 Rain 23 1024 46 10000 4.6 300 13:59 22.06.2020
1090 Clouds 24 1023 41 10000 5.1 280 13:39 22.06.2020
1091 Clouds 23 1023 41 10000 5.1 280 13:21 22.06.2020
1092 Clouds 23 1023 46 10000 4.1 320 12:56 22.06.2020
1093 Clouds 23 1023 46 10000 5.1 310 12:37 22.06.2020
1094 Clouds 22 1023 46 10000 5.1 310 12:19 22.06.2020
1095 Clouds 22 1023 52 10000 4.1 300 11:37 22.06.2020
1096 Clouds 21 1023 52 10000 4.1 300 11:19 22.06.2020
1097 Clouds 21 1023 64 10000 4.1 320 10:56 22.06.2020
1098 Clouds 21 1023 68 10000 4.1 310 10:37 22.06.2020
1099 Clouds 21 1023 68 10000 4.1 310 10:37 22.06.2020
1100 Clouds 20 1023 68 10000 4.1 310 10:19 22.06.2020
1101 Clouds 20 1022 72 10000 2.6 290 09:56 22.06.2020
1102 Clouds 19 1022 77 10000 3.6 300 09:38 22.06.2020
1103 Clouds 18 1022 77 10000 3.6 300 09:18 22.06.2020
1104 Clouds 18 1022 77 10000 3.6 270 08:56 22.06.2020
1105 Clouds 17 1022 82 10000 3.6 270 08:37 22.06.2020
1106 Clouds 17 1022 82 10000 3.6 270 08:18 22.06.2020
1107 Clouds 17 1021 82 10000 2.6 250 07:46 22.06.2020
1108 Clouds 16 1021 87 10000 2.6 250 07:25 22.06.2020
1109 Clouds 15 1020 93 10000 2.1 250 06:39 22.06.2020
1110 Clouds 15 1020 93 10000 2.1 250 06:20 22.06.2020
1111 Rain 15 1020 93 10000 1 260 05:42 22.06.2020
1112 Clouds 15 1020 93 10000 1 270 03:47 22.06.2020
1113 Clouds 18 1020 77 10000 2.6 300 01:53 22.06.2020
1114 Rain 18 1019 68 10000 4.1 320 00:58 22.06.2020
1115 Rain 19 1019 68 10000 8.2 320 00:29 22.06.2020
1116 Rain 20 1018 68 10000 2.1 180 23:57 21.06.2020
1117 Rain 20 1018 60 10000 2.6 140 23:38 21.06.2020
1118 Clouds 20 1018 60 10000 2.6 140 23:20 21.06.2020
1119 Clouds 20 1018 60 10000 2.6 140 22:56 21.06.2020
1120 Clouds 21 1018 60 10000 2.1 140 22:36 21.06.2020
1121 Clouds 21 1018 60 10000 2.1 140 22:18 21.06.2020
1122 Clouds 21 1018 60 10000 1.5 150 21:56 21.06.2020
1123 Clouds 22 1017 60 10000 1.5 190 21:37 21.06.2020
1124 Clear 22 1017 60 10000 1.5 190 21:19 21.06.2020
1125 Clear 23 1017 56 10000 2.6 190 20:57 21.06.2020
1126 Clear 24 1017 47 10000 3.1 190 20:36 21.06.2020
1127 Clouds 24 1017 47 10000 3.1 190 20:18 21.06.2020
1128 Clouds 25 1018 41 10000 2.1 190 19:41 21.06.2020
1129 Clouds 25 1018 41 10000 2.1 190 19:22 21.06.2020
1130 Clouds 25 1018 38 10000 3.6 220 18:59 21.06.2020
1131 Clouds 25 1018 44 10000 2.1 170 18:40 21.06.2020
1132 Clouds 25 1018 44 10000 2.1 170 18:21 21.06.2020
1133 Clouds 25 1018 36 10000 2.6 210 17:58 21.06.2020
1134 Clouds 25 1018 38 10000 3.6 180 17:38 21.06.2020
1135 Clouds 25 1018 38 10000 3.6 180 17:19 21.06.2020
1136 Clouds 25 1019 41 10000 4.1 210 16:41 21.06.2020
1137 Clouds 25 1019 41 10000 4.1 210 16:23 21.06.2020
1138 Clouds 25 1019 41 10000 2.6 0 15:57 21.06.2020
1139 Clouds 24 1019 41 10000 3.6 240 15:37 21.06.2020
1140 Clouds 24 1019 41 10000 3.6 240 15:18 21.06.2020
1141 Clouds 24 1019 41 10000 1.5 240 14:39 21.06.2020
1142 Clouds 24 1019 41 10000 1.5 240 14:20 21.06.2020
1143 Clouds 24 1019 43 10000 2.6 0 13:57 21.06.2020
1144 Clouds 23 1019 43 10000 3.1 260 13:39 21.06.2020
1145 Clouds 23 1019 43 10000 3.1 260 13:19 21.06.2020
1146 Clouds 24 1020 46 10000 2.6 200 12:44 21.06.2020
1147 Clouds 24 1020 46 10000 2.6 200 12:44 21.06.2020
1148 Clouds 21 1020 46 10000 2.6 200 12:26 21.06.2020
1149 Clouds 21 1020 46 10000 2.1 0 11:59 21.06.2020
1150 Clouds 21 1020 46 10000 2.1 220 11:41 21.06.2020
1151 Clouds 21 1020 46 10000 2.1 220 11:23 21.06.2020
1152 Clouds 20 1020 52 10000 2.1 200 10:57 21.06.2020
1153 Clouds 18 1020 67 10000 2.1 180 10:38 21.06.2020
1154 Clouds 18 1020 67 10000 2.1 180 10:20 21.06.2020
1155 Clouds 17 1020 82 10000 2.1 230 09:43 21.06.2020
1156 Clouds 16 1020 82 10000 2.1 230 09:22 21.06.2020
1157 Clouds 16 1020 82 10000 2.1 230 09:22 21.06.2020
1158 Clouds 16 1020 82 10000 1.5 220 08:57 21.06.2020
1159 Clouds 15 1020 87 10000 1.5 210 08:39 21.06.2020
1160 Clouds 15 1020 87 10000 1.5 210 08:19 21.06.2020
1161 Clouds 13 1020 100 10000 0.5 0 07:42 21.06.2020
1162 Clouds 12 1020 100 10000 0.5 0 07:23 21.06.2020
1163 Fog 11 1020 100 10000 1 230 06:50 21.06.2020
1164 Fog 11 1020 100 10000 0.5 260 06:28 21.06.2020
1165 Fog 10 1020 100 5000 0.5 0 05:57 21.06.2020
1166 Fog 10 1020 93 10000 0.5 220 04:36 21.06.2020
1167 Clouds 11 1021 93 10000 1 220 03:19 21.06.2020
1168 Clear 11 1020 100 10000 1.5 250 02:36 21.06.2020
1169 Clear 12 1021 93 10000 2.1 280 01:40 21.06.2020
1170 Clear 12 1021 93 10000 2.1 280 01:19 21.06.2020
1171 Clear 13 1021 82 10000 1.5 270 00:46 21.06.2020
1172 Clear 14 1021 77 10000 3.1 350 00:25 21.06.2020
1173 Clear 15 1021 72 10000 3.1 360 23:46 20.06.2020
1174 Clouds 15 1021 72 10000 3.1 360 23:23 20.06.2020
1175 Clouds 16 1020 72 10000 4.1 360 22:59 20.06.2020
1176 Clouds 16 1020 72 10000 4.1 360 22:59 20.06.2020
1177 Clouds 16 1020 67 10000 4.6 350 22:40 20.06.2020
1178 Clouds 17 1020 67 10000 4.6 350 22:20 20.06.2020
1179 Clouds 18 1020 63 10000 5.1 350 21:58 20.06.2020
1180 Clouds 18 1020 63 10000 5.1 360 21:40 20.06.2020
1181 Clouds 18 1020 63 10000 5.1 360 21:21 20.06.2020
1182 Clouds 19 1020 63 10000 6.2 360 20:58 20.06.2020
1183 Clouds 19 1020 60 10000 4.6 340 20:40 20.06.2020
1184 Clouds 20 1020 60 10000 4.6 340 20:21 20.06.2020
1185 Clouds 20 1020 60 10000 5.1 350 19:59 20.06.2020
1186 Clouds 20 1020 60 10000 5.7 340 19:40 20.06.2020
1187 Clouds 21 1020 60 10000 5.7 340 19:20 20.06.2020
1188 Clouds 22 1019 60 10000 6.2 320 18:43 20.06.2020
1189 Clouds 22 1019 60 10000 6.2 320 18:21 20.06.2020
1190 Clouds 22 1019 56 10000 5.7 320 17:58 20.06.2020
1191 Clouds 22 1019 60 10000 4.6 340 17:39 20.06.2020
1192 Clouds 22 1019 60 10000 4.6 340 17:20 20.06.2020
1193 Clouds 22 1020 60 10000 5.7 330 16:56 20.06.2020
1194 Clouds 22 1019 64 10000 5.7 340 16:37 20.06.2020
1195 Clouds 22 1019 64 10000 5.7 340 16:18 20.06.2020
1196 Clouds 22 1019 53 10000 4.6 290 15:42 20.06.2020
1197 Clouds 22 1019 53 10000 4.6 290 15:18 20.06.2020
1198 Clouds 21 1020 64 10000 6.2 290 14:43 20.06.2020
1199 Clouds 22 1020 64 10000 6.2 290 14:21 20.06.2020
1200 Clouds 21 1020 64 10000 4.6 290 13:55 20.06.2020
1201 Clouds 21 1020 64 10000 5.7 290 13:37 20.06.2020
1202 Clouds 21 1020 64 10000 5.7 290 13:19 20.06.2020
1203 Clouds 21 1019 64 10000 5.7 290 12:42 20.06.2020
1204 Clouds 20 1019 64 10000 5.7 290 12:21 20.06.2020
1205 Clouds 20 1019 60 10000 6.2 280 11:58 20.06.2020
1206 Clouds 20 1019 64 10000 6.2 290 11:38 20.06.2020
1207 Clouds 20 1019 64 10000 6.2 290 11:20 20.06.2020
1208 Clouds 19 1019 68 10000 5.1 280 10:55 20.06.2020
1209 Clouds 19 1019 72 10000 6.2 270 10:37 20.06.2020
1210 Clouds 19 1019 72 10000 6.2 270 10:18 20.06.2020
1211 Clouds 18 1019 77 10000 6.2 280 09:40 20.06.2020
1212 Clouds 17 1019 77 10000 6.2 280 09:22 20.06.2020
1213 Clouds 17 1019 77 10000 5.1 270 08:56 20.06.2020
1214 Clouds 16 1019 82 10000 4.6 280 08:37 20.06.2020
1215 Clouds 16 1019 82 10000 4.6 280 08:18 20.06.2020
1216 Clouds 15 1018 93 10000 2.6 270 07:44 20.06.2020
1217 Clouds 15 1018 93 10000 2.6 270 07:25 20.06.2020
1218 Fog 14 1018 100 1200 1 230 06:24 20.06.2020
1219 Fog 13 1018 100 900 1.5 250 05:59 20.06.2020
1220 Fog 13 1018 100 1500 2.1 250 05:40 20.06.2020
1221 Clouds 14 1018 93 10000 2.1 250 03:21 20.06.2020
1222 Clouds 14 1017 93 10000 2.6 250 01:53 20.06.2020
1223 Clouds 14 1017 82 10000 2.1 250 01:35 20.06.2020
1224 Clouds 16 1017 63 10000 3.1 300 00:40 20.06.2020
1225 Clouds 17 1017 63 10000 3.1 300 00:19 20.06.2020
1226 Clouds 17 1016 59 10000 3.6 340 23:40 19.06.2020
1227 Clouds 17 1016 59 10000 3.6 340 23:19 19.06.2020
1228 Clouds 18 1016 59 10000 2.6 340 22:55 19.06.2020
1229 Clouds 18 1016 59 10000 3.1 320 22:37 19.06.2020
1230 Clouds 18 1016 59 10000 3.1 320 22:18 19.06.2020
1231 Clouds 18 1016 68 10000 4.6 290 21:54 19.06.2020
1232 Clouds 20 1015 60 10000 4.6 340 21:36 19.06.2020
1233 Clouds 20 1015 60 10000 4.6 340 21:18 19.06.2020
1234 Clouds 20 1015 60 10000 4.1 350 20:55 19.06.2020
1235 Clouds 21 1015 60 10000 4.6 340 20:37 19.06.2020
1236 Clouds 21 1015 60 10000 4.6 340 20:18 19.06.2020
1237 Clouds 22 1014 60 10000 4.1 340 19:42 19.06.2020
1238 Clouds 22 1014 60 10000 4.1 340 19:42 19.06.2020
1239 Clouds 22 1014 60 10000 4.1 340 19:23 19.06.2020
1240 Clouds 22 1015 60 10000 4.6 330 18:59 19.06.2020
1241 Clouds 22 1014 60 10000 5.1 340 18:39 19.06.2020
1242 Clouds 22 1014 60 10000 5.1 340 18:20 19.06.2020
1243 Clouds 22 1014 60 10000 5.1 340 18:20 19.06.2020
1244 Clouds 23 1014 56 10000 4.6 320 17:42 19.06.2020
1245 Clouds 23 1014 56 10000 4.6 320 17:23 19.06.2020
1246 Clouds 23 1014 56 10000 5.1 350 16:58 19.06.2020
1247 Clouds 23 1014 56 10000 5.1 340 16:40 19.06.2020
1248 Clouds 23 1014 56 10000 5.1 340 16:22 19.06.2020
1249 Clouds 23 1014 53 10000 5.7 320 15:47 19.06.2020
1250 Clouds 23 1014 53 10000 5.1 330 15:27 19.06.2020
1251 Clouds 23 1014 53 10000 5.7 310 14:59 19.06.2020
1252 Clouds 23 1014 56 10000 5.7 310 14:40 19.06.2020
1253 Clouds 23 1014 56 10000 5.7 310 14:21 19.06.2020
1254 Clouds 22 1014 56 10000 5.1 300 13:59 19.06.2020
1255 Clouds 22 1014 60 10000 5.7 310 13:40 19.06.2020
1256 Clouds 22 1014 60 10000 5.7 310 13:22 19.06.2020
1257 Clouds 22 1014 56 10000 5.7 300 12:45 19.06.2020
1258 Clouds 21 1014 56 10000 5.7 300 12:22 19.06.2020
1259 Clouds 20 1014 64 10000 6.2 300 11:57 19.06.2020
1260 Clouds 20 1014 64 10000 5.7 300 11:37 19.06.2020
1261 Clouds 20 1014 64 10000 5.7 300 11:18 19.06.2020
1262 Clouds 18 1014 68 10000 5.1 310 10:45 19.06.2020
1263 Clouds 18 1014 72 10000 4.6 310 10:26 19.06.2020
1264 Clouds 17 1014 77 10000 4.6 300 09:57 19.06.2020
1265 Clouds 16 1013 72 10000 4.1 290 09:39 19.06.2020
1266 Clouds 16 1013 72 10000 4.1 290 09:19 19.06.2020
1267 Clouds 15 1013 87 10000 3.1 280 08:42 19.06.2020
1268 Clouds 15 1013 87 10000 3.1 280 08:42 19.06.2020
1269 Clouds 15 1013 87 10000 3.1 280 08:23 19.06.2020
1270 Clouds 15 1013 87 10000 2.1 280 07:55 19.06.2020
1271 Clouds 15 1013 93 10000 1.5 250 07:36 19.06.2020
1272 Clouds 14 1013 93 10000 1.5 250 07:18 19.06.2020
1273 Clouds 14 1013 93 10000 2.1 290 06:23 19.06.2020
1274 Clouds 14 1013 93 10000 2.1 290 06:23 19.06.2020
1275 Clouds 14 1013 93 10000 3.1 310 05:43 19.06.2020
1276 Rain 14 1013 93 10000 2.6 280 04:23 19.06.2020
1277 Rain 16 1013 100 4500 3.6 270 02:50 19.06.2020
1278 Rain 17 1013 93 4500 2.6 270 00:49 19.06.2020
1279 Rain 16 1013 100 3000 2.1 250 00:22 19.06.2020
1280 Rain 17 1013 100 4500 1.5 250 23:59 18.06.2020
1281 Rain 17 1012 93 5000 2.1 290 23:41 18.06.2020
1282 Rain 17 1012 93 5000 2.1 290 23:23 18.06.2020
1283 Rain 17 1012 93 8000 2.6 310 22:59 18.06.2020
1284 Rain 17 1012 93 8000 1 0 22:37 18.06.2020
1285 Rain 17 1012 93 8000 1 0 22:18 18.06.2020
1286 Rain 17 1012 93 8000 1 0 22:18 18.06.2020
1287 Rain 17 1012 93 10000 1 290 21:39 18.06.2020
1288 Rain 17 1012 93 10000 1 290 21:20 18.06.2020
1289 Rain 17 1012 93 10000 1.5 290 20:57 18.06.2020
1290 Rain 17 1011 93 10000 1.5 300 20:38 18.06.2020
1291 Rain 17 1011 93 10000 1.5 300 20:19 18.06.2020
1292 Rain 17 1012 88 10000 2.1 300 19:42 18.06.2020
1293 Rain 17 1012 88 10000 2.1 300 19:22 18.06.2020
1294 Rain 18 1012 82 10000 2.6 290 18:58 18.06.2020
1295 Rain 18 1011 82 10000 4.6 270 18:37 18.06.2020
1296 Rain 18 1011 82 10000 4.6 270 18:19 18.06.2020
1297 Clouds 18 1011 88 10000 5.7 240 17:45 18.06.2020
1298 Clouds 19 1011 88 10000 5.7 240 17:25 18.06.2020
1299 Clouds 20 1011 82 10000 5.7 250 16:56 18.06.2020
1300 Clouds 20 1011 77 10000 5.1 240 16:37 18.06.2020
1301 Clouds 21 1011 77 10000 5.1 240 16:19 18.06.2020
1302 Clouds 21 1011 77 10000 3.1 260 15:56 18.06.2020
1303 Clouds 20 1011 82 10000 2.6 270 15:38 18.06.2020
1304 Clouds 20 1011 82 10000 2.6 270 15:18 18.06.2020
1305 Clouds 20 1011 82 10000 3.1 260 14:55 18.06.2020
1306 Clouds 20 1011 82 10000 3.1 280 14:36 18.06.2020
1307 Clouds 20 1011 82 10000 3.1 280 14:18 18.06.2020
1308 Clouds 20 1011 77 10000 3.6 280 13:41 18.06.2020
1309 Clouds 20 1011 77 10000 3.6 280 13:23 18.06.2020
1310 Clouds 20 1011 82 10000 3.1 250 12:56 18.06.2020
1311 Clouds 20 1011 82 10000 2.6 240 12:38 18.06.2020
1312 Clouds 20 1011 82 10000 2.6 240 12:19 18.06.2020
1313 Rain 20 1010 77 10000 2.6 230 11:47 18.06.2020
1314 Clouds 20 1010 77 10000 2.1 220 11:21 18.06.2020
1315 Rain 20 1010 77 10000 1.5 230 10:59 18.06.2020
1316 Clouds 20 1010 68 10000 1.5 140 10:39 18.06.2020
1317 Rain 20 1010 68 10000 1.5 140 10:18 18.06.2020
1318 Rain 20 1010 72 10000 2.1 60 09:44 18.06.2020
1319 Rain 19 1010 72 10000 2.1 60 09:26 18.06.2020
1320 Rain 19 1009 72 10000 2.1 70 08:57 18.06.2020
1321 Rain 19 1009 72 10000 2.6 60 08:36 18.06.2020
1322 Clouds 19 1009 72 10000 2.6 60 08:18 18.06.2020
1323 Clouds 19 1009 72 10000 2.6 60 07:44 18.06.2020
1324 Clouds 19 1009 72 10000 2.6 60 07:23 18.06.2020
1325 Clouds 18 1009 72 10000 2.6 50 06:37 18.06.2020
1326 Clouds 18 1009 77 10000 2.1 40 05:25 18.06.2020
1327 Clouds 18 1009 77 10000 2.1 60 04:18 18.06.2020
1328 Clouds 19 1010 60 10000 4.1 70 01:44 18.06.2020
1329 Clouds 20 1010 60 10000 4.1 70 01:22 18.06.2020
1330 Clouds 20 1010 60 10000 4.6 60 00:52 18.06.2020
1331 Clouds 20 1010 64 10000 4.1 60 00:31 18.06.2020
1332 Clouds 20 1010 64 10000 4.6 50 23:56 17.06.2020
1333 Clouds 21 1010 68 10000 3.6 40 23:38 17.06.2020
1334 Clouds 21 1010 68 10000 3.6 40 23:19 17.06.2020
1335 Clouds 21 1010 60 10000 4.1 40 22:57 17.06.2020
1336 Clouds 22 1010 56 10000 5.1 30 22:37 17.06.2020
1337 Clouds 22 1010 56 10000 5.1 30 22:19 17.06.2020
1338 Clouds 24 1009 38 10000 3.6 60 21:40 17.06.2020
1339 Rain 24 1009 38 10000 3.6 60 21:22 17.06.2020
1340 Clouds 25 1009 36 10000 3.1 50 20:57 17.06.2020
1341 Clouds 25 1009 36 10000 3.1 40 20:38 17.06.2020
1342 Clouds 25 1009 36 10000 3.1 40 20:19 17.06.2020
1343 Clouds 26 1009 32 10000 3.1 50 19:44 17.06.2020
1344 Clouds 26 1009 32 10000 3.1 50 19:23 17.06.2020
1345 Clouds 27 1010 34 10000 3.6 60 18:56 17.06.2020
1346 Clouds 26 1010 41 10000 2.6 40 18:38 17.06.2020
1347 Clouds 27 1010 41 10000 2.6 40 18:20 17.06.2020
1348 Clouds 27 1010 42 10000 2.6 70 17:42 17.06.2020
1349 Clouds 27 1010 42 10000 2.6 70 17:22 17.06.2020
1350 Clouds 27 1011 42 10000 3.1 30 16:57 17.06.2020
1351 Clouds 27 1011 42 10000 2.6 100 16:38 17.06.2020
1352 Clouds 27 1011 42 10000 2.6 100 16:20 17.06.2020
1353 Clouds 27 1011 44 10000 3.6 50 15:56 17.06.2020
1354 Clouds 27 1011 39 10000 2.1 90 15:38 17.06.2020
1355 Clouds 26 1011 39 10000 2.1 90 15:18 17.06.2020
1356 Clouds 26 1011 41 10000 2.6 70 14:56 17.06.2020
1357 Clouds 26 1012 41 10000 3.1 0 14:38 17.06.2020
1358 Clouds 26 1012 41 10000 3.1 0 14:19 17.06.2020
1359 Clouds 26 1012 47 10000 2.6 90 13:42 17.06.2020
1360 Clouds 26 1012 47 10000 2.6 90 13:22 17.06.2020
1361 Clouds 25 1012 47 10000 2.1 0 12:59 17.06.2020
1362 Clouds 25 1013 53 10000 2.6 50 12:40 17.06.2020
1363 Clouds 24 1013 57 10000 2.6 80 12:20 17.06.2020
1364 Rain 24 1013 60 10000 1.5 60 11:44 17.06.2020
1365 Rain 23 1013 60 10000 1.5 60 11:26 17.06.2020
1366 Rain 23 1013 68 10000 1.5 0 10:58 17.06.2020
1367 Rain 22 1013 68 10000 1.5 50 10:38 17.06.2020
1368 Clouds 22 1013 68 10000 1.5 50 10:19 17.06.2020
1369 Clouds 19 1013 72 10000 2.1 20 09:55 17.06.2020
1370 Clouds 19 1013 77 10000 2.1 350 09:36 17.06.2020
1371 Clouds 18 1013 77 10000 2.1 350 09:18 17.06.2020
1372 Clouds 18 1013 77 10000 2.1 350 09:18 17.06.2020
1373 Clouds 18 1013 82 7000 2.1 320 08:42 17.06.2020
1374 Clouds 18 1013 82 7000 2.1 320 08:19 17.06.2020
1375 Clouds 16 1013 93 6000 1.5 280 07:44 17.06.2020
1376 Clouds 16 1013 93 6000 1.5 280 07:23 17.06.2020
1377 Clouds 16 1013 93 6000 1.5 290 06:59 17.06.2020
1378 Clouds 15 1013 100 7000 1.5 260 06:41 17.06.2020
1379 Clouds 15 1013 100 7000 1.5 260 06:22 17.06.2020
1380 Clouds 15 1012 93 10000 2.1 290 05:49 17.06.2020
1381 Clouds 16 1013 93 10000 2.6 280 04:39 17.06.2020
1382 Clouds 17 1013 82 10000 2.1 330 02:41 17.06.2020
1383 Clouds 17 1013 82 10000 3.1 350 01:20 17.06.2020
1384 Clouds 17 1014 82 10000 2.1 330 00:37 17.06.2020
1385 Clouds 17 1014 82 10000 2.1 330 00:18 17.06.2020
1386 Clouds 18 1013 88 10000 3.1 290 23:41 16.06.2020
1387 Clouds 18 1013 88 10000 3.1 290 23:23 16.06.2020
1388 Clouds 18 1013 93 10000 1.5 270 22:58 16.06.2020
1389 Rain 19 1013 94 10000 1.5 180 22:39 16.06.2020
1390 Rain 20 1013 94 10000 1.5 180 22:19 16.06.2020
1391 Rain 18 1014 93 6000 2.1 140 21:58 16.06.2020
1392 Rain 19 1014 88 10000 5.1 150 21:40 16.06.2020
1393 Rain 21 1014 88 10000 5.1 150 21:21 16.06.2020
1394 Thunderstorm 22 1013 64 10000 4.6 320 20:55 16.06.2020
1395 Rain 21 1013 64 10000 4.6 20 20:36 16.06.2020
1396 Rain 23 1013 64 10000 4.6 20 20:18 16.06.2020
1397 Rain 22 1012 57 10000 4.6 320 19:56 16.06.2020
1398 Clouds 22 1013 57 10000 4.6 330 19:37 16.06.2020
1399 Clouds 22 1013 57 10000 4.6 330 19:18 16.06.2020
1400 Clouds 24 1013 53 10000 4.6 310 18:41 16.06.2020
1401 Clouds 25 1013 53 10000 4.6 310 18:21 16.06.2020
1402 Clouds 24 1013 53 10000 4.6 310 17:58 16.06.2020
1403 Clouds 24 1013 53 10000 4.6 310 17:38 16.06.2020
1404 Clouds 24 1013 53 10000 4.6 310 17:20 16.06.2020
1405 Clouds 25 1013 53 10000 3.6 300 16:58 16.06.2020
1406 Clouds 25 1013 53 10000 3.6 310 16:39 16.06.2020
1407 Clouds 25 1013 53 10000 3.6 310 16:19 16.06.2020
1408 Clouds 25 1013 53 10000 3.6 310 16:19 16.06.2020
1409 Clouds 25 1014 53 10000 4.1 290 15:56 16.06.2020
1410 Clouds 24 1014 53 10000 3.1 0 15:38 16.06.2020
1411 Clouds 24 1014 53 10000 3.1 0 15:20 16.06.2020
1412 Clouds 24 1014 53 10000 3.1 300 14:55 16.06.2020
1413 Clouds 24 1014 53 10000 3.6 270 14:36 16.06.2020
1414 Clouds 24 1014 53 10000 3.6 270 14:18 16.06.2020
1415 Clouds 23 1014 60 10000 3.6 290 13:44 16.06.2020
1416 Clouds 23 1014 60 10000 3.6 290 13:24 16.06.2020
1417 Clouds 23 1014 60 10000 3.6 290 13:24 16.06.2020
1418 Clouds 23 1015 56 10000 3.1 320 12:42 16.06.2020
1419 Clouds 23 1015 56 10000 3.1 320 12:22 16.06.2020
1420 Clouds 23 1015 60 10000 3.6 300 11:57 16.06.2020
1421 Clouds 22 1015 68 10000 3.1 300 11:39 16.06.2020
1422 Clouds 22 1015 68 10000 3.1 300 11:21 16.06.2020
1423 Clouds 22 1015 68 10000 4.1 300 10:58 16.06.2020
1424 Clouds 22 1015 68 10000 3.1 290 10:38 16.06.2020
1425 Clouds 22 1015 68 10000 3.1 290 10:20 16.06.2020
1426 Clouds 21 1015 68 10000 2.6 290 09:45 16.06.2020
1427 Clear 18 1015 68 10000 2.1 290 09:23 16.06.2020
1428 Clouds 18 1015 72 10000 2.6 310 08:53 16.06.2020
1429 Clouds 18 1015 72 10000 2.6 330 08:33 16.06.2020
1430 Clouds 18 1015 88 10000 2.1 280 07:52 16.06.2020
1431 Clouds 18 1015 77 10000 1.5 300 07:30 16.06.2020
1432 Clouds 16 1015 82 10000 2.6 320 06:57 16.06.2020
1433 Clouds 16 1015 88 10000 3.1 310 06:34 16.06.2020
1434 Clouds 16 1015 88 10000 2.6 310 05:52 16.06.2020
1435 Clouds 16 1015 93 10000 2.1 240 04:58 16.06.2020
1436 Clouds 16 1015 93 10000 2.1 260 04:25 16.06.2020
1437 Clouds 17 1015 77 10000 1.5 320 02:46 16.06.2020
1438 Clear 18 1016 72 10000 2.6 330 01:34 16.06.2020
1439 Clear 17 1016 82 10000 2.6 330 00:58 16.06.2020
1440 Clear 17 1016 88 10000 2.6 300 00:27 16.06.2020
1441 Clear 17 1016 88 10000 2.6 290 23:59 15.06.2020
1442 Clear 18 1016 88 10000 3.1 300 23:41 15.06.2020
1443 Clear 18 1016 88 10000 3.1 300 23:21 15.06.2020
1444 Clear 18 1015 88 10000 2.6 270 22:42 15.06.2020
1445 Clear 18 1015 88 10000 2.6 270 22:42 15.06.2020
1446 Clear 18 1015 88 10000 2.6 270 22:23 15.06.2020
1447 Clear 20 1015 82 10000 3.6 280 21:59 15.06.2020
1448 Clouds 20 1015 77 10000 4.1 280 21:38 15.06.2020
1449 Clouds 21 1015 77 10000 4.1 280 21:20 15.06.2020
1450 Clouds 21 1015 77 10000 4.6 280 20:59 15.06.2020
1451 Clouds 21 1015 77 10000 4.6 280 20:59 15.06.2020
1452 Clouds 22 1015 73 10000 5.1 280 20:39 15.06.2020
1453 Clouds 21 1015 73 10000 5.1 280 20:20 15.06.2020
1454 Clouds 21 1015 73 10000 5.7 270 20:00 15.06.2020
1455 Clouds 22 1015 69 10000 5.1 290 19:40 15.06.2020
1456 Clouds 22 1015 69 10000 5.1 290 19:22 15.06.2020
1457 Clouds 22 1015 69 10000 4.6 290 18:58 15.06.2020
1458 Clouds 23 1015 64 10000 4.6 280 18:40 15.06.2020
1459 Clouds 23 1015 64 10000 4.6 280 18:21 15.06.2020
1460 Clouds 23 1015 64 10000 4.6 270 17:58 15.06.2020
1461 Clouds 22 1015 69 10000 5.1 250 17:40 15.06.2020
1462 Clouds 24 1015 69 10000 5.1 250 17:19 15.06.2020
1463 Clouds 24 1015 64 10000 5.7 250 16:56 15.06.2020
1464 Clouds 24 1014 64 10000 3.1 230 16:38 15.06.2020
1465 Clouds 24 1014 64 10000 3.1 230 16:18 15.06.2020
1466 Clouds 24 1015 53 10000 1.5 0 15:41 15.06.2020
1467 Clouds 24 1015 53 10000 1.5 0 15:20 15.06.2020
1468 Clouds 24 1015 53 10000 1.5 0 14:58 15.06.2020
1469 Clouds 23 1015 56 10000 2.6 300 14:40 15.06.2020
1470 Clouds 23 1015 56 10000 2.6 300 14:19 15.06.2020
1471 Clouds 24 1015 56 10000 1 0 13:56 15.06.2020
1472 Clouds 23 1015 60 10000 1 0 13:38 15.06.2020
1473 Clouds 23 1015 60 10000 1 0 13:18 15.06.2020
1474 Clouds 23 1015 60 10000 1.5 0 12:43 15.06.2020
1475 Clouds 21 1015 60 10000 1.5 0 12:22 15.06.2020
1476 Clouds 20 1015 64 10000 1.5 0 11:58 15.06.2020
1477 Clouds 21 1015 68 10000 1.5 120 11:40 15.06.2020
1478 Clouds 20 1015 68 10000 1.5 120 11:22 15.06.2020
1479 Clouds 19 1015 72 10000 1.5 50 10:42 15.06.2020
1480 Clouds 19 1015 72 10000 1.5 50 10:22 15.06.2020
1481 Clouds 18 1015 77 10000 2.6 70 09:45 15.06.2020
1482 Clouds 16 1015 77 10000 2.6 70 09:23 15.06.2020
1483 Clouds 16 1015 77 10000 2.1 60 08:56 15.06.2020
1484 Clouds 16 1014 77 10000 2.1 30 08:37 15.06.2020
1485 Clouds 16 1014 77 10000 2.1 30 08:18 15.06.2020
1486 Clouds 16 1014 77 10000 2.1 30 07:41 15.06.2020
1487 Clouds 16 1014 77 10000 2.1 30 07:20 15.06.2020
1488 Clouds 15 1014 77 10000 2.1 50 06:38 15.06.2020
1489 Clouds 15 1014 77 10000 2.1 50 06:19 15.06.2020
1490 Clouds 15 1013 87 10000 2.1 50 05:39 15.06.2020
1491 Clouds 15 1013 87 10000 2.1 50 05:20 15.06.2020
1492 Clouds 15 1013 82 10000 2.6 50 04:18 15.06.2020
1493 Clouds 15 1014 87 10000 2.6 50 03:37 15.06.2020
1494 Clouds 15 1013 87 10000 2.6 50 02:34 15.06.2020
1495 Clouds 16 1013 87 10000 3.1 50 01:53 15.06.2020
1496 Clouds 16 1013 88 10000 3.6 60 01:31 15.06.2020
1497 Clouds 16 1013 88 10000 3.1 50 00:58 15.06.2020
1498 Clouds 17 1013 88 10000 3.6 30 00:39 15.06.2020
1499 Clouds 17 1013 88 10000 3.6 30 00:19 15.06.2020
1500 Mist 18 1013 100 4500 3.1 360 23:46 14.06.2020
1501 Rain 18 1013 100 4500 2.6 360 23:24 14.06.2020
1502 Rain 18 1013 100 4500 2.1 360 22:58 14.06.2020
1503 Rain 18 1013 100 4500 1.5 330 22:39 14.06.2020
1504 Rain 18 1013 100 4500 1.5 330 22:19 14.06.2020
1505 Mist 18 1013 100 4500 1.5 340 21:57 14.06.2020
1506 Mist 18 1013 100 4500 2.1 20 21:38 14.06.2020
1507 Mist 18 1013 100 4500 2.1 20 21:19 14.06.2020
1508 Mist 18 1013 100 4500 2.1 20 21:19 14.06.2020
1509 Mist 18 1013 100 5000 1.5 30 20:58 14.06.2020
1510 Mist 18 1013 100 4500 1 0 20:38 14.06.2020
1511 Mist 18 1013 100 4500 1 0 20:20 14.06.2020
1512 Rain 18 1013 100 4800 2.1 60 19:59 14.06.2020
1513 Rain 18 1013 100 4500 2.6 50 19:38 14.06.2020
1514 Rain 18 1013 100 4500 2.6 50 19:19 14.06.2020
1515 Rain 19 1013 93 4500 2.6 60 18:57 14.06.2020
1516 Rain 19 1013 93 4500 2.6 60 18:57 14.06.2020
1517 Rain 18 1013 100 4500 3.1 60 18:38 14.06.2020
1518 Rain 18 1013 100 4500 3.1 60 18:20 14.06.2020
1519 Rain 19 1013 88 8000 3.1 60 17:57 14.06.2020
1520 Clouds 19 1013 88 10000 4.1 50 17:38 14.06.2020
1521 Clouds 19 1013 88 10000 4.1 50 17:19 14.06.2020
1522 Clouds 20 1013 82 10000 4.1 40 16:41 14.06.2020
1523 Clouds 20 1013 82 10000 4.1 40 16:21 14.06.2020
1524 Clouds 19 1013 82 10000 3.6 30 15:59 14.06.2020
1525 Clouds 19 1013 82 10000 2.1 30 15:40 14.06.2020
1526 Clouds 19 1013 82 10000 2.1 30 15:19 14.06.2020
1527 Clouds 18 1013 88 10000 2.6 30 14:59 14.06.2020
1528 Clouds 18 1014 88 10000 2.6 50 14:40 14.06.2020
1529 Clouds 18 1014 88 10000 2.6 50 14:21 14.06.2020
1530 Clouds 18 1014 88 9000 3.1 50 13:56 14.06.2020
1531 Clouds 18 1014 88 9000 3.6 50 13:38 14.06.2020
1532 Clouds 18 1014 88 9000 3.6 50 13:19 14.06.2020
1533 Clouds 17 1014 93 8000 4.1 50 12:55 14.06.2020
1534 Drizzle 17 1013 93 6000 3.1 50 12:37 14.06.2020
1535 Drizzle 18 1013 93 6000 3.1 50 12:18 14.06.2020
1536 Rain 18 1013 93 9000 2.6 30 11:56 14.06.2020
1537 Clouds 18 1013 88 10000 3.1 30 11:37 14.06.2020
1538 Clouds 18 1013 88 10000 3.1 30 11:18 14.06.2020
1539 Clouds 18 1012 93 10000 2.6 30 10:42 14.06.2020
1540 Clouds 18 1012 93 10000 2.6 30 10:19 14.06.2020
1541 Rain 18 1012 93 10000 2.1 30 09:45 14.06.2020
1542 Rain 18 1012 93 10000 2.1 10 09:25 14.06.2020
1543 Clouds 18 1012 88 10000 3.1 30 08:57 14.06.2020
1544 Clouds 18 1012 93 10000 3.1 40 08:39 14.06.2020
1545 Rain 18 1012 93 10000 3.1 40 08:18 14.06.2020
1546 Rain 18 1012 93 10000 2.1 50 07:50 14.06.2020
1547 Clouds 18 1012 93 10000 2.1 50 07:32 14.06.2020
1548 Rain 17 1012 93 9000 3.6 70 06:31 14.06.2020
1549 Rain 17 1012 93 9000 4.6 70 05:43 14.06.2020
1550 Rain 18 1012 93 10000 5.1 70 04:55 14.06.2020
1551 Clouds 18 1011 93 10000 4.1 60 04:30 14.06.2020
1552 Rain 18 1011 93 10000 3.1 70 03:23 14.06.2020
1553 Clouds 19 1011 88 10000 4.6 60 02:30 14.06.2020
1554 Clouds 19 1012 88 10000 4.6 80 01:42 14.06.2020
1555 Rain 19 1012 88 10000 4.6 80 01:18 14.06.2020
1556 Rain 19 1013 88 10000 0.5 0 00:38 14.06.2020
1557 Rain 19 1013 88 10000 0.5 0 00:19 14.06.2020
1558 Rain 19 1013 88 10000 2.1 220 23:43 13.06.2020
1559 Rain 19 1013 88 10000 2.1 220 23:24 13.06.2020
1560 Clouds 19 1013 82 10000 1 0 22:57 13.06.2020
1561 Thunderstorm 20 1013 77 10000 4.1 230 22:37 13.06.2020
1562 Thunderstorm 20 1013 77 10000 4.1 230 22:18 13.06.2020
1563 Thunderstorm 21 1012 73 10000 5.7 70 21:56 13.06.2020
1564 Clouds 21 1011 78 10000 6.2 60 21:37 13.06.2020
1565 Clouds 22 1011 78 10000 6.2 60 21:19 13.06.2020
1566 Clouds 22 1011 73 10000 7.7 70 20:42 13.06.2020
1567 Clouds 22 1011 73 10000 7.7 70 20:42 13.06.2020
1568 Clouds 23 1011 73 10000 7.7 70 20:19 13.06.2020
1569 Clouds 24 1010 69 10000 9.8 80 19:57 13.06.2020
1570 Clouds 24 1010 69 10000 7.7 60 19:36 13.06.2020
1571 Clouds 24 1010 69 10000 7.7 60 19:18 13.06.2020
1572 Clouds 24 1010 73 10000 8.2 60 18:55 13.06.2020
1573 Clouds 25 1010 69 10000 7.7 50 18:37 13.06.2020
1574 Clouds 25 1010 69 10000 7.7 50 18:18 13.06.2020
1575 Clouds 27 1010 65 10000 5.7 60 17:42 13.06.2020
1576 Clouds 27 1010 65 10000 5.7 60 17:23 13.06.2020
1577 Clouds 27 1010 65 10000 4.6 50 16:58 13.06.2020
1578 Clouds 27 1010 65 10000 4.6 50 16:40 13.06.2020
1579 Clouds 27 1010 65 10000 4.6 50 16:19 13.06.2020
1580 Clouds 27 1010 65 10000 4.6 70 15:58 13.06.2020
1581 Clouds 27 1010 61 10000 3.6 70 15:39 13.06.2020
1582 Clouds 26 1010 61 10000 3.6 70 15:20 13.06.2020
1583 Clouds 26 1010 61 10000 3.6 70 15:20 13.06.2020
1584 Clouds 26 1010 61 10000 2.6 80 14:43 13.06.2020
1585 Clouds 26 1010 61 10000 2.6 80 14:22 13.06.2020
1586 Clouds 24 1011 65 10000 3.1 110 13:56 13.06.2020
1587 Clouds 24 1011 65 10000 3.6 100 13:37 13.06.2020
1588 Clouds 24 1011 65 10000 3.6 100 13:18 13.06.2020
1589 Clouds 23 1011 73 10000 4.1 60 12:42 13.06.2020
1590 Clouds 24 1011 73 10000 4.1 60 12:24 13.06.2020
1591 Clouds 23 1011 73 10000 3.1 60 11:55 13.06.2020
1592 Clouds 20 1011 78 10000 3.1 80 11:37 13.06.2020
1593 Clouds 20 1011 78 10000 3.1 80 11:18 13.06.2020
1594 Clouds 20 1011 83 10000 2.6 90 10:49 13.06.2020
1595 Clouds 20 1011 82 10000 3.1 80 10:27 13.06.2020
1596 Clouds 19 1011 88 10000 3.1 90 09:56 13.06.2020
1597 Clouds 19 1011 88 10000 3.1 80 09:38 13.06.2020
1598 Clouds 18 1011 88 10000 3.1 80 09:19 13.06.2020
1599 Clouds 18 1011 88 10000 2.6 100 08:45 13.06.2020
1600 Clouds 17 1011 93 9000 4.6 80 08:26 13.06.2020
1601 Clouds 16 1010 93 8000 4.1 70 07:45 13.06.2020
1602 Clouds 16 1010 93 8000 4.1 70 07:27 13.06.2020
1603 Clouds 16 1010 93 8000 4.6 60 06:45 13.06.2020
1604 Clouds 16 1010 93 8000 4.6 60 06:26 13.06.2020
1605 Clouds 16 1010 93 10000 4.6 70 05:33 13.06.2020
1606 Clouds 16 1010 100 10000 4.1 70 04:46 13.06.2020
1607 Rain 17 1010 93 10000 3.1 70 03:46 13.06.2020
1608 Clouds 18 1010 93 10000 4.6 60 02:53 13.06.2020
1609 Clear 18 1010 88 10000 4.6 70 02:24 13.06.2020
1610 Clear 19 1010 88 10000 4.6 60 01:26 13.06.2020
1611 Clear 19 1010 82 10000 5.1 70 00:58 13.06.2020
1612 Clear 20 1010 82 10000 5.1 60 00:38 13.06.2020
1613 Clear 20 1010 82 10000 5.1 60 00:19 13.06.2020
1614 Clear 20 1009 77 10000 4.6 70 23:40 12.06.2020
1615 Clear 21 1009 77 10000 4.6 70 23:19 12.06.2020
1616 Clear 21 1009 73 10000 3.6 60 22:56 12.06.2020
1617 Clear 20 1009 77 10000 2.6 70 22:38 12.06.2020
1618 Clear 22 1009 68 10000 3.1 80 22:18 12.06.2020
1619 Clear 23 1009 60 10000 3.6 90 21:44 12.06.2020
1620 Clear 23 1009 60 10000 3.6 90 21:24 12.06.2020
1621 Clear 24 1009 60 10000 3.6 110 20:58 12.06.2020
1622 Clear 24 1009 57 10000 5.1 100 20:39 12.06.2020
1623 Clear 24 1009 57 10000 5.1 100 20:21 12.06.2020
1624 Clouds 25 1009 57 10000 4.6 110 19:47 12.06.2020
1625 Clouds 25 1009 57 10000 5.7 90 19:22 12.06.2020
1626 Clouds 25 1009 57 10000 5.7 90 19:22 12.06.2020
1627 Clouds 25 1009 57 10000 5.7 90 19:00 12.06.2020
1628 Clouds 25 1009 57 10000 5.7 120 18:37 12.06.2020
1629 Clouds 25 1009 57 10000 5.7 120 18:37 12.06.2020
1630 Clouds 25 1009 57 10000 5.7 120 18:18 12.06.2020
1631 Clouds 24 1009 64 10000 5.1 100 17:45 12.06.2020
1632 Clouds 24 1009 64 10000 5.1 100 17:26 12.06.2020
1633 Clouds 24 1009 69 10000 5.1 120 16:58 12.06.2020
1634 Clouds 24 1009 68 10000 5.7 110 16:40 12.06.2020
1635 Clouds 24 1009 68 10000 5.7 110 16:19 12.06.2020
1636 Clouds 23 1010 73 10000 6.2 90 15:45 12.06.2020
1637 Clouds 23 1010 73 10000 6.2 90 15:20 12.06.2020
1638 Clouds 21 1010 77 10000 4.6 100 14:55 12.06.2020
1639 Clouds 21 1010 77 9000 4.6 90 14:36 12.06.2020
1640 Clouds 21 1010 77 9000 4.6 90 14:18 12.06.2020
1641 Clouds 20 1011 82 9000 4.6 100 13:41 12.06.2020
1642 Clouds 20 1011 82 9000 4.6 100 13:20 12.06.2020
1643 Clouds 19 1011 82 9000 4.1 100 12:40 12.06.2020
1644 Clouds 19 1011 82 9000 4.1 100 12:20 12.06.2020
1645 Clouds 18 1011 82 9000 3.6 120 11:58 12.06.2020
1646 Clouds 18 1011 82 8000 4.6 130 11:38 12.06.2020
1647 Clouds 18 1011 82 8000 4.6 130 11:19 12.06.2020
1648 Clouds 17 1011 88 7000 4.1 120 10:45 12.06.2020
1649 Clouds 17 1011 88 7000 3.6 110 10:24 12.06.2020
1650 Clouds 16 1011 93 6000 3.1 120 09:46 12.06.2020
1651 Mist 16 1011 100 4800 3.1 110 09:21 12.06.2020
1652 Mist 16 1011 100 1800 3.1 90 08:45 12.06.2020
1653 Mist 16 1011 100 1800 3.1 90 08:25 12.06.2020
1654 Mist 15 1011 93 1800 3.1 80 07:56 12.06.2020
1655 Mist 15 1011 93 3100 3.1 80 07:38 12.06.2020
1656 Mist 15 1011 93 3100 3.1 80 07:19 12.06.2020
1657 Mist 15 1011 100 3800 2.6 60 06:31 12.06.2020
1658 Mist 15 1010 100 4000 2.6 60 05:57 12.06.2020
1659 Clouds 15 1011 100 6000 3.1 40 05:38 12.06.2020
1660 Clouds 15 1011 100 6000 3.1 40 05:19 12.06.2020
1661 Clouds 16 1011 93 10000 3.6 40 03:43 12.06.2020
1662 Clouds 16 1012 93 10000 3.6 60 01:58 12.06.2020
1663 Clouds 16 1012 93 10000 3.1 50 01:32 12.06.2020
1664 Clouds 16 1012 93 10000 3.1 40 00:57 12.06.2020
1665 Clouds 16 1012 93 10000 2.6 50 00:38 12.06.2020
1666 Clouds 16 1012 93 10000 2.6 50 00:19 12.06.2020
1667 Clouds 16 1012 100 10000 2.6 40 23:56 11.06.2020
1668 Clouds 16 1012 100 9000 2.1 40 23:36 11.06.2020
1669 Clouds 16 1012 100 9000 2.1 40 23:18 11.06.2020
1670 Drizzle 16 1012 100 6000 3.1 50 22:40 11.06.2020
1671 Drizzle 16 1012 100 6000 3.1 50 22:21 11.06.2020
1672 Clouds 16 1012 100 8000 2.1 50 21:57 11.06.2020
1673 Clouds 16 1012 100 8000 2.6 60 21:38 11.06.2020
1674 Clouds 16 1012 100 8000 2.6 60 21:20 11.06.2020
1675 Clouds 16 1012 100 7000 3.1 60 20:56 11.06.2020
1676 Clouds 16 1012 100 6000 3.6 70 20:38 11.06.2020
1677 Clouds 16 1012 100 6000 3.6 70 20:20 11.06.2020
1678 Drizzle 16 1011 93 3300 4.6 70 19:42 11.06.2020
1679 Drizzle 16 1011 93 3300 4.6 70 19:22 11.06.2020
1680 Drizzle 16 1011 100 1800 4.1 50 18:44 11.06.2020
1681 Mist 16 1011 100 1800 4.1 70 18:26 11.06.2020
1682 Drizzle 16 1011 100 2000 4.6 60 17:59 11.06.2020
1683 Drizzle 16 1011 100 2000 4.6 60 17:39 11.06.2020
1684 Drizzle 16 1011 100 2800 2.6 60 17:20 11.06.2020
1685 Drizzle 16 1011 100 2800 2.6 60 17:20 11.06.2020
1686 Rain 16 1011 100 10000 3.6 70 16:59 11.06.2020
1687 Rain 16 1011 100 10000 3.6 70 16:41 11.06.2020
1688 Rain 16 1011 93 10000 2.6 60 16:23 11.06.2020
1689 Rain 16 1011 88 9000 3.6 70 15:57 11.06.2020
1690 Rain 16 1011 88 9000 3.6 70 15:38 11.06.2020
1691 Rain 16 1012 93 10000 3.6 80 15:20 11.06.2020
1692 Rain 16 1012 93 10000 3.1 70 14:44 11.06.2020
1693 Rain 16 1012 93 10000 3.1 70 14:21 11.06.2020
1694 Rain 16 1012 93 10000 2.1 60 13:57 11.06.2020
1695 Rain 16 1012 93 10000 2.1 60 13:39 11.06.2020
1696 Rain 16 1012 93 10000 2.6 70 13:20 11.06.2020
1697 Rain 16 1012 93 10000 3.1 60 12:56 11.06.2020
1698 Rain 15 1012 93 10000 3.1 60 12:38 11.06.2020
1699 Rain 15 1012 93 4500 1.5 50 12:19 11.06.2020
1700 Drizzle 15 1012 93 8000 2.1 50 11:57 11.06.2020
1701 Drizzle 15 1012 93 8000 2.1 50 11:38 11.06.2020
1702 Drizzle 15 1012 93 8000 2.1 50 11:38 11.06.2020
1703 Rain 15 1012 93 5000 2.6 50 11:20 11.06.2020
1704 Drizzle 15 1012 100 5000 2.6 50 10:57 11.06.2020
1705 Drizzle 15 1012 100 5000 2.6 50 10:38 11.06.2020
1706 Drizzle 15 1012 93 4500 3.1 40 10:18 11.06.2020
1707 Drizzle 15 1012 93 10000 2.6 60 09:42 11.06.2020
1708 Rain 14 1012 93 10000 2.6 50 09:23 11.06.2020
1709 Rain 15 1012 93 10000 3.1 60 08:44 11.06.2020
1710 Rain 15 1012 87 9000 3.6 50 08:20 11.06.2020
1711 Rain 15 1012 87 10000 3.1 50 07:57 11.06.2020
1712 Rain 15 1012 87 10000 3.1 50 07:39 11.06.2020
1713 Clouds 15 1012 87 10000 2.6 50 07:20 11.06.2020
1714 Clouds 14 1012 93 10000 2.1 40 06:28 11.06.2020
1715 Clouds 14 1012 93 10000 2.6 30 05:36 11.06.2020
1716 Clouds 14 1013 87 10000 3.1 10 03:54 11.06.2020
1717 Clouds 14 1013 87 10000 4.6 10 03:23 11.06.2020
1718 Rain 15 1014 87 10000 5.7 20 02:32 11.06.2020
1719 Clouds 16 1014 59 10000 4.6 20 01:51 11.06.2020
1720 Clouds 16 1014 59 10000 3.6 20 01:25 11.06.2020
1721 Clouds 16 1014 51 10000 3.1 40 00:50 11.06.2020
1722 Clouds 16 1014 51 10000 4.1 40 00:29 11.06.2020
1723 Clouds 16 1014 48 10000 3.6 40 23:47 10.06.2020
1724 Clouds 16 1014 48 10000 4.1 50 23:27 10.06.2020
1725 Clouds 17 1014 42 10000 5.1 40 22:59 10.06.2020
1726 Clouds 17 1014 42 10000 5.1 40 22:38 10.06.2020
1727 Clouds 17 1014 48 10000 4.6 50 22:20 10.06.2020
1728 Clouds 18 1014 45 10000 5.1 50 21:58 10.06.2020
1729 Clouds 18 1014 45 10000 5.1 50 21:58 10.06.2020
1730 Clouds 18 1014 45 10000 5.1 50 21:40 10.06.2020
1731 Clouds 19 1013 42 10000 5.7 50 21:19 10.06.2020
1732 Clouds 19 1013 42 10000 5.7 50 20:57 10.06.2020
1733 Clouds 19 1013 42 10000 5.7 50 20:39 10.06.2020
1734 Clouds 19 1014 42 10000 6.7 40 20:21 10.06.2020
1735 Clouds 19 1014 42 10000 6.7 40 20:21 10.06.2020
1736 Clouds 21 1014 43 10000 7.2 50 19:56 10.06.2020
1737 Clouds 21 1014 43 10000 7.2 50 19:37 10.06.2020
1738 Clouds 21 1014 42 10000 4.6 50 19:18 10.06.2020
1739 Clouds 20 1014 40 10000 5.1 50 18:42 10.06.2020
1740 Rain 20 1014 43 10000 5.1 50 18:20 10.06.2020
1741 Rain 20 1014 43 10000 4.6 60 17:59 10.06.2020
1742 Rain 20 1014 43 10000 4.6 60 17:41 10.06.2020
1743 Rain 20 1014 43 10000 4.6 60 17:20 10.06.2020
1744 Rain 21 1014 43 10000 3.6 50 16:58 10.06.2020
1745 Rain 20 1014 43 10000 3.6 50 16:40 10.06.2020
1746 Rain 20 1015 46 10000 3.6 60 16:20 10.06.2020
1747 Rain 21 1015 46 10000 4.6 20 15:57 10.06.2020
1748 Rain 21 1015 46 10000 4.6 20 15:37 10.06.2020
1749 Clouds 21 1015 52 10000 4.1 40 15:19 10.06.2020
1750 Clouds 21 1015 56 10000 4.1 40 14:40 10.06.2020
1751 Clouds 21 1015 52 10000 3.1 60 14:21 10.06.2020
1752 Clouds 20 1015 52 10000 4.1 50 13:57 10.06.2020
1753 Clouds 20 1015 52 10000 4.1 50 13:39 10.06.2020
1754 Clouds 20 1016 55 10000 2.6 30 13:21 10.06.2020
1755 Clouds 20 1016 59 10000 3.1 20 12:41 10.06.2020
1756 Clouds 19 1016 59 10000 3.1 60 12:19 10.06.2020
1757 Clouds 18 1017 63 10000 2.6 40 11:56 10.06.2020
1758 Clouds 19 1017 63 10000 2.6 40 11:38 10.06.2020
1759 Clouds 17 1017 72 10000 2.6 60 11:19 10.06.2020
1760 Rain 17 1017 72 10000 2.1 60 10:44 10.06.2020
1761 Clouds 16 1017 72 10000 2.1 40 10:25 10.06.2020
1762 Rain 14 1017 76 10000 3.1 30 09:59 10.06.2020
1763 Rain 14 1017 76 10000 3.1 30 09:39 10.06.2020
1764 Rain 13 1017 82 10000 2.6 30 09:21 10.06.2020
1765 Rain 13 1017 82 10000 2.6 40 08:44 10.06.2020
1766 Rain 12 1017 87 10000 3.1 30 08:23 10.06.2020
1767 Rain 12 1017 81 10000 3.1 40 07:43 10.06.2020
1768 Rain 12 1017 81 10000 3.1 20 07:24 10.06.2020
1769 Clouds 12 1017 81 10000 3.6 30 06:59 10.06.2020
1770 Clouds 12 1017 81 10000 3.6 30 06:40 10.06.2020
1771 Rain 12 1017 81 10000 3.1 10 06:19 10.06.2020
1772 Rain 12 1017 81 10000 3.1 10 05:54 10.06.2020
1773 Rain 12 1017 76 10000 2.6 360 05:19 10.06.2020
1774 Rain 12 1017 76 10000 2.6 10 04:30 10.06.2020
1775 Clouds 12 1018 76 10000 4.1 360 02:50 10.06.2020
1776 Clouds 12 1018 76 10000 3.6 360 01:54 10.06.2020
1777 Clouds 12 1018 71 10000 3.6 360 01:31 10.06.2020
1778 Clouds 12 1019 71 10000 3.1 350 00:39 10.06.2020
1779 Clouds 12 1019 66 10000 3.6 360 00:21 10.06.2020
1780 Clouds 12 1019 62 10000 3.6 10 23:55 09.06.2020
1781 Clouds 13 1019 62 10000 3.6 10 23:37 09.06.2020
1782 Clouds 12 1018 62 10000 4.1 340 23:18 09.06.2020
1783 Clouds 13 1018 62 10000 5.1 350 22:55 09.06.2020
1784 Clouds 13 1018 62 10000 5.1 350 22:36 09.06.2020
1785 Clouds 14 1018 58 10000 4.6 350 22:18 09.06.2020
1786 Clouds 14 1018 58 10000 5.7 340 21:55 09.06.2020
1787 Clouds 14 1018 58 10000 5.7 340 21:36 09.06.2020
1788 Clouds 15 1018 54 10000 5.1 330 21:18 09.06.2020
1789 Clouds 15 1018 55 10000 5.1 330 20:55 09.06.2020
1790 Clouds 16 1018 55 10000 5.1 330 20:37 09.06.2020
1791 Clouds 17 1018 51 10000 5.7 340 20:18 09.06.2020
1792 Clouds 17 1017 51 10000 6.2 350 19:55 09.06.2020
1793 Clouds 17 1017 51 10000 6.2 350 19:36 09.06.2020
1794 Clouds 17 1017 55 10000 5.7 340 19:18 09.06.2020
1795 Clouds 17 1017 55 10000 6.2 340 18:44 09.06.2020
1796 Clouds 18 1017 55 10000 5.1 350 18:25 09.06.2020
1797 Clouds 18 1018 55 10000 6.2 10 17:57 09.06.2020
1798 Clouds 18 1018 55 10000 6.2 10 17:39 09.06.2020
1799 Clouds 19 1018 55 10000 4.6 360 17:21 09.06.2020
1800 Clouds 19 1018 55 10000 4.6 20 16:56 09.06.2020
1801 Clouds 19 1018 55 10000 4.6 20 16:37 09.06.2020
1802 Clouds 19 1018 55 10000 4.6 360 16:19 09.06.2020
1803 Clouds 19 1018 55 10000 3.6 10 15:40 09.06.2020
1804 Clouds 18 1018 59 10000 4.1 10 15:21 09.06.2020
1805 Clouds 18 1018 59 10000 4.1 360 14:57 09.06.2020
1806 Clouds 18 1018 59 10000 4.1 360 14:39 09.06.2020
1807 Clouds 18 1018 59 10000 4.6 360 14:19 09.06.2020
1808 Clouds 17 1019 63 10000 4.1 30 13:54 09.06.2020
1809 Clouds 17 1019 63 10000 4.1 30 13:36 09.06.2020
1810 Clouds 17 1019 63 10000 4.6 20 13:18 09.06.2020
1811 Clouds 16 1019 62 10000 4.6 360 12:42 09.06.2020
1812 Clouds 15 1019 67 10000 4.6 20 12:20 09.06.2020
1813 Clouds 15 1019 62 10000 4.1 10 11:58 09.06.2020
1814 Clouds 15 1019 62 10000 4.1 10 11:40 09.06.2020
1815 Clouds 14 1019 66 10000 4.1 360 11:20 09.06.2020
1816 Clouds 14 1019 71 10000 3.1 10 10:55 09.06.2020
1817 Clouds 14 1019 71 10000 3.1 10 10:36 09.06.2020
1818 Clouds 14 1019 71 10000 4.1 30 10:18 09.06.2020
1819 Clouds 13 1019 71 10000 4.1 30 09:41 09.06.2020
1820 Clouds 13 1018 71 10000 4.1 30 09:22 09.06.2020
1821 Clouds 12 1018 71 10000 3.1 20 08:55 09.06.2020
1822 Clouds 12 1018 71 10000 3.1 20 08:37 09.06.2020
1823 Clouds 11 1018 76 10000 4.1 20 08:19 09.06.2020
1824 Clouds 11 1018 76 10000 4.6 30 07:37 09.06.2020
1825 Clouds 11 1018 76 10000 4.1 10 07:19 09.06.2020
1826 Rain 11 1017 76 10000 3.1 10 06:52 09.06.2020
1827 Clouds 11 1017 76 10000 3.6 30 06:33 09.06.2020
1828 Clouds 11 1017 76 10000 4.6 10 04:57 09.06.2020
1829 Clear 11 1017 81 10000 4.6 360 02:56 09.06.2020
1830 Clouds 12 1017 81 10000 4.1 360 01:41 09.06.2020
1831 Clouds 12 1017 81 10000 3.6 360 01:19 09.06.2020
1832 Clouds 13 1017 76 10000 5.7 350 00:45 09.06.2020
1833 Clouds 12 1016 76 10000 3.6 10 00:20 09.06.2020
1834 Clouds 13 1016 76 10000 4.1 350 23:58 08.06.2020
1835 Clouds 13 1016 76 10000 4.1 350 23:37 08.06.2020
1836 Clouds 13 1016 71 10000 3.6 360 23:19 08.06.2020
1837 Clouds 13 1016 76 10000 3.6 360 22:42 08.06.2020
1838 Clouds 15 1015 77 10000 3.6 330 22:22 08.06.2020
1839 Clouds 15 1015 67 10000 4.6 350 21:58 08.06.2020
1840 Clouds 15 1015 67 10000 4.6 350 21:40 08.06.2020
1841 Clouds 16 1015 67 10000 4.6 350 21:21 08.06.2020
1842 Clouds 16 1014 63 10000 3.6 20 20:57 08.06.2020
1843 Clouds 17 1014 63 10000 3.6 20 20:39 08.06.2020
1844 Clouds 17 1014 67 10000 3.1 350 20:20 08.06.2020
1845 Clouds 17 1014 72 10000 1.5 40 19:55 08.06.2020
1846 Clouds 17 1014 72 10000 1.5 40 19:37 08.06.2020
1847 Clouds 17 1014 67 10000 3.1 350 19:19 08.06.2020
1848 Clouds 17 1014 67 10000 4.1 20 18:41 08.06.2020
1849 Clouds 17 1014 63 10000 0.5 250 18:18 08.06.2020
1850 Clouds 17 1014 63 10000 1 0 17:56 08.06.2020
1851 Clouds 17 1014 63 10000 1 0 17:38 08.06.2020
1852 Clouds 18 1014 63 10000 1.5 160 17:19 08.06.2020
1853 Clouds 18 1014 63 10000 1 0 16:45 08.06.2020
1854 Clouds 18 1014 63 10000 0.5 150 16:25 08.06.2020
1855 Clouds 18 1014 63 10000 1 0 15:58 08.06.2020
1856 Clouds 18 1014 63 10000 1 0 15:40 08.06.2020
1857 Clouds 18 1014 63 10000 0.5 0 15:20 08.06.2020
1858 Clouds 17 1014 67 10000 1.5 290 14:56 08.06.2020
1859 Clouds 17 1014 67 10000 1.5 290 14:36 08.06.2020
1860 Clouds 17 1014 63 10000 2.1 280 14:18 08.06.2020
1861 Clouds 17 1014 67 10000 2.1 310 13:42 08.06.2020
1862 Clouds 17 1013 67 10000 2.1 260 13:21 08.06.2020
1863 Rain 16 1013 72 10000 1.5 230 12:42 08.06.2020
1864 Rain 15 1014 82 10000 1 0 12:19 08.06.2020
1865 Rain 15 1014 82 10000 3.6 220 11:58 08.06.2020
1866 Rain 14 1014 82 10000 3.6 220 11:39 08.06.2020
1867 Clouds 15 1013 67 10000 1 0 11:20 08.06.2020
1868 Clouds 15 1013 72 10000 2.1 230 10:56 08.06.2020
1869 Clouds 15 1013 72 10000 2.1 230 10:37 08.06.2020
1870 Clouds 15 1013 72 10000 1 0 10:19 08.06.2020
1871 Clouds 15 1013 82 10000 2.1 220 09:46 08.06.2020
1872 Clouds 14 1013 76 10000 2.1 230 09:23 08.06.2020
1873 Clouds 14 1013 76 10000 2.1 230 08:50 08.06.2020
1874 Clouds 13 1012 82 10000 2.6 250 08:24 08.06.2020
1875 Clouds 13 1012 82 10000 2.6 220 07:59 08.06.2020
1876 Clouds 13 1012 82 10000 2.6 220 07:39 08.06.2020
1877 Clouds 12 1012 82 10000 1.5 260 07:20 08.06.2020
1878 Clouds 12 1011 87 10000 0.5 0 06:39 08.06.2020
1879 Clouds 10 1011 93 10000 1 0 05:55 08.06.2020
1880 Clouds 11 1011 93 10000 1 260 05:23 08.06.2020
1881 Clouds 10 1011 93 10000 1 180 03:26 08.06.2020
1882 Clear 10 1011 93 10000 1.5 160 02:26 08.06.2020
1883 Clear 11 1011 93 10000 1 190 01:44 08.06.2020
1884 Clear 11 1011 87 10000 0.5 0 01:20 08.06.2020
1885 Clear 11 1011 87 10000 1 270 00:28 08.06.2020
1886 Clouds 11 1011 87 10000 2.6 220 23:40 07.06.2020
1887 Clouds 12 1010 87 10000 2.1 220 23:19 07.06.2020
1888 Clouds 12 1010 87 10000 1.5 210 22:58 07.06.2020
1889 Clouds 12 1010 87 10000 1.5 210 22:38 07.06.2020
1890 Clouds 13 1010 82 10000 1 270 22:19 07.06.2020
1891 Clouds 13 1010 82 10000 1.5 260 21:58 07.06.2020
1892 Clouds 13 1010 82 10000 1.5 260 21:37 07.06.2020
1893 Clear 14 1009 76 10000 2.6 280 21:19 07.06.2020
1894 Clouds 14 1009 71 10000 3.6 270 20:54 07.06.2020
1895 Clouds 14 1009 71 10000 3.6 270 20:36 07.06.2020
1896 Clouds 15 1009 67 10000 4.1 230 20:18 07.06.2020
1897 Clear 15 1008 67 10000 3.6 250 19:54 07.06.2020
1898 Clear 15 1008 67 10000 3.6 250 19:36 07.06.2020
1899 Clear 14 1008 71 10000 4.1 230 19:18 07.06.2020
1900 Clouds 14 1008 76 10000 5.7 240 18:40 07.06.2020
1901 Clouds 15 1008 62 10000 6.7 240 18:21 07.06.2020
1902 Clouds 15 1007 63 10000 6.7 230 17:58 07.06.2020
1903 Clouds 15 1007 63 10000 6.7 230 17:40 07.06.2020
1904 Clouds 15 1007 67 10000 6.2 240 17:21 07.06.2020
1905 Clouds 14 1007 76 10000 5.1 230 16:44 07.06.2020
1906 Clouds 14 1007 82 10000 5.1 220 16:22 07.06.2020
1907 Clouds 14 1006 81 10000 5.1 260 15:44 07.06.2020
1908 Rain 15 1006 76 10000 5.7 280 15:22 07.06.2020
1909 Rain 15 1006 76 10000 5.7 280 14:59 07.06.2020
1910 Rain 15 1006 76 10000 5.7 280 14:59 07.06.2020
1911 Clouds 16 1005 55 10000 6.2 210 14:36 07.06.2020
1912 Clouds 15 1005 59 10000 7.7 220 14:18 07.06.2020
1913 Clouds 16 1005 67 10000 8.7 210 13:43 07.06.2020
1914 Clouds 16 1005 67 10000 8.7 210 13:43 07.06.2020
1915 Clouds 16 1005 67 10000 8.7 210 13:43 07.06.2020
1916 Clouds 16 1005 67 10000 8.7 210 13:43 07.06.2020
1917 Clouds 15 1005 58 10000 7.7 230 13:19 07.06.2020
1918 Clouds 16 1004 58 10000 7.2 210 12:44 07.06.2020
1919 Clouds 17 1004 51 10000 8.2 200 12:25 07.06.2020
1920 Clouds 16 1004 58 10000 6.7 210 11:55 07.06.2020
1921 Clouds 16 1004 58 10000 6.7 210 11:55 07.06.2020
1922 Clouds 15 1004 58 10000 6.7 210 11:37 07.06.2020
1923 Clouds 15 1003 58 10000 6.7 210 11:19 07.06.2020
1924 Clouds 15 1003 58 10000 6.2 210 10:54 07.06.2020
1925 Clouds 16 1003 58 10000 6.2 210 10:36 07.06.2020
1926 Clouds 15 1003 58 10000 6.7 200 10:18 07.06.2020
1927 Clouds 15 1003 62 10000 6.2 210 09:54 07.06.2020
1928 Clouds 14 1003 62 10000 6.2 210 09:36 07.06.2020
1929 Clouds 13 1002 62 10000 6.2 200 09:18 07.06.2020
1930 Clouds 13 1002 62 10000 5.1 190 08:41 07.06.2020
1931 Clouds 13 1002 62 10000 5.1 190 08:41 07.06.2020
1932 Clouds 12 1002 66 10000 5.1 190 08:23 07.06.2020
1933 Clouds 12 1002 66 10000 4.1 190 07:44 07.06.2020
1934 Clouds 12 1002 71 10000 3.1 180 07:26 07.06.2020
1935 Clouds 10 1002 71 10000 4.1 170 06:25 07.06.2020
1936 Clouds 10 1001 76 10000 3.6 170 05:34 07.06.2020
1937 Clouds 10 1001 76 10000 3.1 160 04:19 07.06.2020
1938 Clear 10 1001 71 10000 3.1 190 02:30 07.06.2020
1939 Clouds 9 1001 76 10000 3.1 180 01:44 07.06.2020
1940 Clouds 10 1001 76 10000 3.1 180 01:24 07.06.2020
1941 Clouds 9 1001 76 10000 3.6 160 00:41 07.06.2020
1942 Clouds 10 1001 76 10000 3.1 170 00:18 07.06.2020
1943 Clouds 10 1001 76 10000 3.1 170 23:56 06.06.2020
1944 Clouds 10 1001 76 10000 3.1 170 23:36 06.06.2020
1945 Clouds 11 1001 71 10000 3.1 170 23:18 06.06.2020
1946 Clouds 11 1001 76 10000 3.1 170 22:55 06.06.2020
1947 Clouds 13 1001 76 10000 3.1 170 22:37 06.06.2020
1948 Clouds 14 1001 71 10000 3.1 150 22:18 06.06.2020
1949 Clouds 14 1000 62 10000 3.1 150 21:43 06.06.2020
1950 Clouds 15 1000 62 10000 2.6 170 21:22 06.06.2020
1951 Clouds 15 1000 54 10000 2.6 220 20:55 06.06.2020
1952 Clouds 15 1000 54 10000 2.6 220 20:36 06.06.2020
1953 Clouds 15 1000 58 10000 2.1 220 20:18 06.06.2020
1954 Clouds 16 1000 54 10000 3.1 200 19:56 06.06.2020
1955 Clouds 15 1000 54 10000 3.1 200 19:36 06.06.2020
1956 Clouds 16 1000 51 10000 5.1 190 19:18 06.06.2020
1957 Clouds 16 1000 54 10000 5.7 220 18:42 06.06.2020
1958 Rain 15 1000 51 10000 6.2 230 18:24 06.06.2020
1959 Clouds 15 1000 51 10000 4.6 250 17:57 06.06.2020
1960 Clouds 15 1000 51 10000 4.6 250 17:39 06.06.2020
1961 Clouds 13 1000 58 10000 5.7 270 17:18 06.06.2020
1962 Clouds 14 999 58 10000 12.9 260 16:40 06.06.2020
1963 Clouds 16 999 48 10000 6.7 210 16:21 06.06.2020
1964 Clouds 16 999 48 10000 7.2 210 15:55 06.06.2020
1965 Clouds 17 999 48 10000 7.2 210 15:37 06.06.2020
1966 Clouds 15 999 62 10000 2.1 0 15:18 06.06.2020
1967 Clouds 14 999 67 10000 3.6 0 14:40 06.06.2020
1968 Clouds 13 999 76 10000 6.7 180 14:22 06.06.2020
1969 Clouds 13 999 66 10000 8.2 190 13:55 06.06.2020
1970 Clouds 14 999 66 10000 8.2 190 13:37 06.06.2020
1971 Clouds 15 998 50 10000 6.2 230 13:18 06.06.2020
1972 Clouds 15 998 44 10000 7.2 220 12:42 06.06.2020
1973 Clouds 15 998 51 10000 7.7 230 12:23 06.06.2020
1974 Clouds 15 998 50 10000 7.7 230 11:58 06.06.2020
1975 Clouds 14 998 50 10000 7.7 230 11:38 06.06.2020
1976 Clouds 15 997 51 10000 7.7 230 11:20 06.06.2020
1977 Clouds 15 997 54 10000 7.7 230 10:58 06.06.2020
1978 Clouds 14 997 54 10000 7.7 230 10:39 06.06.2020
1979 Clouds 13 997 62 10000 8.2 220 10:21 06.06.2020
1980 Clouds 12 997 66 10000 7.2 220 09:46 06.06.2020
1981 Clouds 12 997 66 10000 7.2 220 09:27 06.06.2020
1982 Clouds 11 997 71 10000 8.2 230 08:58 06.06.2020
1983 Clouds 11 997 71 10000 8.2 230 08:40 06.06.2020
1984 Clouds 10 996 76 10000 6.7 220 08:20 06.06.2020
1985 Clouds 10 996 76 10000 5.7 220 07:45 06.06.2020
1986 Clouds 9 996 81 10000 5.7 220 07:22 06.06.2020
1987 Clouds 8 996 87 10000 4.1 210 06:48 06.06.2020
1988 Clouds 7 996 93 10000 3.6 200 06:30 06.06.2020
1989 Clouds 7 996 87 10000 3.1 200 05:58 06.06.2020
1990 Clouds 7 996 87 10000 3.1 200 05:30 06.06.2020
1991 Clouds 8 995 87 10000 4.1 210 04:46 06.06.2020
1992 Clouds 8 995 87 10000 5.7 220 03:21 06.06.2020
1993 Clouds 8 995 93 10000 4.6 220 01:58 06.06.2020
1994 Clouds 8 995 93 10000 4.1 230 01:20 06.06.2020
1995 Clouds 8 994 87 10000 5.1 230 00:47 06.06.2020
1996 Clouds 8 994 87 10000 5.1 230 00:27 06.06.2020
1997 Clouds 8 993 87 10000 6.2 240 23:59 05.06.2020
1998 Clouds 9 993 87 10000 6.2 240 23:39 05.06.2020
1999 Rain 9 993 81 10000 5.7 240 23:19 05.06.2020
2000 Clouds 9 993 81 10000 5.7 250 22:56 05.06.2020
2001 Clouds 9 993 81 10000 5.7 250 22:37 05.06.2020
2002 Clouds 9 992 81 10000 7.2 260 22:19 05.06.2020
2003 Clouds 10 991 76 10000 8.7 260 21:43 05.06.2020
2004 Rain 10 990 87 10000 7.7 240 21:23 05.06.2020
2005 Clouds 10 990 81 10000 7.7 230 20:58 05.06.2020
2006 Clouds 10 990 81 10000 7.7 230 20:39 05.06.2020
2007 Rain 10 990 87 10000 6.2 220 20:21 05.06.2020
2008 Clouds 11 989 81 10000 5.7 210 19:44 05.06.2020
2009 Clouds 11 990 81 10000 5.1 200 19:24 05.06.2020
2010 Clouds 11 990 81 10000 5.7 190 18:58 05.06.2020
2011 Clouds 11 990 81 10000 5.7 190 18:58 05.06.2020
2012 Clouds 11 990 81 10000 5.7 190 18:39 05.06.2020
2013 Clouds 11 990 81 10000 6.2 190 18:20 05.06.2020
2014 Rain 11 990 87 10000 6.7 190 17:58 05.06.2020
2015 Rain 11 990 87 10000 6.7 190 17:40 05.06.2020
2016 Rain 11 989 87 10000 7.2 170 17:19 05.06.2020
2017 Rain 13 990 71 10000 7.7 180 16:40 05.06.2020
2018 Rain 15 990 62 10000 8.7 180 16:22 05.06.2020
2019 Clouds 15 990 58 10000 8.7 160 15:57 05.06.2020
2020 Clouds 15 990 58 10000 8.7 160 15:37 05.06.2020
2021 Clouds 16 990 54 10000 7.7 170 15:19 05.06.2020
2022 Clouds 16 991 51 10000 7.7 160 14:56 05.06.2020
2023 Clouds 16 991 51 10000 7.7 160 14:38 05.06.2020
2024 Clouds 16 991 54 10000 6.2 180 14:19 05.06.2020
2025 Clouds 17 992 51 10000 7.7 190 13:43 05.06.2020
2026 Clouds 16 993 54 10000 6.7 210 13:24 05.06.2020
2027 Clouds 16 993 58 0 7.2 200 12:55 05.06.2020
2028 Clouds 15 993 58 0 7.2 200 12:37 05.06.2020
2029 Clouds 15 993 58 10000 6.2 200 12:18 05.06.2020
2030 Clouds 14 994 62 10000 5.7 210 11:42 05.06.2020
2031 Clouds 13 994 66 10000 5.1 210 11:23 05.06.2020
2032 Clouds 13 994 58 10000 6.2 210 10:57 05.06.2020
2033 Clouds 13 994 58 10000 6.2 210 10:38 05.06.2020
2034 Clouds 13 994 66 10000 5.1 210 10:19 05.06.2020
2035 Clouds 13 994 76 10000 5.1 230 09:56 05.06.2020
2036 Clouds 13 994 76 10000 5.1 230 09:37 05.06.2020
2037 Clouds 12 994 76 10000 4.6 230 09:18 05.06.2020
2038 Clouds 11 995 76 10000 5.7 240 08:56 05.06.2020
2039 Clouds 11 995 76 10000 5.7 240 08:38 05.06.2020
2040 Clouds 11 995 76 10000 5.7 240 08:38 05.06.2020
2041 Clouds 10 995 81 10000 5.1 240 08:18 05.06.2020
2042 Clouds 10 994 87 10000 5.1 240 07:44 05.06.2020
2043 Clouds 10 994 93 10000 4.6 240 07:25 05.06.2020
2044 Clouds 9 994 93 10000 4.1 250 06:36 05.06.2020
2045 Rain 10 994 93 10000 3.6 240 05:22 05.06.2020
2046 Clouds 10 994 93 10000 4.1 250 04:27 05.06.2020
2047 Clouds 10 994 93 10000 3.6 250 03:29 05.06.2020
2048 Rain 10 994 93 10000 3.6 280 02:28 05.06.2020
2049 Rain 11 994 93 10000 4.6 270 01:57 05.06.2020
2050 Rain 11 994 93 10000 3.6 270 01:30 05.06.2020
2051 Rain 11 994 93 10000 4.6 280 00:43 05.06.2020
2052 Rain 11 994 93 10000 4.6 290 00:21 05.06.2020
2053 Rain 11 994 93 10000 3.1 290 23:47 04.06.2020
2054 Rain 11 994 93 10000 4.6 290 23:29 04.06.2020
2055 Drizzle 12 993 93 3000 3.6 260 22:57 04.06.2020
2056 Drizzle 12 993 93 3000 3.6 260 22:37 04.06.2020
2057 Rain 12 993 93 10000 3.1 260 22:18 04.06.2020
2058 Rain 12 993 93 10000 3.1 280 21:56 04.06.2020
2059 Rain 12 993 93 10000 3.1 280 21:38 04.06.2020
2060 Rain 12 993 93 10000 4.1 280 21:19 04.06.2020
2061 Rain 12 993 93 10000 3.6 280 20:55 04.06.2020
2062 Rain 12 993 93 10000 3.6 280 20:37 04.06.2020
2063 Rain 12 993 93 10000 5.1 300 20:18 04.06.2020
2064 Rain 12 993 93 10000 6.7 310 19:40 04.06.2020
2065 Rain 12 993 93 10000 6.7 310 19:21 04.06.2020
2066 Rain 12 993 93 6000 6.2 310 18:57 04.06.2020
2067 Rain 12 993 93 6000 6.2 310 18:38 04.06.2020
2068 Rain 13 993 93 6000 9.3 300 18:20 04.06.2020
2069 Rain 14 992 93 9000 2.6 260 17:43 04.06.2020
2070 Rain 15 993 87 10000 2.6 290 17:22 04.06.2020
2071 Rain 15 993 87 10000 4.1 310 16:57 04.06.2020
2072 Rain 15 993 87 10000 4.1 310 16:39 04.06.2020
2073 Rain 15 992 93 4500 4.1 270 16:19 04.06.2020
2074 Rain 16 992 82 6000 3.6 290 15:44 04.06.2020
2075 Clouds 16 993 82 8000 4.6 240 15:26 04.06.2020
2076 Rain 17 993 82 7000 4.6 240 14:42 04.06.2020
2077 Clouds 16 993 87 7000 4.6 240 14:22 04.06.2020
2078 Rain 16 993 87 6000 4.1 230 13:58 04.06.2020
2079 Rain 16 993 87 6000 4.1 230 13:40 04.06.2020
2080 Rain 16 994 93 5000 4.6 240 13:20 04.06.2020
2081 Rain 16 994 93 7000 3.6 220 12:59 04.06.2020
2082 Rain 16 994 93 7000 3.6 220 12:40 04.06.2020
2083 Rain 16 994 87 7000 4.6 230 12:22 04.06.2020
2084 Rain 16 994 82 8000 5.7 220 11:55 04.06.2020
2085 Rain 16 994 82 8000 5.7 220 11:37 04.06.2020
2086 Clouds 17 994 82 8000 5.7 220 11:19 04.06.2020
2087 Clouds 18 994 77 10000 5.1 190 10:41 04.06.2020
2088 Clouds 18 994 72 10000 3.6 170 10:23 04.06.2020
2089 Clouds 18 994 72 10000 3.1 160 09:58 04.06.2020
2090 Clouds 18 994 72 10000 3.1 160 09:40 04.06.2020
2091 Clouds 16 994 77 10000 2.6 140 09:21 04.06.2020
2092 Clouds 17 994 77 10000 2.1 170 08:44 04.06.2020
2093 Clouds 15 995 82 10000 2.6 160 08:25 04.06.2020
2094 Clouds 15 995 82 10000 2.6 160 08:25 04.06.2020
2095 Clouds 15 995 82 10000 2.1 160 07:47 04.06.2020
2096 Clouds 14 995 87 10000 1.5 140 07:26 04.06.2020
2097 Clouds 14 995 87 10000 1 100 06:43 04.06.2020
2098 Clouds 13 996 87 10000 1 90 06:24 04.06.2020
2099 Clouds 13 996 87 10000 1.5 60 05:34 04.06.2020
2100 Clouds 13 996 87 10000 1 70 04:31 04.06.2020
2101 Rain 14 997 77 10000 2.1 60 03:24 04.06.2020
2102 Clouds 16 998 72 10000 2.6 110 01:56 04.06.2020
2103 Clouds 16 999 67 10000 2.1 120 01:19 04.06.2020
2104 Clouds 17 999 67 10000 2.1 120 00:40 04.06.2020
2105 Clouds 17 1000 63 10000 3.6 110 23:44 03.06.2020
2106 Clouds 17 1000 63 10000 4.1 110 23:21 03.06.2020
2107 Clouds 18 1001 63 10000 2.1 90 22:59 03.06.2020
2108 Clouds 18 1001 63 10000 2.1 90 22:39 03.06.2020
2109 Clouds 18 1001 68 10000 4.1 80 22:19 03.06.2020
2110 Clouds 18 1001 68 10000 4.1 80 22:19 03.06.2020
2111 Clouds 17 1001 68 10000 3.6 80 21:57 03.06.2020
2112 Clouds 18 1001 68 10000 3.6 80 21:39 03.06.2020
2113 Clouds 19 1000 63 10000 4.6 90 21:21 03.06.2020
2114 Clouds 20 1000 56 10000 5.1 100 20:56 03.06.2020
2115 Clouds 20 1000 56 10000 5.1 100 20:37 03.06.2020
2116 Clouds 20 1000 56 10000 5.7 90 20:19 03.06.2020
2117 Clouds 21 1000 52 10000 5.7 80 19:56 03.06.2020
2118 Clouds 21 1000 52 10000 5.7 80 19:37 03.06.2020
2119 Clouds 21 1001 52 10000 6.2 80 19:19 03.06.2020
2120 Rain 22 1001 52 10000 6.2 90 18:54 03.06.2020
2121 Rain 22 1001 52 10000 6.2 90 18:36 03.06.2020
2122 Thunderstorm 23 1001 53 10000 5.7 80 18:18 03.06.2020
2123 Clouds 24 1001 43 10000 7.7 80 17:41 03.06.2020
2124 Clouds 25 1001 41 10000 7.2 60 17:21 03.06.2020
2125 Clouds 26 1001 30 10000 4.1 170 16:55 03.06.2020
2126 Clouds 26 1001 30 10000 4.1 170 16:37 03.06.2020
2127 Clouds 26 1001 32 10000 4.1 210 16:18 03.06.2020
2128 Thunderstorm 25 1001 28 10000 4.6 220 15:41 03.06.2020
2129 Clouds 27 1002 32 10000 4.1 200 15:21 03.06.2020
2130 Clouds 26 1002 36 10000 3.6 210 14:57 03.06.2020
2131 Clouds 26 1002 36 10000 3.6 210 14:37 03.06.2020
2132 Clouds 26 1003 36 10000 3.1 180 14:19 03.06.2020
2133 Clouds 26 1003 34 10000 3.1 180 13:38 03.06.2020
2134 Rain 26 1003 36 10000 4.1 190 13:19 03.06.2020
2135 Rain 25 1004 34 10000 3.6 130 12:43 03.06.2020
2136 Rain 26 1004 39 10000 3.6 110 12:22 03.06.2020
2137 Rain 25 1004 38 10000 3.1 120 11:57 03.06.2020
2138 Rain 25 1004 38 10000 3.1 120 11:38 03.06.2020
2139 Clouds 25 1005 41 10000 3.1 140 11:20 03.06.2020
2140 Clouds 23 1005 44 10000 3.6 140 10:41 03.06.2020
2141 Clouds 22 1005 46 10000 2.6 150 10:22 03.06.2020
2142 Clouds 22 1005 49 10000 3.1 150 09:45 03.06.2020
2143 Clouds 20 1005 52 10000 2.1 100 09:21 03.06.2020
2144 Clouds 20 1005 52 10000 2.1 100 08:59 03.06.2020
2145 Clouds 19 1006 56 10000 2.6 100 08:40 03.06.2020
2146 Clouds 19 1006 52 10000 2.1 120 08:19 03.06.2020
2147 Clouds 18 1006 59 10000 2.1 100 07:43 03.06.2020
2148 Rain 17 1006 67 10000 0.5 0 07:20 03.06.2020
2149 Rain 17 1007 67 10000 1 0 06:54 03.06.2020
2150 Rain 15 1007 67 10000 1 0 06:32 03.06.2020
2151 Clouds 14 1007 67 10000 1.5 150 05:47 03.06.2020
2152 Clouds 15 1008 63 10000 1.5 140 04:57 03.06.2020
2153 Clouds 16 1008 67 10000 2.6 110 03:51 03.06.2020
2154 Clouds 16 1009 67 10000 2.6 90 03:20 03.06.2020
2155 Clouds 16 1009 67 10000 2.6 90 02:23 03.06.2020
2156 Clouds 18 1010 63 10000 2.6 50 00:47 03.06.2020
2157 Clouds 18 1011 59 10000 3.1 50 00:25 03.06.2020
2158 Clouds 18 1011 59 10000 3.1 40 23:52 02.06.2020
2159 Clouds 18 1011 59 10000 3.1 40 23:52 02.06.2020
2160 Clouds 18 1011 56 10000 3.6 30 23:28 02.06.2020
2161 Clouds 19 1012 52 10000 2.1 30 22:58 02.06.2020
2162 Clouds 19 1012 52 10000 2.1 30 22:39 02.06.2020
2163 Clouds 19 1012 52 10000 2.1 30 22:39 02.06.2020
2164 Clouds 20 1012 49 10000 1 80 22:19 02.06.2020
2165 Clouds 21 1012 46 10000 1.5 80 21:57 02.06.2020
2166 Clouds 21 1012 46 10000 1.5 80 21:38 02.06.2020
2167 Clouds 24 1012 36 10000 1 0 21:20 02.06.2020
2168 Clouds 23 1012 38 10000 1 120 20:58 02.06.2020
2169 Clouds 24 1012 38 10000 1 120 20:40 02.06.2020
2170 Clouds 24 1012 33 10000 1 140 20:21 02.06.2020
2171 Clouds 25 1013 33 10000 2.1 120 19:44 02.06.2020
2172 Clouds 25 1013 31 10000 1.5 140 19:26 02.06.2020
2173 Clouds 25 1013 31 10000 1.5 140 19:26 02.06.2020
2174 Clouds 26 1013 29 10000 2.1 140 18:58 02.06.2020
2175 Clouds 26 1013 29 10000 2.1 140 18:58 02.06.2020
2176 Clouds 26 1013 29 10000 2.1 140 18:40 02.06.2020
2177 Clouds 26 1014 27 10000 2.6 150 18:20 02.06.2020
2178 Clouds 26 1014 29 10000 2.6 180 17:57 02.06.2020
2179 Clouds 26 1014 29 10000 2.6 180 17:39 02.06.2020
2180 Clouds 26 1015 29 10000 3.1 0 17:20 02.06.2020
2181 Clouds 26 1015 29 10000 2.6 150 16:55 02.06.2020
2182 Clouds 26 1015 29 10000 2.6 150 16:37 02.06.2020
2183 Clouds 26 1016 29 10000 1.5 0 16:19 02.06.2020
2184 Clouds 26 1016 29 10000 1.5 0 16:19 02.06.2020
2185 Clouds 25 1016 33 10000 3.1 100 15:40 02.06.2020
2186 Clouds 25 1016 31 10000 2.1 120 15:21 02.06.2020
2187 Clouds 25 1017 31 10000 3.1 0 14:48 02.06.2020
2188 Clouds 24 1017 36 10000 3.1 130 14:28 02.06.2020
2189 Clouds 24 1018 33 10000 3.6 120 13:57 02.06.2020
2190 Clouds 24 1018 33 10000 3.6 120 13:37 02.06.2020
2191 Clouds 24 1018 33 10000 3.6 120 13:37 02.06.2020
2192 Clouds 24 1018 35 10000 3.6 140 13:18 02.06.2020
2193 Clouds 24 1019 35 10000 3.6 110 12:57 02.06.2020
2194 Clouds 24 1019 35 10000 3.6 110 12:38 02.06.2020
2195 Clouds 23 1019 35 10000 4.1 110 12:20 02.06.2020
2196 Clouds 23 1019 38 10000 3.6 130 11:43 02.06.2020
2197 Clouds 22 1020 40 10000 4.1 120 11:24 02.06.2020
2198 Clouds 22 1020 40 10000 4.1 120 10:59 02.06.2020
2199 Clouds 21 1020 40 10000 4.6 140 10:41 02.06.2020
2200 Clouds 21 1020 40 10000 4.6 140 10:41 02.06.2020
2201 Clouds 20 1020 42 10000 4.1 120 10:22 02.06.2020
2202 Clouds 20 1021 45 10000 4.6 110 09:43 02.06.2020
2203 Clouds 17 1021 48 10000 5.1 120 09:22 02.06.2020
2204 Clouds 17 1021 51 10000 3.6 120 08:57 02.06.2020
2205 Clouds 17 1021 51 10000 4.6 110 08:29 02.06.2020
2206 Clouds 16 1021 55 10000 4.1 110 07:59 02.06.2020
2207 Clouds 16 1021 55 10000 4.1 110 07:39 02.06.2020
2208 Clouds 15 1021 62 10000 2.1 80 07:19 02.06.2020
2209 Clouds 12 1021 71 10000 1.5 70 06:43 02.06.2020
2210 Clouds 11 1021 81 10000 3.1 80 05:46 02.06.2020
2211 Clouds 12 1021 76 10000 1 0 04:54 02.06.2020
2212 Clouds 13 1022 71 10000 3.1 80 03:20 02.06.2020
2213 Clouds 14 1022 67 10000 2.6 70 02:20 02.06.2020
2214 Clouds 15 1022 59 10000 4.1 80 00:57 02.06.2020
2215 Clouds 16 1022 55 0 4.1 70 00:23 02.06.2020
2216 Clouds 17 1022 52 10000 5.1 70 23:54 01.06.2020
2217 Clouds 18 1022 52 10000 5.1 70 23:36 01.06.2020
2218 Clouds 18 1022 52 10000 5.1 70 23:36 01.06.2020
2219 Clouds 18 1022 52 10000 5.7 60 23:18 01.06.2020
2220 Clouds 19 1022 48 10000 5.1 60 22:40 01.06.2020
2221 Clouds 20 1022 45 10000 5.7 60 22:20 01.06.2020
2222 Clouds 20 1021 43 10000 5.1 60 21:57 01.06.2020
2223 Clouds 21 1021 43 10000 5.1 60 21:37 01.06.2020
2224 Clouds 21 1021 40 10000 5.7 60 21:18 01.06.2020
2225 Clouds 22 1021 40 10000 4.6 60 20:55 01.06.2020
2226 Clouds 22 1021 40 10000 4.6 60 20:55 01.06.2020
2227 Clouds 22 1021 40 10000 4.6 60 20:37 01.06.2020
2228 Clouds 23 1021 35 10000 4.6 70 20:18 01.06.2020
2229 Clouds 23 1021 35 10000 4.6 70 19:43 01.06.2020
2230 Clear 24 1021 33 10000 5.7 70 19:21 01.06.2020
2231 Clear 24 1022 31 10000 5.7 60 18:59 01.06.2020
2232 Clear 24 1022 31 10000 5.7 60 18:39 01.06.2020
2233 Clear 25 1022 29 10000 6.2 60 18:20 01.06.2020
2234 Clear 25 1022 31 10000 5.7 80 17:58 01.06.2020
2235 Clear 25 1022 31 10000 5.7 80 17:40 01.06.2020
2236 Clear 24 1022 31 10000 5.7 70 17:19 01.06.2020
2237 Clear 24 1023 33 10000 5.7 50 16:42 01.06.2020
2238 Clear 24 1023 33 10000 6.7 60 16:22 01.06.2020
2239 Clear 23 1023 33 10000 5.7 70 15:56 01.06.2020
2240 Clear 23 1023 33 10000 5.7 70 15:37 01.06.2020
2241 Clear 23 1023 35 10000 5.1 60 15:19 01.06.2020
2242 Clear 23 1024 36 10000 4.1 80 14:57 01.06.2020
2243 Clear 23 1024 36 10000 4.1 80 14:38 01.06.2020
2244 Clouds 22 1024 37 10000 5.7 80 14:20 01.06.2020
2245 Clouds 22 1024 40 10000 5.7 80 13:44 01.06.2020
2246 Clouds 22 1024 40 10000 5.7 80 13:22 01.06.2020
2247 Clouds 22 1025 40 10000 5.7 90 12:59 01.06.2020
2248 Clouds 21 1025 45 10000 4.6 60 12:40 01.06.2020
2249 Clouds 19 1025 45 10000 4.6 60 12:22 01.06.2020
2250 Clouds 18 1025 45 10000 5.1 60 11:59 01.06.2020
2251 Clouds 18 1025 52 10000 4.1 60 11:38 01.06.2020
2252 Clouds 18 1025 52 10000 4.1 60 11:19 01.06.2020
2253 Clouds 17 1025 55 10000 4.6 50 10:56 01.06.2020
2254 Clouds 17 1025 59 10000 4.1 60 10:37 01.06.2020
2255 Clear 17 1025 59 10000 4.1 60 10:18 01.06.2020
2256 Clear 16 1025 58 10000 4.1 70 09:46 01.06.2020
2257 Clear 13 1025 62 10000 4.1 80 09:26 01.06.2020
2258 Clear 13 1025 58 10000 4.6 80 08:57 01.06.2020
2259 Clear 12 1025 62 10000 5.1 70 08:37 01.06.2020
2260 Clear 12 1025 62 10000 5.1 70 08:19 01.06.2020
2261 Clear 11 1025 62 10000 4.1 60 07:41 01.06.2020
2262 Clear 12 1025 62 10000 4.1 60 07:22 01.06.2020
2263 Clear 11 1025 62 10000 3.6 50 06:49 01.06.2020
2264 Clear 9 1025 66 10000 3.6 50 05:57 01.06.2020
2265 Clear 9 1025 66 10000 2.6 50 05:18 01.06.2020
2266 Clear 11 1025 57 10000 2.1 40 03:57 01.06.2020
2267 Clear 11 1025 57 10000 3.1 60 03:39 01.06.2020
2268 Clear 12 1025 54 10000 3.6 60 02:56 01.06.2020
2269 Clouds 13 1025 54 10000 4.1 60 01:40 01.06.2020
2270 Clouds 13 1025 54 10000 4.1 60 01:18 01.06.2020
2271 Clouds 14 1025 54 10000 4.6 60 00:56 01.06.2020
2272 Clouds 15 1025 58 10000 5.1 70 00:37 01.06.2020
2273 Clouds 15 1025 58 10000 5.1 70 00:19 01.06.2020
2274 Clouds 16 1024 63 10000 4.6 50 23:41 31.05.2020
2275 Clouds 16 1024 63 10000 4.6 50 23:22 31.05.2020
2276 Clouds 16 1024 55 10000 4.1 50 22:59 31.05.2020
2277 Clouds 18 1024 52 10000 5.1 50 22:40 31.05.2020
2278 Clouds 17 1024 52 10000 5.1 50 22:22 31.05.2020
2279 Clouds 17 1024 48 10000 4.6 50 21:57 31.05.2020
2280 Clouds 18 1023 42 10000 4.1 50 21:39 31.05.2020
2281 Clouds 18 1023 42 10000 4.1 50 21:20 31.05.2020
2282 Clouds 19 1023 39 10000 5.7 50 20:45 31.05.2020
2283 Clouds 20 1023 37 10000 6.2 50 20:25 31.05.2020
2284 Clouds 20 1023 37 10000 5.7 50 19:56 31.05.2020
2285 Clouds 21 1023 37 10000 5.7 50 19:38 31.05.2020
2286 Clouds 21 1023 37 10000 5.7 50 19:20 31.05.2020
2287 Clouds 21 1023 37 10000 5.7 50 19:20 31.05.2020
2288 Clouds 21 1023 37 10000 7.2 30 18:56 31.05.2020
2289 Clouds 21 1023 37 10000 6.7 60 18:37 31.05.2020
2290 Clouds 21 1023 37 10000 6.7 60 18:19 31.05.2020
2291 Clouds 21 1023 40 10000 4.6 50 17:42 31.05.2020
2292 Clouds 21 1023 40 10000 4.6 50 17:24 31.05.2020
2293 Clouds 21 1023 40 10000 6.2 80 16:42 31.05.2020
2294 Clouds 21 1023 40 10000 6.2 80 16:22 31.05.2020
2295 Clouds 21 1023 40 10000 5.1 60 15:57 31.05.2020
2296 Clouds 21 1024 40 10000 6.7 60 15:37 31.05.2020
2297 Clouds 21 1024 40 10000 6.7 60 15:19 31.05.2020
2298 Clouds 21 1024 42 10000 7.2 70 14:42 31.05.2020
2299 Clouds 20 1024 42 10000 7.2 70 14:19 31.05.2020
2300 Clouds 20 1024 42 10000 6.7 40 13:56 31.05.2020
2301 Clouds 20 1024 42 10000 8.2 40 13:37 31.05.2020
2302 Clouds 20 1024 42 10000 8.2 40 13:19 31.05.2020
2303 Clouds 20 1024 45 10000 5.7 40 12:55 31.05.2020
2304 Clouds 20 1024 45 10000 6.7 40 12:36 31.05.2020
2305 Clouds 18 1024 45 10000 6.7 40 12:18 31.05.2020
2306 Clouds 18 1025 48 10000 5.7 40 11:42 31.05.2020
2307 Clouds 18 1025 48 10000 5.7 40 11:21 31.05.2020
2308 Clouds 18 1025 48 10000 5.7 50 10:55 31.05.2020
2309 Clouds 17 1025 48 10000 6.2 20 10:37 31.05.2020
2310 Clouds 18 1025 48 10000 6.2 20 10:18 31.05.2020
2311 Clouds 16 1025 54 10000 4.6 60 09:42 31.05.2020
2312 Clouds 14 1025 54 10000 4.6 60 09:22 31.05.2020
2313 Clouds 14 1025 62 10000 3.6 40 08:56 31.05.2020
2314 Clouds 13 1025 66 10000 4.1 40 08:36 31.05.2020
2315 Clouds 13 1025 66 10000 4.1 40 08:18 31.05.2020
2316 Clouds 12 1025 66 10000 3.1 50 07:39 31.05.2020
2317 Clouds 12 1025 66 10000 3.1 50 07:18 31.05.2020
2318 Clouds 11 1025 71 10000 2.6 50 06:49 31.05.2020
2319 Clouds 10 1025 76 10000 3.1 40 06:31 31.05.2020
2320 Clouds 10 1025 76 10000 2.6 40 05:40 31.05.2020
2321 Clouds 10 1025 71 10000 2.6 50 04:22 31.05.2020
2322 Clouds 10 1025 71 10000 3.1 70 03:48 31.05.2020
2323 Clouds 10 1025 66 10000 2.6 60 02:59 31.05.2020
2324 Clouds 12 1025 58 10000 2.6 50 01:48 31.05.2020
2325 Clouds 13 1025 50 10000 3.6 50 00:59 31.05.2020
2326 Clouds 13 1024 50 10000 3.6 60 00:29 31.05.2020
2327 Clear 13 1024 54 10000 2.6 60 23:55 30.05.2020
2328 Clear 13 1024 54 10000 2.6 60 23:36 30.05.2020
2329 Clear 13 1024 54 10000 2.6 60 23:18 30.05.2020
2330 Clear 16 1024 48 10000 4.1 50 22:41 30.05.2020
2331 Clear 16 1024 48 10000 4.1 50 22:22 30.05.2020
2332 Clear 16 1024 48 10000 4.1 50 22:22 30.05.2020
2333 Clear 16 1024 45 10000 4.1 50 21:56 30.05.2020
2334 Clear 16 1024 45 10000 4.1 50 21:56 30.05.2020
2335 Clear 17 1024 39 10000 4.6 50 21:37 30.05.2020
2336 Clear 18 1024 39 10000 4.6 50 21:19 30.05.2020
2337 Clear 18 1024 39 10000 7.2 50 20:56 30.05.2020
2338 Clear 19 1023 39 10000 4.6 50 20:37 30.05.2020
2339 Clear 19 1023 39 10000 4.6 50 20:37 30.05.2020
2340 Rain 19 1023 39 10000 4.6 50 20:19 30.05.2020
2341 Rain 20 1023 40 10000 5.7 50 19:42 30.05.2020
2342 Rain 20 1023 40 10000 5.7 50 19:22 30.05.2020
2343 Rain 20 1023 40 10000 6.2 80 18:46 30.05.2020
2344 Rain 21 1023 37 10000 6.2 60 18:24 30.05.2020
2345 Rain 20 1024 32 10000 5.7 50 17:55 30.05.2020
2346 Rain 21 1024 33 10000 5.7 60 17:37 30.05.2020
2347 Rain 22 1024 33 10000 5.7 60 17:18 30.05.2020
2348 Rain 21 1024 35 10000 5.7 60 16:43 30.05.2020
2349 Clouds 22 1024 35 10000 5.7 60 16:22 30.05.2020
2350 Clouds 21 1024 35 10000 5.1 70 15:55 30.05.2020
2351 Clouds 22 1024 30 10000 3.6 60 15:37 30.05.2020
2352 Clouds 21 1024 30 10000 3.6 60 15:19 30.05.2020
2353 Clouds 21 1025 32 10000 4.1 80 14:42 30.05.2020
2354 Clear 21 1025 32 10000 4.1 80 14:20 30.05.2020
2355 Clear 21 1026 32 10000 2.6 0 13:41 30.05.2020
2356 Clear 20 1026 32 10000 2.6 0 13:18 30.05.2020
2357 Clear 20 1026 37 10000 2.1 0 12:40 30.05.2020
2358 Clear 19 1026 37 10000 2.1 0 12:20 30.05.2020
2359 Clear 19 1026 39 10000 2.6 100 11:55 30.05.2020
2360 Clear 19 1026 39 10000 2.6 0 11:37 30.05.2020
2361 Clear 19 1026 39 10000 2.6 0 11:19 30.05.2020
2362 Clear 18 1027 52 10000 2.6 130 10:39 30.05.2020
2363 Clear 19 1027 52 10000 2.6 130 10:20 30.05.2020
2364 Clear 17 1027 55 10000 3.1 100 09:46 30.05.2020
2365 Clear 14 1027 55 10000 2.6 80 09:28 30.05.2020
2366 Clear 14 1027 62 10000 3.1 80 08:46 30.05.2020
2367 Clear 13 1027 62 10000 2.6 80 08:28 30.05.2020
2368 Clear 12 1027 66 10000 3.1 60 07:44 30.05.2020
2369 Clear 12 1027 71 10000 2.1 70 07:21 30.05.2020
2370 Clear 8 1027 81 10000 1.5 50 06:33 30.05.2020
2371 Clear 8 1027 81 10000 1.5 60 05:58 30.05.2020
2372 Clear 8 1027 81 10000 2.1 50 05:34 30.05.2020
2373 Clear 10 1027 76 10000 2.1 50 03:39 30.05.2020
2374 Clouds 11 1027 71 10000 2.1 70 02:30 30.05.2020
2375 Clear 11 1027 66 10000 2.6 60 01:46 30.05.2020
2376 Clear 12 1026 54 10000 3.6 40 00:38 30.05.2020
2377 Clear 13 1026 54 10000 3.6 40 00:19 30.05.2020
2378 Clear 13 1026 54 10000 4.1 40 23:57 29.05.2020
2379 Clear 14 1026 54 10000 3.6 30 23:37 29.05.2020
2380 Clear 14 1026 54 10000 3.6 30 23:18 29.05.2020
2381 Clear 15 1026 55 10000 5.7 20 22:40 29.05.2020
2382 Clear 16 1026 55 10000 5.7 20 22:19 29.05.2020
2383 Clear 16 1026 55 10000 6.2 10 21:58 29.05.2020
2384 Clear 17 1026 52 10000 6.2 10 21:38 29.05.2020
2385 Clear 17 1026 52 10000 6.2 10 21:20 29.05.2020
2386 Clear 18 1026 45 10000 6.7 20 20:45 29.05.2020
2387 Clear 20 1026 30 10000 2.6 50 20:21 29.05.2020
2388 Clear 21 1026 28 10000 2.6 90 19:59 29.05.2020
2389 Clear 21 1026 26 10000 3.1 40 19:41 29.05.2020
2390 Clear 22 1026 26 10000 3.1 40 19:23 29.05.2020
2391 Clear 22 1026 27 10000 1.5 0 18:47 29.05.2020
2392 Clear 22 1026 27 10000 1.5 0 18:47 29.05.2020
2393 Clear 21 1026 28 10000 3.6 50 18:21 29.05.2020
2394 Clear 22 1026 26 10000 2.6 70 17:57 29.05.2020
2395 Clear 22 1027 28 10000 3.1 110 17:38 29.05.2020
2396 Clear 22 1027 28 10000 3.1 110 17:19 29.05.2020
2397 Clear 22 1027 28 10000 2.6 140 16:45 29.05.2020
2398 Clear 22 1027 26 10000 1.5 0 16:27 29.05.2020
2399 Clear 22 1028 28 10000 2.1 0 15:57 29.05.2020
2400 Clear 22 1028 30 10000 3.6 80 15:39 29.05.2020
2401 Clear 21 1028 30 10000 3.6 80 15:20 29.05.2020
2402 Clear 21 1028 30 10000 2.1 0 14:51 29.05.2020
2403 Clear 21 1029 30 10000 2.6 40 14:24 29.05.2020
2404 Clear 20 1029 37 10000 2.6 120 13:59 29.05.2020
2405 Clear 21 1029 40 10000 3.1 0 13:41 29.05.2020
2406 Clear 20 1029 40 10000 3.1 0 13:21 29.05.2020
2407 Clear 19 1030 42 10000 2.1 0 12:45 29.05.2020
2408 Clear 19 1030 45 10000 2.6 0 12:26 29.05.2020
2409 Clear 18 1030 48 10000 2.6 100 11:59 29.05.2020
2410 Clear 18 1031 51 10000 2.1 70 11:41 29.05.2020
2411 Clear 17 1031 51 10000 2.1 70 11:22 29.05.2020
2412 Clear 17 1031 55 10000 2.1 160 10:43 29.05.2020
2413 Clear 16 1031 55 10000 2.1 160 10:23 29.05.2020
2414 Clear 16 1031 58 10000 1.5 0 09:56 29.05.2020
2415 Clear 15 1031 67 10000 2.1 120 09:38 29.05.2020
2416 Clear 13 1031 67 10000 2.1 120 09:19 29.05.2020
2417 Clear 13 1031 71 10000 2.1 100 08:46 29.05.2020
2418 Clear 11 1031 76 10000 1.5 50 08:22 29.05.2020
2419 Clear 9 1031 81 10000 1.5 80 07:47 29.05.2020
2420 Clear 10 1031 81 10000 1.5 50 07:29 29.05.2020
2421 Clear 9 1031 93 10000 2.1 40 06:55 29.05.2020
2422 Clear 8 1031 93 10000 2.1 40 06:37 29.05.2020
2423 Clear 7 1031 93 10000 2.1 40 06:18 29.05.2020
2424 Clear 6 1031 100 10000 0.5 0 05:36 29.05.2020
2425 Clear 9 1031 81 10000 2.6 360 01:48 29.05.2020
2426 Clear 9 1031 81 10000 3.1 340 01:27 29.05.2020
2427 Clear 9 1031 81 10000 3.1 340 01:27 29.05.2020
2428 Clear 9 1031 81 10000 3.1 330 00:50 29.05.2020
2429 Clear 9 1031 76 10000 3.1 340 00:28 29.05.2020
2430 Clear 9 1031 76 10000 4.1 350 23:56 28.05.2020
2431 Clear 10 1031 76 10000 3.6 350 23:38 28.05.2020
2432 Clear 10 1031 76 10000 3.6 350 23:18 28.05.2020
2433 Clear 11 1031 71 10000 4.6 330 22:41 28.05.2020
2434 Clear 11 1031 71 10000 4.6 330 22:21 28.05.2020
2435 Clear 12 1031 71 10000 5.7 330 21:55 28.05.2020
2436 Clear 12 1031 62 10000 5.1 330 21:37 28.05.2020
2437 Clear 12 1031 62 10000 5.1 330 21:18 28.05.2020
2438 Clouds 13 1031 62 10000 5.1 340 20:55 28.05.2020
2439 Clouds 14 1031 58 10000 5.7 340 20:36 28.05.2020
2440 Clear 14 1031 58 10000 5.7 340 20:18 28.05.2020
2441 Clear 14 1031 58 10000 5.7 340 20:18 28.05.2020
2442 Clouds 16 1031 55 10000 6.2 340 19:43 28.05.2020
2443 Clouds 17 1031 55 10000 6.2 340 19:20 28.05.2020
2444 Clouds 17 1032 51 10000 5.7 350 18:57 28.05.2020
2445 Clouds 17 1032 51 10000 5.7 330 18:39 28.05.2020
2446 Clouds 17 1032 51 10000 5.7 330 18:21 28.05.2020
2447 Clouds 18 1032 48 10000 5.7 330 17:41 28.05.2020
2448 Clouds 18 1032 48 10000 5.7 330 17:22 28.05.2020
2449 Clouds 18 1032 48 10000 5.1 330 16:56 28.05.2020
2450 Clouds 18 1032 48 10000 5.7 340 16:37 28.05.2020
2451 Clouds 18 1032 48 10000 5.7 340 16:18 28.05.2020
2452 Clouds 18 1032 45 10000 5.1 360 15:42 28.05.2020
2453 Clouds 18 1032 45 10000 5.1 360 15:23 28.05.2020
2454 Clouds 18 1032 42 10000 5.7 340 14:44 28.05.2020
2455 Clouds 18 1033 48 10000 5.1 340 14:25 28.05.2020
2456 Clouds 18 1033 42 10000 3.6 0 13:58 28.05.2020
2457 Clouds 18 1033 48 10000 5.7 340 13:39 28.05.2020
2458 Clouds 18 1033 48 10000 5.7 340 13:20 28.05.2020
2459 Clouds 17 1033 51 10000 4.6 330 12:42 28.05.2020
2460 Clouds 17 1033 51 10000 4.6 330 12:19 28.05.2020
2461 Clouds 17 1034 55 10000 5.1 330 11:43 28.05.2020
2462 Clouds 17 1034 55 10000 5.1 330 11:24 28.05.2020
2463 Clouds 16 1034 54 10000 5.1 350 10:57 28.05.2020
2464 Clouds 16 1034 54 10000 5.7 350 10:39 28.05.2020
2465 Clouds 15 1034 54 10000 5.7 350 10:19 28.05.2020
2466 Clouds 14 1034 62 10000 5.1 350 09:39 28.05.2020
2467 Clouds 13 1034 62 10000 5.1 350 09:20 28.05.2020
2468 Clouds 13 1034 66 10000 4.6 350 08:50 28.05.2020
2469 Clear 12 1034 71 10000 4.1 360 08:26 28.05.2020
2470 Clear 11 1034 81 10000 3.1 310 07:45 28.05.2020
2471 Clear 10 1034 87 10000 3.1 290 07:26 28.05.2020
2472 Clouds 9 1034 87 10000 2.6 290 06:59 28.05.2020
2473 Clouds 9 1034 81 10000 3.1 330 06:38 28.05.2020
2474 Clouds 9 1034 81 10000 3.1 330 06:19 28.05.2020
2475 Clear 9 1034 81 10000 3.1 330 05:36 28.05.2020
2476 Clear 9 1034 81 10000 3.6 340 04:32 28.05.2020
2477 Clear 9 1034 81 10000 4.6 350 03:48 28.05.2020
2478 Clear 10 1034 76 10000 4.6 340 02:47 28.05.2020
2479 Clouds 10 1034 76 10000 5.1 350 01:54 28.05.2020
2480 Clouds 11 1034 76 10000 5.1 350 01:27 28.05.2020
2481 Clouds 11 1034 71 10000 5.7 350 00:46 28.05.2020
2482 Clouds 12 1034 71 10000 5.7 350 00:19 28.05.2020
2483 Clouds 12 1034 71 10000 5.1 340 23:40 27.05.2020
2484 Clouds 13 1034 71 10000 5.1 340 23:21 27.05.2020
2485 Clouds 13 1034 71 10000 5.1 340 23:21 27.05.2020
2486 Clouds 13 1033 71 10000 6.2 340 22:59 27.05.2020
2487 Clouds 13 1033 67 10000 4.6 340 22:40 27.05.2020
2488 Clouds 13 1033 67 10000 4.6 340 22:22 27.05.2020
2489 Clouds 13 1033 67 10000 4.6 340 22:22 27.05.2020
2490 Clouds 14 1032 67 10000 5.1 340 21:55 27.05.2020
2491 Clouds 14 1032 67 10000 5.7 350 21:37 27.05.2020
2492 Clouds 14 1032 67 10000 5.7 350 21:18 27.05.2020
2493 Clouds 14 1032 67 10000 6.7 340 20:54 27.05.2020
2494 Clouds 14 1032 62 10000 6.7 320 20:36 27.05.2020
2495 Clouds 15 1032 62 10000 6.7 320 20:18 27.05.2020
2496 Clouds 16 1032 51 10000 8.2 330 19:41 27.05.2020
2497 Clouds 16 1032 51 10000 8.2 330 19:20 27.05.2020
2498 Clouds 17 1032 55 10000 7.7 340 18:44 27.05.2020
2499 Clouds 18 1032 55 10000 7.7 320 18:20 27.05.2020
2500 Clouds 19 1032 55 10000 7.2 330 17:58 27.05.2020
2501 Clouds 20 1032 55 10000 6.7 340 17:39 27.05.2020
2502 Clouds 20 1032 55 10000 6.7 340 17:20 27.05.2020
2503 Clouds 20 1032 52 10000 6.7 340 16:56 27.05.2020
2504 Clouds 20 1032 52 10000 6.7 340 16:38 27.05.2020
2505 Clouds 20 1032 52 10000 6.7 340 16:19 27.05.2020
2506 Clouds 21 1032 49 10000 5.1 330 15:47 27.05.2020
2507 Clouds 21 1032 49 10000 5.1 330 15:22 27.05.2020
2508 Clouds 21 1032 49 10000 5.1 320 14:46 27.05.2020
2509 Clouds 21 1032 45 10000 4.6 310 14:22 27.05.2020
2510 Clouds 21 1032 49 10000 4.1 300 13:58 27.05.2020
2511 Clouds 21 1033 45 10000 3.6 320 13:39 27.05.2020
2512 Clouds 21 1033 45 10000 3.6 320 13:21 27.05.2020
2513 Rain 21 1033 52 10000 3.1 310 12:42 27.05.2020
2514 Rain 20 1033 52 10000 3.1 310 12:23 27.05.2020
2515 Rain 20 1033 52 10000 3.1 300 11:55 27.05.2020
2516 Rain 19 1033 52 10000 2.1 310 11:36 27.05.2020
2517 Clouds 19 1033 52 10000 2.1 310 11:18 27.05.2020
2518 Clouds 19 1033 59 10000 2.6 320 10:43 27.05.2020
2519 Clouds 19 1033 59 10000 2.6 320 10:24 27.05.2020
2520 Clouds 17 1033 63 10000 2.6 330 09:56 27.05.2020
2521 Clouds 17 1033 63 10000 2.1 270 09:38 27.05.2020
2522 Clouds 16 1033 63 10000 2.1 270 09:20 27.05.2020
2523 Clouds 13 1033 93 10000 1 0 08:42 27.05.2020
2524 Clouds 13 1033 93 10000 1 0 08:24 27.05.2020
2525 Clouds 12 1033 100 10000 0.5 250 07:53 27.05.2020
2526 Clouds 11 1033 100 10000 1 0 07:34 27.05.2020
2527 Mist 9 1033 100 2300 0.5 0 06:56 27.05.2020
2528 Fog 7 1033 100 600 1 220 06:30 27.05.2020
2529 Fog 7 1034 100 800 1 0 05:50 27.05.2020
2530 Fog 7 1034 100 800 1 240 05:30 27.05.2020
2531 Clouds 9 1034 100 7000 1 290 04:18 27.05.2020
2532 Clouds 10 1034 93 10000 1 240 02:30 27.05.2020
2533 Clouds 10 1034 87 10000 1 0 01:45 27.05.2020
2534 Clouds 12 1034 81 10000 0.5 0 00:59 27.05.2020
2535 Clouds 12 1034 87 10000 2.1 290 00:41 27.05.2020
2536 Clouds 12 1034 87 10000 2.1 290 00:19 27.05.2020
2537 Clouds 14 1034 71 10000 0.5 0 23:42 26.05.2020
2538 Clouds 14 1034 71 10000 0.5 0 23:24 26.05.2020
2539 Clouds 14 1034 67 10000 1 140 22:59 26.05.2020
2540 Clouds 14 1034 67 10000 1 140 22:58 26.05.2020
2541 Clouds 15 1034 63 10000 1.5 140 22:38 26.05.2020
2542 Clouds 16 1034 63 10000 1.5 140 22:20 26.05.2020
2543 Clouds 17 1034 59 10000 1.5 140 21:56 26.05.2020
2544 Clouds 17 1034 59 10000 1.5 140 21:56 26.05.2020
2545 Clouds 18 1034 59 10000 1.5 140 21:38 26.05.2020
2546 Clouds 19 1034 59 10000 1.5 140 21:19 26.05.2020
2547 Clouds 19 1034 52 10000 3.1 150 20:42 26.05.2020
2548 Clouds 19 1034 52 10000 3.1 150 20:21 26.05.2020
2549 Clouds 20 1034 45 10000 2.1 150 19:56 26.05.2020
2550 Clouds 20 1034 42 10000 1.5 260 19:37 26.05.2020
2551 Clouds 21 1034 42 10000 1.5 260 19:18 26.05.2020
2552 Clouds 21 1034 40 10000 2.1 40 18:42 26.05.2020
2553 Clouds 21 1034 40 10000 2.1 40 18:22 26.05.2020
2554 Clouds 21 1034 43 10000 2.1 0 17:55 26.05.2020
2555 Clouds 21 1035 43 10000 2.1 200 17:37 26.05.2020
2556 Clouds 21 1035 43 10000 2.1 200 17:19 26.05.2020
2557 Clouds 20 1035 45 10000 1.5 0 16:41 26.05.2020
2558 Clouds 20 1035 45 10000 1.5 0 16:19 26.05.2020
2559 Clouds 19 1035 45 10000 1.5 0 15:54 26.05.2020
2560 Clouds 19 1035 45 10000 2.1 70 15:36 26.05.2020
2561 Clouds 19 1035 45 10000 2.1 70 15:18 26.05.2020
2562 Clouds 20 1036 52 10000 1.5 0 14:43 26.05.2020
2563 Clouds 19 1036 52 10000 1.5 0 14:22 26.05.2020
2564 Clouds 19 1036 59 10000 1.5 0 13:55 26.05.2020
2565 Clouds 19 1036 59 10000 1.5 0 13:37 26.05.2020
2566 Clouds 19 1036 59 10000 1.5 0 13:18 26.05.2020
2567 Clouds 17 1036 67 10000 2.1 330 12:41 26.05.2020
2568 Clouds 15 1036 71 10000 2.6 310 12:20 26.05.2020
2569 Clouds 14 1036 71 10000 2.6 310 11:57 26.05.2020
2570 Clouds 14 1036 76 10000 2.1 310 11:39 26.05.2020
2571 Clouds 13 1036 76 10000 2.1 310 11:18 26.05.2020
2572 Clouds 12 1036 81 8000 1.09 247 10:41 26.05.2020
2573 Clouds 12 1036 81 8000 1.09 247 10:41 26.05.2020
2574 Clouds 12 1036 81 8000 1.03 267 10:19 26.05.2020
2575 Clouds 11 1036 87 8000 1.5 210 09:40 26.05.2020
2576 Clouds 11 1036 87 8000 1.5 210 09:20 26.05.2020
2577 Clouds 10 1036 87 10000 2.1 270 08:43 26.05.2020
2578 Clouds 10 1036 87 10000 2.1 270 08:43 26.05.2020
2579 Clouds 10 1036 87 10000 2.1 270 08:22 26.05.2020
2580 Clouds 10 1035 87 10000 0.5 0 07:57 26.05.2020
2581 Clouds 9 1035 87 10000 0.5 210 07:37 26.05.2020
2582 Clouds 9 1035 87 10000 0.5 210 07:18 26.05.2020
2583 Clouds 10 1035 87 10000 2.6 320 06:45 26.05.2020
2584 Clouds 9 1035 87 10000 2.6 320 06:19 26.05.2020
2585 Clouds 9 1035 87 10000 2.1 290 05:35 26.05.2020
2586 Clouds 9 1035 87 10000 2.1 320 04:56 26.05.2020
2587 Clouds 9 1035 87 10000 3.1 310 04:37 26.05.2020
2588 Clouds 9 1035 87 10000 3.1 310 04:18 26.05.2020
2589 Clouds 9 1035 87 10000 3.1 340 02:51 26.05.2020
2590 Clouds 9 1034 87 10000 2.1 10 02:21 26.05.2020
2591 Clouds 9 1034 81 10000 2.6 350 01:40 26.05.2020
2592 Clouds 9 1034 81 10000 3.1 350 00:39 26.05.2020
2593 Clouds 10 1034 81 10000 3.1 350 00:20 26.05.2020
2594 Clouds 10 1034 81 10000 4.1 350 23:58 25.05.2020
2595 Clouds 10 1034 71 10000 5.1 350 23:38 25.05.2020
2596 Clouds 11 1034 71 10000 5.1 350 23:19 25.05.2020
2597 Clouds 11 1034 76 10000 5.1 340 22:55 25.05.2020
2598 Clouds 11 1034 71 10000 4.1 330 22:37 25.05.2020
2599 Clouds 11 1034 71 10000 4.1 330 22:19 25.05.2020
2600 Clouds 11 1034 71 10000 5.1 340 21:57 25.05.2020
2601 Clouds 11 1034 71 10000 4.6 330 21:37 25.05.2020
2602 Clouds 11 1034 71 10000 4.6 330 21:18 25.05.2020
2603 Clouds 11 1034 71 10000 4.6 330 21:18 25.05.2020
2604 Clouds 12 1033 71 10000 4.6 320 20:57 25.05.2020
2605 Clouds 12 1033 71 10000 5.1 340 20:38 25.05.2020
2606 Clouds 12 1033 71 10000 5.1 340 20:19 25.05.2020
2607 Clouds 12 1033 66 10000 6.7 340 19:41 25.05.2020
2608 Clouds 12 1033 66 10000 6.7 340 19:20 25.05.2020
2609 Clouds 13 1033 66 10000 6.2 340 18:58 25.05.2020
2610 Clouds 14 1033 62 10000 6.2 330 18:40 25.05.2020
2611 Clouds 14 1033 62 10000 6.2 330 18:21 25.05.2020
2612 Clouds 14 1032 66 10000 6.2 350 17:44 25.05.2020
2613 Clouds 14 1032 66 10000 6.2 350 17:25 25.05.2020
2614 Clouds 14 1032 62 10000 6.7 350 16:59 25.05.2020
2615 Clouds 15 1032 62 10000 6.7 320 16:40 25.05.2020
2616 Clouds 15 1032 62 10000 6.7 320 16:40 25.05.2020
2617 Clouds 15 1032 62 10000 6.7 320 16:22 25.05.2020
2618 Clouds 15 1032 62 10000 6.7 320 16:22 25.05.2020
2619 Clouds 15 1032 62 10000 8.2 310 15:58 25.05.2020
2620 Clouds 15 1032 62 10000 8.2 310 15:58 25.05.2020
2621 Clouds 15 1032 62 10000 6.7 320 15:39 25.05.2020
2622 Clouds 15 1032 62 10000 6.7 320 15:18 25.05.2020
2623 Clouds 14 1032 62 10000 7.2 310 14:43 25.05.2020
2624 Clouds 15 1032 62 10000 7.2 310 14:24 25.05.2020
2625 Clouds 14 1032 66 10000 7.2 310 13:57 25.05.2020
2626 Clouds 14 1032 71 10000 6.7 310 13:37 25.05.2020
2627 Clouds 14 1032 71 10000 6.7 310 13:19 25.05.2020
2628 Clouds 13 1031 66 10000 8.2 310 12:54 25.05.2020
2629 Clouds 13 1031 71 10000 7.2 320 12:36 25.05.2020
2630 Clouds 13 1031 71 10000 7.2 320 12:18 25.05.2020
2631 Clouds 13 1031 66 10000 8.2 310 11:38 25.05.2020
2632 Clouds 13 1031 66 10000 8.2 310 11:19 25.05.2020
2633 Clouds 12 1030 71 10000 7.2 300 10:43 25.05.2020
2634 Clouds 12 1030 71 10000 6.7 300 10:21 25.05.2020
2635 Clouds 12 1030 71 10000 6.7 300 09:57 25.05.2020
2636 Clouds 12 1030 66 10000 7.2 300 09:39 25.05.2020
2637 Clouds 12 1030 66 10000 7.2 300 09:19 25.05.2020
2638 Clouds 12 1029 71 10000 7.2 310 08:58 25.05.2020
2639 Rain 12 1029 71 10000 7.2 300 08:36 25.05.2020
2640 Rain 12 1029 71 10000 7.2 300 08:18 25.05.2020
2641 Clouds 12 1029 71 10000 6.7 310 07:43 25.05.2020
2642 Clouds 12 1029 71 10000 6.7 310 07:21 25.05.2020
2643 Clouds 12 1028 76 10000 7.2 310 06:52 25.05.2020
2644 Clouds 12 1028 76 10000 7.7 300 06:31 25.05.2020
2645 Clouds 12 1027 82 10000 6.7 290 04:18 25.05.2020
2646 Clouds 12 1027 87 10000 5.7 270 03:23 25.05.2020
2647 Clouds 12 1027 87 10000 6.2 270 02:45 25.05.2020
2648 Clouds 12 1027 87 10000 5.1 270 01:57 25.05.2020
2649 Clouds 12 1027 87 10000 5.1 270 01:29 25.05.2020
2650 Clouds 12 1027 87 10000 4.6 270 00:42 25.05.2020
2651 Clouds 12 1027 87 10000 4.6 270 00:20 25.05.2020
2652 Clouds 12 1027 87 10000 4.1 270 23:57 24.05.2020
2653 Clouds 12 1027 87 10000 4.6 280 23:37 24.05.2020
2654 Clouds 12 1027 87 10000 4.6 280 23:18 24.05.2020
2655 Clouds 13 1026 76 10000 4.6 280 22:41 24.05.2020
2656 Clouds 13 1026 76 10000 4.6 280 22:19 24.05.2020
2657 Clouds 13 1026 76 10000 4.6 290 21:57 24.05.2020
2658 Clouds 14 1026 71 10000 7.2 300 21:39 24.05.2020
2659 Clouds 14 1026 71 10000 7.2 300 21:20 24.05.2020
2660 Clouds 15 1026 67 10000 7.2 300 20:56 24.05.2020
2661 Clouds 15 1025 67 10000 7.2 300 20:38 24.05.2020
2662 Clouds 15 1025 67 10000 7.2 300 20:18 24.05.2020
2663 Clouds 15 1025 67 10000 7.7 300 19:55 24.05.2020
2664 Clouds 15 1025 62 10000 7.7 300 19:36 24.05.2020
2665 Clouds 15 1025 62 10000 7.7 300 19:18 24.05.2020
2666 Clouds 16 1024 67 10000 8.2 300 18:41 24.05.2020
2667 Clouds 16 1024 67 10000 8.2 300 18:23 24.05.2020
2668 Clouds 16 1024 67 10000 6.7 300 17:56 24.05.2020
2669 Clouds 16 1024 77 10000 5.7 270 17:37 24.05.2020
2670 Clouds 16 1024 77 10000 5.7 270 17:19 24.05.2020
2671 Clouds 15 1024 82 10000 6.2 260 16:54 24.05.2020
2672 Rain 15 1025 87 10000 6.7 250 16:36 24.05.2020
2673 Rain 15 1025 87 10000 6.7 250 16:18 24.05.2020
2674 Clouds 14 1024 87 10000 4.6 260 15:40 24.05.2020
2675 Clouds 14 1024 87 10000 4.6 260 15:20 24.05.2020
2676 Rain 14 1024 87 10000 5.7 250 14:58 24.05.2020
2677 Rain 13 1024 82 10000 6.7 260 14:40 24.05.2020
2678 Rain 13 1024 82 10000 6.7 260 14:21 24.05.2020
2679 Rain 13 1024 76 10000 7.7 260 13:55 24.05.2020
2680 Clouds 14 1024 67 10000 8.2 280 13:37 24.05.2020
2681 Clouds 14 1024 67 10000 8.2 280 13:18 24.05.2020
2682 Clouds 14 1024 67 10000 8.2 260 12:55 24.05.2020
2683 Clouds 16 1023 55 10000 7.7 260 12:37 24.05.2020
2684 Clouds 16 1023 55 10000 7.7 260 12:18 24.05.2020
2685 Clouds 16 1023 59 10000 9.8 260 11:54 24.05.2020
2686 Clouds 15 1023 67 10000 7.2 260 11:36 24.05.2020
2687 Clouds 14 1023 67 10000 7.2 260 11:18 24.05.2020
2688 Clouds 15 1023 62 10000 8.7 260 10:41 24.05.2020
2689 Clouds 15 1023 62 10000 8.7 260 10:23 24.05.2020
2690 Clouds 14 1023 71 10000 6.7 250 09:56 24.05.2020
2691 -273 0 0 0 0 0 09:38 24.05.2020
2692 Clouds 13 1023 71 10000 7.7 250 09:18 24.05.2020
2693 Clouds 13 1023 76 10000 7.2 250 08:42 24.05.2020
2694 Clouds 13 1023 76 10000 7.2 250 08:24 24.05.2020
2695 Clouds 13 1023 81 10000 6.2 240 07:58 24.05.2020
2696 Clouds 12 1022 81 10000 5.7 230 07:40 24.05.2020
2697 Clouds 12 1022 81 10000 5.7 230 07:21 24.05.2020
2698 Clouds 12 1022 81 10000 4.6 230 06:39 24.05.2020
2699 Rain 11 1022 81 10000 5.7 240 05:50 24.05.2020
2700 Clouds 11 1022 76 10000 4.6 240 03:57 24.05.2020
2701 Clouds 11 1022 71 10000 5.7 240 03:37 24.05.2020
2702 Clouds 11 1022 76 10000 4.1 220 02:26 24.05.2020
2703 Clouds 11 1022 71 10000 3.6 220 01:21 24.05.2020
2704 Clouds 10 1022 76 10000 3.6 200 00:38 24.05.2020
2705 Clouds 11 1022 76 10000 3.6 200 00:20 24.05.2020
2706 Rain 12 1022 66 10000 2.1 270 23:40 23.05.2020
2707 Rain 12 1022 66 10000 2.1 270 23:20 23.05.2020
2708 Rain 12 1022 66 10000 2.6 270 22:56 23.05.2020
2709 Rain 12 1022 62 10000 3.1 260 22:37 23.05.2020
2710 Rain 12 1022 62 10000 3.1 260 22:19 23.05.2020
2711 Clouds 13 1021 58 10000 4.1 250 21:57 23.05.2020
2712 Clouds 14 1021 51 10000 5.1 250 21:37 23.05.2020
2713 Clouds 15 1021 51 10000 5.1 250 21:19 23.05.2020
2714 Clouds 15 1021 48 10000 4.6 250 20:56 23.05.2020
2715 Clouds 15 1020 44 10000 6.7 270 20:37 23.05.2020
2716 Clouds 15 1020 44 10000 6.7 270 20:18 23.05.2020
2717 Clouds 17 1020 36 10000 7.7 270 19:41 23.05.2020
2718 Clouds 17 1020 36 10000 7.7 270 19:19 23.05.2020
2719 Clouds 18 1020 36 10000 9.8 270 18:57 23.05.2020
2720 Clouds 18 1020 36 10000 10.3 270 18:39 23.05.2020
2721 Clouds 19 1020 36 10000 10.3 270 18:21 23.05.2020
2722 Rain 19 1019 34 10000 9.8 260 17:55 23.05.2020
2723 Rain 19 1019 37 10000 9.3 250 17:37 23.05.2020
2724 Rain 19 1019 37 10000 9.3 250 17:19 23.05.2020
2725 Clouds 19 1019 42 10000 7.2 270 16:56 23.05.2020
2726 Clouds 19 1019 45 10000 7.2 250 16:37 23.05.2020
2727 Clouds 19 1019 45 10000 7.2 250 16:19 23.05.2020
2728 Clouds 18 1019 59 10000 5.7 250 15:42 23.05.2020
2729 Clouds 18 1019 59 10000 5.7 250 15:24 23.05.2020
2730 Clouds 18 1019 59 10000 5.7 250 15:24 23.05.2020
2731 Clouds 17 1019 71 10000 4.1 230 14:58 23.05.2020
2732 Thunderstorm 15 1019 71 10000 3.6 230 14:39 23.05.2020
2733 Thunderstorm 15 1019 71 10000 3.6 230 14:20 23.05.2020
2734 Thunderstorm 15 1019 76 10000 4.1 270 13:40 23.05.2020
2735 Thunderstorm 16 1019 76 10000 4.1 270 13:19 23.05.2020
2736 Rain 16 1019 76 9000 11.8 270 12:56 23.05.2020
2737 Clouds 17 1019 67 10000 6.2 250 12:38 23.05.2020
2738 Clouds 16 1019 67 10000 6.2 250 12:18 23.05.2020
2739 Rain 16 1019 67 10000 5.7 250 11:43 23.05.2020
2740 Rain 16 1019 67 10000 5.7 250 11:22 23.05.2020
2741 Rain 16 1019 67 10000 6.2 260 10:57 23.05.2020
2742 Rain 16 1018 67 10000 5.1 260 10:39 23.05.2020
2743 Rain 16 1018 67 10000 5.1 260 10:20 23.05.2020
2744 Rain 15 1018 67 10000 5.1 250 09:58 23.05.2020
2745 Rain 14 1018 71 10000 4.1 240 09:40 23.05.2020
2746 Clouds 13 1018 71 10000 4.1 240 09:21 23.05.2020
2747 Clouds 13 1018 71 10000 4.6 240 08:44 23.05.2020
2748 Clouds 13 1018 71 10000 4.6 240 08:20 23.05.2020
2749 Clouds 13 1018 76 10000 4.1 240 07:59 23.05.2020
2750 Clouds 12 1018 71 10000 2.6 220 07:39 23.05.2020
2751 Clouds 12 1018 71 10000 2.6 220 07:21 23.05.2020
2752 Clouds 11 1018 71 10000 2.1 240 06:39 23.05.2020
2753 Clouds 10 1017 93 10000 1 180 05:46 23.05.2020
2754 Clouds 11 1017 93 10000 2.1 230 03:48 23.05.2020
2755 Clouds 12 1017 93 10000 3.1 230 03:21 23.05.2020
2756 Clouds 13 1017 100 10000 2.1 220 01:59 23.05.2020
2757 Clouds 13 1017 100 10000 2.1 220 01:59 23.05.2020
2758 Clouds 14 1017 100 10000 2.6 230 01:27 23.05.2020
2759 Clouds 14 1017 100 10000 1 230 00:47 23.05.2020
2760 Clouds 14 1017 100 10000 1 230 00:47 23.05.2020
2761 Clouds 15 1017 93 10000 1.5 220 00:29 23.05.2020
2762 Clouds 15 1017 100 10000 2.6 210 23:58 22.05.2020
2763 Clouds 15 1017 100 10000 2.1 200 23:39 22.05.2020
2764 Clouds 15 1017 100 10000 2.1 200 23:19 22.05.2020
2765 Clouds 15 1017 100 10000 1.5 220 22:56 22.05.2020
2766 Clouds 16 1017 93 10000 1 0 22:38 22.05.2020
2767 Clouds 16 1017 93 10000 1 0 22:18 22.05.2020
2768 Clouds 17 1016 82 10000 2.6 310 21:44 22.05.2020
2769 Clouds 17 1016 82 10000 2.6 310 21:21 22.05.2020
2770 Clouds 17 1016 88 10000 2.1 300 20:55 22.05.2020
2771 Clouds 17 1016 88 10000 4.1 300 20:36 22.05.2020
2772 Clouds 18 1016 88 10000 4.1 300 20:18 22.05.2020
2773 Rain 18 1015 93 10000 1.5 0 19:43 22.05.2020
2774 Rain 18 1015 93 10000 1.5 0 19:24 22.05.2020
2775 Rain 18 1015 93 10000 2.1 0 18:40 22.05.2020
2776 Rain 18 1015 93 10000 2.1 0 18:21 22.05.2020
2777 Rain 18 1015 88 8000 3.1 140 17:59 22.05.2020
2778 Rain 18 1014 77 10000 5.7 130 17:39 22.05.2020
2779 Rain 19 1014 77 10000 5.7 130 17:19 22.05.2020
2780 Clouds 19 1015 72 10000 5.7 120 16:55 22.05.2020
2781 Rain 19 1015 72 10000 5.7 120 16:37 22.05.2020
2782 Rain 18 1015 72 10000 5.7 120 16:19 22.05.2020
2783 Rain 18 1016 77 10000 5.1 100 15:42 22.05.2020
2784 Rain 18 1016 77 10000 5.1 100 15:42 22.05.2020
2785 Rain 18 1016 77 10000 5.1 100 15:21 22.05.2020
2786 Rain 18 1017 82 10000 4.1 90 14:45 22.05.2020
2787 Rain 18 1017 82 10000 4.1 90 14:45 22.05.2020
2788 Rain 18 1018 82 10000 3.1 70 14:26 22.05.2020
2789 Rain 18 1018 82 10000 3.1 70 14:26 22.05.2020
2790 Rain 19 1018 63 9000 1 0 13:50 22.05.2020
2791 Rain 19 1018 56 10000 1 0 13:22 22.05.2020
2792 Rain 19 1018 56 10000 1 0 13:22 22.05.2020
2793 Rain 20 1017 56 10000 3.6 350 12:59 22.05.2020
2794 Clouds 19 1017 59 10000 4.1 150 12:39 22.05.2020
2795 Clouds 20 1017 59 10000 4.1 150 12:21 22.05.2020
2796 Clouds 20 1017 59 10000 3.6 140 11:45 22.05.2020
2797 Clouds 19 1017 59 10000 4.1 140 11:22 22.05.2020
2798 Clouds 19 1017 59 10000 4.1 130 10:58 22.05.2020
2799 Clouds 18 1017 63 10000 4.1 140 10:38 22.05.2020
2800 Clouds 18 1017 63 10000 4.1 140 10:20 22.05.2020
2801 Clouds 18 1017 63 10000 3.1 140 09:55 22.05.2020
2802 Clouds 18 1018 59 10000 2.1 130 09:36 22.05.2020
2803 Clouds 17 1018 59 10000 2.1 130 09:18 22.05.2020
2804 Clouds 16 1018 58 10000 3.1 140 08:41 22.05.2020
2805 Clouds 16 1018 58 10000 3.1 140 08:19 22.05.2020
2806 Clouds 15 1018 58 10000 3.6 140 07:52 22.05.2020
2807 Clouds 14 1018 62 10000 2.6 130 07:23 22.05.2020
2808 Clouds 14 1018 62 10000 2.6 130 06:52 22.05.2020
2809 Clouds 13 1018 58 10000 2.6 140 06:29 22.05.2020
2810 Clouds 13 1019 62 10000 3.1 120 05:37 22.05.2020
2811 Clouds 13 1019 62 10000 3.1 120 05:37 22.05.2020
2812 Clouds 13 1019 62 10000 4.1 120 04:50 22.05.2020
2813 Clouds 13 1019 67 10000 2.6 110 03:57 22.05.2020
2814 Clouds 13 1020 67 10000 3.1 110 03:39 22.05.2020
2815 Clouds 14 1020 62 10000 3.6 130 02:55 22.05.2020
2816 Clouds 16 1020 55 10000 3.1 120 01:48 22.05.2020
2817 Clouds 16 1020 55 10000 3.1 120 01:22 22.05.2020
2818 Clouds 16 1021 59 10000 3.1 100 00:34 22.05.2020
2819 -273 0 0 0 0 0 23:59 21.05.2020
2820 Clouds 17 1020 52 10000 3.6 120 23:40 21.05.2020
2821 Clouds 17 1020 52 10000 3.6 120 23:22 21.05.2020
2822 Clouds 17 1020 52 10000 3.1 120 22:57 21.05.2020
2823 Clouds 18 1020 49 10000 2.1 120 22:37 21.05.2020
2824 Clouds 19 1020 49 10000 2.1 120 22:19 21.05.2020
2825 Clouds 19 1020 46 10000 2.1 120 21:48 21.05.2020
2826 Clouds 21 1020 43 10000 2.6 130 21:27 21.05.2020
2827 Clouds 21 1020 43 10000 2.1 120 20:58 21.05.2020
2828 Clouds 22 1020 38 10000 2.6 110 20:40 21.05.2020
2829 Clouds 22 1020 38 10000 2.6 110 20:21 21.05.2020
2830 Clouds 23 1020 38 10000 3.6 110 19:40 21.05.2020
2831 Clouds 23 1020 38 10000 3.6 110 19:20 21.05.2020
2832 Clouds 23 1020 38 10000 3.6 120 18:58 21.05.2020
2833 Clouds 24 1020 36 10000 2.1 130 18:37 21.05.2020
2834 Clouds 24 1020 36 10000 2.1 130 18:18 21.05.2020
2835 Clouds 24 1021 36 10000 2.6 190 17:55 21.05.2020
2836 Clouds 24 1021 38 10000 2.1 360 17:36 21.05.2020
2837 Clouds 24 1021 38 10000 2.1 360 17:18 21.05.2020
2838 Clouds 23 1022 38 10000 1.5 0 16:41 21.05.2020
2839 Clouds 23 1022 38 10000 1.5 0 16:22 21.05.2020
2840 Clouds 22 1022 38 10000 2.6 0 15:41 21.05.2020
2841 Clouds 23 1022 38 10000 2.6 0 15:22 21.05.2020
2842 Clouds 22 1022 40 10000 1.5 0 14:42 21.05.2020
2843 Clouds 22 1022 40 10000 1.5 0 14:23 21.05.2020
2844 Clear 22 1022 43 10000 2.6 210 13:58 21.05.2020
2845 Clear 22 1023 40 10000 2.1 0 13:38 21.05.2020
2846 Clear 22 1023 40 10000 2.1 0 13:19 21.05.2020
2847 Clear 20 1023 45 10000 3.6 120 12:40 21.05.2020
2848 Clear 20 1023 45 10000 3.6 120 12:22 21.05.2020
2849 Clear 20 1023 45 10000 2.6 120 11:58 21.05.2020
2850 Clear 20 1023 45 10000 2.1 150 11:39 21.05.2020
2851 Clear 20 1023 45 10000 2.1 150 11:21 21.05.2020
2852 Clear 20 1023 48 10000 2.1 140 10:54 21.05.2020
2853 Clear 19 1023 48 10000 3.1 130 10:36 21.05.2020
2854 Clear 19 1023 48 10000 3.1 130 10:18 21.05.2020
2855 Clear 17 1023 55 10000 2.6 140 09:42 21.05.2020
2856 Clear 15 1023 55 10000 2.6 140 09:24 21.05.2020
2857 Clear 14 1023 67 10000 2.6 160 08:58 21.05.2020
2858 Clear 13 1023 66 10000 1.5 160 08:39 21.05.2020
2859 Clouds 13 1023 66 10000 1.5 160 08:21 21.05.2020
2860 Clouds 12 1023 81 10000 1 80 07:43 21.05.2020
2861 Clouds 11 1023 81 10000 1 80 07:22 21.05.2020
2862 Clouds 9 1023 93 10000 1.5 70 06:44 21.05.2020
2863 Clouds 8 1023 93 10000 2.1 70 05:50 21.05.2020
2864 Clouds 9 1023 100 7000 1 0 04:25 21.05.2020
2865 Clouds 10 1023 100 10000 1 70 03:21 21.05.2020
2866 Clouds 10 1023 100 10000 1 70 03:21 21.05.2020
2867 Clouds 10 1023 87 10000 1.5 50 02:31 21.05.2020
2868 Clouds 11 1023 87 10000 1 0 01:58 21.05.2020
2869 Clouds 11 1023 82 10000 1 60 01:39 21.05.2020
2870 Clouds 12 1023 82 10000 1 60 01:18 21.05.2020
2871 Clouds 13 1023 76 10000 2.6 30 00:41 21.05.2020
2872 Clouds 13 1023 76 10000 2.6 30 00:21 21.05.2020
2873 Clouds 14 1023 72 10000 2.6 30 23:40 20.05.2020
2874 Clouds 14 1023 72 10000 2.6 30 23:19 20.05.2020
2875 Clouds 14 1023 67 10000 3.1 10 22:55 20.05.2020
2876 Clouds 15 1023 63 10000 2.6 320 22:37 20.05.2020
2877 Clouds 15 1023 63 10000 2.6 320 22:19 20.05.2020
2878 Clouds 17 1023 63 10000 2.6 290 21:40 20.05.2020
2879 Clear 18 1023 63 10000 2.6 290 21:20 20.05.2020
2880 Clear 18 1023 59 10000 2.6 320 20:44 20.05.2020
2881 Clouds 18 1023 59 10000 2.6 320 20:24 20.05.2020
2882 Clouds 19 1022 55 10000 2.1 330 19:55 20.05.2020
2883 Clouds 19 1022 55 10000 1.5 0 19:37 20.05.2020
2884 Clouds 20 1022 55 10000 1.5 0 19:18 20.05.2020
2885 Clouds 19 1023 52 10000 2.6 300 18:42 20.05.2020
2886 Clouds 20 1023 52 10000 2.6 300 18:22 20.05.2020
2887 Clouds 19 1023 59 10000 3.6 300 17:42 20.05.2020
2888 Clouds 19 1023 59 10000 3.6 300 17:22 20.05.2020
2889 Clouds 19 1023 59 10000 3.6 300 17:22 20.05.2020
2890 Clouds 19 1023 55 10000 3.1 300 16:57 20.05.2020
2891 Clouds 19 1023 55 10000 2.6 300 16:39 20.05.2020
2892 Clouds 19 1023 55 10000 2.6 300 16:20 20.05.2020
2893 Clouds 19 1023 55 10000 2.1 350 15:44 20.05.2020
2894 Clouds 19 1023 55 10000 2.1 350 15:25 20.05.2020
2895 Clouds 19 1023 52 10000 2.6 30 14:59 20.05.2020
2896 Clouds 19 1023 52 10000 1 0 14:37 20.05.2020
2897 Clouds 19 1023 52 10000 1 0 14:19 20.05.2020
2898 Clouds 20 1023 52 10000 2.6 0 13:39 20.05.2020
2899 Clouds 20 1023 52 10000 2.6 0 13:18 20.05.2020
2900 Clouds 18 1023 55 10000 2.1 0 12:42 20.05.2020
2901 Clouds 18 1023 55 10000 2.1 0 12:21 20.05.2020
2902 Clouds 17 1023 51 10000 1 0 11:39 20.05.2020
2903 Clouds 17 1023 51 10000 1 0 11:20 20.05.2020
2904 Clouds 16 1023 59 10000 1.5 0 10:58 20.05.2020
2905 Clouds 16 1023 58 10000 1.5 0 10:40 20.05.2020
2906 Clouds 16 1023 58 10000 1.5 0 10:19 20.05.2020
2907 Clouds 15 1023 67 10000 2.1 70 09:41 20.05.2020
2908 Clouds 14 1023 67 10000 2.1 70 09:21 20.05.2020
2909 Drizzle 13 1023 76 10000 2.1 60 08:42 20.05.2020
2910 Drizzle 13 1023 76 10000 2.1 60 08:42 20.05.2020
2911 Drizzle 13 1023 76 10000 2.1 60 08:20 20.05.2020
2912 Drizzle 12 1023 76 10000 1.5 10 07:55 20.05.2020
2913 Clouds 12 1022 82 10000 1.5 30 07:37 20.05.2020
2914 Clouds 12 1022 82 10000 1.5 30 07:19 20.05.2020
2915 Rain 12 1022 87 10000 2.1 30 06:28 20.05.2020
2916 Clouds 13 1022 82 10000 2.1 30 05:19 20.05.2020
2917 Clouds 13 1022 82 10000 1.5 360 04:25 20.05.2020
2918 Clouds 12 1022 82 10000 2.1 360 03:38 20.05.2020
2919 Clouds 13 1022 76 10000 2.6 330 01:58 20.05.2020
2920 Clouds 12 1022 82 10000 2.1 300 01:26 20.05.2020
2921 Clouds 13 1022 76 10000 2.6 340 00:42 20.05.2020
2922 Clouds 13 1022 76 10000 2.6 340 00:23 20.05.2020
2923 Clouds 14 1022 76 10000 2.6 350 23:40 19.05.2020
2924 Clouds 14 1022 76 10000 2.6 350 23:19 19.05.2020
2925 Clouds 15 1022 72 10000 3.6 340 22:56 19.05.2020
2926 Clouds 15 1022 72 10000 3.1 330 22:38 19.05.2020
2927 Clouds 15 1022 72 10000 3.1 330 22:18 19.05.2020
2928 Clouds 15 1021 72 10000 3.1 300 21:56 19.05.2020
2929 Clouds 15 1021 72 10000 3.1 290 21:37 19.05.2020
2930 Clouds 15 1021 72 10000 3.1 290 21:19 19.05.2020
2931 Clouds 15 1021 67 10000 3.1 320 20:56 19.05.2020
2932 Clouds 16 1021 67 10000 3.1 340 20:38 19.05.2020
2933 Clouds 16 1021 67 10000 3.1 340 20:19 19.05.2020
2934 Clouds 16 1021 72 10000 4.6 350 19:39 19.05.2020
2935 Clouds 16 1021 72 10000 4.6 350 19:21 19.05.2020
2936 Clouds 17 1021 67 10000 4.6 340 18:58 19.05.2020
2937 Clouds 18 1021 59 10000 5.1 340 18:40 19.05.2020
2938 Clouds 17 1021 59 10000 5.1 340 18:20 19.05.2020
2939 Clouds 19 1020 55 10000 4.1 330 17:43 19.05.2020
2940 Clouds 18 1020 55 10000 4.1 330 17:21 19.05.2020
2941 Clouds 18 1020 59 10000 4.6 320 16:59 19.05.2020
2942 Clouds 18 1020 59 10000 4.6 320 16:59 19.05.2020
2943 Clouds 18 1021 59 10000 4.1 330 16:38 19.05.2020
2944 Clouds 17 1021 59 10000 4.1 330 16:19 19.05.2020
2945 Clouds 17 1021 59 10000 5.1 330 15:47 19.05.2020
2946 Clouds 17 1021 59 10000 5.7 320 15:22 19.05.2020
2947 Clouds 17 1021 63 10000 5.1 330 14:57 19.05.2020
2948 Clouds 19 1021 59 10000 5.7 300 14:39 19.05.2020
2949 Clouds 19 1021 59 10000 5.7 300 14:20 19.05.2020
2950 Clouds 17 1021 63 10000 5.1 310 13:57 19.05.2020
2951 Clouds 18 1020 59 10000 4.1 300 13:39 19.05.2020
2952 Clouds 18 1020 59 10000 4.1 300 13:20 19.05.2020
2953 Clouds 18 1020 59 10000 4.6 310 12:56 19.05.2020
2954 Clouds 18 1021 59 10000 5.1 300 12:37 19.05.2020
2955 Clouds 18 1021 59 10000 5.1 300 12:19 19.05.2020
2956 Clouds 16 1021 63 10000 5.1 290 11:54 19.05.2020
2957 Clouds 15 1020 67 10000 3.6 260 11:36 19.05.2020
2958 Clouds 15 1020 67 10000 3.6 260 11:36 19.05.2020
2959 Clouds 15 1020 67 10000 3.6 260 11:18 19.05.2020
2960 Clouds 15 1020 67 10000 3.6 270 10:42 19.05.2020
2961 Clouds 15 1020 67 10000 3.6 270 10:23 19.05.2020
2962 Clouds 15 1020 72 10000 3.6 240 09:55 19.05.2020
2963 Clouds 14 1020 76 10000 3.6 240 09:37 19.05.2020
2964 Clouds 13 1020 76 10000 3.6 240 09:18 19.05.2020
2965 Clouds 12 1020 87 10000 2.6 260 08:41 19.05.2020
2966 Clouds 12 1020 87 10000 2.6 260 08:23 19.05.2020
2967 Clouds 12 1020 87 10000 2.1 230 07:42 19.05.2020
2968 Clouds 12 1020 87 10000 2.1 230 07:24 19.05.2020
2969 Clouds 12 1020 93 10000 2.1 230 06:41 19.05.2020
2970 Clouds 12 1020 93 10000 2.1 230 06:22 19.05.2020
2971 Clouds 12 1020 87 10000 2.1 240 05:40 19.05.2020
2972 Clouds 12 1020 87 10000 1.5 240 04:54 19.05.2020
2973 Clouds 12 1021 81 10000 2.1 270 02:59 19.05.2020
2974 Clouds 12 1021 81 10000 2.6 300 01:22 19.05.2020
2975 Clouds 11 1021 87 10000 2.6 290 00:41 19.05.2020
2976 Clouds 11 1021 87 10000 2.6 290 00:21 19.05.2020
2977 Clouds 12 1021 82 10000 3.1 300 23:40 18.05.2020
2978 Clouds 13 1021 82 10000 3.1 300 23:21 18.05.2020
2979 Clouds 13 1021 76 10000 4.1 310 22:59 18.05.2020
2980 Clouds 14 1020 72 10000 5.1 310 22:40 18.05.2020
2981 Clouds 14 1020 72 10000 5.1 310 22:21 18.05.2020
2982 Clouds 16 1020 63 10000 5.1 310 21:43 18.05.2020
2983 Clouds 16 1020 63 10000 5.1 310 21:22 18.05.2020
2984 Clouds 17 1020 63 10000 5.7 310 20:59 18.05.2020
2985 Clouds 18 1020 63 10000 5.7 310 20:41 18.05.2020
2986 Clouds 19 1020 55 10000 6.2 310 20:21 18.05.2020
2987 Clouds 19 1020 55 10000 6.2 310 19:57 18.05.2020
2988 Clouds 19 1020 55 10000 6.7 320 19:39 18.05.2020
2989 Clouds 19 1020 55 10000 6.7 320 19:19 18.05.2020
2990 Clouds 20 1019 52 10000 7.2 310 18:45 18.05.2020
2991 Clouds 20 1019 52 10000 7.2 310 18:24 18.05.2020
2992 Clouds 21 1020 49 10000 6.7 290 17:54 18.05.2020
2993 Clouds 21 1020 49 10000 6.2 280 17:36 18.05.2020
2994 Clouds 21 1020 49 10000 6.2 280 17:18 18.05.2020
2995 Clouds 20 1020 52 10000 7.2 260 16:43 18.05.2020
2996 Clouds 20 1020 52 10000 7.2 260 16:21 18.05.2020
2997 Clouds 20 1020 52 10000 6.2 270 15:57 18.05.2020
2998 Clouds 20 1020 49 10000 7.2 280 15:39 18.05.2020
2999 Clouds 19 1020 49 10000 7.2 280 15:20 18.05.2020
3000 Clouds 19 1020 49 10000 7.2 280 14:56 18.05.2020
3001 Clouds 19 1020 49 10000 6.7 270 14:38 18.05.2020
3002 Clouds 20 1020 49 10000 6.7 270 14:19 18.05.2020
3003 Clouds 20 1020 49 10000 6.7 260 13:41 18.05.2020
3004 Clouds 19 1020 49 10000 6.7 260 13:20 18.05.2020
3005 Clouds 19 1020 45 10000 6.7 260 12:58 18.05.2020
3006 Clouds 18 1020 48 10000 5.7 270 12:40 18.05.2020
3007 Clouds 18 1020 48 10000 5.7 270 12:19 18.05.2020
3008 Clouds 17 1020 48 10000 6.7 250 11:58 18.05.2020
3009 Clouds 17 1020 48 10000 6.7 240 11:40 18.05.2020
3010 Clouds 17 1020 48 10000 6.7 240 11:21 18.05.2020
3011 Clouds 16 1021 55 10000 5.1 240 10:46 18.05.2020
3012 Clouds 16 1021 55 10000 5.1 240 10:23 18.05.2020
3013 Clouds 16 1021 55 10000 5.1 240 10:23 18.05.2020
3014 Clouds 15 1020 54 10000 5.1 240 09:45 18.05.2020
3015 Clouds 14 1020 54 10000 5.1 240 09:26 18.05.2020
3016 Clouds 12 1020 58 10000 5.7 240 08:57 18.05.2020
3017 Clouds 12 1020 66 10000 4.1 230 08:39 18.05.2020
3018 Clouds 12 1020 66 10000 4.1 230 08:20 18.05.2020
3019 Clouds 12 1020 71 10000 3.1 220 07:42 18.05.2020
3020 Clouds 11 1020 71 10000 3.1 220 07:21 18.05.2020
3021 Clouds 11 1020 71 10000 3.6 220 06:47 18.05.2020
3022 Clouds 10 1020 71 10000 3.1 220 06:22 18.05.2020
3023 Clouds 9 1021 81 10000 2.1 220 05:42 18.05.2020
3024 Clouds 8 1021 93 0 1.5 200 03:39 18.05.2020
3025 Clouds 8 1021 93 10000 1.5 210 02:56 18.05.2020
3026 Clouds 8 1021 93 10000 1 0 01:45 18.05.2020
3027 Clouds 10 1022 87 10000 1.5 240 00:41 18.05.2020
3028 Clouds 10 1022 87 10000 1.5 240 00:18 18.05.2020
3029 Clouds 10 1022 81 10000 2.1 280 23:55 17.05.2020
3030 Clouds 11 1022 76 10000 2.6 310 23:36 17.05.2020
3031 Clouds 11 1022 76 10000 2.6 310 23:18 17.05.2020
3032 Clouds 13 1022 67 10000 4.1 310 22:40 17.05.2020
3033 Clear 14 1022 67 10000 4.1 310 22:22 17.05.2020
3034 Clear 14 1021 58 10000 5.1 300 21:59 17.05.2020
3035 Clear 15 1021 51 10000 5.1 280 21:41 17.05.2020
3036 Clouds 15 1021 51 10000 5.1 280 21:19 17.05.2020
3037 Clouds 16 1021 48 10000 6.2 300 20:56 17.05.2020
3038 Clouds 17 1021 45 10000 6.7 280 20:37 17.05.2020
3039 Clouds 17 1021 45 10000 6.7 280 20:18 17.05.2020
3040 Clouds 17 1021 45 10000 6.2 270 19:42 17.05.2020
3041 Rain 17 1021 45 10000 6.2 270 19:24 17.05.2020
3042 Rain 17 1021 45 10000 6.7 270 18:57 17.05.2020
3043 Rain 17 1021 45 10000 7.7 270 18:38 17.05.2020
3044 Rain 17 1021 45 10000 7.7 270 18:20 17.05.2020
3045 Rain 17 1021 42 10000 7.2 270 17:41 17.05.2020
3046 Clouds 17 1021 42 10000 7.2 270 17:23 17.05.2020
3047 Clouds 18 1021 39 10000 7.7 260 16:57 17.05.2020
3048 Clouds 18 1021 39 10000 6.2 260 16:39 17.05.2020
3049 Rain 18 1021 39 10000 6.2 260 16:20 17.05.2020
3050 Rain 18 1021 39 10000 6.2 260 16:20 17.05.2020
3051 Rain 18 1021 42 10000 6.2 250 15:47 17.05.2020
3052 Rain 18 1022 39 10000 6.2 250 15:25 17.05.2020
3053 Rain 17 1022 42 10000 6.2 270 14:58 17.05.2020
3054 Rain 18 1022 45 10000 5.7 250 14:40 17.05.2020
3055 Clouds 18 1022 45 10000 5.7 250 14:22 17.05.2020
3056 Clouds 17 1022 48 10000 5.1 260 13:43 17.05.2020
3057 Clouds 17 1022 48 10000 5.1 260 13:21 17.05.2020
3058 Clouds 15 1022 58 10000 4.1 270 10:50 17.05.2020
3059 Clouds 6 1021 100 10000 2.1 250 03:55 17.05.2020
3060 Clouds 7 1021 87 10000 2.6 280 02:28 17.05.2020
3061 Clouds 8 1021 87 10000 3.1 290 01:55 17.05.2020
3062 Clouds 10 1021 71 10000 4.1 300 00:56 17.05.2020
3063 Clouds 10 1020 81 10000 2.6 290 00:38 17.05.2020
3064 Clouds 10 1020 76 10000 3.1 300 23:57 16.05.2020
3065 Clouds 10 1020 71 10000 2.6 300 23:39 16.05.2020
3066 Clouds 11 1020 71 10000 2.6 300 23:19 16.05.2020
3067 Clouds 11 1020 66 10000 3.6 330 22:57 16.05.2020
3068 Clouds 11 1020 66 10000 4.1 330 22:39 16.05.2020
3069 Clouds 11 1020 66 10000 4.1 330 22:19 16.05.2020
3070 Clouds 12 1020 62 10000 3.6 330 21:44 16.05.2020
3071 Clouds 13 1019 62 10000 3.1 330 21:25 16.05.2020
3072 Clouds 13 1019 62 10000 4.1 340 20:57 16.05.2020
3073 Clouds 14 1019 58 10000 5.1 340 20:39 16.05.2020
3074 Clouds 14 1019 58 10000 5.1 340 20:20 16.05.2020
3075 Clouds 14 1019 58 10000 5.7 340 19:57 16.05.2020
3076 Clouds 15 1019 54 10000 5.7 340 19:39 16.05.2020
3077 Clouds 15 1019 54 10000 5.7 340 19:21 16.05.2020
3078 Clouds 15 1019 51 10000 4.1 290 18:42 16.05.2020
3079 Clouds 15 1019 51 10000 4.1 290 18:22 16.05.2020
3080 Clouds 15 1019 51 10000 4.6 280 17:56 16.05.2020
3081 Clouds 16 1019 48 10000 5.1 260 17:38 16.05.2020
3082 Clouds 16 1019 48 10000 5.1 260 17:19 16.05.2020
3083 Clouds 16 1019 48 10000 5.1 260 17:19 16.05.2020
3084 Clouds 15 1020 51 10000 4.6 250 16:39 16.05.2020
3085 Clouds 15 1020 51 10000 4.6 250 16:20 16.05.2020
3086 Clouds 16 1020 47 10000 7.2 260 15:57 16.05.2020
3087 Clouds 16 1020 44 10000 6.7 250 15:38 16.05.2020
3088 Clouds 16 1020 44 10000 6.7 250 15:19 16.05.2020
3089 Clouds 16 1020 41 10000 5.7 260 14:43 16.05.2020
3090 Clouds 16 1020 41 10000 5.7 260 14:20 16.05.2020
3091 Clouds 16 1020 44 10000 5.1 260 13:57 16.05.2020
3092 Clouds 16 1020 38 10000 5.1 250 13:39 16.05.2020
3093 Clouds 16 1020 38 10000 5.1 250 13:21 16.05.2020
3094 Clouds 15 1021 44 10000 5.7 260 12:45 16.05.2020
3095 Clouds 15 1021 47 10000 6.2 260 12:22 16.05.2020
3096 Clouds 14 1021 54 10000 6.2 270 11:59 16.05.2020
3097 Clouds 14 1021 62 10000 5.1 220 11:38 16.05.2020
3098 Clouds 14 1021 62 10000 5.1 220 11:20 16.05.2020
3099 Clouds 13 1021 76 10000 4.6 230 10:56 16.05.2020
3100 Clouds 13 1021 76 10000 4.6 250 10:37 16.05.2020
3101 Clouds 13 1021 76 10000 4.6 250 10:18 16.05.2020
3102 Clouds 12 1022 76 10000 5.1 250 09:44 16.05.2020
3103 Clouds 10 1021 76 10000 3.6 250 09:26 16.05.2020
3104 Clouds 8 1021 87 10000 3.1 240 08:43 16.05.2020
3105 Clear 8 1021 87 10000 3.1 240 08:22 16.05.2020
3106 Clear 8 1021 87 10000 1 0 07:55 16.05.2020
3107 Clear 7 1021 93 10000 1.5 230 07:37 16.05.2020
3108 Clear 6 1021 93 10000 1.5 230 07:18 16.05.2020
3109 Clear 5 1021 100 10000 1 210 06:43 16.05.2020
3110 Clear 4 1021 100 10000 1 210 06:18 16.05.2020
3111 Clear 5 1021 93 10000 1 250 05:39 16.05.2020
3112 Clear 4 1021 93 10000 1.5 240 04:31 16.05.2020
3113 Clear 5 1021 86 10000 2.1 230 03:21 16.05.2020
3114 Clear 5 1022 93 10000 1 0 02:38 16.05.2020
3115 Clear 5 1022 86 10000 2.1 240 01:56 16.05.2020
3116 Clear 5 1022 86 10000 2.1 240 01:35 16.05.2020
3117 Clouds 6 1022 80 10000 2.1 240 00:56 16.05.2020
3118 Clouds 6 1022 81 10000 3.1 260 00:38 16.05.2020
3119 Clouds 6 1022 81 10000 3.1 260 00:18 16.05.2020
3120 Clouds 8 1022 70 10000 3.1 290 23:38 15.05.2020
3121 Clouds 8 1022 70 10000 3.1 290 23:18 15.05.2020
3122 Clouds 10 1021 61 10000 4.1 300 22:41 15.05.2020
3123 Clouds 10 1021 61 10000 4.1 300 22:20 15.05.2020
3124 Clouds 10 1021 61 10000 4.1 300 22:20 15.05.2020
3125 Clouds 10 1021 57 10000 4.1 300 21:56 15.05.2020
3126 Clouds 11 1021 57 10000 3.6 300 21:38 15.05.2020
3127 Clouds 11 1021 57 10000 3.6 300 21:20 15.05.2020
3128 Clouds 11 1021 57 10000 4.6 300 20:54 15.05.2020
3129 Clouds 12 1021 50 10000 5.7 300 20:36 15.05.2020
3130 Clouds 12 1021 50 10000 5.7 300 20:18 15.05.2020
3131 Clouds 12 1021 54 10000 5.7 310 19:42 15.05.2020
3132 Clouds 12 1021 54 10000 5.7 310 19:23 15.05.2020
3133 Clouds 13 1020 46 10000 6.7 310 18:48 15.05.2020
3134 Clouds 13 1020 47 10000 5.1 310 18:28 15.05.2020
3135 Clouds 13 1020 50 10000 6.2 310 17:59 15.05.2020
3136 Clouds 14 1020 47 10000 6.7 310 17:37 15.05.2020
3137 Clouds 14 1020 47 10000 6.7 310 17:18 15.05.2020
3138 Clouds 14 1020 58 10000 4.1 280 16:56 15.05.2020
3139 Rain 13 1020 66 10000 4.1 280 16:37 15.05.2020
3140 Rain 13 1020 66 10000 4.1 280 16:18 15.05.2020
3141 Clouds 13 1020 58 10000 5.1 280 15:41 15.05.2020
3142 Clouds 12 1020 58 10000 5.1 280 15:20 15.05.2020
3143 Clouds 12 1020 58 10000 6.2 290 14:57 15.05.2020
3144 Clouds 12 1020 58 10000 4.6 280 14:39 15.05.2020
3145 Clouds 12 1020 58 10000 4.6 280 14:21 15.05.2020
3146 Clouds 12 1020 58 10000 4.6 280 14:21 15.05.2020
3147 Clouds 12 1020 62 10000 5.7 300 13:42 15.05.2020
3148 Clouds 11 1020 62 10000 5.7 300 13:22 15.05.2020
3149 Clouds 12 1020 62 10000 6.2 290 12:56 15.05.2020
3150 Clouds 12 1020 58 10000 5.1 290 12:37 15.05.2020
3151 Clouds 12 1020 58 10000 5.1 290 12:18 15.05.2020
3152 Clouds 12 1020 62 10000 4.1 300 11:56 15.05.2020
3153 Clouds 12 1020 62 10000 5.7 290 11:37 15.05.2020
3154 Clouds 12 1020 62 10000 5.7 290 11:19 15.05.2020
3155 Clouds 12 1021 62 10000 4.1 250 10:56 15.05.2020
3156 Clouds 11 1021 61 10000 3.6 260 10:38 15.05.2020
3157 Clouds 10 1021 61 10000 3.6 260 10:19 15.05.2020
3158 Clouds 9 1021 65 10000 3.6 250 09:40 15.05.2020
3159 Clouds 8 1021 65 10000 3.6 250 09:20 15.05.2020
3160 -273 0 0 0 0 0 08:59 15.05.2020
3161 Clouds 6 1021 80 10000 1.5 240 08:38 15.05.2020
3162 Clouds 6 1021 80 10000 1.5 240 08:38 15.05.2020
3163 Clouds 6 1021 80 10000 1.5 240 08:38 15.05.2020
3164 Clouds 6 1021 80 10000 1.5 240 08:19 15.05.2020
3165 Clouds 2 1020 75 10000 1.5 230 07:46 15.05.2020
3166 Clouds 2 1020 83 10000 1.5 230 07:28 15.05.2020
3167 Clouds 1 1020 83 10000 1.5 220 06:58 15.05.2020
3168 Clear 0 1020 95 10000 2.1 280 05:56 15.05.2020
3169 Clear 1 1020 96 10000 2.6 300 04:38 15.05.2020
3170 Clear 1 1020 95 10000 2.6 290 03:49 15.05.2020
3171 Clear 2 1020 93 10000 2.1 300 02:44 15.05.2020
3172 Clear 2 1021 90 10000 2.1 290 01:32 15.05.2020
3173 Clear 4 1021 70 10000 1.5 360 00:58 15.05.2020
3174 Clear 4 1021 70 10000 2.6 350 00:39 15.05.2020
3175 Clear 5 1021 70 10000 2.6 350 00:21 15.05.2020
3176 Clear 5 1021 65 10000 4.1 350 23:41 14.05.2020
3177 Clear 5 1021 65 10000 4.1 350 23:41 14.05.2020
3178 Clear 5 1021 65 10000 4.1 350 23:18 14.05.2020
3179 Clear 6 1021 61 10000 3.6 340 22:42 14.05.2020
3180 Clear 7 1021 61 10000 3.6 340 22:23 14.05.2020
3181 Clear 7 1021 61 10000 4.1 340 21:58 14.05.2020
3182 Clear 7 1020 57 10000 4.1 340 21:40 14.05.2020
3183 Clear 7 1020 57 10000 4.1 340 21:40 14.05.2020
3184 Clear 8 1020 57 10000 4.1 340 21:20 14.05.2020
3185 Clear 9 1020 77 10000 4.6 340 20:57 14.05.2020
3186 Clear 10 1020 77 10000 5.1 340 20:39 14.05.2020
3187 Clouds 10 1020 71 10000 5.1 340 20:19 14.05.2020
3188 Clouds 10 1020 71 10000 5.1 340 20:19 14.05.2020
3189 Clouds 11 1020 43 10000 5.1 360 19:56 14.05.2020
3190 Clouds 11 1020 71 10000 5.7 360 19:37 14.05.2020
3191 Clouds 12 1020 62 10000 5.7 360 19:19 14.05.2020
3192 Clouds 11 1020 46 10000 5.1 350 18:56 14.05.2020
3193 Clouds 11 1020 62 10000 6.7 10 18:38 14.05.2020
3194 Clouds 11 1020 58 10000 6.7 10 18:19 14.05.2020
3195 Clouds 12 1020 43 10000 5.7 350 17:56 14.05.2020
3196 Clouds 12 1020 43 10000 5.7 350 17:56 14.05.2020
3197 Clouds 12 1020 43 10000 4.1 340 17:37 14.05.2020
3198 Clouds 12 1020 43 10000 4.1 340 17:18 14.05.2020
3199 Clouds 12 1020 37 10000 4.1 320 16:41 14.05.2020
3200 Clouds 13 1020 37 10000 4.1 320 16:23 14.05.2020
3201 Clouds 12 1020 43 10000 4.1 340 15:59 14.05.2020
3202 Clouds 12 1020 43 10000 5.1 310 15:40 14.05.2020
3203 Clouds 12 1020 43 10000 5.1 310 15:40 14.05.2020
3204 Clouds 12 1020 43 10000 5.1 310 15:21 14.05.2020
3205 Clouds 13 1020 53 10000 5.7 350 14:57 14.05.2020
3206 Clouds 13 1020 40 10000 4.6 320 14:39 14.05.2020
3207 Clouds 12 1020 40 10000 4.6 320 14:20 14.05.2020
3208 Clouds 12 1020 40 10000 3.6 320 13:57 14.05.2020
3209 Clouds 12 1021 55 10000 5.7 330 13:38 14.05.2020
3210 Clouds 12 1021 55 10000 5.7 330 13:38 14.05.2020
3211 Clouds 13 1021 57 10000 5.7 330 13:19 14.05.2020
3212 Clouds 11 1020 46 10000 4.1 340 12:57 14.05.2020
3213 Clouds 12 1020 43 10000 5.1 320 12:38 14.05.2020
3214 Clouds 12 1020 43 10000 5.1 320 12:38 14.05.2020
3215 Clouds 11 1020 43 10000 5.1 320 12:19 14.05.2020
3216 Clouds 11 1020 46 10000 4.1 360 11:57 14.05.2020
3217 Clouds 10 1020 57 10000 5.1 340 11:38 14.05.2020
3218 Clouds 10 1020 57 10000 5.1 340 11:38 14.05.2020
3219 Clouds 11 1020 57 10000 5.1 340 11:19 14.05.2020
3220 Clouds 11 1020 57 10000 5.1 360 10:45 14.05.2020
3221 Clouds 10 1020 57 10000 5.1 360 10:26 14.05.2020
3222 Clouds 9 1020 61 10000 4.6 30 09:57 14.05.2020
3223 Clouds 9 1020 58 10000 5.1 30 09:38 14.05.2020
3224 Clouds 8 1020 68 10000 5.1 30 09:19 14.05.2020
3225 Clouds 7 1019 67 10000 5.1 20 08:41 14.05.2020
3226 Clouds 6 1019 74 10000 5.1 20 08:20 14.05.2020
3227 Clouds 5 1019 74 10000 4.6 30 07:45 14.05.2020
3228 Clouds 5 1018 65 10000 3.6 10 07:24 14.05.2020
3229 Clouds 3 1018 69 10000 3.6 360 06:54 14.05.2020
3230 Clouds 3 1018 69 10000 3.1 360 06:29 14.05.2020
3231 Clear 3 1017 69 10000 4.1 360 05:46 14.05.2020
3232 Clear 4 1017 65 10000 5.1 360 05:23 14.05.2020
3233 Clear 4 1017 93 10000 4.6 350 04:25 14.05.2020
3234 Clouds 4 1016 75 10000 4.1 350 03:23 14.05.2020
3235 Clouds 4 1016 75 10000 3.6 350 02:41 14.05.2020
3236 Clouds 4 1016 75 10000 3.1 350 01:56 14.05.2020
3237 Clouds 5 1015 75 10000 3.6 350 01:23 14.05.2020
3238 Clouds 5 1015 75 10000 3.6 350 00:44 14.05.2020
3239 Clouds 5 1015 75 10000 4.1 340 00:23 14.05.2020
3240 Clouds 6 1014 70 10000 4.6 350 23:42 13.05.2020
3241 Clouds 6 1014 70 10000 4.6 350 23:21 13.05.2020
3242 Clouds 6 1014 70 10000 5.7 350 22:54 13.05.2020
3243 Clouds 7 1014 65 10000 4.6 340 22:36 13.05.2020
3244 Clouds 7 1014 65 10000 4.6 340 22:18 13.05.2020
3245 Clouds 7 1013 61 10000 5.7 350 21:55 13.05.2020
3246 Clouds 8 1013 57 10000 4.1 340 21:36 13.05.2020
3247 Clouds 8 1013 57 10000 4.1 340 21:18 13.05.2020
3248 Rain 9 1012 57 10000 5.7 360 20:40 13.05.2020
3249 Rain 10 1012 57 10000 5.7 360 20:22 13.05.2020
3250 Clouds 10 1012 57 10000 4.6 330 19:43 13.05.2020
3251 Clouds 10 1012 57 10000 4.6 330 19:24 13.05.2020
3252 Clouds 11 1012 57 10000 4.6 330 18:55 13.05.2020
3253 Clouds 11 1012 57 10000 4.1 320 18:37 13.05.2020
3254 Clouds 11 1012 57 10000 4.1 320 18:18 13.05.2020
3255 Clouds 11 1012 57 10000 4.6 320 17:38 13.05.2020
3256 Clouds 11 1012 57 10000 4.6 320 17:19 13.05.2020
3257 Clouds 11 1012 61 10000 3.1 300 16:55 13.05.2020
3258 Clouds 11 1012 66 10000 3.1 330 16:37 13.05.2020
3259 Clouds 11 1012 66 10000 3.1 330 16:18 13.05.2020
3260 Clouds 10 1012 70 10000 5.1 320 15:42 13.05.2020
3261 Clouds 10 1012 70 10000 5.1 320 15:19 13.05.2020
3262 Clouds 10 1013 71 10000 5.7 300 14:57 13.05.2020
3263 Clouds 10 1012 71 10000 5.7 310 14:39 13.05.2020
3264 Clouds 10 1012 71 10000 5.7 310 14:21 13.05.2020
3265 Clouds 9 1013 70 10000 4.6 320 13:56 13.05.2020
3266 Clouds 9 1012 70 10000 5.7 290 13:38 13.05.2020
3267 Clouds 10 1012 70 10000 5.7 290 13:19 13.05.2020
3268 Rain 10 1012 66 10000 3.6 250 12:43 13.05.2020
3269 Rain 10 1012 66 10000 3.6 250 12:22 13.05.2020
3270 Rain 9 1012 70 10000 4.1 270 11:57 13.05.2020
3271 Rain 9 1012 70 10000 5.1 280 11:39 13.05.2020
3272 Rain 9 1012 70 10000 5.1 280 11:20 13.05.2020
3273 Clouds 9 1012 70 10000 5.7 250 10:59 13.05.2020
3274 Clouds 9 1012 70 10000 5.1 250 10:39 13.05.2020
3275 Clouds 10 1012 70 10000 5.1 250 10:20 13.05.2020
3276 Clouds 10 1012 70 10000 5.1 250 10:20 13.05.2020
3277 Clouds 10 1013 66 10000 4.6 250 09:58 13.05.2020
3278 Clouds 10 1012 70 10000 4.6 240 09:39 13.05.2020
3279 Clouds 8 1012 70 10000 4.6 240 09:21 13.05.2020
3280 Clouds 7 1013 81 10000 3.1 220 08:41 13.05.2020
3281 Clouds 7 1013 81 10000 3.1 220 08:22 13.05.2020
3282 -273 0 0 0 0 0 07:59 13.05.2020
3283 Clouds 6 1013 81 10000 2.1 230 07:59 13.05.2020
3284 Clouds 5 1012 93 10000 1.5 230 07:36 13.05.2020
3285 Clouds 4 1012 93 10000 1 210 06:58 13.05.2020
3286 Clouds 3 1012 100 10000 0.5 0 06:40 13.05.2020
3287 Clouds 3 1013 100 10000 1.5 250 05:50 13.05.2020
3288 Clouds 5 1013 86 10000 2.6 260 04:22 13.05.2020
3289 Clouds 6 1013 81 10000 2.6 240 02:59 13.05.2020
3290 Clouds 6 1013 81 10000 3.1 250 02:20 13.05.2020
3291 Clouds 6 1013 81 10000 3.1 230 01:21 13.05.2020
3292 Clouds 6 1014 87 10000 2.1 220 00:41 13.05.2020
3293 Clouds 6 1014 87 10000 2.1 220 00:19 13.05.2020
3294 Rain 6 1014 87 10000 2.6 220 23:40 12.05.2020
3295 Rain 6 1014 87 10000 2.6 220 23:21 12.05.2020
3296 Clouds 6 1014 87 10000 2.6 220 22:57 12.05.2020
3297 Clouds 6 1014 87 10000 2.6 220 22:39 12.05.2020
3298 Clouds 6 1014 87 10000 2.6 220 22:20 12.05.2020
3299 Clouds 6 1014 87 10000 3.1 220 21:55 12.05.2020
3300 Rain 7 1014 87 10000 3.1 250 21:37 12.05.2020
3301 Rain 7 1014 87 10000 3.1 250 21:18 12.05.2020
3302 Rain 7 1014 75 10000 6.2 260 20:56 12.05.2020
3303 Rain 7 1015 81 10000 6.2 300 20:38 12.05.2020
3304 Rain 7 1015 81 10000 6.2 300 20:20 12.05.2020
3305 Rain 8 1015 75 10000 3.6 240 19:56 12.05.2020
3306 Clouds 8 1015 75 10000 4.6 240 19:37 12.05.2020
3307 Clouds 9 1015 75 10000 4.6 240 19:18 12.05.2020
3308 Rain 8 1015 81 10000 3.1 280 18:42 12.05.2020
3309 Rain 8 1015 81 10000 3.1 280 18:23 12.05.2020
3310 Rain 9 1015 70 10000 2.6 290 17:58 12.05.2020
3311 Rain 9 1015 70 10000 6.2 240 17:39 12.05.2020
3312 Rain 9 1015 70 10000 6.2 240 17:21 12.05.2020
3313 Rain 8 1016 87 10000 4.6 250 16:43 12.05.2020
3314 Rain 8 1016 87 10000 4.6 250 16:23 12.05.2020
3315 Rain 8 1016 87 10000 6.2 290 15:56 12.05.2020
3316 Rain 8 1016 87 10000 5.1 300 15:37 12.05.2020
3317 Rain 8 1016 87 10000 5.1 300 15:18 12.05.2020
3318 Rain 9 1016 57 10000 6.2 260 14:55 12.05.2020
3319 Rain 9 1016 57 10000 6.7 260 14:36 12.05.2020
3320 Rain 9 1016 57 10000 6.7 260 14:18 12.05.2020
3321 Clouds 10 1016 57 10000 7.7 250 13:55 12.05.2020
3322 Rain 11 1013 70 0 6.4 274 13:37 12.05.2020
3323 Rain 11 1013 72 0 6.11 276 13:18 12.05.2020
3324 Rain 11 1013 71 0 0.89 315 12:56 12.05.2020
3325 Rain 10 1015 63 0 4.02 243 12:38 12.05.2020
3326 Rain 10 1016 65 0 3.13 246 12:20 12.05.2020
3327 Clouds 9 1017 61 10000 6.7 280 11:57 12.05.2020
3328 Clouds 9 1017 61 10000 6.7 280 11:37 12.05.2020
3329 Clouds 9 1017 61 10000 6.7 280 11:19 12.05.2020
3330 Clouds 9 1017 61 10000 6.7 280 10:55 12.05.2020
3331 Clouds 9 1017 67 10000 6.7 270 10:37 12.05.2020
3332 Clouds 9 1017 72 10000 6.7 270 10:18 12.05.2020
3333 Clouds 9 1017 65 10000 6.2 270 09:57 12.05.2020
3334 Clouds 9 1017 65 10000 5.7 270 09:38 12.05.2020
3335 Clouds 8 1017 65 10000 5.7 270 09:19 12.05.2020
3336 Clouds 7 1017 75 10000 5.1 280 08:41 12.05.2020
3337 Clouds 6 1017 75 10000 5.1 280 08:21 12.05.2020
3338 Clouds 5 1017 80 10000 4.1 260 07:55 12.05.2020
3339 Clouds 4 1017 86 10000 3.6 270 07:37 12.05.2020
3340 Clouds 4 1017 86 10000 3.6 270 07:18 12.05.2020
3341 Clouds 3 1017 83 10000 3.1 280 06:37 12.05.2020
3342 Clouds 3 1017 91 10000 3.1 280 06:19 12.05.2020
3343 Clouds 3 1017 86 10000 3.1 280 05:45 12.05.2020
3344 Clouds 3 1017 85 10000 3.6 300 03:55 12.05.2020
3345 Clouds 3 1017 87 10000 3.1 290 03:19 12.05.2020
3346 Clouds 3 1017 80 10000 3.1 290 02:27 12.05.2020
3347 Clouds 3 1017 80 10000 3.1 290 02:27 12.05.2020
3348 Clouds 3 1016 89 10000 3.1 290 01:35 12.05.2020
3349 Clouds 4 1016 80 10000 3.6 280 00:58 12.05.2020
3350 Clouds 4 1016 84 10000 2.6 280 00:24 12.05.2020
3351 Clouds 4 1016 84 10000 3.6 290 23:57 11.05.2020
3352 Clouds 6 1015 84 10000 4.6 320 23:37 11.05.2020
3353 Clouds 6 1015 81 10000 4.6 320 23:19 11.05.2020
3354 Clouds 6 1015 81 10000 4.6 330 22:56 11.05.2020
3355 Clouds 7 1015 52 10000 5.7 340 22:38 11.05.2020
3356 Clouds 7 1015 52 10000 5.7 340 22:19 11.05.2020
3357 Clouds 8 1014 52 10000 6.2 340 21:55 11.05.2020
3358 Clouds 8 1014 49 10000 7.7 340 21:36 11.05.2020
3359 Clouds 8 1014 49 10000 7.7 340 21:18 11.05.2020
3360 Clouds 8 1014 45 10000 6.2 340 20:54 11.05.2020
3361 Clouds 9 1013 49 10000 9.8 340 20:36 11.05.2020
3362 Clouds 9 1013 49 10000 9.8 340 20:18 11.05.2020
3363 Clouds 9 1013 49 10000 8.2 340 19:41 11.05.2020
3364 Clouds 9 1013 49 10000 8.2 340 19:22 11.05.2020
3365 Clouds 11 1013 58 10000 6.7 340 18:57 11.05.2020
3366 Clouds 11 1013 43 10000 7.2 340 18:39 11.05.2020
3367 Clouds 11 1013 43 10000 7.2 340 18:20 11.05.2020
3368 Clouds 11 1013 39 10000 8.7 10 17:57 11.05.2020
3369 Clouds 11 1012 34 10000 9.3 360 17:39 11.05.2020
3370 Clouds 12 1012 34 10000 9.3 360 17:21 11.05.2020
3371 Clouds 11 1012 43 10000 9.8 360 16:57 11.05.2020
3372 Clouds 11 1012 37 10000 10.3 360 16:38 11.05.2020
3373 Rain 12 1012 37 10000 10.3 360 16:19 11.05.2020
3374 Rain 12 1012 40 10000 6.7 10 15:42 11.05.2020
3375 Rain 12 1012 40 10000 6.7 10 15:21 11.05.2020
3376 Rain 12 1012 40 10000 7.7 20 14:59 11.05.2020
3377 Rain 12 1012 40 10000 7.7 10 14:41 11.05.2020
3378 Rain 12 1012 40 10000 7.7 10 14:22 11.05.2020
3379 Clouds 12 1012 43 10000 8.7 10 13:58 11.05.2020
3380 Clouds 11 1012 49 10000 8.7 10 13:39 11.05.2020
3381 Clouds 11 1012 49 10000 8.7 10 13:18 11.05.2020
3382 Clouds 11 1012 54 10000 7.7 10 12:56 11.05.2020
3383 Clouds 11 1012 49 10000 8.7 10 12:38 11.05.2020
3384 Clouds 10 1012 49 10000 8.7 10 12:19 11.05.2020
3385 Clouds 10 1012 61 10000 7.2 30 11:54 11.05.2020
3386 Clouds 9 1012 65 10000 7.7 10 11:36 11.05.2020
3387 Clouds 9 1012 65 10000 7.7 10 11:18 11.05.2020
3388 Clouds 9 1011 65 10000 6.7 360 10:54 11.05.2020
3389 Clouds 9 1011 61 10000 8.2 360 10:36 11.05.2020
3390 Clouds 9 1011 61 10000 8.2 360 10:18 11.05.2020
3391 Clouds 9 1011 65 10000 6.7 350 09:41 11.05.2020
3392 Clouds 8 1011 65 10000 6.7 350 09:20 11.05.2020
3393 Clouds 7 1011 65 10000 7.7 360 08:57 11.05.2020
3394 Clouds 7 1010 65 10000 6.7 350 08:38 11.05.2020
3395 Clouds 7 1010 65 10000 6.7 350 08:18 11.05.2020
3396 Clouds 7 1010 63 10000 6.7 350 07:47 11.05.2020
3397 Clouds 7 1010 65 10000 5.1 350 07:28 11.05.2020
3398 Clouds 7 1010 65 10000 4.6 350 06:51 11.05.2020
3399 Clouds 7 1010 65 10000 4.1 350 06:18 11.05.2020
3400 Clouds 7 1010 70 10000 4.6 350 05:28 11.05.2020
3401 Rain 7 1010 75 10000 4.6 350 04:35 11.05.2020
3402 Rain 6 1010 81 10000 4.6 350 03:33 11.05.2020
3403 Rain 6 1010 70 10000 5.7 350 02:33 11.05.2020
3404 Rain 7 1010 70 10000 5.7 360 01:46 11.05.2020
3405 Rain 8 1010 70 10000 7.2 360 00:53 11.05.2020
3406 Rain 8 1010 61 10000 7.7 360 00:21 11.05.2020
3407 Rain 8 1010 61 10000 9.3 350 23:45 10.05.2020
3408 Clouds 9 1009 61 10000 7.2 350 23:26 10.05.2020
3409 Clouds 9 1009 61 10000 7.7 350 22:58 10.05.2020
3410 Rain 9 1009 61 10000 8.2 350 22:40 10.05.2020
3411 Rain 9 1009 61 10000 8.2 350 22:22 10.05.2020
3412 Clouds 10 1008 61 10000 8.7 350 21:44 10.05.2020
3413 Clouds 10 1008 61 10000 8.7 350 21:20 10.05.2020
3414 Clouds 10 1007 62 10000 10.3 350 20:56 10.05.2020
3415 Clouds 11 1007 62 10000 9.3 360 20:38 10.05.2020
3416 Clouds 11 1007 62 10000 9.3 360 20:20 10.05.2020
3417 Clouds 12 1006 66 10000 8.7 360 19:54 10.05.2020
3418 Clouds 13 1006 67 10000 8.2 330 19:36 10.05.2020
3419 Rain 13 1006 67 10000 8.2 330 19:18 10.05.2020
3420 Rain 14 1006 72 10000 8.2 320 18:54 10.05.2020
3421 Rain 14 1006 72 10000 8.2 320 18:54 10.05.2020
3422 Rain 15 1005 67 10000 8.2 320 18:36 10.05.2020
3423 Rain 15 1005 67 10000 8.2 320 18:36 10.05.2020
3424 Rain 16 1005 67 10000 8.2 320 18:18 10.05.2020
3425 Rain 16 1005 67 10000 8.2 310 17:56 10.05.2020
3426 Rain 16 1005 68 10000 7.7 310 17:36 10.05.2020
3427 Rain 16 1005 68 10000 7.7 310 17:18 10.05.2020
3428 Rain 19 1004 56 10000 7.2 310 16:43 10.05.2020
3429 Rain 19 1004 56 10000 7.2 310 16:43 10.05.2020
3430 Rain 19 1004 56 10000 7.2 310 16:21 10.05.2020
3431 Rain 22 1004 49 10000 4.6 330 15:58 10.05.2020
3432 Rain 22 1004 46 10000 5.7 310 15:39 10.05.2020
3433 Rain 23 1004 46 10000 5.7 310 15:20 10.05.2020
3434 Rain 24 1004 31 10000 1 0 14:55 10.05.2020
3435 Rain 23 1004 35 10000 0.5 240 14:37 10.05.2020
3436 Rain 23 1004 35 10000 0.5 240 14:18 10.05.2020
3437 Rain 23 1004 38 10000 2.1 0 13:57 10.05.2020
3438 Rain 24 1005 33 10000 1.5 0 13:36 10.05.2020
3439 Clouds 24 1005 33 10000 1.5 0 13:18 10.05.2020
3440 Clouds 23 1005 37 10000 1.5 330 12:42 10.05.2020
3441 Clouds 22 1005 37 10000 1.5 330 12:23 10.05.2020
3442 Clouds 22 1005 35 10000 0.5 0 11:59 10.05.2020
3443 Clouds 21 1006 46 10000 1 160 11:40 10.05.2020
3444 Clouds 21 1006 46 10000 1 160 11:21 10.05.2020
3445 Clouds 20 1006 52 10000 1.5 170 10:58 10.05.2020
3446 Clouds 20 1006 52 10000 2.1 140 10:40 10.05.2020
3447 Clouds 19 1006 52 10000 2.1 140 10:22 10.05.2020
3448 Clouds 16 1006 59 10000 1.5 140 09:42 10.05.2020
3449 Clouds 16 1006 59 10000 1.5 140 09:23 10.05.2020
3450 Clouds 15 1006 67 10000 1 0 08:59 10.05.2020
3451 Clouds 14 1007 66 10000 1.5 120 08:40 10.05.2020
3452 Clouds 12 1007 66 10000 1.5 120 08:22 10.05.2020
3453 Clouds 12 1007 81 10000 1.5 120 07:42 10.05.2020
3454 Clouds 11 1007 81 10000 1.5 120 07:19 10.05.2020
3455 Clouds 10 1007 81 10000 1.5 120 06:50 10.05.2020
3456 Clouds 10 1007 87 10000 1.5 90 06:26 10.05.2020
3457 Clouds 10 1007 93 10000 0.5 0 05:46 10.05.2020
3458 Clouds 9 1008 93 10000 1 70 04:48 10.05.2020
3459 Clouds 9 1008 93 10000 1 70 04:29 10.05.2020
3460 Clouds 9 1008 100 10000 0.5 0 03:51 10.05.2020
3461 Clouds 10 1009 93 10000 0.5 100 02:59 10.05.2020
3462 Clouds 11 1009 87 10000 0.5 0 02:25 10.05.2020
3463 Clouds 11 1009 87 10000 1 50 01:59 10.05.2020
3464 Clouds 12 1010 67 10000 1.5 20 01:39 10.05.2020
3465 Clouds 13 1010 67 10000 1.5 20 01:18 10.05.2020
3466 Clouds 13 1010 71 10000 1.5 60 00:52 10.05.2020
3467 Clear 13 1010 71 10000 2.1 30 00:22 10.05.2020
3468 Clear 14 1010 63 10000 4.1 30 23:40 09.05.2020
3469 Clear 15 1010 63 10000 4.1 30 23:22 09.05.2020
3470 Clear 15 1010 59 10000 4.6 30 22:59 09.05.2020
3471 Clear 16 1011 55 10000 4.6 30 22:41 09.05.2020
3472 Clear 16 1011 55 10000 4.6 30 22:22 09.05.2020
3473 Clear 18 1011 55 10000 4.1 30 21:57 09.05.2020
3474 Clear 18 1011 52 10000 5.7 30 21:39 09.05.2020
3475 Clear 18 1011 52 10000 5.7 30 21:20 09.05.2020
3476 Clear 20 1010 49 10000 6.7 30 20:57 09.05.2020
3477 Clear 20 1010 49 10000 5.1 30 20:38 09.05.2020
3478 Clear 20 1010 49 10000 5.1 30 20:19 09.05.2020
3479 Clear 22 1011 29 10000 1 80 19:55 09.05.2020
3480 Clear 23 1011 27 10000 1 0 19:37 09.05.2020
3481 Clear 23 1011 27 10000 1 0 19:18 09.05.2020
3482 Clear 23 1011 28 10000 2.1 80 18:42 09.05.2020
3483 Clear 23 1011 28 10000 2.1 80 18:42 09.05.2020
3484 Clear 23 1011 28 10000 2.1 80 18:21 09.05.2020
3485 Clear 23 1012 31 10000 2.6 0 17:45 09.05.2020
3486 Clear 23 1012 28 10000 2.6 0 17:23 09.05.2020
3487 Clear 23 1012 31 10000 2.1 140 16:57 09.05.2020
3488 Clear 24 1013 28 10000 2.6 0 16:38 09.05.2020
3489 Clear 24 1013 28 10000 2.6 0 16:38 09.05.2020
3490 Clear 23 1013 28 10000 2.6 0 16:19 09.05.2020
3491 Clear 22 1013 30 10000 3.6 60 15:43 09.05.2020
3492 Clear 22 1013 30 10000 3.6 60 15:22 09.05.2020
3493 Clear 23 1014 33 10000 2.6 70 14:56 09.05.2020
3494 Clear 23 1014 35 10000 2.1 0 14:38 09.05.2020
3495 Clear 22 1014 35 10000 2.1 0 14:18 09.05.2020
3496 Clear 22 1014 35 10000 2.1 0 14:18 09.05.2020
3497 Clear 22 1014 35 10000 2.1 0 13:56 09.05.2020
3498 Clear 22 1015 37 10000 3.1 70 13:38 09.05.2020
3499 Clear 22 1015 37 10000 3.1 70 13:18 09.05.2020
3500 Clear 22 1015 37 10000 3.1 70 13:18 09.05.2020
3501 Clear 22 1015 42 10000 2.1 120 12:41 09.05.2020
3502 Clear 20 1015 42 10000 2.1 120 12:22 09.05.2020
3503 Clear 20 1015 42 10000 2.6 150 11:55 09.05.2020
3504 Clear 20 1016 42 10000 3.6 110 11:37 09.05.2020
3505 Clear 20 1016 42 10000 3.6 110 11:18 09.05.2020
3506 Clear 20 1016 42 10000 3.6 110 11:18 09.05.2020
3507 Clear 19 1016 48 10000 3.1 140 10:42 09.05.2020
3508 Clear 18 1016 48 10000 3.1 140 10:23 09.05.2020
3509 Clear 17 1016 55 10000 3.1 140 09:56 09.05.2020
3510 Clear 16 1016 62 10000 2.6 140 09:37 09.05.2020
3511 Clear 14 1016 62 10000 2.6 140 09:18 09.05.2020
3512 Clear 12 1016 62 10000 1 0 08:51 09.05.2020
3513 Clear 11 1016 66 10000 0.5 90 08:31 09.05.2020
3514 Clouds 9 1016 81 10000 0.5 0 07:49 09.05.2020
3515 Clouds 9 1016 87 10000 0.5 0 07:31 09.05.2020
3516 Clouds 8 1016 100 10000 0.5 0 06:47 09.05.2020
3517 Clouds 8 1016 93 10000 0.5 0 06:23 09.05.2020
3518 Clouds 8 1016 93 10000 0.5 0 05:45 09.05.2020
3519 Clouds 8 1016 93 10000 1 150 03:54 09.05.2020
3520 Clouds 8 1017 93 10000 1.46 134 03:36 09.05.2020
3521 Clouds 9 1017 87 10000 1 210 02:32 09.05.2020
3522 Clouds 9 1017 87 10000 0.5 290 01:52 09.05.2020
3523 Clouds 9 1017 93 10000 0.5 0 01:24 09.05.2020
3524 Clouds 11 1017 81 10000 1.71 107 00:54 09.05.2020
3525 Clouds 11 1017 81 10000 1 80 00:36 09.05.2020
3526 Clouds 12 1017 76 10000 1.5 70 23:54 08.05.2020
3527 Clouds 13 1017 62 10000 1.5 60 23:36 08.05.2020
3528 Clouds 13 1017 62 10000 1.5 60 23:18 08.05.2020
3529 Clouds 14 1017 58 10000 2.1 30 22:42 08.05.2020
3530 Clouds 14 1017 58 10000 2.1 30 22:20 08.05.2020
3531 Clouds 15 1017 55 10000 1 40 21:59 08.05.2020
3532 Clouds 15 1017 48 10000 2.1 40 21:41 08.05.2020
3533 Clouds 18 1017 48 10000 2.1 40 21:19 08.05.2020
3534 Clouds 18 1017 48 10000 2.1 40 20:59 08.05.2020
3535 Clouds 18 1017 48 10000 2.6 10 20:40 08.05.2020
3536 Clouds 18 1017 48 10000 2.6 10 20:22 08.05.2020
3537 Clouds 18 1017 48 10000 2.6 360 19:45 08.05.2020
3538 Clouds 19 1017 45 10000 3.6 20 19:24 08.05.2020
3539 Clouds 19 1017 45 10000 3.6 20 19:24 08.05.2020
3540 Clouds 20 1017 42 10000 2.6 20 18:58 08.05.2020
3541 Clouds 20 1017 40 10000 3.6 30 18:40 08.05.2020
3542 Clouds 20 1017 40 10000 3.6 30 18:22 08.05.2020
3543 Clouds 20 1018 34 10000 2.6 320 17:42 08.05.2020
3544 Clouds 20 1018 34 10000 2.6 320 17:19 08.05.2020
3545 Clouds 20 1018 30 10000 3.1 330 16:48 08.05.2020
3546 Clouds 20 1018 32 10000 3.1 0 16:27 08.05.2020
3547 Clouds 19 1018 32 10000 3.1 290 15:59 08.05.2020
3548 Clouds 19 1018 31 10000 2.6 0 15:41 08.05.2020
3549 Clouds 19 1018 31 10000 2.6 0 15:19 08.05.2020
3550 Clouds 19 1018 34 10000 3.1 280 14:54 08.05.2020
3551 Clouds 18 1019 33 10000 3.6 310 14:36 08.05.2020
3552 Clouds 18 1019 33 10000 3.6 310 14:18 08.05.2020
3553 Clouds 18 1019 36 10000 3.1 300 13:41 08.05.2020
3554 Clouds 18 1019 36 10000 3.1 300 13:20 08.05.2020
3555 Clouds 17 1019 36 10000 3.6 270 12:55 08.05.2020
3556 Clouds 17 1019 41 10000 3.1 280 12:37 08.05.2020
3557 Clouds 16 1019 41 10000 3.1 280 12:18 08.05.2020
3558 Clouds 15 1019 44 10000 3.6 290 11:44 08.05.2020
3559 Clouds 15 1019 44 10000 3.6 290 11:23 08.05.2020
3560 Clouds 15 1019 47 10000 2.6 300 10:58 08.05.2020
3561 Clouds 14 1019 54 10000 2.6 300 10:40 08.05.2020
3562 Clouds 14 1019 54 10000 2.6 300 10:19 08.05.2020
3563 Clouds 14 1019 43 10000 2.6 300 09:54 08.05.2020
3564 Clouds 13 1019 62 10000 1 0 09:36 08.05.2020
3565 Clouds 11 1019 62 10000 1 0 09:18 08.05.2020
3566 Clouds 9 1019 81 10000 1 0 08:40 08.05.2020
3567 Clouds 8 1019 81 10000 1 0 08:21 08.05.2020
3568 Clouds 6 1019 93 10000 1 0 07:43 08.05.2020
3569 Clouds 5 1019 93 10000 1 0 07:23 08.05.2020
3570 Clouds 3 1019 100 10000 1 0 06:51 08.05.2020
3571 Clouds 4 1019 93 10000 1 290 06:23 08.05.2020
3572 Clouds 4 1019 86 10000 1 0 05:42 08.05.2020
3573 Clouds 4 1019 93 10000 1 240 04:38 08.05.2020
3574 Clouds 5 1020 93 10000 1 180 02:34 08.05.2020
3575 Clouds 6 1020 81 10000 1 280 01:53 08.05.2020
3576 Clouds 6 1020 81 10000 0.5 0 01:28 08.05.2020
3577 Clouds 7 1020 75 10000 0.5 0 00:53 08.05.2020
3578 Clouds 8 1020 66 10000 1 0 00:30 08.05.2020
3579 Clouds 9 1020 61 10000 1 0 23:59 07.05.2020
3580 Clouds 9 1020 57 10000 1.5 30 23:40 07.05.2020
3581 Clouds 9 1020 57 10000 1.5 30 23:22 07.05.2020
3582 Clouds 10 1020 58 10000 2.6 40 22:56 07.05.2020
3583 Clouds 10 1021 66 10000 3.1 30 22:38 07.05.2020
3584 Clouds 10 1021 66 10000 3.1 30 22:38 07.05.2020
3585 Clouds 11 1021 66 10000 3.1 30 22:19 07.05.2020
3586 Clouds 12 1021 66 10000 4.1 30 21:55 07.05.2020
3587 Clouds 12 1021 62 10000 4.6 20 21:36 07.05.2020
3588 Clouds 13 1021 62 10000 4.6 20 21:18 07.05.2020
3589 Clouds 14 1021 54 10000 3.1 80 20:42 07.05.2020
3590 Clouds 15 1021 54 10000 3.1 80 20:23 07.05.2020
3591 Clouds 16 1021 45 10000 2.1 50 19:58 07.05.2020
3592 Clouds 17 1021 39 10000 1 0 19:38 07.05.2020
3593 Clouds 18 1021 39 10000 1 0 19:20 07.05.2020
3594 Clouds 18 1021 42 10000 1 0 18:45 07.05.2020
3595 Clear 18 1022 39 10000 2.1 310 18:26 07.05.2020
3596 Clear 19 1022 42 10000 0.5 0 17:57 07.05.2020
3597 Clear 19 1022 42 10000 1.5 0 17:36 07.05.2020
3598 Clear 19 1022 42 10000 1.5 0 17:18 07.05.2020
3599 Clear 18 1023 48 10000 3.1 310 16:40 07.05.2020
3600 Clear 18 1023 48 10000 3.1 310 16:18 07.05.2020
3601 Clear 17 1023 48 10000 2.1 310 15:56 07.05.2020
3602 Clear 17 1024 55 10000 4.1 310 15:37 07.05.2020
3603 Clear 17 1024 55 10000 4.1 310 15:18 07.05.2020
3604 Clouds 17 1024 62 10000 3.1 310 14:44 07.05.2020
3605 Clouds 16 1024 62 10000 3.1 310 14:21 07.05.2020
3606 Clouds 16 1024 66 10000 4.1 310 13:45 07.05.2020
3607 Clouds 16 1025 66 10000 5.1 310 13:26 07.05.2020
3608 Clouds 15 1025 66 10000 5.7 320 12:58 07.05.2020
3609 Clouds 13 1025 71 10000 5.1 310 12:39 07.05.2020
3610 Clouds 13 1025 71 10000 5.1 310 12:19 07.05.2020
3611 Clouds 12 1025 71 10000 5.7 280 11:39 07.05.2020
3612 Clouds 11 1025 71 10000 5.7 280 11:21 07.05.2020
3613 Clouds 11 1025 71 10000 5.1 300 10:54 07.05.2020
3614 Clouds 10 1025 76 10000 4.6 300 10:36 07.05.2020
3615 Clouds 10 1024 81 10000 3.6 290 10:18 07.05.2020
3616 Clouds 9 1024 87 10000 3.1 280 09:39 07.05.2020
3617 Clouds 9 1024 87 10000 3.1 280 09:18 07.05.2020
3618 Clouds 8 1024 93 10000 2.1 260 08:44 07.05.2020
3619 Clouds 7 1024 93 10000 2.1 260 08:23 07.05.2020
3620 Clouds 5 1024 100 10000 0.5 0 07:58 07.05.2020
3621 Clouds 5 1024 100 10000 2.1 250 07:40 07.05.2020
3622 Clouds 5 1024 100 10000 2.1 250 07:20 07.05.2020
3623 Clouds 3 1024 100 10000 1.5 260 06:37 07.05.2020
3624 Clouds 3 1024 100 10000 1.5 260 06:18 07.05.2020
3625 Clouds 4 1025 93 10000 2.1 260 04:41 07.05.2020
3626 Clouds 4 1025 93 10000 2.1 260 03:40 07.05.2020
3627 Clouds 4 1025 93 10000 2.1 260 03:18 07.05.2020
3628 Clouds 4 1025 93 10000 2.1 260 02:35 07.05.2020
3629 Clouds 5 1025 93 10000 2.1 280 01:38 07.05.2020
3630 Clouds 5 1025 93 10000 2.1 280 01:20 07.05.2020
3631 Clouds 5 1025 86 10000 3.1 290 00:43 07.05.2020
3632 Clouds 5 1025 86 10000 3.1 290 00:23 07.05.2020
3633 Clouds 6 1025 87 10000 3.1 290 23:45 06.05.2020
3634 Clouds 7 1025 75 10000 3.6 330 23:23 06.05.2020
3635 Clouds 7 1025 75 10000 4.6 340 22:56 06.05.2020
3636 Clouds 8 1025 70 10000 4.6 340 22:38 06.05.2020
3637 Clouds 8 1025 70 10000 4.6 340 22:38 06.05.2020
3638 Clouds 8 1025 70 10000 4.6 340 22:19 06.05.2020
3639 Clouds 8 1025 70 10000 4.6 340 21:56 06.05.2020
3640 Clouds 9 1025 66 10000 5.7 340 21:37 06.05.2020
3641 Clear 10 1025 66 10000 5.7 340 21:18 06.05.2020
3642 Clear 10 1024 62 10000 5.7 340 20:42 06.05.2020
3643 Clouds 11 1024 62 10000 5.7 340 20:22 06.05.2020
3644 Clouds 11 1024 62 10000 5.7 340 20:22 06.05.2020
3645 Clouds 11 1024 58 10000 6.2 340 19:57 06.05.2020
3646 Clouds 13 1024 50 10000 6.7 340 19:38 06.05.2020
3647 Clouds 13 1024 50 10000 6.7 340 19:19 06.05.2020
3648 Clouds 13 1025 54 10000 6.7 320 18:58 06.05.2020
3649 Clouds 14 1024 50 10000 5.7 340 18:38 06.05.2020
3650 Clouds 14 1024 50 10000 5.7 340 18:20 06.05.2020
3651 Clouds 14 1024 50 10000 5.7 340 18:20 06.05.2020
3652 Clouds 15 1024 47 10000 6.2 340 17:56 06.05.2020
3653 Clouds 15 1024 47 10000 6.2 340 17:56 06.05.2020
3654 Clouds 15 1024 47 10000 5.7 330 17:38 06.05.2020
3655 Clouds 15 1024 47 10000 5.7 330 17:20 06.05.2020
3656 Clouds 16 1025 47 10000 5.1 310 16:58 06.05.2020
3657 Clouds 16 1025 47 10000 5.7 310 16:40 06.05.2020
3658 Clouds 16 1025 47 10000 5.7 310 16:20 06.05.2020
3659 Clouds 15 1025 47 10000 4.6 320 15:57 06.05.2020
3660 Clouds 15 1025 44 10000 4.6 340 15:39 06.05.2020
3661 Clouds 15 1025 44 10000 4.6 340 15:20 06.05.2020
3662 Clouds 16 1025 38 10000 5.1 310 14:42 06.05.2020
3663 Clouds 16 1025 38 10000 5.1 310 14:42 06.05.2020
3664 Clouds 16 1025 38 10000 5.1 310 14:42 06.05.2020
3665 Clouds 15 1025 38 10000 5.1 310 14:19 06.05.2020
3666 Clouds 15 1025 44 10000 4.6 300 13:59 06.05.2020
3667 Clouds 15 1025 47 10000 4.6 300 13:40 06.05.2020
3668 Clouds 16 1025 47 10000 4.6 300 13:22 06.05.2020
3669 Clouds 15 1025 47 10000 4.6 320 12:54 06.05.2020
3670 Clouds 15 1025 50 10000 4.6 310 12:36 06.05.2020
3671 Clouds 14 1025 50 10000 4.6 310 12:18 06.05.2020
3672 Clouds 14 1025 50 10000 4.6 310 11:40 06.05.2020
3673 Clouds 14 1025 50 10000 4.6 310 11:21 06.05.2020
3674 Clouds 14 1025 58 10000 3.6 290 10:56 06.05.2020
3675 Clouds 13 1025 66 10000 3.1 310 10:37 06.05.2020
3676 Clouds 12 1025 66 10000 3.1 310 10:18 06.05.2020
3677 Clear 10 1025 81 10000 2.6 310 09:41 06.05.2020
3678 Clear 8 1025 81 10000 2.6 310 09:22 06.05.2020
3679 Clear 7 1025 87 10000 2.6 300 08:45 06.05.2020
3680 Clear 7 1025 87 10000 2.6 300 08:23 06.05.2020
3681 Clear 7 1025 87 10000 2.6 300 08:23 06.05.2020
3682 Clear 5 1025 93 10000 1 240 07:59 06.05.2020
3683 Clear 4 1025 93 10000 1.5 250 07:39 06.05.2020
3684 Clear 3 1025 93 10000 1.5 250 07:20 06.05.2020
3685 Clear 2 1025 100 10000 2.1 250 06:51 06.05.2020
3686 Clear 2 1024 100 10000 1.5 240 06:22 06.05.2020
3687 Clear 2 1024 92 10000 1 240 05:55 06.05.2020
3688 Clear 2 1024 100 10000 1.5 270 05:37 06.05.2020
3689 Clear 3 1024 93 10000 1 280 04:38 06.05.2020
3690 Clear 3 1024 93 10000 1 220 03:40 06.05.2020
3691 Clear 3 1024 93 10000 1 220 03:20 06.05.2020
3692 Clear 4 1024 86 10000 2.1 280 02:30 06.05.2020
3693 Clouds 3 1024 88 10000 2.1 270 01:54 06.05.2020
3694 Clouds 4 1024 80 10000 1.5 260 01:32 06.05.2020
3695 Clouds 6 1024 65 10000 1.5 340 00:54 06.05.2020
3696 Clouds 6 1024 65 10000 2.1 350 00:27 06.05.2020
3697 Clouds 7 1023 65 10000 2.6 330 23:57 05.05.2020
3698 Clouds 7 1023 65 10000 3.6 340 23:38 05.05.2020
3699 Clouds 7 1023 65 10000 3.6 340 23:18 05.05.2020
3700 Clouds 8 1023 57 10000 3.6 350 22:42 05.05.2020
3701 Clouds 8 1023 57 10000 3.6 350 22:20 05.05.2020
3702 Clouds 9 1023 57 10000 4.6 350 21:58 05.05.2020
3703 Clouds 9 1023 57 10000 4.6 350 21:58 05.05.2020
3704 Clouds 9 1023 57 10000 4.6 350 21:58 05.05.2020
3705 Clouds 10 1022 53 10000 4.6 340 21:39 05.05.2020
3706 Clouds 10 1022 53 10000 4.6 340 21:21 05.05.2020
3707 Clouds 10 1022 53 10000 6.7 350 20:58 05.05.2020
3708 Clouds 11 1022 50 10000 5.7 340 20:39 05.05.2020
3709 Clouds 11 1022 50 10000 5.7 340 20:19 05.05.2020
3710 Clouds 12 1021 50 10000 6.2 330 19:57 05.05.2020
3711 Clouds 13 1021 47 10000 5.1 330 19:37 05.05.2020
3712 Clouds 13 1021 47 10000 5.1 330 19:18 05.05.2020
3713 Clouds 13 1021 47 10000 5.1 330 19:18 05.05.2020
3714 Clouds 13 1021 47 10000 5.1 350 18:54 05.05.2020
3715 Clouds 14 1021 47 10000 5.1 340 18:36 05.05.2020
3716 Clouds 14 1021 47 10000 5.1 340 18:18 05.05.2020
3717 Clouds 13 1021 50 10000 4.6 340 17:42 05.05.2020
3718 Clouds 14 1021 50 10000 4.6 340 17:24 05.05.2020
3719 Clouds 13 1021 47 10000 4.6 340 16:57 05.05.2020
3720 Clouds 13 1021 47 10000 5.7 340 16:37 05.05.2020
3721 Clouds 13 1021 47 10000 5.7 340 16:18 05.05.2020
3722 Clouds 13 1021 50 10000 6.7 320 15:56 05.05.2020
3723 Clouds 14 1021 46 10000 6.7 330 15:38 05.05.2020
3724 Clouds 14 1021 46 10000 6.7 330 15:19 05.05.2020
3725 Clouds 13 1021 50 10000 5.7 330 14:43 05.05.2020
3726 Clouds 13 1021 50 10000 5.7 330 14:25 05.05.2020
3727 Clouds 14 1021 54 10000 4.1 340 13:59 05.05.2020
3728 Clouds 13 1021 50 10000 5.7 340 13:41 05.05.2020
3729 Clouds 13 1021 50 10000 5.7 340 13:21 05.05.2020
3730 Clouds 12 1021 53 10000 5.1 310 12:59 05.05.2020
3731 Rain 12 1021 53 10000 6.7 340 12:40 05.05.2020
3732 Rain 12 1021 53 10000 6.7 340 12:20 05.05.2020
3733 Clouds 12 1021 53 10000 6.2 340 11:59 05.05.2020
3734 Clouds 12 1021 53 10000 6.2 350 11:40 05.05.2020
3735 Clouds 12 1021 53 10000 6.2 350 11:19 05.05.2020
3736 Clouds 11 1021 53 10000 6.2 340 10:54 05.05.2020
3737 Clouds 11 1021 57 10000 6.2 350 10:36 05.05.2020
3738 Clouds 10 1021 57 10000 6.2 350 10:18 05.05.2020
3739 Clouds 9 1021 70 10000 2.6 300 09:44 05.05.2020
3740 Clouds 8 1021 70 10000 2.6 300 09:26 05.05.2020
3741 Clouds 8 1021 75 10000 3.6 310 08:58 05.05.2020
3742 Clouds 7 1021 81 10000 3.1 310 08:38 05.05.2020
3743 Clouds 6 1021 81 10000 3.1 310 08:18 05.05.2020
3744 Clouds 5 1021 86 10000 3.1 310 07:43 05.05.2020
3745 Clouds 3 1021 86 10000 3.1 310 07:21 05.05.2020
3746 Clear 2 1021 93 10000 3.6 300 06:54 05.05.2020
3747 Clouds 2 1021 93 10000 3.1 300 06:31 05.05.2020
3748 Clear 2 1021 93 10000 3.1 310 05:53 05.05.2020
3749 Clear 3 1021 86 10000 3.6 310 04:58 05.05.2020
3750 Clear 4 1021 86 10000 3.6 310 02:37 05.05.2020
3751 Clear 4 1021 86 10000 3.1 300 00:56 05.05.2020
3752 Clear 4 1021 86 10000 2.6 290 00:33 05.05.2020
3753 Clear 6 1021 75 10000 3.1 310 23:55 04.05.2020
3754 Clear 6 1021 75 10000 3.1 320 23:36 04.05.2020
3755 Clear 6 1021 75 10000 3.1 320 23:18 04.05.2020
3756 Clouds 7 1021 70 10000 4.6 340 22:42 04.05.2020
3757 Clouds 8 1021 70 10000 4.6 340 22:22 04.05.2020
3758 Clouds 8 1020 70 10000 4.6 330 21:59 04.05.2020
3759 Clouds 8 1020 61 10000 6.2 330 21:40 04.05.2020
3760 Clouds 8 1020 61 10000 6.2 330 21:19 04.05.2020
3761 Clouds 8 1020 61 10000 6.2 330 21:19 04.05.2020
3762 Clouds 10 1020 57 10000 6.2 330 20:41 04.05.2020
3763 Clouds 10 1020 57 10000 6.2 330 20:41 04.05.2020
3764 Clouds 10 1020 57 10000 6.2 330 20:21 04.05.2020
3765 Clouds 10 1020 57 10000 6.7 330 19:58 04.05.2020
3766 Clouds 11 1020 53 10000 6.7 340 19:40 04.05.2020
3767 Clouds 11 1020 53 10000 6.7 340 19:40 04.05.2020
3768 Clouds 11 1020 53 10000 6.7 340 19:18 04.05.2020
3769 Clouds 12 1020 54 10000 6.7 330 18:39 04.05.2020
3770 Clouds 12 1020 54 10000 6.7 330 18:20 04.05.2020
3771 Clouds 13 1019 50 10000 6.2 340 17:57 04.05.2020
3772 Clouds 14 1019 47 10000 6.2 340 17:39 04.05.2020
3773 Clouds 14 1019 47 10000 6.2 340 17:20 04.05.2020
3774 Clouds 14 1019 47 10000 7.2 340 16:58 04.05.2020
3775 Clouds 14 1019 54 10000 6.7 340 16:40 04.05.2020
3776 Clouds 14 1019 54 10000 6.7 340 16:19 04.05.2020
3777 Clouds 14 1019 50 10000 5.7 340 15:42 04.05.2020
3778 Clouds 14 1019 50 10000 5.7 340 15:22 04.05.2020
3779 Clouds 14 1019 50 10000 5.7 340 14:53 04.05.2020
3780 Clouds 14 1019 50 10000 5.7 340 14:53 04.05.2020
3781 Clouds 15 1019 50 10000 5.7 340 14:53 04.05.2020
3782 Clouds 14 1019 50 10000 5.7 340 14:53 04.05.2020
3783 Clouds 14 1019 50 10000 5.7 340 14:53 04.05.2020
3784 Clouds 14 1018 54 10000 4.1 330 14:25 04.05.2020
3785 Clouds 14 1018 54 10000 4.1 330 14:25 04.05.2020
3786 Clouds 14 1018 54 10000 4.1 350 13:23 04.05.2020
3787 Clouds 14 1018 54 10000 4.1 350 13:23 04.05.2020
3788 Clouds 14 1018 54 10000 4.1 350 13:23 04.05.2020
3789 Clouds 14 1018 54 10000 4.1 350 13:23 04.05.2020
3790 Clouds 13 1019 57 10000 5.1 350 12:44 04.05.2020
3791 Clouds 13 1019 57 10000 5.1 350 12:44 04.05.2020
3792 Clouds 13 1019 57 10000 5.1 350 12:44 04.05.2020
3793 Clouds 13 1019 57 10000 5.1 350 12:44 04.05.2020
3794 Clouds 13 1018 62 10000 4.6 350 11:28 04.05.2020
3795 Clouds 13 1018 62 10000 4.6 350 11:28 04.05.2020
3796 Clouds 13 1018 62 10000 4.6 350 11:28 04.05.2020
3797 Clouds 13 1018 62 10000 4.6 350 11:28 04.05.2020
3798 Clouds 10 1018 71 10000 3.6 40 09:31 04.05.2020
3799 Clouds 8 1018 81 10000 3.1 340 07:54 04.05.2020
3800 Clouds 8 1017 81 10000 3.1 350 07:35 04.05.2020
3801 Clouds 6 1017 81 10000 1.5 360 06:20 04.05.2020
3802 Clouds 6 1017 81 10000 1.5 20 04:53 04.05.2020
3803 Clouds 8 1017 76 10000 3.1 20 02:57 04.05.2020
3804 Clouds 8 1017 81 10000 3.6 20 02:19 04.05.2020
3805 Clouds 9 1018 76 10000 3.1 20 00:33 04.05.2020
3806 Clouds 9 1018 76 10000 3.1 20 00:33 04.05.2020
3807 Clouds 9 1018 76 10000 3.1 20 00:31 04.05.2020
3808 Clouds 9 1018 76 10000 3.1 360 23:45 03.05.2020
3809 Clouds 9 1017 76 10000 2.6 350 23:24 03.05.2020
3810 Clouds 9 1017 76 10000 3.6 360 22:45 03.05.2020
3811 Clouds 10 1017 71 10000 3.1 360 22:25 03.05.2020
3812 Clouds 9 1017 76 10000 3.6 10 21:58 03.05.2020
3813 Clouds 11 1017 66 10000 3.1 10 21:40 03.05.2020
3814 Clouds 11 1017 66 10000 3.1 10 21:20 03.05.2020
3815 Clouds 11 1017 71 10000 3.1 20 20:46 03.05.2020
3816 Clouds 11 1017 71 10000 3.1 20 20:46 03.05.2020
3817 Clouds 11 1017 71 10000 3.1 20 20:46 03.05.2020
3818 Clouds 13 1017 66 10000 2.6 340 20:22 03.05.2020
3819 Clouds 13 1017 62 10000 2.1 360 19:51 03.05.2020
3820 Clouds 13 1017 62 10000 2.1 340 19:32 03.05.2020
3821 Clouds 14 1017 62 10000 3.1 320 19:00 03.05.2020
3822 Clouds 14 1017 66 10000 3.6 310 18:38 03.05.2020
3823 Clouds 14 1017 66 10000 3.6 310 18:38 03.05.2020
3824 Clouds 14 1017 66 10000 3.6 310 18:19 03.05.2020
3825 Clouds 14 1017 71 10000 3.6 320 17:42 03.05.2020
3826 Clouds 14 1017 71 10000 3.6 320 17:22 03.05.2020
3827 Clouds 14 1017 71 10000 3.6 320 17:22 03.05.2020
3828 Clouds 14 1017 71 10000 3.6 320 17:22 03.05.2020
3829 Clouds 14 1017 66 10000 4.1 300 16:55 03.05.2020
3830 Clouds 14 1017 66 10000 4.6 320 16:37 03.05.2020
3831 Clouds 13 1017 66 10000 4.6 320 16:18 03.05.2020
3832 Clouds 14 1017 62 10000 3.1 290 15:55 03.05.2020
3833 Clouds 13 1017 66 10000 3.1 300 15:36 03.05.2020
3834 Clouds 13 1017 66 10000 3.1 300 15:18 03.05.2020
3835 Clouds 13 1017 66 10000 3.1 300 15:18 03.05.2020
3836 Clouds 13 1016 66 10000 3.1 260 14:41 03.05.2020
3837 Clouds 13 1016 66 10000 3.1 260 14:41 03.05.2020
3838 Clouds 13 1016 66 10000 3.1 260 14:22 03.05.2020
3839 Clouds 13 1016 66 10000 3.1 260 14:22 03.05.2020
3840 Clouds 13 1016 66 10000 3.1 260 14:22 03.05.2020
3841 Clouds 14 1016 66 10000 3.6 250 13:57 03.05.2020
3842 Clouds 14 1016 62 10000 4.1 270 13:33 03.05.2020
3843 Clouds 14 1016 62 10000 4.1 270 13:33 03.05.2020
3844 Clouds 14 1016 62 10000 4.1 270 13:33 03.05.2020
3845 Clouds 14 1016 62 10000 4.1 270 13:33 03.05.2020
3846 Clouds 13 1016 71 10000 3.6 270 12:47 03.05.2020
3847 Clouds 12 1016 71 10000 3.6 290 12:25 03.05.2020
3848 Clouds 12 1016 71 10000 3.6 290 12:25 03.05.2020
3849 Clouds 12 1016 71 10000 3.6 290 12:25 03.05.2020
3850 Clouds 12 1016 71 10000 4.6 270 11:57 03.05.2020
3851 Clouds 11 1016 76 10000 4.1 280 11:39 03.05.2020
3852 Clouds 11 1016 76 10000 4.1 280 11:20 03.05.2020
3853 Clouds 11 1016 76 10000 4.1 280 11:20 03.05.2020
3854 Clouds 11 1016 76 10000 3.6 270 10:52 03.05.2020
3855 Clouds 11 1016 76 10000 3.6 270 10:52 03.05.2020
3856 Clouds 11 1016 81 10000 3.6 270 10:24 03.05.2020
3857 Clouds 10 1015 93 10000 2.6 240 09:39 03.05.2020
3858 Clouds 9 1015 93 10000 2.1 230 08:57 03.05.2020
3859 Clouds 9 1015 93 10000 2.1 240 08:32 03.05.2020
3860 Clouds 8 1014 93 10000 2.6 230 07:41 03.05.2020
3861 Clouds 8 1014 93 10000 2.6 230 07:40 03.05.2020
3862 Clouds 7 1014 100 10000 2.6 240 06:35 03.05.2020
3863 Clear 7 1014 100 10000 2.1 240 05:49 03.05.2020
3864 Clear 7 1013 93 10000 2.6 250 05:31 03.05.2020
3865 Clouds 6 1013 100 8000 2.6 240 04:27 03.05.2020
3866 Clouds 6 1013 93 10000 3.1 260 03:31 03.05.2020
3867 Clouds 6 1013 93 10000 3.1 260 02:31 03.05.2020
3868 Clouds 7 1012 93 10000 2.1 260 01:59 03.05.2020
3869 Clouds 8 1012 93 10000 1.5 250 01:39 03.05.2020
3870 Clouds 8 1012 93 10000 1.5 250 01:20 03.05.2020
3871 Clouds 7 1012 93 10000 3.1 270 00:38 03.05.2020
3872 Clouds 7 1012 93 10000 3.1 270 00:20 03.05.2020
3873 Clouds 7 1012 93 10000 2.6 270 23:46 02.05.2020
3874 Clouds 8 1011 87 10000 2.6 280 23:27 02.05.2020
3875 Clouds 9 1011 81 10000 3.6 290 22:56 02.05.2020
3876 Clouds 9 1011 81 10000 4.6 300 22:38 02.05.2020
3877 Clouds 10 1011 81 10000 4.6 300 22:19 02.05.2020
3878 Clouds 10 1010 76 10000 5.1 300 21:41 02.05.2020
3879 Clouds 11 1010 76 10000 5.1 300 21:20 02.05.2020
3880 Clouds 11 1009 76 10000 4.1 300 20:58 02.05.2020
3881 Clouds 11 1009 76 10000 4.1 300 20:58 02.05.2020
3882 Clouds 11 1009 76 10000 5.7 300 20:38 02.05.2020
3883 Clouds 11 1009 76 10000 5.7 300 20:20 02.05.2020
3884 Clouds 11 1009 71 10000 6.7 310 19:59 02.05.2020
3885 Rain 12 1008 71 10000 4.6 310 19:39 02.05.2020
3886 Rain 12 1008 71 10000 4.6 310 19:20 02.05.2020
3887 Rain 12 1008 66 10000 6.7 310 18:56 02.05.2020
3888 Clouds 12 1007 62 10000 6.7 300 18:38 02.05.2020
3889 Clouds 13 1007 62 10000 6.7 300 18:20 02.05.2020
3890 Clouds 13 1007 66 10000 5.7 300 17:56 02.05.2020
3891 Clouds 11 1006 87 10000 2.6 240 17:38 02.05.2020
3892 Clouds 12 1006 87 10000 2.6 240 17:19 02.05.2020
3893 Clouds 12 1006 81 10000 5.1 260 16:54 02.05.2020
3894 Rain 12 1006 76 10000 8.2 290 16:36 02.05.2020
3895 Rain 12 1006 76 10000 8.2 290 16:18 02.05.2020
3896 Clouds 13 1005 71 10000 6.7 280 15:41 02.05.2020
3897 Clouds 13 1005 71 10000 6.7 280 15:20 02.05.2020
3898 Rain 12 1005 87 10000 3.1 290 14:44 02.05.2020
3899 Rain 12 1005 87 10000 3.1 290 14:26 02.05.2020
3900 Clouds 11 1005 76 10000 9.8 290 13:59 02.05.2020
3901 Rain 11 1004 76 10000 7.2 260 13:39 02.05.2020
3902 Rain 11 1004 76 10000 7.2 260 13:19 02.05.2020
3903 Clouds 13 1004 76 10000 7.2 250 12:42 02.05.2020
3904 Clouds 13 1004 76 10000 7.2 250 12:23 02.05.2020
3905 Rain 13 1004 76 10000 5.7 240 11:58 02.05.2020
3906 Clouds 13 1003 76 10000 4.6 250 11:39 02.05.2020
3907 Clouds 13 1003 76 10000 4.6 250 11:21 02.05.2020
3908 Clouds 12 1003 81 10000 4.1 260 10:56 02.05.2020
3909 Clouds 11 1003 87 10000 4.6 240 10:38 02.05.2020
3910 Clouds 11 1003 87 10000 4.6 240 10:20 02.05.2020
3911 Clouds 10 1003 87 10000 5.1 250 09:54 02.05.2020
3912 Clouds 10 1003 87 10000 4.6 240 09:36 02.05.2020
3913 Clouds 10 1003 87 10000 4.6 240 09:18 02.05.2020
3914 Clouds 10 1002 93 10000 4.6 230 08:44 02.05.2020
3915 Clouds 9 1002 93 10000 4.6 230 08:25 02.05.2020
3916 Clouds 8 1002 93 10000 4.6 230 07:47 02.05.2020
3917 Clouds 8 1002 93 10000 3.6 230 07:27 02.05.2020
3918 Clouds 8 1002 100 9000 3.1 230 06:50 02.05.2020
3919 Clouds 8 1001 100 10000 3.6 230 05:28 02.05.2020
3920 Clear 8 1001 93 10000 3.6 240 04:47 02.05.2020
3921 Clear 7 1001 100 10000 3.6 220 04:23 02.05.2020
3922 Clouds 8 1001 93 10000 3.1 200 02:44 02.05.2020
3923 Clouds 8 1001 93 10000 3.1 200 02:22 02.05.2020
3924 Clouds 8 1001 93 10000 3.1 200 01:33 02.05.2020
3925 Clouds 7 1000 93 10000 3.6 180 00:46 02.05.2020
3926 Clouds 8 1000 87 10000 3.1 200 00:25 02.05.2020
3927 Clouds 8 1001 93 10000 5.7 250 23:58 01.05.2020
3928 Rain 8 1000 93 10000 2.6 210 23:39 01.05.2020
3929 Rain 8 1000 93 10000 2.6 210 23:19 01.05.2020
3930 Rain 8 1000 93 10000 2.1 210 22:55 01.05.2020
3931 Clouds 8 1000 93 10000 2.1 200 22:37 01.05.2020
3932 Clouds 8 1000 93 10000 2.1 200 22:18 01.05.2020
3933 Clouds 8 1000 87 10000 1.5 200 21:55 01.05.2020
3934 Clouds 9 1000 93 10000 2.1 210 21:36 01.05.2020
3935 Clouds 9 1000 93 10000 2.1 210 21:18 01.05.2020
3936 Clouds 9 999 87 10000 3.6 210 20:54 01.05.2020
3937 Clouds 9 999 87 10000 4.1 210 20:36 01.05.2020
3938 Rain 9 999 87 10000 4.1 210 20:18 01.05.2020
3939 Rain 10 999 87 10000 4.1 210 19:41 01.05.2020
3940 Rain 10 999 87 10000 4.1 210 19:22 01.05.2020
3941 Rain 10 999 87 10000 5.1 220 18:57 01.05.2020
3942 Rain 10 999 87 10000 3.6 210 18:39 01.05.2020
3943 Rain 10 999 87 10000 3.6 210 18:20 01.05.2020
3944 Rain 10 999 87 10000 3.1 240 17:57 01.05.2020
3945 Rain 10 999 81 10000 6.2 280 17:38 01.05.2020
3946 Rain 10 999 81 10000 6.2 280 17:20 01.05.2020
3947 Rain 10 999 87 10000 4.6 290 16:55 01.05.2020
3948 Rain 10 998 76 8000 12.3 280 16:37 01.05.2020
3949 Rain 10 998 76 8000 12.3 280 16:18 01.05.2020
3950 Rain 11 998 71 10000 7.7 210 15:42 01.05.2020
3951 Rain 12 998 71 10000 7.7 210 15:24 01.05.2020
3952 Clouds 15 998 62 10000 7.7 220 14:59 01.05.2020
3953 Clouds 14 998 62 10000 7.7 210 14:40 01.05.2020
3954 Clouds 14 998 62 10000 7.7 210 14:22 01.05.2020
3955 Clouds 13 998 76 10000 6.2 190 13:41 01.05.2020
3956 Clouds 13 998 76 10000 6.2 190 13:22 01.05.2020
3957 Clouds 13 998 76 10000 6.2 190 13:22 01.05.2020
3958 Rain 13 999 71 10000 6.7 180 12:58 01.05.2020
3959 Clouds 13 999 62 10000 6.7 210 12:40 01.05.2020
3960 Clouds 12 999 62 10000 6.7 210 12:20 01.05.2020
3961 Clouds 12 999 62 10000 5.7 210 11:59 01.05.2020
3962 Clouds 13 999 62 10000 6.7 220 11:40 01.05.2020
3963 Clouds 13 999 62 10000 6.7 220 11:19 01.05.2020
3964 Clouds 12 999 71 10000 7.2 230 10:41 01.05.2020
3965 Clouds 12 999 71 10000 7.2 230 10:20 01.05.2020
3966 Clouds 12 999 71 10000 6.2 220 09:59 01.05.2020
3967 Clouds 11 999 81 10000 5.7 220 09:41 01.05.2020
3968 Clouds 10 999 81 10000 5.7 220 09:19 01.05.2020
3969 Clouds 9 999 81 10000 5.7 210 08:46 01.05.2020
3970 Clouds 9 999 87 10000 5.1 200 08:28 01.05.2020
3971 Clouds 9 999 87 10000 4.6 190 07:58 01.05.2020
3972 Clouds 9 999 81 10000 4.1 190 07:38 01.05.2020
3973 Clouds 9 999 87 10000 4.1 200 06:59 01.05.2020
3974 Clouds 9 998 81 10000 3.6 200 06:18 01.05.2020
3975 Clouds 10 998 81 10000 4.6 200 05:21 01.05.2020
3976 Clouds 9 998 87 10000 4.6 190 03:44 01.05.2020
3977 Rain 9 998 81 10000 4.1 190 02:53 01.05.2020
3978 Clouds 9 998 81 10000 4.1 180 02:34 01.05.2020
3979 Clouds 9 999 81 10000 4.1 170 01:53 01.05.2020
3980 Rain 10 999 81 10000 4.6 180 01:27 01.05.2020
3981 Clouds 11 999 76 10000 6.2 180 00:40 01.05.2020
3982 Clouds 11 999 76 10000 6.2 180 00:21 01.05.2020
3983 Rain 12 999 71 10000 6.2 180 23:57 30.04.2020
3984 Rain 12 998 66 10000 7.7 170 23:39 30.04.2020
3985 Rain 12 998 66 10000 7.7 170 23:21 30.04.2020
3986 Rain 12 998 62 10000 2.1 140 22:59 30.04.2020
3987 Rain 13 999 58 10000 2.6 130 22:39 30.04.2020
3988 Clouds 12 999 58 10000 2.6 130 22:19 30.04.2020
3989 Clouds 13 999 62 10000 1.5 100 21:43 30.04.2020
3990 Clouds 13 999 62 10000 1.5 100 21:23 30.04.2020
3991 Clouds 14 999 50 10000 1 140 20:58 30.04.2020
3992 Clouds 14 999 58 10000 2.6 180 20:40 30.04.2020
3993 Clouds 14 999 58 10000 2.6 180 20:19 30.04.2020
3994 Clouds 14 999 58 10000 2.6 180 20:19 30.04.2020
3995 Clouds 15 999 50 10000 2.6 200 19:47 30.04.2020
3996 Clear 15 999 44 10000 4.1 200 19:27 30.04.2020
3997 Clear 16 1000 44 10000 5.7 230 18:59 30.04.2020
3998 Clear 17 1000 44 10000 5.1 220 18:39 30.04.2020
3999 Clear 17 1000 44 10000 5.1 220 18:21 30.04.2020
4000 Clear 17 1000 44 10000 5.1 210 17:59 30.04.2020
4001 Clear 17 1000 47 10000 6.2 240 17:40 30.04.2020
4002 Clear 17 1000 47 10000 6.2 240 17:21 30.04.2020
4003 Clouds 17 1000 44 10000 6.2 230 16:57 30.04.2020
4004 Clouds 17 1000 48 10000 7.2 230 16:39 30.04.2020
4005 Clouds 17 1000 48 10000 7.2 230 16:19 30.04.2020
4006 Clouds 16 1000 51 10000 7.7 250 15:48 30.04.2020
4007 Clouds 16 1000 48 10000 9.3 250 15:25 30.04.2020
4008 Clouds 16 1000 58 10000 8.2 240 14:59 30.04.2020
4009 Rain 14 1000 71 10000 8.2 240 14:39 30.04.2020
4010 Rain 14 1000 71 10000 8.2 240 14:19 30.04.2020
4011 Clouds 15 999 67 10000 7.2 220 13:56 30.04.2020
4012 Clouds 15 999 67 10000 7.2 220 13:56 30.04.2020
4013 Clouds 14 999 71 10000 6.2 210 13:38 30.04.2020
4014 Clouds 14 999 71 10000 6.2 210 13:19 30.04.2020
4015 Clouds 14 999 76 10000 4.6 230 12:41 30.04.2020
4016 Clouds 13 999 76 10000 4.6 230 12:21 30.04.2020
4017 Clouds 13 999 76 10000 6.7 200 11:59 30.04.2020
4018 Clouds 12 999 82 10000 5.7 200 11:37 30.04.2020
4019 Clouds 12 999 82 10000 5.7 200 11:18 30.04.2020
4020 Clouds 12 999 81 10000 5.1 190 10:54 30.04.2020
4021 Clouds 12 999 81 10000 4.6 190 10:36 30.04.2020
4022 Clouds 11 1000 87 10000 5.1 190 10:18 30.04.2020
4023 Clouds 11 1000 87 10000 4.6 180 09:41 30.04.2020
4024 Clouds 11 1000 87 10000 4.6 180 09:22 30.04.2020
4025 Clouds 11 1000 87 10000 4.1 180 08:49 30.04.2020
4026 Clouds 10 1000 93 10000 3.6 170 08:27 30.04.2020
4027 Clouds 10 1000 93 10000 3.6 170 08:27 30.04.2020
4028 Rain 10 1000 93 10000 4.6 200 07:59 30.04.2020
4029 Rain 11 1000 93 10000 3.1 170 07:40 30.04.2020
4030 Rain 11 1000 93 10000 3.1 170 07:22 30.04.2020
4031 Rain 11 1000 93 6000 4.1 190 06:39 30.04.2020
4032 Rain 11 1000 93 7000 5.1 150 05:49 30.04.2020
4033 Rain 11 1000 87 9000 4.6 140 05:27 30.04.2020
4034 Rain 10 1001 87 10000 3.6 150 04:30 30.04.2020
4035 Rain 10 1002 87 9000 5.1 150 02:59 30.04.2020
4036 Rain 10 1002 87 10000 4.1 130 02:29 30.04.2020
4037 Clouds 10 1002 87 10000 4.1 130 01:58 30.04.2020
4038 Clouds 10 1003 87 9000 5.7 120 01:20 30.04.2020
4039 Mist 9 1003 93 4800 3.1 130 00:40 30.04.2020
4040 Mist 9 1003 93 4800 3.1 130 00:18 30.04.2020
4041 Mist 9 1003 93 4800 3.1 130 00:18 30.04.2020
4042 Mist 9 1003 93 4500 3.1 130 23:56 29.04.2020
4043 Mist 8 1004 93 4500 2.1 130 23:36 29.04.2020
4044 Mist 9 1004 93 4500 2.1 130 23:18 29.04.2020
4045 Mist 9 1004 93 4500 2.1 130 23:18 29.04.2020
4046 Mist 9 1004 100 5000 1 140 22:40 29.04.2020
4047 Mist 9 1004 100 5000 1 140 22:21 29.04.2020
4048 Clouds 10 1004 93 10000 0.5 140 21:57 29.04.2020
4049 Clouds 10 1004 87 10000 0.5 270 21:36 29.04.2020
4050 Clouds 11 1004 87 10000 0.5 270 21:18 29.04.2020
4051 Clouds 13 1004 76 10000 2.6 280 20:40 29.04.2020
4052 Clouds 13 1004 76 10000 2.6 280 20:20 29.04.2020
4053 Clouds 13 1004 82 10000 4.1 260 19:59 29.04.2020
4054 Clouds 14 1004 76 10000 6.2 260 19:41 29.04.2020
4055 Clouds 14 1004 76 10000 6.2 260 19:20 29.04.2020
4056 Rain 13 1004 87 10000 5.1 240 18:43 29.04.2020
4057 Rain 13 1004 87 10000 5.1 240 18:25 29.04.2020
4058 Rain 13 1004 82 10000 4.6 270 17:58 29.04.2020
4059 Clouds 12 1004 82 10000 5.7 230 17:40 29.04.2020
4060 Clouds 12 1004 82 10000 5.7 230 17:21 29.04.2020
4061 Rain 13 1003 76 10000 5.7 210 16:39 29.04.2020
4062 Rain 14 1003 76 10000 5.7 210 16:20 29.04.2020
4063 Clouds 15 1003 72 10000 6.7 230 15:58 29.04.2020
4064 Clouds 15 1003 72 10000 6.7 230 15:39 29.04.2020
4065 Clouds 14 1003 72 10000 6.7 230 15:21 29.04.2020
4066 Clouds 14 1003 76 10000 6.2 230 14:57 29.04.2020
4067 Clouds 13 1003 82 10000 5.7 240 14:39 29.04.2020
4068 Clouds 13 1003 82 10000 5.7 240 14:20 29.04.2020
4069 Clouds 13 1003 82 6000 1 0 13:42 29.04.2020
4070 Clouds 13 1003 82 6000 1 0 13:21 29.04.2020
4071 Drizzle 12 1003 87 6000 1 0 12:59 29.04.2020
4072 Clouds 11 1003 93 6000 5.39 237 12:40 29.04.2020
4073 Clouds 11 1003 93 6000 5 227 12:19 29.04.2020
4074 Drizzle 11 1003 93 4000 1 0 11:58 29.04.2020
4075 Clouds 11 1003 87 9000 1.5 210 11:36 29.04.2020
4076 Clouds 11 1003 87 9000 1.5 210 11:18 29.04.2020
4077 Clouds 10 1003 87 10000 2.1 190 10:38 29.04.2020
4078 Clouds 10 1003 87 10000 2.1 190 10:20 29.04.2020
4079 Clouds 10 1003 93 10000 1.5 180 09:58 29.04.2020
4080 Drizzle 10 1003 81 10000 1.5 200 09:40 29.04.2020
4081 Drizzle 10 1003 81 10000 1.5 200 09:18 29.04.2020
4082 Clouds 10 1003 81 10000 1.5 140 08:43 29.04.2020
4083 Clouds 10 1003 81 10000 1.5 140 08:24 29.04.2020
4084 Clouds 9 1003 87 10000 1 0 07:51 29.04.2020
4085 Clouds 9 1003 87 10000 1 0 07:27 29.04.2020
4086 Clouds 8 1003 93 10000 1 0 06:52 29.04.2020
4087 Clouds 8 1003 87 10000 2.1 80 06:31 29.04.2020
4088 Clouds 8 1003 81 10000 2.6 60 05:42 29.04.2020
4089 Clouds 8 1003 81 10000 2.6 60 05:18 29.04.2020
4090 Clouds 8 1003 87 10000 3.1 60 04:19 29.04.2020
4091 Clouds 8 1003 81 10000 3.6 50 02:56 29.04.2020
4092 Clouds 8 1003 81 10000 3.6 50 01:54 29.04.2020
4093 Clouds 8 1003 81 10000 4.1 50 01:28 29.04.2020
4094 Clouds 8 1003 87 10000 4.1 50 00:55 29.04.2020
4095 Rain 9 1003 93 10000 3.6 60 00:36 29.04.2020
4096 Rain 9 1003 93 10000 3.6 60 00:18 29.04.2020
4097 Rain 9 1003 93 10000 4.1 40 23:43 28.04.2020
4098 Rain 9 1003 93 10000 4.1 40 23:20 28.04.2020
4099 Rain 9 1004 87 10000 4.1 20 22:38 28.04.2020
4100 Rain 9 1004 87 10000 4.1 20 22:20 28.04.2020
4101 Rain 10 1004 87 10000 4.6 10 21:59 28.04.2020
4102 Rain 10 1003 76 10000 4.1 30 21:40 28.04.2020
4103 Rain 10 1003 76 10000 4.1 30 21:22 28.04.2020
4104 Rain 10 1003 71 10000 5.1 20 20:58 28.04.2020
4105 Rain 11 1003 62 10000 3.6 10 20:40 28.04.2020
4106 Rain 11 1003 62 10000 3.6 10 20:40 28.04.2020
4107 Rain 11 1003 62 10000 3.6 10 20:20 28.04.2020
4108 Rain 12 1003 71 10000 3.6 20 19:56 28.04.2020
4109 Rain 13 1003 58 10000 4.6 50 19:38 28.04.2020
4110 Rain 13 1003 58 10000 4.6 50 19:19 28.04.2020
4111 Rain 13 1003 50 10000 6.2 30 18:42 28.04.2020
4112 Rain 14 1003 50 10000 6.2 30 18:20 28.04.2020
4113 Rain 13 1003 50 10000 5.7 20 17:59 28.04.2020
4114 Rain 14 1004 47 10000 5.7 20 17:37 28.04.2020
4115 Clouds 15 1004 47 10000 5.7 20 17:19 28.04.2020
4116 Clouds 15 1004 47 10000 5.7 20 17:19 28.04.2020
4117 Clouds 15 1004 47 10000 6.2 20 16:57 28.04.2020
4118 Clouds 15 1004 47 10000 5.7 10 16:39 28.04.2020
4119 Clouds 16 1004 47 10000 5.7 10 16:21 28.04.2020
4120 Clouds 16 1004 44 10000 4.6 20 15:55 28.04.2020
4121 Clouds 17 1004 44 10000 4.6 10 15:37 28.04.2020
4122 Clouds 16 1004 44 10000 4.6 10 15:19 28.04.2020
4123 Clouds 16 1004 48 10000 4.6 360 14:54 28.04.2020
4124 Clouds 15 1004 51 10000 4.6 20 14:36 28.04.2020
4125 Clouds 16 1004 51 10000 4.1 30 14:18 28.04.2020
4126 Clouds 15 1005 54 10000 3.1 40 13:41 28.04.2020
4127 Clouds 16 1005 54 10000 3.1 40 13:23 28.04.2020
4128 Clouds 16 1005 51 10000 4.1 40 12:59 28.04.2020
4129 Clouds 16 1005 54 10000 3.6 50 12:41 28.04.2020
4130 Clouds 14 1005 54 10000 3.6 50 12:22 28.04.2020
4131 Clouds 14 1006 62 10000 3.1 30 11:42 28.04.2020
4132 Clouds 14 1006 62 10000 3.1 30 11:22 28.04.2020
4133 Clouds 13 1005 66 10000 4.1 30 10:58 28.04.2020
4134 Clouds 13 1006 71 10000 3.6 10 10:38 28.04.2020
4135 Clouds 12 1006 76 10000 4.1 40 10:18 28.04.2020
4136 Clouds 11 1006 76 10000 4.1 360 09:44 28.04.2020
4137 Clouds 11 1006 76 10000 4.1 360 09:25 28.04.2020
4138 Clouds 11 1006 76 10000 4.1 20 08:57 28.04.2020
4139 Clouds 10 1006 76 10000 3.6 360 08:38 28.04.2020
4140 Clouds 10 1006 76 10000 3.6 360 08:20 28.04.2020
4141 Clouds 10 1006 81 8000 3.6 350 07:44 28.04.2020
4142 Clouds 10 1006 81 8000 3.6 350 07:19 28.04.2020
4143 Clouds 10 1005 87 6000 3.1 360 06:44 28.04.2020
4144 Clouds 9 1005 87 7000 3.1 360 05:56 28.04.2020
4145 Clouds 9 1005 87 8000 4.1 330 05:37 28.04.2020
4146 Clouds 10 1006 76 10000 3.6 320 04:39 28.04.2020
4147 -273 0 0 0 0 0 02:59 28.04.2020
4148 Clouds 11 1005 54 10000 2.6 330 02:25 28.04.2020
4149 Clouds 11 1005 58 10000 1 0 01:23 28.04.2020
4150 Clouds 11 1005 54 10000 2.6 350 00:49 28.04.2020
4151 Clouds 12 1006 54 10000 2.6 340 00:19 28.04.2020
4152 Clouds 13 1006 58 10000 3.1 350 23:43 27.04.2020
4153 Clouds 13 1006 58 10000 3.1 350 23:43 27.04.2020
4154 Clouds 13 1006 58 10000 3.1 350 23:21 27.04.2020
4155 Clouds 13 1005 58 10000 3.6 360 22:55 27.04.2020
4156 Clouds 13 1005 58 10000 3.6 360 22:55 27.04.2020
4157 Clouds 13 1005 51 10000 4.6 340 22:37 27.04.2020
4158 Clouds 13 1005 51 10000 4.6 340 22:18 27.04.2020
4159 Clouds 14 1005 51 10000 4.6 320 21:54 27.04.2020
4160 Clouds 14 1005 54 10000 2.6 240 21:36 27.04.2020
4161 Clouds 15 1005 54 10000 2.6 240 21:18 27.04.2020
4162 Clouds 18 1004 45 10000 3.1 240 20:42 27.04.2020
4163 Clouds 18 1004 45 10000 3.1 240 20:21 27.04.2020
4164 Clouds 19 1005 39 10000 3.6 250 19:57 27.04.2020
4165 Clouds 20 1005 37 10000 5.1 250 19:38 27.04.2020
4166 Clouds 19 1005 37 10000 5.1 250 19:19 27.04.2020
4167 Clouds 19 1005 30 10000 3.6 230 18:56 27.04.2020
4168 Clouds 20 1005 28 10000 5.7 250 18:38 27.04.2020
4169 Clear 20 1005 28 10000 5.7 250 18:19 27.04.2020
4170 Clear 20 1005 30 10000 4.6 220 17:43 27.04.2020
4171 Clear 20 1005 30 10000 4.6 220 17:21 27.04.2020
4172 Clear 20 1005 28 10000 4.1 240 16:58 27.04.2020
4173 Clear 20 1005 32 10000 5.1 250 16:39 27.04.2020
4174 Clear 20 1005 32 10000 5.1 250 16:39 27.04.2020
4175 Clear 20 1005 32 10000 5.1 250 16:20 27.04.2020
4176 Clear 20 1006 32 10000 2.6 260 15:56 27.04.2020
4177 Clear 20 1006 32 10000 2.1 260 15:38 27.04.2020
4178 Clouds 20 1006 32 10000 2.1 260 15:18 27.04.2020
4179 Clouds 20 1006 34 10000 3.1 230 14:42 27.04.2020
4180 Clouds 20 1006 34 10000 3.1 230 14:23 27.04.2020
4181 Clouds 19 1007 34 10000 4.1 230 13:59 27.04.2020
4182 Clouds 19 1007 36 10000 3.1 200 13:41 27.04.2020
4183 Clouds 19 1007 36 10000 3.1 200 13:20 27.04.2020
4184 Clouds 18 1007 39 10000 4.1 190 12:56 27.04.2020
4185 Clouds 19 1007 39 10000 3.6 210 12:38 27.04.2020
4186 Clouds 16 1007 39 10000 3.6 210 12:18 27.04.2020
4187 Clouds 17 1008 48 10000 2.6 220 11:41 27.04.2020
4188 Clouds 16 1008 48 10000 2.6 220 11:19 27.04.2020
4189 Clouds 15 1008 54 10000 2.1 170 10:57 27.04.2020
4190 Clouds 14 1008 62 10000 2.1 170 10:38 27.04.2020
4191 Clouds 13 1008 62 10000 2.1 170 10:19 27.04.2020
4192 Clouds 11 1009 66 10000 1.5 180 09:43 27.04.2020
4193 Clouds 11 1009 66 10000 1.5 180 09:43 27.04.2020
4194 Clear 10 1009 66 10000 1.5 180 09:19 27.04.2020
4195 Clear 9 1009 75 10000 1.5 150 08:57 27.04.2020
4196 Clear 6 1009 75 10000 1.5 130 08:38 27.04.2020
4197 Clear 5 1009 75 10000 1.5 130 08:19 27.04.2020
4198 Clear 4 1009 86 10000 1 80 07:44 27.04.2020
4199 Clear 4 1009 86 10000 1 80 07:20 27.04.2020
4200 Clear 4 1009 86 10000 1 100 06:47 27.04.2020
4201 Clear 3 1009 93 10000 1.96 171 06:25 27.04.2020
4202 Clear 3 1009 93 10000 1.96 171 05:50 27.04.2020
4203 Clear 4 1010 86 10000 1.96 171 04:49 27.04.2020
4204 Clear 4 1010 93 10000 1 150 03:49 27.04.2020
4205 Clear 5 1010 86 10000 1 80 02:58 27.04.2020
4206 Clear 5 1010 81 10000 1 70 01:35 27.04.2020
4207 Clear 5 1010 81 10000 1.5 80 00:58 27.04.2020
4208 Clear 6 1011 75 10000 1.5 50 00:20 27.04.2020
4209 Clear 7 1011 70 10000 2.1 50 23:56 26.04.2020
4210 Clear 7 1010 66 10000 2.1 20 23:38 26.04.2020
4211 Clear 7 1010 66 10000 2.1 20 23:19 26.04.2020
4212 Clear 8 1010 61 10000 2.1 40 22:58 26.04.2020
4213 Clear 8 1010 61 10000 3.1 30 22:39 26.04.2020
4214 Clear 9 1010 61 10000 3.1 30 22:20 26.04.2020
4215 Clear 9 1010 57 10000 3.6 20 21:57 26.04.2020
4216 Clear 11 1010 54 10000 3.6 30 21:38 26.04.2020
4217 Clouds 11 1010 54 10000 3.6 30 21:18 26.04.2020
4218 Clouds 12 1010 50 10000 2.1 330 20:55 26.04.2020
4219 Clouds 12 1010 50 10000 3.1 310 20:36 26.04.2020
4220 Clouds 13 1010 50 10000 3.1 310 20:18 26.04.2020
4221 Clouds 13 1010 50 10000 2.6 300 19:56 26.04.2020
4222 Clouds 14 1010 44 10000 2.1 310 19:36 26.04.2020
4223 Clouds 14 1010 44 10000 2.1 310 19:18 26.04.2020
4224 Clouds 14 1010 47 10000 1.5 0 18:43 26.04.2020
4225 Clouds 15 1010 47 10000 1.5 0 18:24 26.04.2020
4226 Clouds 15 1011 47 10000 3.1 350 17:43 26.04.2020
4227 Clouds 15 1011 47 10000 3.1 350 17:23 26.04.2020
4228 Clouds 14 1011 47 10000 3.1 350 16:58 26.04.2020
4229 Clouds 14 1011 50 10000 2.6 310 16:39 26.04.2020
4230 Clouds 14 1011 50 10000 2.6 310 16:20 26.04.2020
4231 Clouds 14 1011 50 10000 3.1 0 15:57 26.04.2020
4232 Clouds 13 1011 54 10000 4.1 310 15:37 26.04.2020
4233 Clouds 12 1011 54 10000 4.1 310 15:18 26.04.2020
4234 Clouds 12 1012 54 10000 2.1 0 14:41 26.04.2020
4235 Clouds 12 1012 54 10000 2.1 0 14:19 26.04.2020
4236 Clouds 12 1012 58 10000 3.1 290 13:59 26.04.2020
4237 Clouds 12 1012 62 10000 2.6 320 13:40 26.04.2020
4238 Clouds 11 1012 62 10000 2.6 320 13:22 26.04.2020
4239 Clouds 12 1013 58 10000 2.6 300 12:57 26.04.2020
4240 Clouds 12 1013 62 10000 2.6 0 12:39 26.04.2020
4241 Clouds 12 1013 62 10000 2.6 0 12:39 26.04.2020
4242 Clouds 11 1013 62 10000 2.6 0 12:20 26.04.2020
4243 Clouds 11 1013 66 10000 2.6 300 11:55 26.04.2020
4244 Clouds 10 1013 61 10000 2.6 290 11:37 26.04.2020
4245 Clouds 10 1013 61 10000 2.6 290 11:19 26.04.2020
4246 Clouds 10 1013 66 10000 2.1 300 10:55 26.04.2020
4247 Clouds 10 1013 76 10000 2.6 300 10:36 26.04.2020
4248 Clouds 10 1013 76 10000 2.6 300 10:18 26.04.2020
4249 Clouds 9 1012 81 10000 1 0 09:39 26.04.2020
4250 Clouds 8 1012 81 10000 1 0 09:20 26.04.2020
4251 Clouds 6 1012 93 10000 0.5 0 08:43 26.04.2020
4252 Clouds 6 1012 93 10000 0.5 0 08:23 26.04.2020
4253 Clouds 5 1012 93 10000 1.5 290 07:58 26.04.2020
4254 Clouds 4 1012 100 10000 1.5 300 07:40 26.04.2020
4255 Clouds 4 1012 100 10000 1.5 300 07:18 26.04.2020
4256 Fog 3 1012 100 10000 1 260 06:39 26.04.2020
4257 Fog 3 1012 100 10000 1.5 250 05:55 26.04.2020
4258 Fog 3 1013 100 10000 1 260 05:36 26.04.2020
4259 Clouds 4 1013 93 10000 1.5 270 04:55 26.04.2020
4260 Clear 4 1013 93 10000 2.6 300 03:56 26.04.2020
4261 Clouds 4 1013 93 10000 2.1 290 02:46 26.04.2020
4262 Clouds 5 1013 93 10000 2.1 300 02:26 26.04.2020
4263 Clouds 4 1013 93 10000 2.6 290 01:46 26.04.2020
4264 Clear 5 1013 93 10000 2.1 290 01:25 26.04.2020
4265 Clouds 6 1012 87 10000 2.1 320 00:39 26.04.2020
4266 Clouds 7 1012 87 10000 2.1 320 00:19 26.04.2020
4267 Clear 7 1012 87 10000 2.6 340 23:39 25.04.2020
4268 Clear 8 1012 87 10000 2.6 340 23:20 25.04.2020
4269 Clear 8 1013 87 10000 4.1 350 22:57 25.04.2020
4270 Clear 8 1012 81 10000 4.6 360 22:39 25.04.2020
4271 Clear 8 1012 81 10000 4.6 360 22:19 25.04.2020
4272 Clear 8 1012 81 10000 4.6 360 22:19 25.04.2020
4273 Clear 10 1012 66 10000 4.6 330 21:40 25.04.2020
4274 Clouds 10 1012 66 10000 4.6 330 21:21 25.04.2020
4275 Clouds 11 1012 58 10000 4.6 330 20:58 25.04.2020
4276 Clouds 12 1012 50 10000 5.1 340 20:40 25.04.2020
4277 Clouds 12 1012 50 10000 5.1 340 20:22 25.04.2020
4278 Clouds 13 1012 50 10000 5.7 350 19:55 25.04.2020
4279 Clouds 13 1011 47 10000 4.6 330 19:37 25.04.2020
4280 Clouds 14 1011 47 10000 4.6 330 19:19 25.04.2020
4281 Clouds 15 1012 41 10000 3.1 310 18:41 25.04.2020
4282 Clouds 15 1012 41 10000 3.1 310 18:21 25.04.2020
4283 Clouds 16 1012 44 10000 5.1 310 17:58 25.04.2020
4284 Clouds 16 1012 44 10000 5.7 290 17:38 25.04.2020
4285 Clouds 16 1012 44 10000 5.7 290 17:19 25.04.2020
4286 Clouds 17 1012 38 10000 4.6 290 16:57 25.04.2020
4287 Clouds 17 1012 41 10000 4.1 290 16:38 25.04.2020
4288 Clouds 16 1012 41 10000 4.1 290 16:19 25.04.2020
4289 Clouds 16 1013 47 10000 3.6 330 15:41 25.04.2020
4290 Clouds 16 1013 47 10000 3.6 330 15:21 25.04.2020
4291 Clouds 16 1013 51 10000 3.1 320 14:58 25.04.2020
4292 Clouds 16 1013 51 10000 3.1 320 14:58 25.04.2020
4293 Clouds 16 1013 50 10000 4.1 290 14:39 25.04.2020
4294 Clouds 16 1013 50 10000 4.1 290 14:20 25.04.2020
4295 Clouds 16 1013 50 10000 4.1 290 14:20 25.04.2020
4296 Clouds 16 1013 51 10000 3.6 310 13:54 25.04.2020
4297 Clouds 16 1013 58 10000 5.7 300 13:36 25.04.2020
4298 Clouds 15 1013 58 10000 5.7 300 13:18 25.04.2020
4299 Clouds 15 1014 62 10000 5.7 290 12:42 25.04.2020
4300 Clouds 14 1014 62 10000 5.7 290 12:21 25.04.2020
4301 Clouds 14 1014 66 10000 5.7 290 11:59 25.04.2020
4302 Clouds 13 1014 71 10000 6.2 300 11:41 25.04.2020
4303 Clouds 13 1014 71 10000 6.2 300 11:23 25.04.2020
4304 Clouds 12 1014 76 10000 6.2 290 10:54 25.04.2020
4305 Clouds 12 1013 76 10000 6.2 310 10:36 25.04.2020
4306 Clouds 12 1013 76 10000 6.2 310 10:18 25.04.2020
4307 Clouds 10 1013 76 10000 5.7 290 09:41 25.04.2020
4308 Clouds 10 1013 76 10000 5.7 290 09:21 25.04.2020
4309 Clouds 9 1013 81 10000 5.1 290 08:41 25.04.2020
4310 Clouds 9 1013 81 10000 5.1 290 08:22 25.04.2020
4311 Clouds 9 1012 81 10000 5.1 300 07:59 25.04.2020
4312 Clouds 8 1012 75 10000 4.6 300 07:41 25.04.2020
4313 Clouds 8 1012 75 10000 5.1 300 06:57 25.04.2020
4314 Clouds 8 1012 75 10000 4.1 290 06:38 25.04.2020
4315 Clouds 8 1012 70 10000 5.1 300 05:42 25.04.2020
4316 Clouds 8 1012 70 10000 5.1 300 05:24 25.04.2020
4317 Clouds 8 1012 65 10000 6.7 320 03:56 25.04.2020
4318 Clouds 8 1012 70 10000 5.7 320 02:36 25.04.2020
4319 Clouds 8 1011 70 10000 7.2 310 01:56 25.04.2020
4320 Clouds 8 1011 75 10000 7.2 300 01:38 25.04.2020
4321 Clouds 8 1011 75 10000 7.2 300 01:19 25.04.2020
4322 Clouds 8 1011 75 10000 6.7 300 00:39 25.04.2020
4323 Clouds 8 1011 75 10000 6.7 300 00:18 25.04.2020
4324 Clouds 9 1011 70 10000 8.7 320 23:40 24.04.2020
4325 Clouds 9 1011 70 10000 8.7 320 23:20 24.04.2020
4326 Clouds 9 1011 70 10000 6.2 300 22:41 24.04.2020
4327 Clouds 9 1011 70 10000 6.2 300 22:21 24.04.2020
4328 Clouds 9 1011 75 10000 6.7 300 21:59 24.04.2020
4329 Clouds 9 1011 75 10000 6.7 300 21:40 24.04.2020
4330 Clouds 9 1011 75 10000 6.7 300 21:22 24.04.2020
4331 Clouds 9 1011 70 10000 7.2 300 20:59 24.04.2020
4332 Clouds 9 1011 71 10000 7.2 320 20:40 24.04.2020
4333 Clouds 10 1011 71 10000 7.2 320 20:19 24.04.2020
4334 Clouds 10 1011 66 10000 7.2 330 19:54 24.04.2020
4335 Clouds 11 1011 66 10000 8.2 320 19:36 24.04.2020
4336 Clouds 11 1011 66 10000 8.2 320 19:18 24.04.2020
4337 Clouds 13 1011 62 10000 6.7 330 18:40 24.04.2020
4338 Clear 13 1011 62 10000 6.7 330 18:22 24.04.2020
4339 Clear 13 1011 62 10000 6.7 330 18:22 24.04.2020
4340 Clear 14 1011 54 10000 7.7 320 17:44 24.04.2020
4341 Clear 15 1011 54 10000 7.7 320 17:25 24.04.2020
4342 Clear 15 1011 51 10000 7.2 330 16:59 24.04.2020
4343 Clear 16 1011 48 10000 8.2 320 16:41 24.04.2020
4344 Clear 17 1011 48 10000 8.2 320 16:22 24.04.2020
4345 Clear 17 1011 42 10000 8.2 320 15:59 24.04.2020
4346 Clear 17 1011 36 10000 8.7 330 15:39 24.04.2020
4347 Clouds 17 1011 36 10000 8.7 330 15:19 24.04.2020
4348 Clouds 17 1011 42 10000 7.7 310 14:40 24.04.2020
4349 Clouds 17 1011 42 10000 7.7 310 14:22 24.04.2020
4350 Clouds 18 1011 36 10000 8.7 300 13:58 24.04.2020
4351 Clouds 18 1011 36 10000 6.2 320 13:39 24.04.2020
4352 Clouds 18 1011 36 10000 6.2 320 13:20 24.04.2020
4353 Clouds 18 1012 36 10000 7.7 320 12:46 24.04.2020
4354 Clouds 16 1012 38 10000 5.7 330 12:26 24.04.2020
4355 Clouds 16 1011 42 10000 5.1 310 11:59 24.04.2020
4356 Clouds 16 1012 38 10000 6.2 340 11:40 24.04.2020
4357 Clouds 16 1012 38 10000 6.2 340 11:21 24.04.2020
4358 Clouds 16 1012 41 10000 4.6 330 10:57 24.04.2020
4359 Clouds 16 1012 44 10000 4.6 350 10:38 24.04.2020
4360 Clouds 16 1012 44 10000 4.6 350 10:19 24.04.2020
4361 Clouds 16 1012 44 10000 4.6 350 10:19 24.04.2020
4362 Clouds 15 1012 44 10000 5.1 340 09:54 24.04.2020
4363 Clouds 15 1012 54 10000 2.6 350 09:36 24.04.2020
4364 Clouds 13 1012 54 10000 2.6 350 09:18 24.04.2020
4365 Clouds 11 1012 62 10000 3.6 340 08:41 24.04.2020
4366 Clouds 12 1012 62 10000 3.6 340 08:19 24.04.2020
4367 Clouds 11 1012 87 10000 2.6 290 07:47 24.04.2020
4368 Clouds 10 1011 87 10000 3.1 290 07:27 24.04.2020
4369 Clouds 10 1011 87 10000 2.1 270 06:59 24.04.2020
4370 Clouds 10 1012 81 10000 1.5 300 06:41 24.04.2020
4371 Clouds 9 1012 87 10000 2.6 280 05:50 24.04.2020
4372 Clouds 10 1013 81 10000 2.1 310 04:48 24.04.2020
4373 Clouds 9 1013 81 10000 1.5 250 03:28 24.04.2020
4374 Clouds 9 1014 87 10000 0.5 0 02:49 24.04.2020
4375 Clouds 10 1014 87 10000 1 250 02:24 24.04.2020
4376 Clouds 10 1015 76 10000 0.5 0 01:37 24.04.2020
4377 Clouds 11 1015 71 10000 0.5 0 00:50 24.04.2020
4378 Clouds 11 1015 81 10000 1 310 00:19 24.04.2020
4379 Clouds 11 1016 76 10000 0.5 230 23:46 23.04.2020
4380 Clouds 12 1016 62 10000 0.5 70 23:27 23.04.2020
4381 Clouds 12 1016 54 10000 0.5 80 22:57 23.04.2020
4382 Clouds 13 1016 50 10000 1.04 128 22:38 23.04.2020
4383 Clouds 13 1016 50 10000 1.04 128 22:19 23.04.2020
4384 Clouds 13 1016 44 10000 0.5 0 21:57 23.04.2020
4385 Clouds 16 1017 41 10000 1 220 21:39 23.04.2020
4386 Clouds 17 1017 41 10000 1 220 21:20 23.04.2020
4387 Clouds 17 1017 42 10000 1 230 20:56 23.04.2020
4388 Clouds 18 1017 42 10000 1.5 190 20:38 23.04.2020
4389 Clouds 19 1017 42 10000 1.5 190 20:18 23.04.2020
4390 Clouds 19 1017 37 10000 2.6 180 19:55 23.04.2020
4391 Clouds 20 1017 28 10000 2.1 170 19:37 23.04.2020
4392 Clouds 21 1017 28 10000 2.1 170 19:19 23.04.2020
4393 Clouds 21 1018 30 10000 2.6 160 18:40 23.04.2020
4394 Clouds 21 1018 30 10000 2.6 160 18:22 23.04.2020
4395 Clouds 21 1018 28 10000 3.1 140 17:58 23.04.2020
4396 Clouds 21 1019 30 10000 3.1 130 17:39 23.04.2020
4397 Clouds 21 1019 30 10000 3.1 130 17:21 23.04.2020
4398 Clouds 21 1019 28 10000 3.1 140 16:55 23.04.2020
4399 Clouds 21 1020 30 10000 3.1 120 16:37 23.04.2020
4400 Clouds 21 1020 30 10000 3.1 120 16:18 23.04.2020
4401 Clouds 21 1021 32 10000 4.1 140 15:41 23.04.2020
4402 Clouds 21 1021 32 10000 4.1 140 15:41 23.04.2020
4403 Clear 20 1021 32 10000 4.1 140 15:22 23.04.2020
4404 Clear 20 1021 30 10000 5.1 140 14:56 23.04.2020
4405 Clear 20 1021 30 10000 5.1 140 14:37 23.04.2020
4406 Clear 20 1021 30 10000 5.1 140 14:18 23.04.2020
4407 Clear 20 1022 32 10000 5.1 130 13:40 23.04.2020
4408 Clear 20 1022 32 10000 5.1 130 13:22 23.04.2020
4409 Clear 19 1022 36 10000 5.1 140 12:58 23.04.2020
4410 Clear 19 1023 34 10000 7.2 150 12:40 23.04.2020
4411 Clear 18 1023 34 10000 7.2 150 12:21 23.04.2020
4412 Clear 18 1023 36 10000 6.7 140 11:47 23.04.2020
4413 Clear 16 1023 39 10000 6.2 130 11:28 23.04.2020
4414 Clear 16 1023 44 10000 4.6 120 10:59 23.04.2020
4415 Clear 15 1024 50 10000 4.6 120 10:40 23.04.2020
4416 Clear 15 1024 50 10000 4.6 120 10:20 23.04.2020
4417 Clear 14 1024 58 10000 4.6 120 09:41 23.04.2020
4418 Clear 12 1024 58 10000 4.6 120 09:19 23.04.2020
4419 Clear 11 1024 66 10000 3.6 100 08:54 23.04.2020
4420 Clear 9 1024 76 10000 4.1 80 08:36 23.04.2020
4421 Clear 8 1024 76 10000 4.1 80 08:18 23.04.2020
4422 Clear 7 1024 86 10000 2.6 70 07:41 23.04.2020
4423 Clear 6 1024 86 10000 2.6 70 07:22 23.04.2020
4424 Clear 6 1024 86 10000 3.1 70 06:46 23.04.2020
4425 Clear 6 1024 75 10000 2.6 70 05:56 23.04.2020
4426 Clear 7 1024 81 10000 2.6 90 05:22 23.04.2020
4427 Clear 7 1024 81 10000 2.6 90 04:50 23.04.2020
4428 Clear 9 1024 70 10000 3.6 70 02:24 23.04.2020
4429 Clear 10 1024 66 10000 4.6 70 01:41 23.04.2020
4430 Clear 10 1024 66 10000 4.6 70 01:18 23.04.2020
4431 Clear 10 1024 66 10000 4.6 70 00:36 23.04.2020
4432 Clear 11 1024 66 10000 4.6 70 00:18 23.04.2020
4433 Clear 11 1024 46 10000 3.6 50 23:42 22.04.2020
4434 Clear 12 1024 46 10000 3.6 50 23:22 22.04.2020
4435 Clear 13 1023 40 10000 4.1 60 22:55 22.04.2020
4436 Clear 13 1023 35 10000 4.1 60 22:36 22.04.2020
4437 Clear 13 1023 35 10000 4.1 60 22:18 22.04.2020
4438 Clear 14 1023 33 10000 5.7 60 21:55 22.04.2020
4439 Clear 14 1023 33 10000 5.7 60 21:55 22.04.2020
4440 Clear 15 1023 79 10000 5.1 60 21:36 22.04.2020
4441 Clear 15 1023 69 10000 5.1 60 21:18 22.04.2020
4442 Clear 16 1023 36 10000 7.7 70 20:43 22.04.2020
4443 Clear 17 1023 36 10000 7.7 70 20:19 22.04.2020
4444 Clear 17 1022 36 10000 7.2 70 19:57 22.04.2020
4445 Clear 18 1022 36 10000 7.2 70 19:38 22.04.2020
4446 Clear 18 1022 36 10000 7.2 70 19:18 22.04.2020
4447 Clear 18 1022 36 10000 7.2 70 19:18 22.04.2020
4448 Clear 19 1022 34 10000 6.7 70 18:58 22.04.2020
4449 Clear 19 1022 34 10000 6.7 70 18:40 22.04.2020
4450 Clear 20 1022 34 10000 6.7 70 18:22 22.04.2020
4451 Clear 20 1023 34 10000 6.7 80 17:55 22.04.2020
4452 Clear 20 1023 32 10000 6.2 70 17:37 22.04.2020
4453 Clear 20 1023 32 10000 6.7 70 17:18 22.04.2020
4454 Clear 20 1023 34 10000 7.2 80 16:42 22.04.2020
4455 Clear 19 1023 34 10000 7.2 80 16:22 22.04.2020
4456 Clear 19 1024 37 10000 7.2 100 15:43 22.04.2020
4457 Clear 19 1024 37 10000 7.2 100 15:25 22.04.2020
4458 Clear 19 1024 34 10000 6.7 90 14:59 22.04.2020
4459 Clear 19 1024 34 10000 6.7 100 14:40 22.04.2020
4460 Clear 19 1024 34 10000 6.7 100 14:20 22.04.2020
4461 Clear 19 1025 34 10000 6.7 100 13:56 22.04.2020
4462 Clear 19 1025 34 10000 7.7 80 13:38 22.04.2020
4463 Clear 19 1025 34 10000 7.7 80 13:19 22.04.2020
4464 Clear 18 1025 38 10000 6.7 90 12:42 22.04.2020
4465 Clear 16 1025 38 10000 6.7 90 12:23 22.04.2020
4466 Clear 16 1026 36 10000 6.2 90 11:57 22.04.2020
4467 Clear 15 1026 41 10000 6.7 80 11:36 22.04.2020
4468 Clear 15 1026 41 10000 6.7 80 11:18 22.04.2020
4469 Clear 14 1026 47 10000 5.7 80 10:41 22.04.2020
4470 Clear 14 1026 47 10000 5.7 80 10:21 22.04.2020
4471 Clear 12 1026 57 10000 5.1 70 09:41 22.04.2020
4472 Clear 10 1026 57 10000 5.1 70 09:23 22.04.2020
4473 Clear 10 1026 61 10000 5.7 70 08:59 22.04.2020
4474 Clear 9 1026 65 10000 6.2 70 08:41 22.04.2020
4475 Clear 8 1026 65 10000 6.2 70 08:22 22.04.2020
4476 Clear 8 1026 70 10000 5.1 70 07:53 22.04.2020
4477 Clear 7 1025 65 10000 6.2 70 07:33 22.04.2020
4478 Clear 7 1025 65 10000 7.7 70 06:53 22.04.2020
4479 Clear 7 1025 65 10000 6.2 70 06:34 22.04.2020
4480 Clear 7 1025 65 10000 6.7 60 05:39 22.04.2020
4481 Clear 8 1025 61 10000 6.7 70 04:34 22.04.2020
4482 Clear 9 1025 61 10000 6.2 70 02:59 22.04.2020
4483 Clear 10 1025 57 10000 6.2 70 01:55 22.04.2020
4484 Clear 11 1025 53 10000 6.2 70 01:28 22.04.2020
4485 Clear 11 1024 57 10000 6.7 70 00:59 22.04.2020
4486 Clear 11 1024 53 10000 7.2 70 00:41 22.04.2020
4487 Clear 11 1024 53 10000 7.2 70 00:20 22.04.2020
4488 Clear 12 1024 43 10000 5.1 60 23:44 21.04.2020
4489 Clear 12 1024 43 10000 5.1 60 23:21 21.04.2020
4490 Clear 13 1024 43 10000 4.6 80 22:55 21.04.2020
4491 Clear 13 1023 43 10000 4.6 80 22:37 21.04.2020
4492 Clear 13 1023 43 10000 4.6 80 22:19 21.04.2020
4493 Clear 14 1023 69 10000 5.7 80 21:43 21.04.2020
4494 Clear 14 1023 68 10000 5.7 80 21:24 21.04.2020
4495 -273 0 0 0 0 0 20:59 21.04.2020
4496 Clear 15 1022 68 10000 7.7 90 20:40 21.04.2020
4497 Clear 16 1022 68 10000 7.7 90 20:22 21.04.2020
4498 Clear 16 1022 68 10000 7.7 90 19:56 21.04.2020
4499 Clear 17 1022 68 10000 8.7 80 19:36 21.04.2020
4500 Clear 17 1022 68 10000 8.7 80 19:18 21.04.2020
4501 Clear 17 1022 33 10000 9.3 90 18:54 21.04.2020
4502 Clear 17 1022 68 10000 9.8 80 18:36 21.04.2020
4503 Clear 17 1022 53 10000 9.8 80 18:18 21.04.2020
4504 Clear 18 1022 31 10000 9.8 80 17:39 21.04.2020
4505 Clear 18 1022 31 10000 9.8 80 17:19 21.04.2020
4506 Clear 17 1023 33 10000 9.3 90 16:54 21.04.2020
4507 Clear 17 1023 53 10000 10.8 70 16:36 21.04.2020
4508 Clear 18 1023 53 10000 10.8 70 16:18 21.04.2020
4509 Clear 17 1023 33 10000 9.3 90 15:55 21.04.2020
4510 Clear 18 1023 33 10000 8.7 80 15:36 21.04.2020
4511 Clear 17 1023 33 10000 8.7 80 15:18 21.04.2020
4512 Clear 17 1024 47 10000 9.3 90 14:44 21.04.2020
4513 Clear 16 1024 47 10000 9.3 90 14:23 21.04.2020
4514 Clear 16 1024 36 10000 8.7 90 13:55 21.04.2020
4515 Clear 16 1024 47 10000 8.7 100 13:37 21.04.2020
4516 Clear 16 1024 47 10000 8.7 100 13:18 21.04.2020
4517 Clear 15 1025 41 10000 9.3 80 12:38 21.04.2020
4518 Clear 14 1025 41 10000 9.3 80 12:19 21.04.2020
4519 Clear 14 1025 57 10000 9.8 80 11:57 21.04.2020
4520 Clear 14 1025 57 10000 8.7 90 11:38 21.04.2020
4521 Clear 13 1025 57 10000 8.7 90 11:19 21.04.2020
4522 Clear 13 1025 46 10000 8.2 80 10:59 21.04.2020
4523 Clear 13 1025 46 10000 7.2 90 10:39 21.04.2020
4524 Clear 13 1025 46 10000 7.2 90 10:21 21.04.2020
4525 Clear 11 1025 53 10000 6.7 90 09:58 21.04.2020
4526 Clear 10 1025 57 10000 7.2 80 09:36 21.04.2020
4527 Clear 9 1025 70 10000 7.2 80 09:18 21.04.2020
4528 Clear 8 1025 56 10000 7.2 80 08:43 21.04.2020
4529 Clear 8 1025 56 10000 7.2 80 08:25 21.04.2020
4530 Clear 7 1025 60 10000 6.7 70 07:52 21.04.2020
4531 Clear 6 1024 60 10000 6.7 70 07:27 21.04.2020
4532 Clear 6 1024 56 10000 6.7 70 06:54 21.04.2020
4533 Clear 6 1024 56 10000 6.2 70 06:36 21.04.2020
4534 Clear 6 1024 60 10000 5.7 70 05:51 21.04.2020
4535 Clear 7 1024 56 10000 5.7 70 05:20 21.04.2020
4536 Clear 8 1024 52 10000 6.2 70 03:47 21.04.2020
4537 Clear 8 1024 73 10000 5.7 80 02:47 21.04.2020
4538 Clear 9 1024 72 10000 7.2 80 01:32 21.04.2020
4539 Clear 10 1024 72 10000 6.2 70 00:47 21.04.2020
4540 Clear 10 1024 70 10000 6.7 70 00:23 21.04.2020
4541 Clear 10 1024 70 10000 6.2 70 23:44 20.04.2020
4542 Clear 11 1024 70 10000 6.2 70 23:23 20.04.2020
4543 Clear 11 1024 70 10000 5.7 70 22:57 20.04.2020
4544 Clear 12 1024 70 10000 6.7 70 22:37 20.04.2020
4545 Clear 12 1024 70 10000 6.7 70 22:19 20.04.2020
4546 Clear 12 1024 70 10000 6.7 70 22:19 20.04.2020
4547 Clear 13 1023 70 10000 5.1 80 21:55 20.04.2020
4548 Clear 13 1023 43 10000 6.2 80 21:37 20.04.2020
4549 Clear 13 1023 43 10000 6.2 80 21:18 20.04.2020
4550 Clear 14 1023 66 10000 6.7 80 20:55 20.04.2020
4551 Clear 14 1022 66 10000 6.7 80 20:36 20.04.2020
4552 Clear 15 1022 66 10000 6.7 80 20:18 20.04.2020
4553 Clear 15 1023 31 10000 7.7 80 19:41 20.04.2020
4554 Clear 16 1023 31 10000 7.7 80 19:23 20.04.2020
4555 Clear 16 1022 31 10000 8.7 80 18:59 20.04.2020
4556 Clear 16 1022 31 10000 8.7 80 18:41 20.04.2020
4557 Clear 16 1022 31 10000 8.7 80 18:21 20.04.2020
4558 Clear 17 1023 48 10000 8.2 70 17:55 20.04.2020
4559 Clear 17 1023 29 10000 9.3 70 17:37 20.04.2020
4560 Clear 17 1023 29 10000 9.3 70 17:19 20.04.2020
4561 Clear 17 1024 27 10000 7.7 80 16:43 20.04.2020
4562 Clear 17 1024 27 10000 7.7 80 16:21 20.04.2020
4563 Clear 17 1024 29 10000 8.7 80 15:58 20.04.2020
4564 Clear 17 1024 31 10000 8.2 90 15:39 20.04.2020
4565 Clear 16 1024 31 10000 8.2 90 15:21 20.04.2020
4566 Clear 16 1024 33 10000 8.2 80 14:55 20.04.2020
4567 Clear 16 1025 33 10000 8.7 90 14:36 20.04.2020
4568 Clear 16 1025 33 10000 8.7 90 14:18 20.04.2020
4569 Clear 16 1025 33 10000 9.3 80 13:40 20.04.2020
4570 Clear 15 1025 33 10000 9.3 80 13:22 20.04.2020
4571 Clear 14 1026 50 10000 7.7 100 12:45 20.04.2020
4572 Clear 14 1026 56 10000 7.7 100 12:26 20.04.2020
4573 Clear 13 1025 37 10000 7.7 90 11:59 20.04.2020
4574 Clear 12 1025 56 10000 6.2 70 11:40 20.04.2020
4575 Clear 13 1025 56 10000 6.2 70 11:21 20.04.2020
4576 Clear 12 1026 43 10000 6.2 90 10:57 20.04.2020
4577 Clear 12 1026 43 10000 6.2 90 10:57 20.04.2020
4578 Clear 11 1026 45 10000 4.6 80 10:38 20.04.2020
4579 Clear 11 1026 45 10000 4.6 80 10:19 20.04.2020
4580 Clear 9 1026 52 10000 4.1 70 09:55 20.04.2020
4581 Clear 8 1026 52 10000 3.6 80 09:36 20.04.2020
4582 Clear 7 1026 52 10000 3.6 80 09:18 20.04.2020
4583 Clear 5 1026 60 10000 4.6 80 08:41 20.04.2020
4584 Clear 5 1026 60 10000 4.6 80 08:22 20.04.2020
4585 Clear 4 1026 60 10000 3.6 70 07:52 20.04.2020
4586 Clear 4 1026 60 10000 3.6 70 07:52 20.04.2020
4587 Clear 4 1026 64 10000 3.1 70 07:29 20.04.2020
4588 Clear 2 1025 69 10000 3.1 80 06:58 20.04.2020
4589 Clear 3 1025 64 10000 4.6 70 06:36 20.04.2020
4590 Clear 3 1025 64 10000 3.6 70 05:43 20.04.2020
4591 Clear 4 1025 60 10000 4.1 60 04:18 20.04.2020
4592 Clear 5 1025 56 10000 4.6 70 02:46 20.04.2020
4593 Clear 5 1025 56 10000 4.6 70 02:46 20.04.2020
4594 Clear 5 1025 52 10000 5.1 70 01:54 20.04.2020
4595 Clear 6 1025 48 10000 6.2 60 01:28 20.04.2020
4596 Clear 6 1025 48 10000 5.1 60 00:37 20.04.2020
4597 Clear 7 1025 45 10000 5.1 60 23:59 19.04.2020
4598 Clear 7 1024 45 10000 4.1 60 23:39 19.04.2020
4599 Clear 8 1024 45 10000 4.1 60 23:20 19.04.2020
4600 Clear 9 1024 37 10000 5.7 60 22:44 19.04.2020
4601 Clear 9 1024 37 10000 5.7 60 22:24 19.04.2020
4602 Clear 10 1023 37 10000 5.7 60 21:59 19.04.2020
4603 Clear 10 1023 34 10000 6.2 70 21:41 19.04.2020
4604 Clear 10 1023 34 10000 6.2 70 21:41 19.04.2020
4605 Clear 10 1023 34 10000 6.2 70 21:41 19.04.2020
4606 Clear 11 1023 34 10000 6.2 70 21:22 19.04.2020
4607 Clear 11 1023 34 10000 6.7 60 20:56 19.04.2020
4608 Clear 12 1022 32 10000 7.2 60 20:38 19.04.2020
4609 Clear 12 1022 32 10000 7.2 60 20:20 19.04.2020
4610 Clear 12 1022 32 10000 7.2 60 20:20 19.04.2020
4611 Clear 13 1022 35 10000 6.7 60 19:55 19.04.2020
4612 Clear 13 1022 30 10000 8.2 60 19:37 19.04.2020
4613 Clear 14 1022 30 10000 8.2 60 19:19 19.04.2020
4614 Clear 14 1022 33 10000 7.7 60 18:54 19.04.2020
4615 Clear 15 1022 30 10000 8.2 70 18:36 19.04.2020
4616 Clear 15 1022 30 10000 8.2 70 18:18 19.04.2020
4617 Clear 15 1022 30 10000 8.7 60 17:42 19.04.2020
4618 Clear 15 1022 30 10000 8.7 60 17:23 19.04.2020
4619 Clear 16 1022 29 10000 5.7 80 17:00 19.04.2020
4620 Clear 15 1022 28 10000 5.7 80 16:39 19.04.2020
4621 Clear 15 1022 28 10000 5.7 80 16:21 19.04.2020
4622 Clear 15 1022 26 10000 6.7 90 15:55 19.04.2020
4623 Clear 15 1022 28 10000 7.2 80 15:36 19.04.2020
4624 Clear 15 1022 28 10000 7.2 80 15:18 19.04.2020
4625 Clear 15 1022 30 10000 7.7 90 14:39 19.04.2020
4626 Clear 15 1022 30 10000 7.7 90 14:20 19.04.2020
4627 Clear 15 1022 33 10000 7.7 70 13:56 19.04.2020
4628 Clear 14 1022 33 10000 7.7 80 13:36 19.04.2020
4629 Clear 14 1022 33 10000 7.7 80 13:18 19.04.2020
4630 Clear 14 1022 37 10000 7.7 70 12:43 19.04.2020
4631 Clear 13 1022 37 10000 7.7 70 12:24 19.04.2020
4632 Clear 12 1022 37 10000 7.2 80 11:54 19.04.2020
4633 Clear 13 1022 37 10000 7.7 70 11:36 19.04.2020
4634 Clear 13 1022 37 10000 7.7 70 11:36 19.04.2020
4635 Clear 12 1022 37 10000 7.7 70 11:18 19.04.2020
4636 Clear 12 1022 43 10000 5.7 60 10:41 19.04.2020
4637 Clear 11 1022 43 10000 5.7 60 10:21 19.04.2020
4638 Clear 9 1022 45 10000 5.7 60 09:59 19.04.2020
4639 Clear 8 1022 49 10000 5.7 70 09:41 19.04.2020
4640 Clear 8 1022 49 10000 5.7 70 09:41 19.04.2020
4641 Clear 8 1022 49 10000 5.7 70 09:19 19.04.2020
4642 Clear 7 1022 56 10000 4.1 50 08:40 19.04.2020
4643 Clear 6 1022 56 10000 4.1 50 08:21 19.04.2020
4644 Clear 5 1021 60 10000 3.6 60 07:56 19.04.2020
4645 Clear 4 1021 64 10000 4.1 50 07:38 19.04.2020
4646 Clear 4 1020 69 10000 3.6 50 07:19 19.04.2020
4647 Clear 4 1020 60 10000 3.6 40 06:26 19.04.2020
4648 Clear 5 1020 52 10000 4.1 50 05:35 19.04.2020
4649 Clear 6 1019 52 10000 4.1 60 03:55 19.04.2020
4650 Clear 6 1019 52 10000 4.6 50 02:52 19.04.2020
4651 Clear 7 1019 48 10000 4.1 50 02:19 19.04.2020
4652 Clear 8 1019 45 10000 5.7 50 01:31 19.04.2020
4653 Clear 8 1018 45 10000 5.7 50 00:41 19.04.2020
4654 Clear 9 1018 45 10000 5.7 50 00:20 19.04.2020
4655 Clear 9 1018 46 10000 6.2 50 23:44 18.04.2020
4656 Clear 10 1018 46 10000 6.2 50 23:21 18.04.2020
4657 Clear 10 1018 43 10000 6.7 60 22:56 18.04.2020
4658 Clear 12 1018 40 10000 6.7 50 22:38 18.04.2020
4659 Clear 11 1018 40 10000 6.7 50 22:19 18.04.2020
4660 Clear 12 1017 37 10000 7.2 50 21:55 18.04.2020
4661 Clear 14 1017 33 10000 5.7 50 21:37 18.04.2020
4662 Clouds 13 1017 33 10000 5.7 50 21:19 18.04.2020
4663 Clouds 14 1016 38 10000 5.1 50 20:40 18.04.2020
4664 Clouds 15 1016 38 10000 5.1 50 20:21 18.04.2020
4665 Clouds 16 1016 36 10000 5.1 70 19:44 18.04.2020
4666 Clouds 17 1016 36 10000 5.1 70 19:25 18.04.2020
4667 Clouds 18 1016 31 10000 6.2 40 18:59 18.04.2020
4668 Clouds 18 1016 31 10000 5.7 50 18:37 18.04.2020
4669 Clouds 18 1016 31 10000 5.7 50 18:37 18.04.2020
4670 Clear 18 1016 31 10000 5.7 50 18:19 18.04.2020
4671 Clear 19 1016 29 10000 6.2 50 17:43 18.04.2020
4672 Clear 19 1016 29 10000 6.2 50 17:21 18.04.2020
4673 Clear 19 1016 32 10000 4.6 70 16:58 18.04.2020
4674 Clear 19 1016 32 10000 4.6 80 16:38 18.04.2020
4675 Clear 19 1016 32 10000 4.6 80 16:20 18.04.2020
4676 Clear 18 1016 31 10000 4.6 70 15:40 18.04.2020
4677 Clouds 18 1016 31 10000 4.6 70 15:22 18.04.2020
4678 Clouds 18 1016 34 10000 5.1 70 14:48 18.04.2020
4679 Clouds 18 1017 36 10000 4.1 80 14:29 18.04.2020
4680 Clouds 18 1017 36 10000 4.6 80 13:59 18.04.2020
4681 Clouds 18 1017 36 10000 5.1 80 13:41 18.04.2020
4682 Clouds 18 1017 36 10000 5.1 80 13:20 18.04.2020
4683 Clouds 15 1018 44 10000 4.6 60 12:42 18.04.2020
4684 Clouds 15 1018 44 10000 4.6 60 12:42 18.04.2020
4685 Clouds 14 1018 44 10000 4.6 60 12:24 18.04.2020
4686 Clouds 14 1018 47 10000 5.1 60 11:57 18.04.2020
4687 Clouds 13 1018 50 10000 4.6 70 11:38 18.04.2020
4688 Clouds 13 1018 50 10000 4.6 70 11:20 18.04.2020
4689 Clouds 11 1018 53 10000 4.1 80 10:42 18.04.2020
4690 Clouds 11 1018 53 10000 4.1 80 10:22 18.04.2020
4691 Clouds 11 1018 53 10000 4.1 80 10:22 18.04.2020
4692 Clouds 10 1018 57 10000 3.6 90 09:59 18.04.2020
4693 Clouds 9 1018 61 10000 4.6 80 09:39 18.04.2020
4694 Clouds 8 1018 61 10000 4.6 80 09:20 18.04.2020
4695 Clouds 6 1018 76 10000 5.1 70 08:43 18.04.2020
4696 Clouds 7 1018 76 10000 5.1 70 08:22 18.04.2020
4697 Clouds 5 1018 75 10000 4.1 50 07:48 18.04.2020
4698 Clouds 5 1018 75 10000 3.1 50 07:28 18.04.2020
4699 Clouds 5 1017 75 10000 3.6 50 06:42 18.04.2020
4700 Clear 5 1017 80 10000 3.6 60 05:49 18.04.2020
4701 Clear 5 1017 75 10000 3.1 70 04:55 18.04.2020
4702 Clear 5 1017 75 10000 3.1 60 04:31 18.04.2020
4703 Clear 6 1018 75 10000 3.1 60 03:34 18.04.2020
4704 Clear 5 1018 87 10000 2.6 50 02:42 18.04.2020
4705 Clear 5 1018 87 10000 2.6 50 02:21 18.04.2020
4706 Clear 5 1018 87 10000 2.6 50 02:21 18.04.2020
4707 Clear 5 1018 87 10000 3.1 50 01:45 18.04.2020
4708 Clear 6 1018 87 10000 3.1 50 01:22 18.04.2020
4709 Clear 7 1018 81 10000 4.1 40 00:38 18.04.2020
4710 Clear 7 1018 81 10000 4.1 40 00:18 18.04.2020
4711 Clear 8 1018 81 10000 4.6 30 23:41 17.04.2020
4712 Clear 8 1018 81 10000 4.6 30 23:20 17.04.2020
4713 Clear 9 1018 76 10000 4.6 20 22:59 17.04.2020
4714 Clear 9 1018 76 10000 3.6 360 22:40 17.04.2020
4715 Clear 8 1018 76 10000 3.6 360 22:21 17.04.2020
4716 Clear 10 1017 71 10000 3.1 330 21:58 17.04.2020
4717 Clear 11 1017 66 10000 4.1 340 21:40 17.04.2020
4718 Clouds 11 1017 66 10000 4.1 340 21:20 17.04.2020
4719 Clouds 11 1017 62 10000 4.1 320 20:56 17.04.2020
4720 Clouds 12 1017 62 10000 4.6 310 20:37 17.04.2020
4721 Clouds 12 1017 62 10000 4.6 310 20:18 17.04.2020
4722 Clouds 13 1017 58 10000 4.1 300 19:55 17.04.2020
4723 Clouds 15 1017 74 10000 2.1 0 19:37 17.04.2020
4724 Clouds 15 1017 74 10000 2.1 0 19:18 17.04.2020
4725 Clouds 15 1017 38 10000 2.6 30 18:40 17.04.2020
4726 Clouds 15 1017 38 10000 2.6 30 18:21 17.04.2020
4727 Clouds 15 1018 38 10000 2.6 40 17:38 17.04.2020
4728 Clouds 15 1018 38 10000 2.6 40 17:20 17.04.2020
4729 Clouds 15 1018 38 10000 2.6 340 16:59 17.04.2020
4730 Clouds 15 1018 38 10000 3.1 30 16:41 17.04.2020
4731 Clouds 15 1018 38 10000 3.1 30 16:22 17.04.2020
4732 Clouds 14 1018 37 10000 2.1 0 15:40 17.04.2020
4733 Clouds 14 1018 37 10000 2.1 0 15:22 17.04.2020
4734 Clouds 14 1019 44 10000 2.1 0 14:55 17.04.2020
4735 Clouds 14 1019 49 10000 3.1 40 14:36 17.04.2020
4736 Clouds 13 1019 47 10000 3.1 40 14:18 17.04.2020
4737 Clouds 13 1019 50 10000 2.6 30 13:40 17.04.2020
4738 Clouds 13 1019 50 10000 2.6 30 13:20 17.04.2020
4739 Clouds 13 1019 50 10000 2.6 0 12:57 17.04.2020
4740 Clouds 12 1020 50 10000 2.6 10 12:38 17.04.2020
4741 Clouds 11 1020 50 10000 2.6 10 12:20 17.04.2020
4742 Clouds 11 1020 57 10000 2.6 10 11:40 17.04.2020
4743 Clouds 10 1020 57 10000 2.6 10 11:19 17.04.2020
4744 Clouds 10 1020 57 10000 2.6 10 11:19 17.04.2020
4745 Clouds 10 1020 65 10000 3.1 40 10:43 17.04.2020
4746 Clouds 9 1020 65 10000 3.1 40 10:22 17.04.2020
4747 Clouds 8 1020 70 10000 4.1 30 09:57 17.04.2020
4748 Clouds 8 1020 75 10000 4.1 30 09:39 17.04.2020
4749 Clouds 7 1020 75 10000 4.1 30 09:19 17.04.2020
4750 Clouds 6 1020 81 10000 3.6 30 08:49 17.04.2020
4751 Clouds 5 1020 80 10000 3.6 30 08:28 17.04.2020
4752 Clouds 4 1019 86 10000 3.6 30 07:59 17.04.2020
4753 Clouds 3 1019 86 10000 3.6 30 07:41 17.04.2020
4754 Clouds 3 1019 86 10000 3.6 30 07:20 17.04.2020
4755 Clouds 3 1019 86 10000 3.6 30 06:45 17.04.2020
4756 Clouds 3 1019 86 10000 3.6 30 06:21 17.04.2020
4757 Clouds 4 1019 81 10000 2.1 350 04:27 17.04.2020
4758 Clouds 4 1019 87 10000 3.6 360 03:19 17.04.2020
4759 Clouds 5 1019 81 10000 3.1 340 01:58 17.04.2020
4760 Clouds 6 1019 75 10000 3.1 330 01:24 17.04.2020
4761 Clouds 6 1018 75 10000 3.6 350 00:45 17.04.2020
4762 Clouds 7 1018 75 10000 4.6 360 00:18 17.04.2020
4763 Clouds 7 1018 65 10000 4.1 360 23:40 16.04.2020
4764 Clouds 7 1018 65 10000 4.6 360 23:22 16.04.2020
4765 Clouds 7 1018 61 10000 4.6 350 22:56 16.04.2020
4766 Clouds 8 1018 61 10000 4.6 350 22:37 16.04.2020
4767 Clouds 8 1018 61 10000 5.1 350 22:19 16.04.2020
4768 Clouds 9 1018 66 10000 5.7 350 21:42 16.04.2020
4769 Clouds 10 1017 61 10000 5.1 350 21:20 16.04.2020
4770 Clouds 10 1017 61 10000 5.1 350 21:20 16.04.2020
4771 Clouds 10 1017 62 10000 5.7 350 20:59 16.04.2020
4772 Clouds 11 1017 62 10000 5.7 350 20:39 16.04.2020
4773 Clouds 11 1017 62 10000 7.2 360 20:19 16.04.2020
4774 Clouds 13 1017 62 10000 6.2 350 19:55 16.04.2020
4775 Clouds 13 1017 62 10000 6.2 350 19:36 16.04.2020
4776 Clouds 14 1016 62 10000 6.7 360 19:18 16.04.2020
4777 Clouds 15 1016 58 10000 6.7 350 18:42 16.04.2020
4778 Clouds 16 1016 58 10000 6.7 340 18:23 16.04.2020
4779 Clouds 16 1016 51 10000 3.6 10 17:57 16.04.2020
4780 Clouds 16 1016 51 10000 3.6 10 17:39 16.04.2020
4781 Clouds 17 1016 51 10000 2.1 350 17:18 16.04.2020
4782 Clouds 17 1016 48 10000 3.6 20 16:43 16.04.2020
4783 Clouds 17 1016 48 10000 2.1 70 16:25 16.04.2020
4784 Clouds 17 1017 51 10000 3.1 20 15:46 16.04.2020
4785 Clouds 17 1017 51 10000 3.1 20 15:46 16.04.2020
4786 Clouds 17 1017 48 10000 2.6 50 15:20 16.04.2020
4787 Clouds 17 1017 48 10000 2.6 50 15:20 16.04.2020
4788 Clouds 17 1017 48 10000 2.6 50 14:59 16.04.2020
4789 Clouds 17 1017 51 10000 3.6 20 14:41 16.04.2020
4790 Clouds 16 1017 54 10000 3.6 340 14:23 16.04.2020
4791 Clouds 16 1018 51 10000 3.6 350 13:58 16.04.2020
4792 Clouds 16 1018 51 10000 3.6 350 13:40 16.04.2020
4793 Clouds 16 1018 54 10000 2.6 60 13:21 16.04.2020
4794 Clouds 15 1018 54 10000 2.1 0 12:57 16.04.2020
4795 Clouds 15 1018 54 10000 2.1 0 12:38 16.04.2020
4796 Clouds 14 1018 58 10000 2.1 0 12:19 16.04.2020
4797 Clouds 14 1018 62 10000 2.6 0 11:56 16.04.2020
4798 Clouds 13 1018 62 10000 2.6 0 11:38 16.04.2020
4799 Clouds 13 1018 58 10000 3.1 360 11:20 16.04.2020
4800 Clouds 12 1018 66 10000 3.1 20 10:55 16.04.2020
4801 Clouds 12 1018 66 10000 3.1 20 10:36 16.04.2020
4802 Clouds 11 1019 57 10000 1.5 0 10:18 16.04.2020
4803 Clouds 10 1019 66 10000 2.6 30 09:39 16.04.2020
4804 Clouds 8 1019 66 10000 1.5 10 09:20 16.04.2020
4805 Clouds 8 1019 66 10000 1.5 10 09:20 16.04.2020
4806 Clouds 7 1019 87 10000 0.5 0 08:56 16.04.2020
4807 Clouds 6 1019 87 10000 0.5 0 08:37 16.04.2020
4808 Clouds 5 1019 93 10000 0.5 0 08:19 16.04.2020
4809 Clouds 3 1019 93 10000 1 250 07:43 16.04.2020
4810 Clouds 2 1018 100 10000 1 260 07:23 16.04.2020
4811 Clouds 2 1018 100 10000 0.5 320 06:41 16.04.2020
4812 Clouds 2 1018 93 6000 0.5 0 06:23 16.04.2020
4813 Clouds 3 1019 93 10000 0.5 0 04:54 16.04.2020
4814 Clouds 4 1019 93 10000 1.5 290 03:39 16.04.2020
4815 Clear 4 1019 93 10000 1.5 250 03:21 16.04.2020
4816 Clear 4 1019 93 10000 2.1 300 02:43 16.04.2020
4817 Clear 5 1020 86 10000 1.5 280 01:58 16.04.2020
4818 Clear 5 1020 86 10000 1.5 290 00:59 16.04.2020
4819 Clear 6 1020 75 10000 2.1 300 00:26 16.04.2020
4820 Clear 7 1020 70 10000 1.5 310 23:57 15.04.2020
4821 Clear 7 1020 70 10000 1.5 310 23:38 15.04.2020
4822 Clear 7 1020 65 10000 2.1 310 23:20 15.04.2020
4823 Clear 8 1020 57 10000 2.1 300 22:40 15.04.2020
4824 Clear 8 1020 70 10000 1 0 22:21 15.04.2020
4825 Clear 9 1020 66 10000 1 250 21:58 15.04.2020
4826 Clear 9 1020 66 10000 1 250 21:40 15.04.2020
4827 Clouds 11 1020 50 10000 2.1 310 21:22 15.04.2020
4828 Clouds 11 1017 65 0 2.37 277 20:57 15.04.2020
4829 Clouds 13 1020 47 10000 2.6 300 20:39 15.04.2020
4830 Clouds 13 1020 47 10000 3.1 280 20:21 15.04.2020
4831 Clouds 15 1021 41 10000 3.6 280 19:42 15.04.2020
4832 Clouds 16 1021 38 10000 3.6 290 19:21 15.04.2020
4833 Clouds 16 1021 36 10000 4.1 290 18:55 15.04.2020
4834 Clouds 16 1021 36 10000 4.1 290 18:36 15.04.2020
4835 Clouds 16 1021 36 10000 5.1 300 18:18 15.04.2020
4836 Clouds 16 1021 38 10000 4.1 300 17:40 15.04.2020
4837 Clouds 16 1021 38 10000 3.6 290 17:21 15.04.2020
4838 Clouds 16 1022 36 10000 4.1 280 16:58 15.04.2020
4839 Clouds 16 1022 36 10000 4.1 280 16:39 15.04.2020
4840 Clouds 16 1022 36 10000 4.6 280 16:20 15.04.2020
4841 Clouds 16 1022 38 10000 4.1 300 15:59 15.04.2020
4842 Clouds 16 1022 38 10000 4.1 300 15:40 15.04.2020
4843 Clouds 15 1022 41 10000 4.1 300 15:20 15.04.2020
4844 Clouds 15 1023 44 10000 4.6 300 14:59 15.04.2020
4845 Clouds 15 1023 44 10000 4.6 300 14:40 15.04.2020
4846 Clouds 14 1023 47 10000 4.6 280 14:22 15.04.2020
4847 Clouds 14 1023 50 10000 1 0 13:58 15.04.2020
4848 Clouds 14 1023 50 10000 1 0 13:40 15.04.2020
4849 Clouds 14 1023 50 10000 4.1 260 13:21 15.04.2020
4850 Clouds 13 1024 50 10000 4.1 280 12:57 15.04.2020
4851 Clouds 12 1024 50 10000 4.1 280 12:39 15.04.2020
4852 Clouds 11 1024 57 10000 5.1 270 12:21 15.04.2020
4853 Clouds 11 1024 61 10000 4.6 260 11:57 15.04.2020
4854 Clouds 11 1024 61 10000 4.6 260 11:38 15.04.2020
4855 Clouds 10 1024 61 10000 5.7 260 11:20 15.04.2020
4856 Clouds 9 1024 66 10000 5.7 270 10:38 15.04.2020
4857 Clouds 9 1024 66 10000 6.2 270 10:19 15.04.2020
4858 Clouds 8 1024 75 10000 6.2 270 09:56 15.04.2020
4859 Clouds 7 1024 75 10000 6.2 270 09:38 15.04.2020
4860 Clouds 6 1024 75 10000 5.7 260 09:19 15.04.2020
4861 Clouds 5 1024 80 10000 4.1 260 08:54 15.04.2020
4862 Clouds 5 1024 80 10000 4.1 260 08:36 15.04.2020
4863 Clouds 4 1024 86 10000 4.1 240 08:18 15.04.2020
4864 Clouds 4 1024 86 10000 3.1 250 07:44 15.04.2020
4865 Clouds 4 1023 86 10000 2.6 230 07:26 15.04.2020
4866 Clouds 3 1024 86 10000 2.1 250 06:24 15.04.2020
4867 Clouds 3 1024 86 10000 3.1 240 05:48 15.04.2020
4868 Clouds 3 1023 85 0 3.86 256 04:47 15.04.2020
4869 Clouds 3 1023 84 0 3.86 256 04:22 15.04.2020
4870 Clouds 3 1023 83 0 0.89 240 03:22 15.04.2020
4871 Clouds 3 1023 83 0 3.53 271 02:49 15.04.2020
4872 Clouds 3 1024 82 0 0.89 275 01:51 15.04.2020
4873 Clouds 3 1025 89 10000 2.6 270 01:25 15.04.2020
4874 Clouds 3 1025 80 10000 3.1 280 00:49 15.04.2020
4875 Clouds 3 1025 74 10000 2.6 280 00:27 15.04.2020
4876 Clouds 4 1025 81 10000 3.1 290 23:56 14.04.2020
4877 Clouds 4 1025 81 10000 3.1 290 23:38 14.04.2020
4878 Clouds 4 1025 74 10000 2.6 290 23:20 14.04.2020
4879 Clouds 4 1025 81 10000 2.6 290 22:56 14.04.2020
4880 Clouds 5 1025 81 10000 2.6 290 22:38 14.04.2020
4881 Clouds 5 1025 81 10000 3.1 300 22:20 14.04.2020
4882 Clouds 5 1025 81 10000 3.6 300 21:56 14.04.2020
4883 Clouds 5 1025 81 10000 3.6 300 21:56 14.04.2020
4884 Clouds 6 1025 81 10000 3.6 300 21:38 14.04.2020
4885 Clouds 6 1025 73 10000 4.1 310 21:19 14.04.2020
4886 Clouds 6 1025 73 10000 4.6 320 20:58 14.04.2020
4887 Clouds 7 1025 76 10000 4.6 320 20:39 14.04.2020
4888 Clouds 7 1025 76 10000 5.1 310 20:20 14.04.2020
4889 Clouds 8 1025 73 10000 5.7 310 19:41 14.04.2020
4890 Clouds 8 1025 76 10000 6.2 310 19:23 14.04.2020
4891 Clouds 9 1025 57 10000 6.7 300 18:59 14.04.2020
4892 Clouds 9 1025 57 10000 6.7 300 18:40 14.04.2020
4893 Clouds 9 1025 57 10000 7.2 340 18:21 14.04.2020
4894 Clouds 9 1025 61 10000 6.7 320 17:58 14.04.2020
4895 Clouds 9 1025 61 10000 6.7 320 17:39 14.04.2020
4896 Clouds 9 1025 61 10000 6.7 320 17:20 14.04.2020
4897 Clouds 9 1025 49 10000 6.2 310 16:57 14.04.2020
4898 Clouds 10 1025 49 10000 6.2 310 16:38 14.04.2020
4899 Clouds 9 1025 61 10000 7.2 310 16:20 14.04.2020
4900 Clouds 9 1025 52 10000 6.7 320 15:56 14.04.2020
4901 Clouds 9 1025 52 10000 6.7 320 15:38 14.04.2020
4902 Clouds 9 1025 49 10000 7.2 310 15:18 14.04.2020
4903 Clouds 9 1025 46 10000 6.7 320 14:56 14.04.2020
4904 Clouds 9 1025 46 10000 6.7 320 14:38 14.04.2020
4905 Clouds 9 1025 42 10000 6.7 320 14:20 14.04.2020
4906 Clouds 9 1025 42 10000 7.2 310 13:43 14.04.2020
4907 Clouds 8 1025 45 10000 5.7 320 13:24 14.04.2020
4908 Clouds 9 1025 45 10000 6.7 320 12:56 14.04.2020
4909 Clouds 8 1025 45 10000 6.7 320 12:38 14.04.2020
4910 Clouds 8 1025 52 10000 6.2 320 12:19 14.04.2020
4911 Clouds 8 1025 56 10000 5.1 320 11:41 14.04.2020
4912 Clouds 7 1025 70 10000 3.6 300 11:22 14.04.2020
4913 Rain 7 1025 70 10000 4.1 300 10:56 14.04.2020
4914 Rain 7 1025 70 10000 4.1 300 10:38 14.04.2020
4915 Clouds 7 1025 56 10000 3.1 340 10:20 14.04.2020
4916 Clouds 7 1025 56 10000 3.1 340 09:42 14.04.2020
4917 Clouds 5 1024 75 10000 4.6 280 09:23 14.04.2020
4918 Rain 5 1024 80 10000 4.6 310 08:57 14.04.2020
4919 Rain 5 1024 80 10000 4.6 310 08:39 14.04.2020
4920 Rain 4 1024 86 10000 4.1 270 08:21 14.04.2020
4921 Clouds 3 1023 86 10000 4.6 270 07:51 14.04.2020
4922 Clouds 3 1023 86 10000 6.2 290 07:27 14.04.2020
4923 Clouds 3 1023 86 10000 3.6 270 06:45 14.04.2020
4924 Clouds 3 1023 86 10000 4.1 280 05:54 14.04.2020
4925 Clouds 3 1022 94 10000 3.1 300 03:50 14.04.2020
4926 Clouds 3 1022 74 10000 4.6 10 02:44 14.04.2020
4927 Clouds 4 1022 88 10000 8.2 300 01:38 14.04.2020
4928 Clouds 4 1022 88 10000 5.7 290 01:18 14.04.2020
4929 Rain 4 1022 88 10000 7.7 300 00:32 14.04.2020
4930 Clouds 4 1022 83 10000 6.7 310 23:59 13.04.2020
4931 Clouds 4 1022 83 10000 6.7 310 23:39 13.04.2020
4932 Clouds 4 1022 83 10000 5.7 300 23:21 13.04.2020
4933 Rain 5 1022 65 10000 7.7 300 22:56 13.04.2020
4934 Rain 5 1022 65 10000 7.7 300 22:37 13.04.2020
4935 Clouds 5 1022 65 10000 6.7 340 22:19 13.04.2020
4936 Clouds 5 1022 65 10000 6.7 310 21:54 13.04.2020
4937 Clouds 5 1022 65 10000 6.7 310 21:36 13.04.2020
4938 Clouds 5 1021 52 10000 6.7 320 21:18 13.04.2020
4939 Clouds 6 1021 52 10000 7.2 330 20:41 13.04.2020
4940 Clouds 6 1021 52 10000 8.2 320 20:20 13.04.2020
4941 Clouds 6 1021 52 10000 10.3 320 19:59 13.04.2020
4942 Clouds 6 1021 52 10000 10.3 320 19:37 13.04.2020
4943 Clouds 6 1021 52 10000 10.3 320 19:37 13.04.2020
4944 Clouds 7 1021 48 10000 9.3 320 19:19 13.04.2020
4945 Clouds 7 1021 45 10000 9.8 340 18:58 13.04.2020
4946 Clouds 8 1021 45 10000 9.8 340 18:39 13.04.2020
4947 Clouds 8 1021 45 10000 10.3 330 18:20 13.04.2020
4948 Clouds 8 1021 45 10000 10.3 330 18:20 13.04.2020
4949 Clouds 9 1021 39 10000 9.8 320 17:58 13.04.2020
4950 Clouds 9 1021 39 10000 9.8 320 17:38 13.04.2020
4951 Clouds 9 1021 45 10000 9.8 320 17:19 13.04.2020
4952 Clouds 9 1021 45 10000 9.8 320 16:58 13.04.2020
4953 Clouds 10 1021 45 10000 9.8 320 16:40 13.04.2020
4954 Clouds 10 1021 45 10000 9.8 320 16:20 13.04.2020
4955 Clear 10 1021 42 10000 8.7 330 15:57 13.04.2020
4956 Clear 10 1021 42 10000 8.7 330 15:39 13.04.2020
4957 Clouds 10 1021 42 10000 9.3 330 15:20 13.04.2020
4958 Clouds 10 1021 39 10000 9.8 330 14:54 13.04.2020
4959 Clouds 9 1021 39 10000 9.8 330 14:36 13.04.2020
4960 Clouds 9 1021 42 10000 9.8 340 14:18 13.04.2020
4961 Clouds 9 1021 39 10000 11.3 330 13:54 13.04.2020
4962 Clouds 9 1021 39 10000 11.3 330 13:36 13.04.2020
4963 Clouds 9 1021 45 10000 9.8 330 13:18 13.04.2020
4964 Clouds 8 1021 48 10000 8.7 340 12:55 13.04.2020
4965 Clouds 9 1021 48 10000 8.7 340 12:37 13.04.2020
4966 Clouds 8 1020 45 10000 9.8 330 12:18 13.04.2020
4967 Clouds 8 1020 42 10000 8.2 340 11:41 13.04.2020
4968 Clouds 7 1020 48 10000 8.7 330 11:18 13.04.2020
4969 Clouds 7 1020 52 10000 9.3 330 10:56 13.04.2020
4970 Clouds 7 1020 52 10000 9.3 330 10:37 13.04.2020
4971 Clouds 7 1019 48 10000 7.7 340 10:19 13.04.2020
4972 Clouds 7 1019 52 10000 6.7 340 09:46 13.04.2020
4973 Clouds 6 1018 56 10000 6.7 330 09:26 13.04.2020
4974 Clouds 6 1018 52 10000 8.2 340 08:51 13.04.2020
4975 Clouds 6 1018 52 10000 8.2 340 08:31 13.04.2020
4976 Clouds 6 1017 60 10000 7.2 340 07:59 13.04.2020
4977 Clouds 6 1017 60 10000 7.2 340 07:39 13.04.2020
4978 Clouds 6 1017 60 10000 6.2 340 07:20 13.04.2020
4979 Clouds 6 1017 56 10000 7.7 350 06:47 13.04.2020
4980 Clouds 6 1016 79 10000 8.7 350 06:24 13.04.2020
4981 Clouds 7 1016 70 10000 8.7 350 05:31 13.04.2020
4982 Clouds 7 1015 75 10000 7.2 350 04:53 13.04.2020
4983 Clouds 8 1014 81 10000 6.2 340 04:24 13.04.2020
4984 Clouds 8 1014 81 10000 5.7 340 03:47 13.04.2020
4985 Clouds 8 1014 70 10000 6.7 350 02:59 13.04.2020
4986 Clouds 8 1014 70 10000 6.7 350 02:37 13.04.2020
4987 Clouds 9 1013 76 10000 6.7 350 01:43 13.04.2020
4988 Clouds 10 1013 66 10000 5.7 350 01:25 13.04.2020
4989 Clouds 11 1013 62 10000 5.7 360 00:42 13.04.2020
4990 Rain 11 1012 69 0 0.45 313 00:21 13.04.2020
4991 Rain 11 1012 58 10000 4.1 10 23:48 12.04.2020
4992 Rain 12 1012 67 10000 3.1 360 23:23 12.04.2020
4993 Rain 12 1012 62 10000 2.6 350 22:59 12.04.2020
4994 Rain 13 1012 62 10000 2.6 350 22:37 12.04.2020
4995 Rain 12 1008 83 0 3.24 358 22:19 12.04.2020
4996 Rain 13 1012 63 10000 2.1 360 21:54 12.04.2020
4997 Rain 14 1012 63 10000 2.1 360 21:36 12.04.2020
4998 Rain 15 1012 59 10000 2.1 350 21:18 12.04.2020
4999 Rain 15 1012 67 10000 3.1 310 20:41 12.04.2020
5000 Rain 16 1012 63 10000 1 0 20:22 12.04.2020
5001 Rain 16 1012 63 10000 1 0 20:22 12.04.2020
5002 Clouds 17 1012 59 10000 2.1 280 19:57 12.04.2020
5003 Clouds 18 1012 59 10000 2.1 280 19:38 12.04.2020
5004 Clouds 19 1012 55 10000 3.1 350 19:18 12.04.2020
5005 Clouds 20 1012 55 10000 4.6 330 18:41 12.04.2020
5006 Clouds 20 1012 52 10000 6.2 340 18:23 12.04.2020
5007 Clouds 21 1012 46 10000 5.1 310 17:59 12.04.2020
5008 Clouds 21 1012 46 10000 5.1 310 17:41 12.04.2020
5009 Clouds 22 1012 40 10000 5.7 310 17:23 12.04.2020
5010 Clear 22 1012 40 10000 4.6 300 16:58 12.04.2020
5011 Clear 21 1012 40 10000 4.6 300 16:39 12.04.2020
5012 Clear 22 1012 33 10000 5.1 290 16:20 12.04.2020
5013 Clear 21 1013 33 10000 4.1 260 15:49 12.04.2020
5014 Clouds 21 1013 30 10000 4.6 290 15:30 12.04.2020
5015 Clouds 21 1013 33 10000 5.1 240 14:55 12.04.2020
5016 Clouds 21 1013 33 10000 5.1 240 14:36 12.04.2020
5017 Clouds 21 1013 30 10000 4.1 240 14:18 12.04.2020
5018 Clouds 21 1013 30 10000 2.1 230 13:42 12.04.2020
5019 Clouds 21 1014 30 10000 3.6 240 13:24 12.04.2020
5020 Clouds 21 1014 34 10000 3.1 250 12:55 12.04.2020
5021 Clouds 20 1014 34 10000 3.1 250 12:37 12.04.2020
5022 Clouds 19 1015 32 10000 2.6 250 12:18 12.04.2020
5023 Clouds 18 1015 39 10000 3.1 250 11:56 12.04.2020
5024 Clouds 18 1015 39 10000 3.1 250 11:36 12.04.2020
5025 Clouds 17 1015 45 10000 1.5 240 11:18 12.04.2020
5026 Clouds 17 1015 54 10000 1.5 230 10:54 12.04.2020
5027 Clouds 16 1015 54 10000 1.5 230 10:36 12.04.2020
5028 Clouds 15 1015 58 10000 2.1 160 10:18 12.04.2020
5029 Clouds 13 1016 57 10000 1 0 09:40 12.04.2020
5030 Clouds 11 1016 66 10000 0.5 0 09:21 12.04.2020
5031 Clouds 10 1016 66 10000 0.5 0 09:00 12.04.2020
5032 Clouds 9 1016 70 10000 0.5 0 08:41 12.04.2020
5033 Clouds 8 1016 81 10000 1.5 150 08:23 12.04.2020
5034 Clouds 6 1016 75 10000 1.5 150 07:45 12.04.2020
5035 Clouds 6 1016 70 10000 1 0 07:19 12.04.2020
5036 Clouds 6 1016 75 10000 2.1 140 06:35 12.04.2020
5037 Clouds 6 1017 70 10000 1.5 130 05:58 12.04.2020
5038 Clouds 7 1017 70 10000 1.5 130 05:37 12.04.2020
5039 Clouds 7 1018 61 10000 1 0 03:45 12.04.2020
5040 Clouds 8 1018 61 10000 2.6 130 03:25 12.04.2020
5041 Clouds 7 1019 61 10000 1.5 120 02:35 12.04.2020
5042 Clouds 8 1020 61 10000 1 0 01:53 12.04.2020
5043 Clouds 8 1020 79 10000 1.5 130 01:19 12.04.2020
5044 Clouds 9 1020 79 10000 1 160 00:42 12.04.2020
5045 Clouds 9 1020 76 10000 1 0 00:20 12.04.2020
5046 Clouds 10 1020 76 10000 2.1 130 23:47 11.04.2020
5047 Clouds 10 1020 76 10000 2.1 130 23:26 11.04.2020
5048 Clouds 11 1021 43 10000 2.1 130 22:57 11.04.2020
5049 Clouds 11 1021 43 10000 2.1 130 22:36 11.04.2020
5050 Clouds 12 1021 41 10000 3.1 130 22:18 11.04.2020
5051 Clouds 12 1021 41 10000 3.1 120 21:54 11.04.2020
5052 Clouds 12 1021 41 10000 3.1 120 21:36 11.04.2020
5053 Clouds 13 1021 44 10000 2.1 110 21:18 11.04.2020
5054 Clouds 14 1021 38 10000 2.6 130 20:55 11.04.2020
5055 Clouds 15 1021 38 10000 2.6 130 20:37 11.04.2020
5056 Clouds 16 1022 38 10000 2.1 120 20:19 11.04.2020
5057 Clouds 16 1022 33 10000 3.1 140 19:56 11.04.2020
5058 Clouds 17 1022 33 10000 3.1 140 19:37 11.04.2020
5059 Clouds 17 1022 36 10000 3.6 140 19:18 11.04.2020
5060 Clouds 17 1023 39 10000 3.1 150 18:55 11.04.2020
5061 Clouds 18 1023 39 10000 3.1 150 18:36 11.04.2020
5062 Clouds 18 1023 34 10000 2.6 140 18:18 11.04.2020
5063 Clouds 18 1023 34 10000 2.6 140 17:56 11.04.2020
5064 Clouds 18 1023 34 10000 2.6 140 17:36 11.04.2020
5065 Clouds 18 1022 36 0 0.89 120 17:18 11.04.2020
5066 Clouds 18 1024 36 10000 3.1 150 16:42 11.04.2020
5067 Clouds 18 1024 36 10000 3.1 150 16:21 11.04.2020
5068 Clouds 17 1024 36 10000 2.1 120 15:41 11.04.2020
5069 Clouds 17 1025 38 10000 3.6 120 15:21 11.04.2020
5070 Clouds 17 1025 38 10000 3.6 150 14:58 11.04.2020
5071 Clouds 17 1025 38 10000 3.6 150 14:40 11.04.2020
5072 Clouds 16 1025 41 10000 2.1 120 14:22 11.04.2020
5073 Clouds 16 1026 41 10000 2.1 0 13:43 11.04.2020
5074 Clouds 15 1026 44 10000 2.6 180 13:25 11.04.2020
5075 Clouds 15 1027 47 10000 3.1 140 12:59 11.04.2020
5076 Clouds 14 1027 47 10000 3.1 140 12:38 11.04.2020
5077 Clouds 13 1027 58 10000 3.1 160 12:18 11.04.2020
5078 Clouds 13 1027 62 10000 2.6 150 11:54 11.04.2020
5079 Clouds 12 1027 62 10000 2.6 150 11:36 11.04.2020
5080 Clouds 11 1027 71 10000 2.1 170 11:18 11.04.2020
5081 Clouds 10 1027 70 10000 3.1 130 10:41 11.04.2020
5082 Clouds 9 1027 75 10000 2.6 110 10:21 11.04.2020
5083 Clouds 8 1027 81 10000 2.1 80 09:57 11.04.2020
5084 Clouds 7 1027 81 10000 2.1 80 09:39 11.04.2020
5085 Clouds 6 1027 81 10000 1.5 60 09:20 11.04.2020
5086 Clouds 5 1027 93 10000 1 80 08:45 11.04.2020
5087 Clouds 3 1027 93 10000 0.5 0 08:27 11.04.2020
5088 Clouds 2 1027 85 10000 1 190 07:49 11.04.2020
5089 Fog 1 1027 85 8000 1 180 07:28 11.04.2020
5090 Fog 2 1027 85 6000 1 0 06:47 11.04.2020
5091 Clouds 2 1027 100 10000 1 20 06:18 11.04.2020
5092 Clouds 2 1027 100 10000 0.5 90 04:35 11.04.2020
5093 Clouds 3 1027 93 10000 0.5 0 03:40 11.04.2020
5094 Clouds 4 1027 81 10000 3.1 30 01:55 11.04.2020
5095 Clouds 4 1027 86 10000 1.5 30 01:23 11.04.2020
5096 Clouds 4 1027 80 10000 2.6 40 00:44 11.04.2020
5097 Clouds 5 1027 81 10000 3.1 30 00:19 11.04.2020
5098 Clouds 5 1027 81 10000 2.6 30 23:57 10.04.2020
5099 Clouds 5 1027 81 10000 2.6 30 23:38 10.04.2020
5100 Clouds 5 1027 75 10000 2.6 360 23:19 10.04.2020
5101 Clouds 6 1027 75 10000 2.6 350 22:43 10.04.2020
5102 Clouds 6 1027 70 10000 3.6 350 22:22 10.04.2020
5103 Clouds 7 1027 70 10000 3.6 350 21:58 10.04.2020
5104 Clouds 7 1027 70 10000 3.6 350 21:40 10.04.2020
5105 Clouds 8 1027 66 10000 3.6 350 21:20 10.04.2020
5106 Clouds 9 1027 57 10000 3.6 360 20:55 10.04.2020
5107 Clouds 9 1027 57 10000 3.6 360 20:37 10.04.2020
5108 Clouds 10 1027 61 10000 4.1 350 20:18 10.04.2020
5109 Clouds 11 1027 53 10000 4.6 360 19:41 10.04.2020
5110 Clouds 11 1027 50 10000 4.1 350 19:21 10.04.2020
5111 Clouds 12 1026 50 10000 5.7 20 18:58 10.04.2020
5112 Clouds 12 1026 50 10000 5.7 20 18:40 10.04.2020
5113 Clouds 12 1026 50 10000 5.7 20 18:40 10.04.2020
5114 Clouds 13 1026 47 10000 3.6 360 18:22 10.04.2020
5115 Clouds 13 1026 43 10000 4.1 360 17:59 10.04.2020
5116 Clouds 13 1026 43 10000 4.1 360 17:40 10.04.2020
5117 Clouds 13 1026 43 10000 4.1 360 17:40 10.04.2020
5118 Clouds 14 1026 43 10000 4.6 10 17:21 10.04.2020
5119 Clouds 14 1027 43 10000 4.1 10 16:59 10.04.2020
5120 Clouds 14 1027 43 10000 4.1 10 16:41 10.04.2020
5121 Clouds 14 1027 44 10000 3.6 320 16:21 10.04.2020
5122 Clouds 14 1027 47 10000 3.1 320 15:57 10.04.2020
5123 Clouds 14 1027 47 10000 3.1 320 15:38 10.04.2020
5124 Clouds 13 1027 43 10000 3.1 320 15:19 10.04.2020
5125 Clouds 13 1027 47 10000 2.6 300 14:58 10.04.2020
5126 Clouds 13 1027 47 10000 2.6 300 14:39 10.04.2020
5127 Clouds 13 1028 50 10000 3.1 320 14:19 10.04.2020
5128 Clouds 13 1028 53 10000 3.6 330 13:44 10.04.2020
5129 Clouds 12 1028 53 10000 3.1 350 13:22 10.04.2020
5130 Clouds 12 1028 61 10000 2.6 0 12:55 10.04.2020
5131 Clouds 11 1028 61 10000 2.6 0 12:36 10.04.2020
5132 Clouds 10 1029 66 10000 2.6 30 12:18 10.04.2020
5133 Clouds 10 1029 61 10000 3.1 360 11:42 10.04.2020
5134 Clouds 9 1029 65 10000 3.6 340 11:23 10.04.2020
5135 Clouds 8 1029 70 10000 2.6 40 10:56 10.04.2020
5136 Clouds 8 1029 70 10000 2.6 40 10:37 10.04.2020
5137 Clouds 8 1029 70 10000 4.6 30 10:19 10.04.2020
5138 Clouds 7 1029 70 10000 3.6 40 09:43 10.04.2020
5139 Clouds 7 1029 70 10000 3.6 40 09:43 10.04.2020
5140 Clouds 5 1029 70 10000 2.6 50 09:21 10.04.2020
5141 Clouds 5 1029 70 10000 2.6 50 09:21 10.04.2020
5142 Clouds 4 1029 80 10000 1.5 40 08:47 10.04.2020
5143 Clouds 4 1029 86 10000 1 0 08:27 10.04.2020
5144 Clouds 2 1029 86 10000 0.5 0 07:54 10.04.2020
5145 Clouds 1 1029 86 10000 0.5 0 07:36 10.04.2020
5146 Clouds 1 1028 86 10000 1 0 07:18 10.04.2020
5147 Clouds 1 1028 86 10000 2.1 40 06:31 10.04.2020
5148 Clouds 2 1028 80 10000 3.1 40 05:59 10.04.2020
5149 Clouds 2 1028 86 10000 4.1 30 05:25 10.04.2020
5150 Clouds 2 1028 86 10000 4.1 30 04:53 10.04.2020
5151 Clouds 3 1028 80 10000 3.1 360 03:35 10.04.2020
5152 Clouds 4 1028 86 10000 3.1 360 02:51 10.04.2020
5153 Clouds 4 1028 86 10000 3.1 360 02:32 10.04.2020
5154 Clouds 4 1028 86 10000 3.1 360 01:46 10.04.2020
5155 Clouds 5 1028 81 10000 3.6 360 01:26 10.04.2020
5156 Clouds 5 1028 81 10000 3.6 350 00:46 10.04.2020
5157 Clouds 6 1028 81 10000 3.6 350 00:20 10.04.2020
5158 Clouds 6 1028 75 10000 4.6 360 23:42 09.04.2020
5159 Clouds 7 1028 75 10000 5.1 360 23:24 09.04.2020
5160 Clouds 7 1028 65 10000 4.6 360 22:57 09.04.2020
5161 Clouds 7 1028 65 10000 4.6 360 22:39 09.04.2020
5162 Clouds 8 1027 61 10000 4.1 360 22:21 09.04.2020
5163 Clouds 8 1027 66 10000 5.1 350 21:40 09.04.2020
5164 Clouds 9 1027 66 10000 5.1 340 21:21 09.04.2020
5165 Clouds 10 1026 66 10000 4.1 350 20:54 09.04.2020
5166 Clouds 11 1026 66 10000 4.1 350 20:36 09.04.2020
5167 Clouds 11 1026 62 10000 5.1 340 20:18 09.04.2020
5168 Clouds 13 1026 58 10000 5.7 330 19:39 09.04.2020
5169 Clouds 13 1026 54 10000 6.2 320 19:21 09.04.2020
5170 Clouds 14 1025 54 10000 6.7 310 18:42 09.04.2020
5171 Clouds 16 1025 54 10000 5.7 330 18:21 09.04.2020
5172 Clouds 16 1025 51 10000 5.7 330 17:58 09.04.2020
5173 Clouds 16 1025 51 10000 5.7 330 17:39 09.04.2020
5174 Clouds 16 1025 55 10000 5.7 340 17:19 09.04.2020
5175 Clouds 17 1025 51 10000 5.7 320 16:40 09.04.2020
5176 Clouds 18 1025 48 10000 5.1 300 16:20 09.04.2020
5177 Clouds 18 1025 48 10000 4.6 340 15:57 09.04.2020
5178 Clouds 18 1025 48 10000 4.6 340 15:38 09.04.2020
5179 Clear 18 1025 45 10000 4.1 310 15:19 09.04.2020
5180 Clear 18 1025 45 10000 4.1 300 14:56 09.04.2020
5181 Clear 18 1025 45 10000 4.1 300 14:56 09.04.2020
5182 Clear 18 1025 45 10000 4.1 300 14:38 09.04.2020
5183 Clear 18 1025 45 10000 3.6 320 14:20 09.04.2020
5184 Clear 18 1025 45 10000 3.6 320 14:20 09.04.2020
5185 Clear 18 1025 45 10000 5.7 300 13:42 09.04.2020
5186 Clear 17 1025 45 10000 4.6 280 13:24 09.04.2020
5187 Clear 17 1025 45 10000 4.6 310 12:59 09.04.2020
5188 Clear 17 1025 45 10000 4.6 310 12:39 09.04.2020
5189 Clear 16 1025 44 10000 3.1 310 12:20 09.04.2020
5190 Clear 16 1025 44 10000 3.1 310 12:20 09.04.2020
5191 Clear 15 1025 48 10000 2.1 240 11:55 09.04.2020
5192 Clear 15 1025 48 10000 2.1 240 11:36 09.04.2020
5193 Clear 15 1025 51 10000 2.1 270 11:18 09.04.2020
5194 Clear 14 1025 54 10000 1.5 260 10:41 09.04.2020
5195 Clear 14 1025 66 10000 2.1 300 10:22 09.04.2020
5196 Clear 13 1025 76 10000 2.1 300 09:58 09.04.2020
5197 Clear 12 1025 76 10000 2.1 300 09:40 09.04.2020
5198 Clear 10 1025 81 10000 1.5 280 09:21 09.04.2020
5199 Clear 9 1025 93 10000 2.1 300 08:56 09.04.2020
5200 Clear 8 1025 93 10000 2.1 300 08:37 09.04.2020
5201 Clear 7 1024 93 10000 1 280 08:18 09.04.2020
5202 Clear 6 1024 100 10000 1 280 07:37 09.04.2020
5203 Clear 5 1024 100 10000 1.5 270 07:18 09.04.2020
5204 Clear 6 1024 93 6000 2.1 290 06:35 09.04.2020
5205 Mist 6 1023 93 4000 1.5 280 05:49 09.04.2020
5206 Clear 6 1023 100 8000 1.5 280 05:24 09.04.2020
5207 Clouds 9 1023 81 10000 2.6 310 02:35 09.04.2020
5208 Clouds 10 1023 81 10000 2.6 320 01:46 09.04.2020
5209 Clouds 10 1023 81 10000 2.6 300 01:27 09.04.2020
5210 Clouds 10 1023 81 10000 3.1 310 00:54 09.04.2020
5211 Clouds 10 1023 81 10000 3.1 310 00:36 09.04.2020
5212 Clouds 11 1023 76 10000 2.1 300 00:18 09.04.2020
5213 Clouds 12 1023 62 10000 1.5 360 23:41 08.04.2020
5214 Clouds 12 1023 62 10000 1.5 360 23:41 08.04.2020
5215 Clouds 12 1023 66 10000 1 0 23:22 08.04.2020
5216 Clouds 13 1023 54 10000 2.1 10 22:44 08.04.2020
5217 Clouds 14 1023 54 10000 2.1 360 22:25 08.04.2020
5218 Clouds 14 1023 58 10000 3.1 30 21:57 08.04.2020
5219 Clouds 15 1023 58 10000 3.1 30 21:39 08.04.2020
5220 Rain 16 1023 59 0 4.1 360 21:21 08.04.2020
5221 Rain 16 1022 55 10000 4.6 350 21:00 08.04.2020
5222 Rain 17 1022 52 10000 3.6 350 20:40 08.04.2020
5223 Rain 18 1022 52 10000 3.6 350 20:21 08.04.2020
5224 Rain 19 1022 49 10000 3.1 350 19:59 08.04.2020
5225 Rain 20 1022 46 10000 3.6 330 19:40 08.04.2020
5226 Rain 20 1022 43 10000 4.6 330 19:21 08.04.2020
5227 Rain 21 1022 40 10000 4.1 330 18:45 08.04.2020
5228 Rain 22 1022 40 10000 4.1 330 18:27 08.04.2020
5229 Rain 22 1022 40 10000 3.1 330 17:57 08.04.2020
5230 Rain 22 1022 40 10000 3.1 330 17:39 08.04.2020
5231 Rain 23 1023 40 10000 3.6 230 17:20 08.04.2020
5232 Rain 23 1023 40 10000 3.6 230 16:55 08.04.2020
5233 Rain 23 1023 38 10000 2.1 0 16:37 08.04.2020
5234 Rain 23 1023 38 10000 2.1 0 16:19 08.04.2020
5235 Clouds 23 1024 43 10000 1.5 0 15:38 08.04.2020
5236 Clouds 23 1024 43 10000 1.5 0 15:20 08.04.2020
5237 Clouds 22 1024 46 10000 1.5 0 14:55 08.04.2020
5238 Clouds 22 1024 46 10000 1.5 0 14:37 08.04.2020
5239 Clouds 21 1024 46 10000 2.1 150 14:19 08.04.2020
5240 Clouds 21 1025 49 10000 2.1 140 13:44 08.04.2020
5241 Clouds 21 1025 49 10000 1.5 0 13:21 08.04.2020
5242 Clouds 20 1025 52 10000 0.5 60 12:54 08.04.2020
5243 Clouds 19 1025 52 10000 2.1 0 12:36 08.04.2020
5244 Clouds 17 1026 55 10000 2.6 150 12:18 08.04.2020
5245 Clouds 17 1026 55 10000 3.1 150 11:41 08.04.2020
5246 Clouds 17 1026 55 10000 3.1 150 11:41 08.04.2020
5247 Clouds 16 1026 58 10000 3.6 160 11:22 08.04.2020
5248 Clouds 16 1026 62 10000 2.1 140 10:58 08.04.2020
5249 Clouds 15 1026 58 10000 4.6 140 10:39 08.04.2020
5250 Clouds 14 1026 58 10000 4.6 140 10:20 08.04.2020
5251 Clouds 13 1027 62 10000 5.1 140 09:57 08.04.2020
5252 Clouds 12 1027 62 10000 5.1 140 09:39 08.04.2020
5253 Clouds 11 1027 57 10000 4.6 140 09:18 08.04.2020
5254 Clouds 11 1027 57 10000 4.6 140 09:18 08.04.2020
5255 Clouds 11 1027 57 10000 4.6 140 09:18 08.04.2020
5256 Clouds 11 1027 61 10000 4.6 130 08:56 08.04.2020
5257 Clouds 10 1027 61 10000 4.6 130 08:38 08.04.2020
5258 Clouds 10 1027 57 10000 3.6 130 08:20 08.04.2020
5259 Clouds 9 1027 61 10000 3.1 120 07:42 08.04.2020
5260 Clouds 8 1027 57 10000 4.1 110 07:20 08.04.2020
5261 Clear 9 1028 57 10000 3.1 110 06:23 08.04.2020
5262 Clear 9 1029 53 10000 4.6 100 04:54 08.04.2020
5263 Clouds 9 1030 53 10000 4.6 110 02:50 08.04.2020
5264 Clouds 10 1030 50 10000 5.1 110 02:21 08.04.2020
5265 Clouds 9 1030 61 10000 3.6 90 01:56 08.04.2020
5266 Clouds 9 1030 66 10000 3.6 80 01:28 08.04.2020
5267 Clouds 10 1030 61 10000 3.6 60 00:45 08.04.2020
5268 Clouds 10 1031 61 10000 3.6 60 00:25 08.04.2020
5269 Clouds 10 1031 61 10000 3.1 60 23:56 07.04.2020
5270 Clouds 10 1031 61 10000 3.1 60 23:37 07.04.2020
5271 Clouds 10 1031 57 10000 3.6 60 23:18 07.04.2020
5272 Clouds 10 1031 54 10000 3.6 60 22:54 07.04.2020
5273 Clouds 10 1031 54 10000 3.6 60 22:54 07.04.2020
5274 Clouds 11 1031 54 10000 3.6 60 22:36 07.04.2020
5275 Clouds 11 1031 54 10000 3.6 70 22:18 07.04.2020
5276 Clouds 11 1031 54 10000 3.1 70 21:42 07.04.2020
5277 Clouds 13 1031 47 10000 3.6 60 21:21 07.04.2020
5278 Clouds 13 1031 47 10000 3.1 60 20:58 07.04.2020
5279 Clouds 14 1031 47 10000 3.1 60 20:39 07.04.2020
5280 Clouds 14 1031 47 10000 3.1 60 20:21 07.04.2020
5281 Clouds 15 1031 44 10000 2.6 80 19:57 07.04.2020
5282 Clouds 16 1031 42 10000 3.6 60 19:38 07.04.2020
5283 Clouds 16 1031 42 10000 3.6 60 19:19 07.04.2020
5284 Clouds 17 1031 42 10000 4.1 90 18:58 07.04.2020
5285 Clouds 17 1031 39 10000 2.1 60 18:40 07.04.2020
5286 Clouds 17 1031 36 10000 3.6 90 18:20 07.04.2020
5287 Clouds 18 1031 36 10000 3.6 90 17:47 07.04.2020
5288 Clouds 18 1032 39 10000 3.1 0 17:24 07.04.2020
5289 Clouds 18 1032 39 10000 3.1 20 16:58 07.04.2020
5290 Clouds 18 1032 39 10000 3.1 20 16:40 07.04.2020
5291 Clouds 18 1032 39 10000 3.1 340 16:22 07.04.2020
5292 Clouds 18 1032 39 10000 3.1 340 15:43 07.04.2020
5293 Clouds 18 1032 45 10000 2.6 50 15:24 07.04.2020
5294 Clouds 17 1032 48 10000 1.5 0 14:55 07.04.2020
5295 Clouds 17 1032 48 10000 1.5 0 14:36 07.04.2020
5296 Clouds 17 1033 45 10000 2.1 0 14:18 07.04.2020
5297 Clouds 17 1033 48 10000 1.5 0 13:41 07.04.2020
5298 Clouds 17 1033 55 10000 1.5 0 13:19 07.04.2020
5299 Clouds 17 1033 55 10000 2.1 360 12:56 07.04.2020
5300 Clouds 16 1033 55 10000 2.1 360 12:37 07.04.2020
5301 Clouds 16 1033 55 10000 2.1 360 12:37 07.04.2020
5302 Clouds 15 1033 58 10000 2.1 350 12:19 07.04.2020
5303 Clouds 15 1033 67 10000 1 0 11:56 07.04.2020
5304 Clouds 15 1033 67 10000 1 0 11:38 07.04.2020
5305 Clouds 14 1033 76 10000 1 0 11:19 07.04.2020
5306 Clouds 12 1032 81 10000 1.5 320 10:39 07.04.2020
5307 Clouds 12 1032 100 6000 1.5 250 10:20 07.04.2020
5308 Mist 10 1032 93 1800 2.1 290 09:56 07.04.2020
5309 Mist 10 1032 93 1800 2.1 290 09:37 07.04.2020
5310 Fog 9 1031 100 800 2.1 300 09:18 07.04.2020
5311 Fog 9 1031 100 800 2.1 290 08:39 07.04.2020
5312 Mist 9 1029 100 4500 1 340 08:20 07.04.2020
5313 Mist 8 1029 100 4500 1 340 07:46 07.04.2020
5314 Fog 8 1029 100 10000 0.5 360 07:26 07.04.2020
5315 Fog 8 1029 100 800 1.5 270 06:53 07.04.2020
5316 Fog 9 1029 100 800 1.5 290 06:27 07.04.2020
5317 Clouds 9 1028 100 8000 2.1 300 05:59 07.04.2020
5318 Clouds 9 1028 93 9000 3.1 310 05:26 07.04.2020
5319 Clouds 10 1028 87 10000 3.6 290 04:31 07.04.2020
5320 Clear 10 1026 93 10000 3.1 290 03:23 07.04.2020
5321 Clear 11 1026 87 10000 1.5 300 02:47 07.04.2020
5322 Clear 11 1025 81 10000 2.1 280 01:43 07.04.2020
5323 Clear 11 1024 81 10000 3.1 300 01:23 07.04.2020
5324 Clear 12 1023 73 0 1.34 300 00:26 07.04.2020
5325 Clear 12 1023 71 10000 1.5 300 23:44 06.04.2020
5326 Clear 13 1023 66 10000 2.1 260 23:23 06.04.2020
5327 Clear 13 1022 54 10000 5.7 310 22:56 06.04.2020
5328 Clear 14 1022 54 10000 5.7 310 22:37 06.04.2020
5329 Clear 14 1022 54 10000 8.2 300 22:19 06.04.2020
5330 Clear 14 1021 47 10000 1 0 21:56 06.04.2020
5331 Clear 15 1021 47 10000 1 0 21:38 06.04.2020
5332 Clear 15 1021 44 10000 2.1 180 21:18 06.04.2020
5333 Clear 17 1020 42 10000 2.6 200 20:42 06.04.2020
5334 Clear 19 1020 37 10000 2.1 210 20:23 06.04.2020
5335 Clear 20 1020 37 10000 3.1 220 19:59 06.04.2020
5336 Clear 20 1020 37 10000 3.1 220 19:40 06.04.2020
5337 Clear 22 1019 35 10000 1.5 220 19:22 06.04.2020
5338 Clear 22 1019 30 10000 4.1 240 18:57 06.04.2020
5339 Clear 22 1019 30 10000 4.1 240 18:39 06.04.2020
5340 Clear 23 1019 25 10000 5.1 220 18:20 06.04.2020
5341 Clear 23 1019 28 10000 4.1 210 17:42 06.04.2020
5342 Clear 23 1019 28 10000 4.6 230 17:20 06.04.2020
5343 Clear 23 1019 30 10000 6.2 200 16:50 06.04.2020
5344 Clear 23 1019 28 10000 5.7 200 16:31 06.04.2020
5345 Clear 22 1019 30 10000 5.7 180 15:41 06.04.2020
5346 Clear 21 1019 37 10000 5.1 150 14:00 06.04.2020
5347 Clear 21 1019 37 10000 5.1 150 13:59 06.04.2020
5348 Clear 21 1019 37 10000 5.1 150 13:39 06.04.2020
5349 Clear 20 1019 39 10000 4.1 150 13:19 06.04.2020
5350 Clear 20 1019 39 10000 4.1 150 13:19 06.04.2020
5351 Clear 20 1019 39 10000 4.1 150 13:18 06.04.2020
5352 Clear 20 1019 39 10000 4.1 150 13:18 06.04.2020
5353 Clear 18 1019 44 10000 4.1 140 12:22 06.04.2020
5354 Clear 16 1019 44 10000 4.1 140 11:55 06.04.2020
5355 Clear 16 1019 44 10000 4.6 140 11:33 06.04.2020
5356 Clear 16 1019 44 10000 4.6 140 11:33 06.04.2020
5357 Clear 16 1019 44 10000 4.6 140 11:33 06.04.2020
5358 Clear 16 1019 44 10000 4.6 140 11:33 06.04.2020
5359 Clear 16 1019 44 10000 4.6 140 11:33 06.04.2020
5360 Clear 15 1019 47 10000 4.6 140 10:52 06.04.2020
5361 Clear 15 1019 47 10000 4.6 140 10:52 06.04.2020
5362 Clear 16 1019 47 10000 5.1 140 10:52 06.04.2020
5363 Clear 15 1019 47 10000 4.6 140 10:52 06.04.2020
5364 Clear 16 1019 47 10000 5.1 140 10:52 06.04.2020
5365 Clear 14 1019 47 10000 4.6 140 10:22 06.04.2020
5366 Clear 12 1019 57 10000 3.6 130 09:47 06.04.2020
5367 Clear 10 1019 57 10000 3.6 130 09:22 06.04.2020
5368 Clear 9 1019 65 10000 3.6 130 08:55 06.04.2020
5369 Clear 8 1019 65 10000 3.6 130 08:31 06.04.2020
5370 Clear 7 1019 79 10000 5.1 130 07:51 06.04.2020
5371 Clear 7 1019 79 10000 5.1 130 07:51 06.04.2020
5372 Clear 7 1019 79 10000 5.1 130 07:51 06.04.2020
5373 Clear 7 1019 79 10000 3.6 130 07:51 06.04.2020
5374 Clear 7 1019 79 10000 5.1 130 06:52 06.04.2020
5375 Clear 7 1019 79 10000 5.1 130 06:52 06.04.2020
5376 Clear 7 1019 79 10000 5.1 130 06:25 06.04.2020
5377 Clear 8 1019 61 10000 5.7 130 04:32 06.04.2020
5378 Clear 9 1020 76 10000 5.7 130 03:18 06.04.2020
5379 Clear 9 1020 76 10000 6.2 130 02:44 06.04.2020
5380 Clear 10 1020 74 10000 4.6 120 01:47 06.04.2020
5381 Clear 11 1020 74 10000 4.6 120 00:46 06.04.2020
5382 Clear 11 1020 74 10000 4.6 120 00:24 06.04.2020
5383 Clear 12 1021 46 10000 5.1 120 23:46 05.04.2020
5384 Clear 12 1021 46 10000 5.1 120 23:28 05.04.2020
5385 Clear 12 1021 46 10000 5.1 120 23:28 05.04.2020
5386 Clear 12 1021 46 10000 5.1 120 23:28 05.04.2020
5387 Clear 12 1021 46 10000 5.1 120 23:28 05.04.2020
5388 Clear 12 1021 46 10000 5.1 120 23:28 05.04.2020
5389 Clear 12 1021 46 10000 5.1 120 22:56 05.04.2020
5390 Clear 12 1021 43 10000 5.7 120 22:38 05.04.2020
5391 Clear 13 1021 43 10000 6.7 120 22:18 05.04.2020
5392 Clear 13 1021 43 10000 6.7 120 21:55 05.04.2020
5393 Clear 13 1021 41 10000 5.7 120 21:37 05.04.2020
5394 Clouds 13 1021 41 10000 4.6 120 21:18 05.04.2020
5395 Clouds 15 1021 38 10000 5.7 120 20:20 05.04.2020
5396 Clouds 15 1021 41 10000 6.2 120 20:20 05.04.2020
5397 Clouds 15 1021 38 10000 5.7 120 20:20 05.04.2020
5398 Clouds 15 1021 38 10000 5.7 120 20:20 05.04.2020
5399 Clouds 16 1021 38 10000 6.2 130 19:40 05.04.2020
5400 Clouds 16 1021 38 10000 6.2 130 19:22 05.04.2020
5401 Clouds 16 1021 38 10000 6.2 130 19:22 05.04.2020
5402 Clouds 17 1021 36 10000 7.2 130 18:45 05.04.2020
5403 Clouds 18 1022 39 10000 7.2 130 17:58 05.04.2020
5404 Clouds 18 1022 39 10000 7.2 130 17:58 05.04.2020
5405 Clouds 18 1022 39 10000 7.2 130 17:58 05.04.2020
5406 Clouds 18 1022 36 10000 6.7 140 17:39 05.04.2020
5407 Clouds 18 1022 34 10000 7.2 130 17:20 05.04.2020
5408 Clouds 18 1023 36 10000 7.7 140 16:44 05.04.2020
5409 Clouds 18 1023 36 10000 7.7 140 16:44 05.04.2020
5410 Clouds 18 1023 36 10000 7.7 140 16:44 05.04.2020
5411 Clouds 18 1023 36 10000 7.7 140 16:44 05.04.2020
5412 Clouds 18 1023 36 10000 7.7 140 16:44 05.04.2020
5413 Clouds 18 1023 33 10000 8.7 140 16:18 05.04.2020
5414 Clouds 18 1023 36 10000 7.7 140 15:43 05.04.2020
5415 Clouds 18 1023 36 10000 7.7 140 15:24 05.04.2020
5416 Clouds 18 1023 36 10000 7.7 140 15:24 05.04.2020
5417 Clouds 18 1023 36 10000 7.7 140 15:24 05.04.2020
5418 Clear 18 1024 36 10000 6.7 140 14:47 05.04.2020
5419 Clear 18 1024 36 10000 6.7 140 14:47 05.04.2020
5420 Clear 18 1024 36 10000 6.7 140 14:47 05.04.2020
5421 Clear 18 1024 36 10000 6.7 140 14:47 05.04.2020
5422 Clouds 17 1025 44 10000 6.2 140 13:45 05.04.2020
5423 Clouds 16 1025 44 10000 5.7 130 12:56 05.04.2020
5424 Clear 13 1026 50 10000 5.7 140 11:58 05.04.2020
5425 Clear 13 1026 50 10000 5.7 140 11:58 05.04.2020
5426 Clear 13 1026 50 10000 5.7 140 11:58 05.04.2020
5427 Clear 13 1026 50 10000 5.7 140 11:58 05.04.2020
5428 Clear 13 1026 50 10000 5.7 140 11:58 05.04.2020
5429 Clear 13 1026 50 10000 5.7 140 11:37 05.04.2020
5430 Clear 13 1026 53 10000 6.7 130 11:18 05.04.2020
5431 Clear 11 1027 53 10000 5.7 130 10:42 05.04.2020
5432 Clear 11 1026 61 0 1.34 105 10:19 05.04.2020
5433 Clear 9 1027 65 10000 5.7 120 09:48 05.04.2020
5434 Clear 9 1027 65 10000 5.7 120 09:48 05.04.2020
5435 Clear 9 1027 65 10000 5.7 120 09:48 05.04.2020
5436 Clear 9 1027 65 10000 5.7 120 09:48 05.04.2020
5437 Clear 8 1027 64 10000 5.7 120 09:25 05.04.2020
5438 Clear 8 1027 65 10000 5.7 120 09:25 05.04.2020
5439 Clear 8 1027 64 10000 5.7 120 09:25 05.04.2020
5440 Clear 8 1027 65 10000 5.7 120 09:25 05.04.2020
5441 Clear 8 1027 65 10000 5.7 120 09:25 05.04.2020
5442 Clouds 5 1027 69 10000 3.6 120 07:57 05.04.2020
5443 Clouds 4 1027 69 10000 3.6 120 07:55 05.04.2020
5444 Clouds 4 1026 65 10000 4.6 110 04:52 05.04.2020
5445 Clouds 4 1026 65 10000 4.6 110 04:52 05.04.2020
5446 Clouds 5 1026 60 10000 4.1 120 03:35 05.04.2020
5447 Clouds 5 1026 60 10000 4.1 120 03:35 05.04.2020
5448 Clouds 5 1026 60 10000 4.1 120 03:35 05.04.2020
5449 Clear 6 1026 60 10000 4.6 120 02:52 05.04.2020
5450 Clear 6 1027 56 10000 3.6 120 01:48 05.04.2020
5451 Clear 6 1027 56 10000 3.6 120 01:30 05.04.2020
5452 Clear 6 1027 56 10000 3.6 130 00:47 05.04.2020
5453 Clear 6 1027 56 10000 3.6 130 00:22 05.04.2020
5454 Clear 6 1027 56 10000 3.6 130 00:22 05.04.2020
5455 Clear 6 1027 56 10000 3.6 130 00:22 05.04.2020
5456 Clouds 6 1026 52 10000 3.6 130 23:57 04.04.2020
5457 Clouds 6 1026 73 10000 3.1 120 23:38 04.04.2020
5458 Clouds 6 1026 73 10000 3.6 120 23:20 04.04.2020
5459 Clouds 6 1026 73 10000 3.6 120 22:56 04.04.2020
5460 Clouds 6 1026 73 10000 2.1 110 22:37 04.04.2020
5461 Clouds 6 1026 70 10000 1.5 110 22:19 04.04.2020
5462 Clouds 7 1026 70 10000 1.5 110 21:55 04.04.2020
5463 Clouds 8 1026 65 10000 2.1 110 21:37 04.04.2020
5464 Clouds 9 1026 71 10000 1 100 21:18 04.04.2020
5465 Clouds 10 1026 71 10000 1.5 120 20:43 04.04.2020
5466 Clouds 10 1026 71 10000 1.5 120 20:23 04.04.2020
5467 Clouds 11 1025 71 10000 2.6 140 19:59 04.04.2020
5468 Clouds 12 1025 46 10000 3.1 140 19:38 04.04.2020
5469 Clouds 13 1025 43 0 3.1 130 19:20 04.04.2020
5470 Clouds 13 1025 43 0 3.1 130 18:58 04.04.2020
5471 Clouds 13 1025 71 10000 2.1 150 18:39 04.04.2020
5472 Clouds 14 1025 43 10000 1.5 150 18:19 04.04.2020
5473 Clouds 13 1025 43 10000 1.5 150 17:58 04.04.2020
5474 Clouds 14 1025 41 10000 2.6 180 17:38 04.04.2020
5475 Clouds 14 1025 43 10000 2.6 180 17:19 04.04.2020
5476 Clouds 13 1025 43 10000 3.1 220 16:43 04.04.2020
5477 Clouds 14 1025 43 10000 3.1 220 16:24 04.04.2020
5478 Clouds 14 1025 49 0 1.97 194 15:58 04.04.2020
5479 Clouds 14 1025 47 10000 2.6 220 15:38 04.04.2020
5480 Clouds 13 1025 43 10000 3.6 220 15:19 04.04.2020
5481 Clouds 13 1025 43 10000 3.6 220 15:19 04.04.2020
5482 Clouds 13 1025 43 10000 3.6 220 14:54 04.04.2020
5483 Clouds 13 1025 50 10000 3.6 220 14:36 04.04.2020
5484 Clouds 13 1025 50 10000 3.1 240 14:18 04.04.2020
5485 Clouds 13 1025 50 10000 4.1 230 13:42 04.04.2020
5486 Clouds 12 1025 50 10000 4.1 240 13:21 04.04.2020
5487 Clouds 12 1025 50 10000 4.1 240 13:21 04.04.2020
5488 Clouds 12 1025 50 10000 4.1 240 12:58 04.04.2020
5489 Clouds 12 1025 50 10000 4.6 220 12:40 04.04.2020
5490 Clouds 10 1025 53 10000 4.1 210 12:20 04.04.2020
5491 Clouds 10 1025 57 10000 5.1 220 11:42 04.04.2020
5492 Clouds 10 1025 57 10000 5.1 220 11:42 04.04.2020
5493 Clouds 9 1025 65 10000 4.1 200 11:23 04.04.2020
5494 Clouds 9 1025 65 10000 4.1 200 10:59 04.04.2020
5495 Clouds 8 1025 70 10000 3.1 210 10:41 04.04.2020
5496 Clouds 7 1025 70 10000 3.1 210 10:23 04.04.2020
5497 Clouds 6 1024 75 10000 3.1 200 09:57 04.04.2020
5498 Clouds 5 1024 75 10000 2.1 200 09:39 04.04.2020
5499 Clouds 4 1024 75 10000 2.1 200 09:21 04.04.2020
5500 Clear 3 1023 88 10000 2.1 170 08:45 04.04.2020
5501 Clear 3 1023 88 10000 2.1 170 08:25 04.04.2020
5502 Clear 2 1023 86 10000 1.5 160 07:59 04.04.2020
5503 Clear 1 1023 88 10000 1.5 160 07:40 04.04.2020
5504 Clear 0 1022 92 10000 1.5 180 07:21 04.04.2020
5505 Clear 0 1022 92 10000 2.1 200 06:40 04.04.2020
5506 Clear 0 1022 92 10000 1.5 220 05:52 04.04.2020
5507 Clear 0 1022 92 10000 1.5 220 05:52 04.04.2020
5508 Clear 0 1022 92 10000 1.5 220 05:33 04.04.2020
5509 Clear 0 1021 97 10000 1.5 220 04:40 04.04.2020
5510 Clear 0 1021 97 10000 1 0 04:20 04.04.2020
5511 Clear 1 1021 97 10000 1.5 220 03:45 04.04.2020
5512 Clouds 1 1021 86 10000 1 230 02:49 04.04.2020
5513 Clouds 1 1021 86 10000 1 230 02:30 04.04.2020
5514 Clouds 2 1020 86 10000 2.6 240 01:48 04.04.2020
5515 Clouds 2 1020 80 10000 2.1 240 01:21 04.04.2020
5516 Clouds 3 1020 80 10000 2.1 260 00:45 04.04.2020
5517 Clouds 3 1020 80 10000 2.1 260 00:26 04.04.2020
5518 Clouds 4 1019 69 10000 2.1 280 23:39 03.04.2020
5519 Clouds 5 1019 69 10000 2.1 280 23:20 03.04.2020
5520 Clouds 5 1019 69 10000 2.6 280 22:56 03.04.2020
5521 Clouds 5 1019 65 10000 2.1 300 22:37 03.04.2020
5522 Clouds 6 1018 60 10000 3.1 300 22:18 03.04.2020
5523 Clouds 6 1018 60 10000 3.6 300 21:43 03.04.2020
5524 Clouds 6 1018 52 10000 4.1 300 21:22 03.04.2020
5525 Clouds 7 1018 52 10000 4.1 300 20:56 03.04.2020
5526 Clouds 7 1017 52 10000 4.1 290 20:37 03.04.2020
5527 Clouds 7 1017 52 10000 4.1 300 20:19 03.04.2020
5528 Clouds 7 1017 52 10000 4.1 300 20:19 03.04.2020
5529 Clouds 7 1017 52 10000 4.1 300 19:56 03.04.2020
5530 Clouds 8 1017 45 10000 4.1 300 19:38 03.04.2020
5531 Clouds 8 1016 45 10000 4.1 300 19:19 03.04.2020
5532 Clouds 8 1016 45 10000 4.1 300 18:58 03.04.2020
5533 Clouds 8 1016 52 10000 5.7 300 18:40 03.04.2020
5534 Rain 8 1016 72 10000 5.1 290 18:22 03.04.2020
5535 Rain 9 1015 57 10000 5.7 300 17:54 03.04.2020
5536 Rain 9 1015 57 10000 5.7 300 17:36 03.04.2020
5537 Rain 9 1015 52 10000 6.2 320 17:18 03.04.2020
5538 Clouds 9 1015 49 10000 6.2 300 16:42 03.04.2020
5539 Clouds 9 1015 49 10000 5.7 270 16:21 03.04.2020
5540 Clouds 9 1015 49 10000 5.7 270 15:58 03.04.2020
5541 Clouds 9 1015 49 10000 6.7 280 15:39 03.04.2020
5542 Clouds 9 1015 49 10000 5.7 290 15:20 03.04.2020
5543 Rain 9 1015 55 0 0.89 337 14:55 03.04.2020
5544 Rain 9 1014 42 10000 6.7 290 14:37 03.04.2020
5545 Rain 9 1014 42 10000 6.7 290 14:19 03.04.2020
5546 Rain 9 1014 42 10000 6.7 290 13:42 03.04.2020
5547 Rain 9 1014 42 10000 6.7 290 13:24 03.04.2020
5548 Rain 9 1014 45 10000 7.2 290 12:55 03.04.2020
5549 Rain 9 1014 42 10000 8.7 300 12:37 03.04.2020
5550 Clear 8 1014 45 10000 9.3 290 12:18 03.04.2020
5551 Clouds 8 1013 49 10000 6.7 290 11:41 03.04.2020
5552 Clouds 8 1013 49 10000 6.7 290 11:23 03.04.2020
5553 Clouds 8 1013 49 10000 7.7 310 10:59 03.04.2020
5554 Clouds 7 1013 52 10000 9.3 300 10:40 03.04.2020
5555 Clouds 7 1012 56 10000 7.7 300 10:21 03.04.2020
5556 Clouds 7 1012 56 10000 7.7 300 09:59 03.04.2020
5557 Clear 6 1012 70 10000 6.7 290 09:40 03.04.2020
5558 Clear 5 1012 70 10000 6.7 290 09:22 03.04.2020
5559 Clear 5 1012 70 10000 6.7 290 09:22 03.04.2020
5560 Clear 5 1012 70 10000 5.1 280 08:57 03.04.2020
5561 Clouds 4 1011 75 10000 3.6 270 08:39 03.04.2020
5562 Clouds 4 1011 80 10000 4.1 270 08:20 03.04.2020
5563 Clouds 3 1011 85 10000 3.6 260 07:50 03.04.2020
5564 Clouds 3 1011 85 10000 3.6 260 07:31 03.04.2020
5565 Clear 4 1010 85 10000 3.6 250 06:49 03.04.2020
5566 Clear 4 1010 86 10000 3.6 270 06:24 03.04.2020
5567 Clouds 4 1009 80 10000 4.1 270 05:40 03.04.2020
5568 Clouds 4 1008 80 10000 4.6 270 03:45 03.04.2020
5569 Clouds 4 1008 80 10000 4.6 270 03:23 03.04.2020
5570 Rain 5 1008 75 10000 5.1 280 02:28 03.04.2020
5571 Clouds 5 1008 75 10000 5.7 290 01:23 03.04.2020
5572 Rain 6 1007 87 8000 9.8 290 00:41 03.04.2020
5573 Clouds 7 1007 81 10000 7.7 260 00:20 03.04.2020
5574 Clouds 7 1007 87 10000 7.7 260 23:42 02.04.2020
5575 Clouds 7 1007 87 10000 7.7 260 23:42 02.04.2020
5576 Clouds 8 1007 87 10000 7.7 260 23:23 02.04.2020
5577 Clouds 8 1007 81 10000 7.7 260 22:59 02.04.2020
5578 Clouds 8 1007 81 10000 6.7 260 22:41 02.04.2020
5579 Clouds 8 1007 81 10000 6.7 260 22:41 02.04.2020
5580 Rain 7 1007 87 10000 6.7 250 22:20 02.04.2020
5581 Rain 8 1006 84 0 2.24 267 21:55 02.04.2020
5582 Clouds 8 1007 75 10000 7.2 250 21:36 02.04.2020
5583 Rain 8 1007 75 10000 7.2 260 21:18 02.04.2020
5584 Clouds 8 1007 66 10000 7.7 260 20:42 02.04.2020
5585 Clouds 9 1007 61 10000 7.7 260 20:23 02.04.2020
5586 Clouds 9 1007 61 10000 7.7 260 19:55 02.04.2020
5587 Clouds 9 1007 61 10000 7.2 260 19:37 02.04.2020
5588 Clouds 9 1007 57 10000 8.7 250 19:19 02.04.2020
5589 Clouds 10 1007 57 10000 9.3 250 18:42 02.04.2020
5590 Clouds 10 1007 57 10000 7.7 250 18:21 02.04.2020
5591 Clouds 10 1007 57 10000 7.7 250 17:59 02.04.2020
5592 Clouds 10 1007 57 10000 7.7 250 17:59 02.04.2020
5593 Clouds 10 1008 57 10000 7.2 250 17:40 02.04.2020
5594 Clouds 10 1008 57 10000 7.2 250 17:22 02.04.2020
5595 Clouds 10 1008 53 10000 7.7 250 16:57 02.04.2020
5596 Clouds 10 1008 57 10000 7.7 250 16:39 02.04.2020
5597 Clouds 10 1008 53 10000 7.7 250 16:21 02.04.2020
5598 Clouds 10 1008 53 10000 7.7 250 15:56 02.04.2020
5599 Clouds 10 1009 53 10000 9.3 240 15:38 02.04.2020
5600 Clouds 10 1009 53 10000 8.2 250 15:18 02.04.2020
5601 Clouds 10 1009 53 10000 8.2 250 14:55 02.04.2020
5602 Clouds 10 1010 62 10000 8.7 250 14:37 02.04.2020
5603 Clouds 10 1010 62 10000 8.7 230 14:18 02.04.2020
5604 Clouds 10 1010 62 10000 8.7 230 13:54 02.04.2020
5605 Clouds 10 1010 62 10000 8.7 230 13:36 02.04.2020
5606 Clouds 10 1010 62 10000 8.2 240 13:18 02.04.2020
5607 Clouds 10 1011 53 10000 8.2 250 12:41 02.04.2020
5608 Clouds 9 1011 57 10000 8.2 240 12:19 02.04.2020
5609 Clouds 9 1011 57 10000 8.2 240 11:57 02.04.2020
5610 Clouds 9 1012 57 10000 8.7 250 11:39 02.04.2020
5611 Clouds 9 1012 65 10000 6.7 240 11:20 02.04.2020
5612 Clouds 8 1012 65 10000 6.7 240 10:56 02.04.2020
5613 Clouds 8 1012 70 10000 5.7 250 10:38 02.04.2020
5614 Clouds 7 1012 70 10000 5.7 240 10:20 02.04.2020
5615 Clouds 7 1012 70 10000 5.7 240 09:58 02.04.2020
5616 Clouds 7 1012 70 10000 5.7 240 09:58 02.04.2020
5617 Clear 6 1012 81 10000 4.6 240 09:39 02.04.2020
5618 Clouds 5 1013 75 10000 4.1 250 09:20 02.04.2020
5619 Clouds 5 1013 80 10000 4.1 240 08:47 02.04.2020
5620 Clouds 5 1013 80 10000 4.1 240 08:28 02.04.2020
5621 Clouds 5 1013 80 10000 3.6 240 07:54 02.04.2020
5622 Clouds 4 1013 80 10000 4.1 240 07:36 02.04.2020
5623 Clouds 4 1013 80 10000 3.6 240 07:18 02.04.2020
5624 Clouds 4 1013 80 10000 3.6 240 06:23 02.04.2020
5625 Clouds 4 1014 80 10000 4.1 250 05:46 02.04.2020
5626 Clouds 4 1014 80 10000 4.1 250 05:46 02.04.2020
5627 Clouds 4 1014 80 10000 3.6 250 04:55 02.04.2020
5628 Clouds 5 1015 75 10000 3.1 260 02:19 02.04.2020
5629 Clouds 5 1016 80 10000 3.6 260 00:59 02.04.2020
5630 Clouds 5 1016 80 10000 3.1 250 00:41 02.04.2020
5631 Clouds 5 1016 80 10000 3.1 260 00:19 02.04.2020
5632 Clouds 5 1016 80 10000 3.1 260 23:39 01.04.2020
5633 Clouds 5 1016 86 10000 3.1 260 23:19 01.04.2020
5634 Clouds 6 1016 86 10000 3.1 260 22:56 01.04.2020
5635 Clouds 6 1017 86 10000 3.1 260 22:38 01.04.2020
5636 Clouds 6 1017 81 10000 4.1 270 22:19 01.04.2020
5637 Clouds 6 1017 81 10000 4.1 270 21:41 01.04.2020
5638 Rain 6 1017 81 10000 3.6 270 21:19 01.04.2020
5639 Rain 6 1017 81 10000 3.6 270 20:56 01.04.2020
5640 Clouds 6 1017 81 10000 4.1 270 20:38 01.04.2020
5641 Clouds 6 1017 81 10000 4.6 270 20:19 01.04.2020
5642 Clouds 6 1017 81 10000 4.6 270 19:58 01.04.2020
5643 Clouds 7 1017 81 10000 4.6 270 19:38 01.04.2020
5644 Rain 7 1016 80 0 0.89 290 19:19 01.04.2020
5645 Clouds 7 1017 70 10000 4.6 260 18:42 01.04.2020
5646 Clouds 7 1017 70 10000 4.6 260 18:42 01.04.2020
5647 Clouds 7 1017 70 10000 6.2 260 18:23 01.04.2020
5648 Clouds 7 1017 70 10000 6.2 260 17:57 01.04.2020
5649 Clouds 8 1018 65 10000 4.1 270 17:38 01.04.2020
5650 Clouds 8 1018 70 10000 6.2 270 17:19 01.04.2020
5651 Clouds 8 1018 70 10000 6.2 270 17:19 01.04.2020
5652 Clouds 8 1018 70 10000 6.2 270 16:58 01.04.2020
5653 Clouds 8 1018 65 10000 4.6 260 16:39 01.04.2020
5654 Clouds 8 1019 70 10000 4.6 250 16:21 01.04.2020
5655 Clouds 8 1019 70 10000 4.6 250 15:57 01.04.2020
5656 Clouds 8 1019 70 10000 5.7 260 15:37 01.04.2020
5657 Clouds 8 1019 70 10000 6.2 270 15:18 01.04.2020
5658 Clouds 8 1019 70 10000 6.2 270 14:55 01.04.2020
5659 Clouds 8 1019 70 10000 6.2 270 14:55 01.04.2020
5660 Clouds 8 1019 70 10000 7.2 270 14:36 01.04.2020
5661 Clouds 8 1020 65 10000 5.7 260 14:18 01.04.2020
5662 Clouds 8 1020 65 10000 5.7 260 13:55 01.04.2020
5663 Clouds 8 1020 61 10000 5.7 260 13:36 01.04.2020
5664 Clouds 8 1020 65 10000 5.1 270 13:18 01.04.2020
5665 Clouds 8 1021 65 10000 6.2 280 12:42 01.04.2020
5666 Clouds 8 1021 65 10000 6.2 280 12:23 01.04.2020
5667 Clouds 7 1021 70 10000 6.2 270 11:59 01.04.2020
5668 Clouds 7 1021 65 10000 6.7 250 11:39 01.04.2020
5669 Clouds 7 1021 70 10000 6.7 260 11:20 01.04.2020
5670 Clouds 6 1021 70 10000 6.7 260 10:56 01.04.2020
5671 Clouds 5 1022 70 10000 5.1 250 10:37 01.04.2020
5672 Clouds 4 1022 70 10000 4.6 240 10:18 01.04.2020
5673 Rain 3 1022 74 10000 3.6 240 09:40 01.04.2020
5674 Rain 3 1022 74 10000 3.6 240 09:40 01.04.2020
5675 Rain 3 1022 74 10000 3.6 240 09:21 01.04.2020
5676 Clouds 2 1022 74 10000 2.1 250 08:59 01.04.2020
5677 Clouds 1 1023 80 10000 2.1 250 08:40 01.04.2020
5678 Clouds 1 1023 87 10000 1.5 260 08:18 01.04.2020
5679 Clouds 0 1023 87 10000 1.5 230 07:42 01.04.2020
5680 Clouds 0 1023 86 10000 2.1 220 07:20 01.04.2020
5681 Clouds -1 1023 80 10000 1.5 230 06:47 01.04.2020
5682 Clouds -1 1023 79 10000 1 0 06:22 01.04.2020
5683 Clouds -1 1023 79 10000 1 0 05:55 01.04.2020
5684 Clear -2 1024 79 10000 1.5 220 04:30 01.04.2020
5685 Clear -2 1025 79 10000 1.5 270 03:28 01.04.2020
5686 Clear -2 1026 79 10000 1.5 240 02:49 01.04.2020
5687 Clear -2 1026 79 10000 1.5 250 01:56 01.04.2020
5688 Clear -2 1026 86 10000 1.5 200 01:36 01.04.2020
5689 Clear -1 1027 80 10000 1.5 220 01:18 01.04.2020
5690 Clear -1 1027 80 10000 1 220 00:43 01.04.2020
5691 Clear -1 1027 80 10000 1.5 220 00:18 01.04.2020
5692 Clear 0 1027 92 10000 1.5 230 23:41 31.03.2020
5693 Clear 0 1026 67 0 0.81 306 23:23 31.03.2020
5694 Clear 0 1026 67 0 0.81 306 23:23 31.03.2020
5695 Clear 1 1028 55 10000 2.1 350 22:57 31.03.2020
5696 Clear 1 1028 55 10000 2.1 350 22:36 31.03.2020
5697 Clear 1 1027 66 0 0.89 317 22:18 31.03.2020
5698 Clear 1 1027 66 0 0.89 355 21:55 31.03.2020
5699 Clear 2 1024 84 0 0.81 306 21:37 31.03.2020
5700 Clouds 3 1028 56 10000 4.1 350 21:19 31.03.2020
5701 Clouds 3 1028 56 10000 4.1 350 20:54 31.03.2020
5702 Clouds 4 1028 52 0 3.6 310 20:36 31.03.2020
5703 Clouds 4 1028 52 0 3.6 310 20:36 31.03.2020
5704 Clouds 5 1028 52 0 3.6 310 20:18 31.03.2020
5705 Clouds 6 1028 45 10000 2.6 290 19:41 31.03.2020
5706 Clouds 6 1027 57 0 0.89 309 19:22 31.03.2020
5707 Clouds 7 1029 45 10000 2.1 320 18:56 31.03.2020
5708 Clouds 7 1029 45 10000 2.1 320 18:37 31.03.2020
5709 Clouds 7 1029 42 10000 3.1 300 18:18 31.03.2020
5710 Clouds 8 1029 39 10000 2.1 220 17:54 31.03.2020
5711 Clouds 8 1029 39 10000 2.1 220 17:36 31.03.2020
5712 Clouds 7 1029 42 10000 2.1 310 17:18 31.03.2020
5713 Clouds 8 1030 45 10000 1.5 0 16:39 31.03.2020
5714 Clouds 7 1030 45 10000 2.6 230 16:19 31.03.2020
5715 Clouds 7 1030 45 10000 2.6 230 15:57 31.03.2020
5716 Clouds 7 1030 45 10000 2.1 0 15:39 31.03.2020
5717 Clouds 7 1031 45 10000 1.5 130 15:20 31.03.2020
5718 Clouds 7 1031 45 10000 1.5 130 15:20 31.03.2020
5719 Clouds 8 1031 52 10000 2.1 170 14:57 31.03.2020
5720 Clouds 7 1031 52 10000 2.1 170 14:38 31.03.2020
5721 Clouds 7 1031 48 10000 1 0 14:20 31.03.2020
5722 Clouds 7 1031 56 10000 1 0 13:43 31.03.2020
5723 Clouds 7 1032 60 10000 1 0 13:19 31.03.2020
5724 Clouds 7 1032 60 10000 1 0 13:19 31.03.2020
5725 Clouds 7 1032 60 10000 1 0 12:56 31.03.2020
5726 Clouds 6 1032 65 10000 1 0 12:38 31.03.2020
5727 Clouds 5 1032 65 10000 1.5 0 12:19 31.03.2020
5728 Clouds 5 1032 69 10000 2.1 0 11:39 31.03.2020
5729 Clouds 5 1032 64 10000 1 0 11:20 31.03.2020
5730 Clouds 4 1032 64 10000 1 0 10:58 31.03.2020
5731 Clear 4 1032 69 10000 1.5 60 10:40 31.03.2020
5732 Clear 3 1032 69 10000 2.1 80 10:21 31.03.2020
5733 Clear 3 1032 69 10000 2.1 80 09:57 31.03.2020
5734 Clear 2 1032 69 10000 2.1 50 09:39 31.03.2020
5735 Clear 1 1032 69 10000 2.1 50 09:21 31.03.2020
5736 Clouds 0 1032 69 10000 2.6 60 08:57 31.03.2020
5737 Clouds 0 1032 94 10000 2.1 30 08:38 31.03.2020
5738 Clouds -1 1031 94 10000 1.5 40 08:19 31.03.2020
5739 Clouds -1 1031 94 10000 1.5 40 07:56 31.03.2020
5740 Clouds -2 1031 74 10000 2.6 30 07:37 31.03.2020
5741 Clouds -3 1031 74 10000 3.6 30 07:18 31.03.2020
5742 Clouds -3 1031 94 10000 3.6 20 06:45 31.03.2020
5743 Clear -2 1030 95 10000 3.6 20 06:18 31.03.2020
5744 Clear -2 1030 95 10000 3.1 10 05:39 31.03.2020
5745 Clear -1 1030 95 10000 3.6 30 03:34 31.03.2020
5746 Clear 0 1030 69 10000 3.6 30 01:59 31.03.2020
5747 Clear 0 1029 69 10000 3.6 30 01:40 31.03.2020
5748 Clear 1 1029 74 10000 3.1 30 00:47 31.03.2020
5749 Clear 1 1029 74 10000 3.1 30 00:25 31.03.2020
5750 Clear 1 1029 69 10000 4.1 30 23:56 30.03.2020
5751 Clear 2 1029 69 10000 4.1 30 23:37 30.03.2020
5752 Clear 2 1028 69 10000 4.1 30 23:18 30.03.2020
5753 Clear 2 1028 69 10000 4.1 30 22:55 30.03.2020
5754 Clouds 2 1028 86 10000 4.1 30 22:36 30.03.2020
5755 Clouds 2 1028 80 10000 4.6 20 22:18 30.03.2020
5756 Clouds 3 1028 80 10000 4.6 20 21:54 30.03.2020
5757 Clouds 3 1027 93 10000 1 310 21:36 30.03.2020
5758 Clouds 3 1027 93 10000 0.5 0 21:18 30.03.2020
5759 Clouds 4 1026 93 10000 1.5 30 20:40 30.03.2020
5760 Clouds 4 1026 93 10000 1.5 30 20:22 30.03.2020
5761 Clouds 5 1026 86 10000 2.1 50 19:59 30.03.2020
5762 Clouds 4 1026 86 10000 1.5 50 19:40 30.03.2020
5763 Clouds 5 1025 86 10000 2.1 30 19:21 30.03.2020
5764 Clouds 5 1025 86 10000 2.1 30 18:56 30.03.2020
5765 Clouds 5 1025 86 10000 1 0 18:38 30.03.2020
5766 Clouds 5 1025 86 10000 1 0 18:38 30.03.2020
5767 Rain 5 1025 93 7000 5.1 40 18:19 30.03.2020
5768 Rain 6 1025 93 7000 5.1 40 17:56 30.03.2020
5769 Rain 6 1025 93 7000 5.1 40 17:56 30.03.2020
5770 Rain 6 1025 93 7000 5.1 40 17:56 30.03.2020
5771 Clouds 7 1025 80 10000 9.3 60 17:37 30.03.2020
5772 Clouds 7 1024 70 10000 6.2 330 17:18 30.03.2020
5773 Clouds 7 1024 81 10000 1.5 10 16:55 30.03.2020
5774 Clouds 7 1024 81 10000 1.5 10 16:36 30.03.2020
5775 Clouds 7 1025 81 10000 2.1 40 16:18 30.03.2020
5776 Clouds 7 1025 81 10000 4.6 320 15:54 30.03.2020
5777 Clouds 7 1025 81 10000 4.6 320 15:36 30.03.2020
5778 Clouds 6 1025 81 10000 3.6 330 15:18 30.03.2020
5779 Rain 7 1025 81 10000 4.1 320 14:39 30.03.2020
5780 Rain 6 1026 86 10000 4.1 300 14:19 30.03.2020
5781 Rain 6 1026 86 10000 4.1 300 13:59 30.03.2020
5782 Clouds 6 1026 93 10000 3.6 290 13:40 30.03.2020
5783 Clouds 5 1026 93 3000 10.3 310 13:20 30.03.2020
5784 Clouds 5 1026 93 3000 10.3 310 12:56 30.03.2020
5785 Clouds 5 1026 75 10000 5.7 280 12:37 30.03.2020
5786 Clouds 5 1027 75 10000 5.1 260 12:19 30.03.2020
5787 Clouds 5 1027 75 10000 5.1 260 11:55 30.03.2020
5788 Clouds 5 1027 80 10000 5.7 270 11:37 30.03.2020
5789 Clouds 4 1028 86 10000 4.6 260 11:18 30.03.2020
5790 Clouds 3 1028 93 6000 4.1 250 10:39 30.03.2020
5791 Snow 2 1028 93 6000 4.1 260 10:21 30.03.2020
5792 Snow 2 1028 93 6000 4.1 260 10:21 30.03.2020
5793 Snow 2 1028 93 6000 4.1 260 09:55 30.03.2020
5794 Snow 1 1028 80 8000 4.1 270 09:37 30.03.2020
5795 Snow 1 1028 80 10000 4.1 250 09:18 30.03.2020
5796 Clouds 0 1029 88 10000 3.1 240 08:40 30.03.2020
5797 Clouds 0 1029 88 10000 3.1 240 08:22 30.03.2020
5798 Snow 0 1029 80 10000 2.1 240 07:49 30.03.2020
5799 Snow -1 1029 80 10000 2.1 240 07:27 30.03.2020
5800 Clouds -1 1030 79 10000 2.1 250 06:54 30.03.2020
5801 Clouds -1 1030 79 10000 2.1 250 06:31 30.03.2020
5802 Clouds -1 1030 79 10000 2.1 250 06:31 30.03.2020
5803 Clouds -2 1031 73 10000 1.5 230 05:52 30.03.2020
5804 Clouds -2 1031 73 10000 1.5 250 05:18 30.03.2020
5805 Clouds -3 1031 68 10000 2.1 220 04:22 30.03.2020
5806 Clouds -4 1032 73 10000 1.5 270 03:38 30.03.2020
5807 Clear -3 1033 79 10000 2.1 220 02:37 30.03.2020
5808 Clear -3 1033 68 10000 1 240 01:35 30.03.2020
5809 Clear -2 1034 58 10000 1.5 290 00:49 30.03.2020
5810 Clear -1 1034 58 10000 2.6 310 00:22 30.03.2020
5811 Clear -1 1034 58 10000 3.1 310 23:42 29.03.2020
5812 Clear -1 1033 54 10000 2.1 300 23:23 29.03.2020
5813 Clear -1 1033 54 10000 2.1 300 22:58 29.03.2020
5814 Clear 0 1033 40 10000 1.5 340 22:38 29.03.2020
5815 Clear 0 1033 43 10000 3.1 20 22:19 29.03.2020
5816 Clear 1 1033 43 10000 3.1 20 21:57 29.03.2020
5817 Clear 1 1033 40 10000 3.6 20 21:36 29.03.2020
5818 Clear 1 1033 40 10000 3.6 20 21:36 29.03.2020
5819 Clouds 1 1033 40 10000 4.1 20 21:18 29.03.2020
5820 Clouds 2 1033 40 10000 4.1 20 20:55 29.03.2020
5821 Clouds 2 1033 37 10000 5.7 20 20:36 29.03.2020
5822 Clouds 3 1033 34 10000 7.2 20 20:18 29.03.2020
5823 Clouds 4 1032 32 10000 8.2 30 19:54 29.03.2020
5824 Clouds 4 1032 32 10000 8.2 30 19:36 29.03.2020
5825 Clouds 4 1032 29 10000 8.2 20 19:18 29.03.2020
5826 Clouds 5 1032 30 10000 7.7 20 18:54 29.03.2020
5827 Clouds 5 1032 30 10000 7.7 20 18:36 29.03.2020
5828 Clouds 5 1031 35 10000 8.7 20 18:18 29.03.2020
5829 Clouds 6 1031 28 10000 9.3 20 17:42 29.03.2020
5830 Clouds 6 1031 33 10000 8.7 20 17:22 29.03.2020
5831 Clouds 6 1031 33 10000 8.7 20 16:58 29.03.2020
5832 Clouds 6 1031 41 10000 8.2 30 16:40 29.03.2020
5833 Clouds 6 1030 44 10000 8.7 30 16:21 29.03.2020
5834 Clouds 6 1030 44 10000 8.7 30 15:58 29.03.2020
5835 Clouds 6 1030 45 10000 9.8 30 15:40 29.03.2020
5836 Clouds 6 1030 52 10000 10.3 40 15:20 29.03.2020
5837 Clouds 6 1030 52 10000 10.3 40 14:56 29.03.2020
5838 Clouds 6 1030 56 10000 10.3 20 14:37 29.03.2020
5839 Clouds 6 1030 56 10000 10.8 40 14:19 29.03.2020
5840 Rain 5 1030 69 10000 9.3 20 13:55 29.03.2020
5841 Rain 5 1030 69 10000 9.3 20 13:37 29.03.2020
5842 Snow 5 1029 68 10000 10.3 20 13:18 29.03.2020
5843 Snow 4 1029 68 10000 10.3 40 12:54 29.03.2020
5844 Snow 4 1029 68 10000 10.3 40 12:54 29.03.2020
5845 Snow 4 1029 68 10000 10.3 40 12:36 29.03.2020
5846 Snow 3 1029 87 10000 11.3 30 12:18 29.03.2020
5847 Snow 3 1028 74 10000 12.3 30 11:38 29.03.2020
5848 Snow 3 1027 87 10000 11.3 30 11:20 29.03.2020
5849 Snow 2 1027 87 10000 10.8 20 10:40 29.03.2020
5850 Snow 2 1027 87 4800 9.8 20 10:21 29.03.2020
5851 Snow 2 1027 87 4800 9.8 20 09:59 29.03.2020
5852 Snow 2 1026 87 8000 10.3 20 09:38 29.03.2020
5853 Snow 2 1025 80 10000 10.8 20 09:19 29.03.2020
5854 Clouds 3 1025 74 10000 9.8 20 08:48 29.03.2020
5855 Clouds 3 1025 74 10000 9.8 20 08:27 29.03.2020
5856 Clouds 3 1024 74 10000 8.2 360 07:56 29.03.2020
5857 Clouds 3 1024 74 10000 8.7 360 07:38 29.03.2020
5858 Clouds 4 1024 64 10000 8.2 10 07:19 29.03.2020
5859 Clouds 3 1023 64 10000 5.7 350 04:59 29.03.2020
5860 Clouds 4 1023 52 10000 6.7 350 03:48 29.03.2020
5861 Clouds 4 1023 52 10000 6.7 350 03:26 29.03.2020
5862 Rain 5 1023 48 10000 8.2 360 01:50 29.03.2020
5863 Clouds 5 1023 52 10000 6.7 350 01:23 29.03.2020
5864 Clouds 5 1022 81 10000 5.7 340 00:53 29.03.2020
5865 Clouds 5 1022 81 10000 5.7 340 00:30 29.03.2020
5866 Clouds 5 1022 80 10000 5.7 300 23:42 28.03.2020
5867 Clouds 5 1022 80 10000 6.2 310 23:23 28.03.2020
5868 Clouds 5 1022 80 10000 6.2 310 22:58 28.03.2020
5869 Clouds 5 1021 84 0 1.79 312 22:38 28.03.2020
5870 Clouds 5 1023 75 10000 6.7 320 22:20 28.03.2020
5871 Clouds 5 1023 75 10000 6.7 320 21:54 28.03.2020
5872 Clouds 5 1023 75 10000 6.7 320 21:36 28.03.2020
5873 Clouds 5 1023 75 10000 5.7 320 21:18 28.03.2020
5874 Clouds 5 1023 70 10000 6.2 330 20:41 28.03.2020
5875 Clouds 5 1023 70 10000 6.2 330 20:23 28.03.2020
5876 Clouds 6 1023 70 10000 6.7 330 19:57 28.03.2020
5877 Clouds 6 1023 70 10000 6.2 330 19:39 28.03.2020
5878 Clouds 6 1023 65 10000 8.7 330 19:20 28.03.2020
5879 Clouds 7 1023 65 10000 8.7 330 18:58 28.03.2020
5880 Clouds 7 1022 70 10000 7.7 330 18:39 28.03.2020
5881 Clouds 8 1022 61 10000 8.7 330 18:19 28.03.2020
5882 Clouds 8 1022 70 10000 8.7 320 17:39 28.03.2020
5883 Clouds 9 1022 66 10000 8.7 320 17:20 28.03.2020
5884 Clouds 10 1022 61 10000 8.7 320 16:55 28.03.2020
5885 Clouds 10 1022 61 10000 8.7 320 16:37 28.03.2020
5886 Clouds 11 1022 61 10000 7.2 320 16:18 28.03.2020
5887 Clouds 11 1022 57 10000 8.2 320 15:39 28.03.2020
5888 Clouds 12 1022 61 10000 6.7 340 15:19 28.03.2020
5889 Clouds 12 1022 61 10000 6.7 340 14:56 28.03.2020
5890 Clouds 12 1023 50 10000 6.7 320 14:38 28.03.2020
5891 Clouds 12 1023 53 10000 6.7 330 14:20 28.03.2020
5892 Clear 12 1023 57 10000 7.2 310 13:40 28.03.2020
5893 Clear 13 1023 37 10000 4.6 350 13:22 28.03.2020
5894 Clear 12 1023 40 10000 5.1 360 12:40 28.03.2020
5895 Clear 12 1024 56 10000 5.1 360 12:22 28.03.2020
5896 Clear 12 1024 56 10000 5.1 360 12:22 28.03.2020
5897 Clear 12 1024 53 10000 5.1 360 11:43 28.03.2020
5898 Clear 11 1024 57 10000 4.1 10 11:23 28.03.2020
5899 Clear 10 1024 57 10000 4.1 10 10:58 28.03.2020
5900 Clear 10 1024 57 10000 5.7 30 10:38 28.03.2020
5901 Clear 10 1024 57 10000 3.6 30 10:18 28.03.2020
5902 Clear 9 1024 61 10000 4.6 10 09:43 28.03.2020
5903 Clear 8 1024 61 10000 4.6 10 09:24 28.03.2020
5904 Clear 8 1024 66 10000 4.6 30 08:57 28.03.2020
5905 Clear 7 1024 70 10000 4.1 20 08:39 28.03.2020
5906 Clear 5 1024 66 10000 4.1 20 08:20 28.03.2020
5907 Clear 4 1024 69 10000 4.1 20 07:44 28.03.2020
5908 Clear 3 1023 69 10000 3.6 30 06:59 28.03.2020
5909 Clear 2 1023 74 10000 3.6 30 06:35 28.03.2020
5910 Clear 2 1023 69 10000 3.6 30 05:43 28.03.2020
5911 Clear 2 1023 69 10000 3.6 20 05:21 28.03.2020
5912 Clear 3 1023 69 10000 3.6 30 04:41 28.03.2020
5913 Clear 3 1023 64 10000 4.6 20 03:54 28.03.2020
5914 Clear 4 1023 64 10000 3.6 20 02:21 28.03.2020
5915 Clear 4 1023 60 10000 4.6 20 01:41 28.03.2020
5916 Clear 5 1023 60 10000 4.1 20 01:18 28.03.2020
5917 Clear 5 1023 65 10000 3.1 40 00:37 28.03.2020
5918 Clear 6 1023 60 10000 3.1 50 23:59 27.03.2020
5919 Clear 6 1023 56 10000 4.6 50 23:41 27.03.2020
5920 Clear 6 1023 56 10000 5.1 50 23:21 27.03.2020
5921 Clear 7 1023 52 10000 5.7 50 22:56 27.03.2020
5922 Clear 7 1023 52 10000 5.7 50 22:38 27.03.2020
5923 Clear 8 1023 52 10000 5.7 50 22:19 27.03.2020
5924 Clear 8 1023 80 10000 5.7 50 21:45 27.03.2020
5925 Clear 9 1023 80 10000 5.7 50 21:25 27.03.2020
5926 Clear 9 1023 80 10000 6.7 50 20:59 27.03.2020
5927 Clear 9 1022 59 0 1.79 59 20:41 27.03.2020
5928 Clear 10 1022 53 10000 5.7 40 20:21 27.03.2020
5929 Clear 10 1022 53 10000 5.7 40 19:59 27.03.2020
5930 Clear 11 1022 50 10000 5.7 50 19:40 27.03.2020
5931 Clear 12 1021 43 10000 5.7 50 19:22 27.03.2020
5932 Clear 12 1021 43 10000 5.7 50 18:56 27.03.2020
5933 Clear 13 1021 41 10000 4.6 50 18:38 27.03.2020
5934 Clear 14 1021 76 10000 5.7 50 18:19 27.03.2020
5935 Clear 15 1021 76 10000 6.7 60 17:40 27.03.2020
5936 Clear 15 1021 55 10000 6.2 50 17:20 27.03.2020
5937 Clear 15 1021 55 10000 6.7 70 16:54 27.03.2020
5938 Clear 15 1021 55 10000 6.7 70 16:36 27.03.2020
5939 Clear 15 1021 55 10000 6.7 70 16:36 27.03.2020
5940 Clear 16 1021 55 10000 6.7 50 16:18 27.03.2020
5941 Clear 15 1021 55 10000 6.7 60 15:41 27.03.2020
5942 Clear 15 1022 38 10000 6.2 50 15:23 27.03.2020
5943 Clear 15 1022 55 10000 6.7 60 14:46 27.03.2020
5944 Clear 15 1022 55 10000 6.7 60 14:25 27.03.2020
5945 Clear 14 1022 35 10000 6.2 60 13:57 27.03.2020
5946 Clear 14 1023 53 10000 6.2 50 13:38 27.03.2020
5947 Clear 14 1023 35 10000 5.1 50 13:19 27.03.2020
5948 Clear 14 1023 37 10000 5.1 60 12:55 27.03.2020
5949 Clear 14 1023 37 10000 5.1 60 12:37 27.03.2020
5950 Clear 14 1023 37 10000 5.1 80 12:18 27.03.2020
5951 Clear 13 1024 37 0 6.7 70 11:41 27.03.2020
5952 Clear 11 1024 40 10000 5.7 70 11:23 27.03.2020
5953 Clear 9 1024 45 10000 5.7 60 10:55 27.03.2020
5954 Clear 9 1024 45 10000 5.7 60 10:37 27.03.2020
5955 Clear 9 1024 49 10000 6.2 60 10:18 27.03.2020
5956 Clear 9 1024 49 10000 6.2 60 09:56 27.03.2020
5957 Clear 8 1024 52 10000 5.7 60 09:37 27.03.2020
5958 Clear 7 1024 56 10000 5.1 60 09:18 27.03.2020
5959 Clear 5 1024 56 10000 5.1 60 08:56 27.03.2020
5960 Clear 4 1024 60 10000 4.6 60 08:37 27.03.2020
5961 Clear 3 1024 60 10000 5.1 60 08:19 27.03.2020
5962 Clear 3 1024 64 10000 3.6 50 07:50 27.03.2020
5963 Clear 2 1024 64 10000 3.6 50 07:23 27.03.2020
5964 Clear 1 1024 69 10000 4.1 50 06:51 27.03.2020
5965 Clear 1 1024 69 10000 4.1 50 06:33 27.03.2020
5966 Clear 2 1024 64 10000 4.1 50 04:24 27.03.2020
5967 Clear 3 1024 59 10000 4.1 50 02:32 27.03.2020
5968 Clear 3 1025 59 10000 3.6 50 01:23 27.03.2020
5969 Clear 3 1025 55 10000 3.6 60 00:50 27.03.2020
5970 Clear 3 1025 55 10000 3.6 60 00:24 27.03.2020
5971 Clear 4 1025 52 10000 4.6 60 23:44 26.03.2020
5972 Clear 4 1025 52 10000 4.1 60 23:22 26.03.2020
5973 Clear 4 1025 52 10000 4.1 50 22:59 26.03.2020
5974 Clear 4 1025 52 10000 4.1 50 22:38 26.03.2020
5975 Clear 5 1025 45 10000 4.1 60 22:20 26.03.2020
5976 Clear 5 1025 45 10000 4.1 60 21:57 26.03.2020
5977 Clear 5 1025 45 10000 3.1 50 21:38 26.03.2020
5978 Clear 6 1025 45 10000 3.1 50 21:20 26.03.2020
5979 Clear 6 1025 45 10000 3.1 50 20:57 26.03.2020
5980 Clear 6 1025 48 10000 3.6 70 20:38 26.03.2020
5981 Clear 7 1025 45 10000 4.1 70 20:20 26.03.2020
5982 Clear 7 1025 45 10000 4.1 70 19:54 26.03.2020
5983 Clear 8 1025 42 10000 4.6 60 19:36 26.03.2020
5984 Clear 9 1025 36 10000 5.1 60 19:18 26.03.2020
5985 Clear 9 1025 36 10000 5.1 60 18:55 26.03.2020
5986 Clear 9 1025 36 10000 6.2 70 18:36 26.03.2020
5987 Clear 10 1025 31 10000 7.2 80 18:18 26.03.2020
5988 Clear 11 1025 29 10000 5.1 80 17:42 26.03.2020
5989 Clear 11 1025 29 10000 6.7 90 17:18 26.03.2020
5990 Clear 11 1025 29 10000 6.2 90 16:45 26.03.2020
5991 Clear 11 1025 29 10000 6.2 90 16:27 26.03.2020
5992 Clear 11 1025 32 10000 6.7 60 15:58 26.03.2020
5993 Clear 11 1025 29 10000 6.7 70 15:40 26.03.2020
5994 Clear 11 1025 29 10000 6.7 60 15:21 26.03.2020
5995 Clear 11 1025 29 10000 6.7 60 14:58 26.03.2020
5996 Clear 10 1025 29 10000 5.7 90 14:38 26.03.2020
5997 Clear 10 1025 29 10000 5.7 90 14:38 26.03.2020
5998 Clear 10 1026 31 10000 5.7 80 14:19 26.03.2020
5999 Clear 10 1026 29 10000 5.7 90 13:43 26.03.2020
6000 Clear 10 1026 29 10000 5.7 90 13:23 26.03.2020
6001 Clear 10 1026 29 10000 5.1 110 12:57 26.03.2020
6002 Clear 9 1027 31 10000 5.7 110 12:38 26.03.2020
6003 Clear 10 1027 31 10000 6.7 130 12:19 26.03.2020
6004 Clear 9 1027 31 10000 6.2 80 11:45 26.03.2020
6005 Clear 7 1027 33 10000 5.1 100 11:21 26.03.2020
6006 Clear 7 1027 33 10000 5.1 100 10:56 26.03.2020
6007 Clear 6 1027 35 10000 4.6 80 10:37 26.03.2020
6008 Clear 6 1028 41 10000 5.1 80 10:18 26.03.2020
6009 Clear 5 1028 44 10000 4.1 90 09:43 26.03.2020
6010 Clear 4 1028 47 10000 4.1 90 09:19 26.03.2020
6011 Clear 4 1028 47 10000 4.1 90 08:55 26.03.2020
6012 Clear 3 1028 47 10000 5.1 80 08:37 26.03.2020
6013 Clear 2 1028 51 10000 4.1 80 08:18 26.03.2020
6014 Clear 1 1027 55 10000 4.6 70 07:41 26.03.2020
6015 Clear 0 1027 91 10000 4.1 80 07:20 26.03.2020
6016 Clear -1 1027 58 10000 4.1 80 06:48 26.03.2020
6017 Clear 0 1027 91 10000 4.1 70 05:54 26.03.2020
6018 Clear 1 1027 50 10000 5.1 80 04:25 26.03.2020
6019 Clear 1 1027 55 10000 4.1 70 03:41 26.03.2020
6020 Clear 1 1027 50 10000 4.1 60 02:54 26.03.2020
6021 Clouds 1 1028 55 10000 3.6 60 01:50 26.03.2020
6022 Clouds 2 1028 51 10000 4.1 80 00:48 26.03.2020
6023 Clouds 3 1028 47 10000 3.6 60 23:59 25.03.2020
6024 Clouds 3 1028 47 10000 3.6 60 23:40 25.03.2020
6025 Clouds 4 1028 44 10000 4.1 70 23:20 25.03.2020
6026 Clouds 4 1028 44 10000 4.1 70 22:40 25.03.2020
6027 Clouds 5 1028 41 10000 4.6 80 22:21 25.03.2020
6028 Clouds 5 1028 41 10000 4.6 80 21:56 25.03.2020
6029 Clouds 5 1028 41 10000 4.6 80 21:37 25.03.2020
6030 Clouds 6 1028 38 10000 4.1 90 21:19 25.03.2020
6031 Clouds 6 1028 38 10000 4.1 90 20:55 25.03.2020
6032 Clouds 6 1028 38 10000 4.6 90 20:37 25.03.2020
6033 Clouds 7 1028 36 10000 4.6 80 20:18 25.03.2020
6034 Clouds 7 1028 39 10000 3.6 70 19:43 25.03.2020
6035 Clouds 8 1027 39 10000 3.1 80 19:23 25.03.2020
6036 Clouds 8 1027 39 10000 3.1 80 18:57 25.03.2020
6037 Clouds 10 1027 27 10000 2.6 110 18:39 25.03.2020
6038 Clouds 10 1027 27 10000 5.1 110 18:21 25.03.2020
6039 Clouds 11 1027 21 10000 5.7 110 17:55 25.03.2020
6040 Clouds 11 1027 21 10000 5.7 110 17:37 25.03.2020
6041 Clouds 11 1027 21 10000 6.2 120 17:19 25.03.2020
6042 Clouds 12 1028 20 10000 5.7 120 16:43 25.03.2020
6043 Clouds 12 1028 20 10000 5.7 120 16:24 25.03.2020
6044 Clouds 12 1028 20 10000 4.6 110 15:59 25.03.2020
6045 Clouds 12 1028 23 10000 4.6 120 15:41 25.03.2020
6046 Clouds 11 1029 23 10000 6.7 120 15:20 25.03.2020
6047 Clouds 11 1029 23 10000 6.7 120 14:55 25.03.2020
6048 Clouds 11 1029 23 10000 4.1 110 14:37 25.03.2020
6049 Clouds 10 1029 25 10000 4.1 110 14:18 25.03.2020
6050 Clouds 9 1030 29 10000 4.1 110 13:42 25.03.2020
6051 Clouds 10 1030 29 10000 4.1 110 13:22 25.03.2020
6052 Clouds 8 1031 31 10000 4.1 110 12:38 25.03.2020
6053 Clouds 8 1031 30 10000 5.1 100 12:20 25.03.2020
6054 Clouds 8 1031 30 10000 5.1 100 11:56 25.03.2020
6055 Clouds 7 1031 36 10000 2.1 120 11:38 25.03.2020
6056 Clouds 6 1032 41 10000 4.1 120 11:20 25.03.2020
6057 Clouds 6 1032 41 10000 4.1 120 10:57 25.03.2020
6058 Clouds 6 1032 44 10000 4.1 100 10:39 25.03.2020
6059 Clouds 5 1032 44 10000 4.6 110 10:18 25.03.2020
6060 Clouds 4 1032 44 10000 4.1 120 09:43 25.03.2020
6061 Clouds 4 1032 44 10000 4.1 120 09:24 25.03.2020
6062 Clouds 2 1032 47 10000 5.7 130 08:57 25.03.2020
6063 Clouds 2 1032 47 10000 4.6 120 08:39 25.03.2020
6064 Clouds 2 1032 47 10000 4.6 120 08:19 25.03.2020
6065 Clouds 1 1032 50 10000 3.6 110 07:41 25.03.2020
6066 Clouds 0 1032 89 10000 3.1 100 07:23 25.03.2020
6067 Clouds -2 1032 63 10000 1 0 06:50 25.03.2020
6068 Clouds -2 1032 63 10000 1 0 06:28 25.03.2020
6069 Clouds -1 1031 58 10000 3.1 110 05:58 25.03.2020
6070 Clouds -1 1031 58 10000 3.1 110 05:37 25.03.2020
6071 Clouds 0 1031 89 10000 4.1 110 04:41 25.03.2020
6072 Clouds 0 1031 89 10000 4.6 120 03:53 25.03.2020
6073 Clouds 0 1031 89 10000 4.6 130 03:29 25.03.2020
6074 Clouds 2 1032 47 10000 4.1 130 01:39 25.03.2020
6075 Clouds 3 1032 44 10000 4.6 130 00:50 25.03.2020
6076 Clouds 3 1032 44 10000 4.6 130 00:26 25.03.2020
6077 Clouds 3 1032 44 10000 4.1 130 23:53 24.03.2020
6078 Clouds 3 1032 44 10000 5.1 130 23:28 24.03.2020
6079 Clouds 3 1032 44 10000 5.1 130 22:58 24.03.2020
6080 Clouds 4 1032 41 10000 5.1 130 22:38 24.03.2020
6081 Clouds 4 1032 41 10000 5.1 130 22:20 24.03.2020
6082 Clouds 4 1032 41 10000 5.1 130 22:20 24.03.2020
6083 Clouds 4 1032 41 10000 5.1 130 21:58 24.03.2020
6084 Clouds 4 1032 41 10000 5.1 130 21:40 24.03.2020
6085 Clouds 5 1032 38 10000 5.1 130 21:18 24.03.2020
6086 Clouds 5 1032 38 10000 5.1 130 21:18 24.03.2020
6087 Clouds 5 1032 38 10000 5.1 130 20:58 24.03.2020
6088 Clouds 5 1032 35 10000 5.1 120 20:39 24.03.2020
6089 Clear 6 1032 35 10000 4.6 130 20:21 24.03.2020
6090 Clear 6 1032 38 10000 3.6 130 19:47 24.03.2020
6091 Clear 7 1032 39 10000 4.1 120 19:22 24.03.2020
6092 Clear 7 1032 39 10000 4.1 120 18:58 24.03.2020
6093 Clear 8 1032 33 10000 4.6 130 18:38 24.03.2020
6094 Clear 8 1032 36 10000 5.1 120 18:20 24.03.2020
6095 Clear 8 1032 33 10000 4.6 120 17:58 24.03.2020
6096 Clear 8 1032 33 10000 4.6 120 17:40 24.03.2020
6097 Clear 8 1032 33 10000 4.6 120 17:40 24.03.2020
6098 Clear 9 1032 33 10000 5.1 130 17:22 24.03.2020
6099 Clear 9 1032 29 10000 5.7 120 16:57 24.03.2020
6100 Clear 9 1032 29 10000 5.7 120 16:38 24.03.2020
6101 Clear 9 1032 29 10000 5.1 120 16:20 24.03.2020
6102 Clear 9 1033 29 10000 4.6 130 15:43 24.03.2020
6103 Clear 9 1033 29 10000 4.6 130 15:25 24.03.2020
6104 Clear 9 1033 31 10000 4.1 160 14:57 24.03.2020
6105 Clear 9 1033 31 10000 6.7 150 14:37 24.03.2020
6106 Clouds 73 1034 52 0 5.34 148 14:18 24.03.2020
6107 Clouds 73 1034 52 0 5.34 148 13:41 24.03.2020
6108 Clouds 73 1034 52 0 5.44 148 13:22 24.03.2020
6109 Clouds 73 1034 52 0 5.44 148 12:45 24.03.2020
6110 Clouds 73 1034 52 0 5.44 148 12:27 24.03.2020
6111 Clouds 73 1034 52 0 5.44 148 11:57 24.03.2020
6112 Clouds 73 1034 52 0 5.44 148 11:38 24.03.2020
6113 Clouds 6 1035 41 10000 5.1 140 11:18 24.03.2020
6114 Clouds 6 1035 41 10000 6.2 150 10:42 24.03.2020
6115 Clouds 6 1035 44 10000 6.7 150 10:19 24.03.2020
6116 Clouds 5 1035 44 10000 6.7 150 09:55 24.03.2020
6117 Clouds 4 1035 47 10000 5.1 140 09:37 24.03.2020
6118 Clouds 4 1035 51 10000 5.1 140 09:19 24.03.2020
6119 Clouds 2 1035 50 10000 4.6 130 08:38 24.03.2020
6120 Clouds 0 1035 58 10000 4.6 130 08:20 24.03.2020
6121 Clouds 0 1035 58 10000 4.6 130 07:47 24.03.2020
6122 Clouds 0 1035 58 10000 4.6 130 07:24 24.03.2020
6123 Clouds -2 1035 58 10000 2.6 120 06:50 24.03.2020
6124 Clouds -2 1035 58 10000 3.1 130 06:24 24.03.2020
6125 Clouds -1 1035 58 10000 4.1 120 04:57 24.03.2020
6126 Clouds -1 1035 60 10000 4.6 120 03:48 24.03.2020
6127 Clouds 0 1035 60 10000 4.1 120 02:49 24.03.2020
6128 Clear 0 1035 58 10000 2.1 120 01:45 24.03.2020
6129 Clear 1 1035 59 10000 2.6 140 00:46 24.03.2020
6130 Clear 1 1035 59 10000 2.6 140 00:24 24.03.2020
6131 Clear 1 1035 43 10000 5.1 130 23:44 23.03.2020
6132 Clear 1 1035 47 10000 4.6 130 23:26 23.03.2020
6133 Clear 2 1036 40 10000 5.1 130 22:55 23.03.2020
6134 Clear 2 1036 40 10000 5.1 130 22:37 23.03.2020
6135 Clear 2 1035 40 10000 4.6 120 22:19 23.03.2020
6136 Clear 2 1036 44 10000 4.1 120 21:44 23.03.2020
6137 Clear 3 1036 44 10000 3.6 110 21:21 23.03.2020
6138 Clear 3 1036 44 10000 3.6 110 20:58 23.03.2020
6139 Clear 3 1036 41 10000 3.6 110 20:40 23.03.2020
6140 Clear 4 1036 41 10000 3.6 110 20:22 23.03.2020
6141 Clear 4 1035 41 10000 4.6 110 19:54 23.03.2020
6142 Clear 4 1035 35 10000 4.6 120 19:36 23.03.2020
6143 Clear 5 1035 33 10000 4.6 120 19:18 23.03.2020
6144 Clear 6 1035 35 10000 4.1 120 18:42 23.03.2020
6145 Clear 6 1035 28 10000 5.7 120 18:22 23.03.2020
6146 Clear 7 1035 30 10000 6.2 110 17:56 23.03.2020
6147 Clear 7 1035 30 10000 6.2 110 17:38 23.03.2020
6148 Clear 7 1035 28 10000 6.2 130 17:18 23.03.2020
6149 Clear 8 1035 33 10000 6.2 120 16:43 23.03.2020
6150 Clear 8 1036 30 10000 6.2 140 16:25 23.03.2020
6151 Clear 8 1036 28 10000 5.1 120 15:43 23.03.2020
6152 Clear 8 1036 30 10000 6.2 120 15:21 23.03.2020
6153 Clear 7 1036 30 10000 6.2 120 14:57 23.03.2020
6154 Clear 7 1036 30 10000 7.2 130 14:37 23.03.2020
6155 Clear 7 1036 33 10000 7.2 120 14:18 23.03.2020
6156 Clear 7 1037 30 10000 7.7 130 13:41 23.03.2020
6157 Clear 7 1037 30 10000 7.7 130 13:41 23.03.2020
6158 Clear 7 1037 33 10000 7.7 120 13:22 23.03.2020
6159 Clear 6 1037 33 10000 7.7 120 12:58 23.03.2020
6160 Clear 6 1037 32 10000 7.2 120 12:40 23.03.2020
6161 Clear 6 1037 32 10000 7.7 130 12:22 23.03.2020
6162 Clear 5 1037 35 10000 8.2 130 11:42 23.03.2020
6163 Clear 5 1038 32 10000 7.7 130 11:22 23.03.2020
6164 Clear 5 1037 38 10000 6.7 130 10:58 23.03.2020
6165 Clear 4 1037 38 10000 6.7 130 10:40 23.03.2020
6166 Clear 4 1037 38 10000 6.7 130 10:40 23.03.2020
6167 Clear 4 1038 37 10000 6.2 130 10:22 23.03.2020
6168 Clear 4 1038 37 10000 6.2 130 09:58 23.03.2020
6169 Clear 3 1038 40 10000 6.7 130 09:40 23.03.2020
6170 Clear 3 1038 50 10000 3.6 120 09:19 23.03.2020
6171 Clear 2 1038 50 10000 4.6 120 08:38 23.03.2020
6172 Clear 0 1038 56 10000 4.6 110 08:19 23.03.2020
6173 Clear -1 1038 54 10000 3.6 100 07:51 23.03.2020
6174 Clear -1 1038 54 10000 3.6 100 07:32 23.03.2020
6175 Clear -2 1038 63 10000 3.6 100 06:55 23.03.2020
6176 Clear -2 1038 63 10000 3.6 100 06:33 23.03.2020
6177 Clear -2 1038 58 10000 3.6 110 05:44 23.03.2020
6178 Clear -1 1037 58 10000 3.1 110 03:54 23.03.2020
6179 Clear 0 1037 60 10000 3.6 110 02:44 23.03.2020
6180 Clear 0 1037 50 10000 3.6 120 01:50 23.03.2020
6181 Clear 1 1037 50 10000 4.1 110 00:47 23.03.2020
6182 Clear 1 1037 47 10000 5.1 110 00:27 23.03.2020
6183 Clear 1 1037 47 10000 5.1 110 23:42 22.03.2020
6184 Clear 2 1037 47 10000 5.1 110 23:24 22.03.2020
6185 Clear 2 1037 44 10000 5.1 110 22:42 22.03.2020
6186 Clear 3 1037 41 10000 5.1 100 22:21 22.03.2020
6187 Clear 3 1037 41 10000 4.6 90 21:54 22.03.2020
6188 Clear 3 1037 41 10000 4.6 90 21:36 22.03.2020
6189 Clear 3 1036 44 10000 5.1 90 21:18 22.03.2020
6190 Clear 3 1036 44 10000 4.6 90 20:42 22.03.2020
6191 Clear 4 1036 44 10000 4.1 90 20:24 22.03.2020
6192 Clear 4 1036 44 10000 4.1 90 19:57 22.03.2020
6193 Clear 4 1036 41 10000 5.1 100 19:39 22.03.2020
6194 Clear 5 1035 41 10000 4.6 110 19:20 22.03.2020
6195 Clear 5 1035 41 10000 4.6 110 18:58 22.03.2020
6196 Clear 6 1035 38 10000 5.1 120 18:40 22.03.2020
6197 Clear 6 1035 36 10000 6.2 110 18:21 22.03.2020
6198 Clear 6 1035 36 10000 6.2 110 17:57 22.03.2020
6199 Clear 7 1035 39 10000 5.7 120 17:38 22.03.2020
6200 Clear 7 1035 39 10000 7.2 110 17:20 22.03.2020
6201 Clear 7 1035 39 10000 7.2 110 16:57 22.03.2020
6202 Clear 7 1035 39 10000 7.2 120 16:39 22.03.2020
6203 Clear 7 1035 39 10000 7.2 120 16:21 22.03.2020
6204 Clear 7 1035 39 10000 7.2 120 16:21 22.03.2020
6205 Clear 7 1035 42 10000 7.2 120 15:44 22.03.2020
6206 Clear 7 1035 42 10000 7.2 120 15:26 22.03.2020
6207 Clear 7 1035 39 10000 7.7 120 14:46 22.03.2020
6208 Clear 7 1035 39 10000 6.7 110 14:19 22.03.2020
6209 Clear 7 1036 41 10000 7.2 110 13:45 22.03.2020
6210 Clear 7 1036 41 10000 7.7 120 13:21 22.03.2020
6211 Clear 6 1036 41 10000 7.7 120 12:59 22.03.2020
6212 Clear 6 1036 45 10000 6.2 100 12:41 22.03.2020
6213 Clear 6 1036 44 10000 7.2 110 12:19 22.03.2020
6214 Clear 6 1036 48 10000 7.7 120 11:55 22.03.2020
6215 Clear 5 1036 48 10000 7.7 120 11:36 22.03.2020
6216 Clear 5 1036 48 10000 8.2 110 11:18 22.03.2020
6217 Clear 5 1036 48 10000 8.2 110 10:42 22.03.2020
6218 Clear 4 1036 48 10000 8.2 110 10:23 22.03.2020
6219 Clear 4 1036 47 10000 8.2 100 09:47 22.03.2020
6220 Clear 3 1036 47 10000 8.2 100 09:28 22.03.2020
6221 Clear 2 1036 59 10000 4.6 90 08:54 22.03.2020
6222 Clear 2 1036 59 10000 4.6 90 08:36 22.03.2020
6223 Clear 1 1036 64 10000 4.1 80 08:18 22.03.2020
6224 Clear 0 1036 72 10000 4.1 80 07:41 22.03.2020
6225 Clear 0 1035 74 10000 3.6 80 07:18 22.03.2020
6226 Clear -1 1034 68 10000 4.6 80 05:54 22.03.2020
6227 Clear -1 1034 70 10000 3.6 90 04:50 22.03.2020
6228 Clear 0 1034 70 10000 4.6 80 02:43 22.03.2020
6229 Clear 0 1034 59 10000 4.6 80 01:20 22.03.2020
6230 Clear 1 1034 59 10000 4.6 70 00:35 22.03.2020
6231 Clear 1 1034 64 10000 4.6 70 23:58 21.03.2020
6232 Clear 1 1034 64 10000 4.6 70 23:40 21.03.2020
6233 Clear 1 1033 59 10000 4.6 70 23:18 21.03.2020
6234 Clear 2 1033 59 10000 4.6 70 22:38 21.03.2020
6235 Clear 2 1033 59 10000 4.6 70 22:38 21.03.2020
6236 Clear 2 1033 59 10000 4.6 70 22:38 21.03.2020
6237 Clear 2 1033 59 10000 4.1 60 22:20 21.03.2020
6238 Clear 2 1033 59 10000 4.1 60 21:59 21.03.2020
6239 Clear 2 1033 55 10000 3.6 60 21:39 21.03.2020
6240 Clear 3 1033 51 10000 4.1 80 21:21 21.03.2020
6241 Clear 3 1032 48 10000 4.6 80 20:46 21.03.2020
6242 Clear 4 1032 51 10000 4.1 80 20:23 21.03.2020
6243 Clear 4 1032 51 10000 4.1 80 19:57 21.03.2020
6244 Clear 4 1032 51 10000 4.6 80 19:39 21.03.2020
6245 Clear 5 1032 48 10000 5.1 90 19:21 21.03.2020
6246 Clear 5 1032 45 10000 6.7 80 18:54 21.03.2020
6247 Clear 5 1032 45 10000 6.7 80 18:36 21.03.2020
6248 Clear 6 1031 45 10000 8.2 80 18:18 21.03.2020
6249 Clear 6 1031 45 10000 7.2 80 17:43 21.03.2020
6250 Clear 6 1031 45 10000 7.2 80 17:43 21.03.2020
6251 Clear 6 1031 45 10000 7.2 80 17:43 21.03.2020
6252 Clear 7 1031 45 10000 6.2 90 17:23 21.03.2020
6253 Clear 7 1031 45 10000 8.2 90 16:57 21.03.2020
6254 Clear 7 1031 45 10000 8.2 90 16:39 21.03.2020
6255 Clear 7 1031 45 10000 8.2 80 16:19 21.03.2020
6256 Clear 7 1031 45 10000 8.2 80 15:55 21.03.2020
6257 Clouds 7 1031 48 10000 6.7 90 15:36 21.03.2020
6258 Clouds 7 1031 48 10000 7.2 80 15:18 21.03.2020
6259 Clouds 7 1031 48 10000 7.2 80 14:54 21.03.2020
6260 Clouds 7 1031 45 10000 8.2 80 14:36 21.03.2020
6261 Clouds 7 1032 45 10000 8.7 70 14:18 21.03.2020
6262 Clouds 7 1032 52 10000 8.2 70 13:54 21.03.2020
6263 Clouds 7 1032 52 10000 8.2 70 13:36 21.03.2020
6264 Clouds 7 1032 48 10000 8.7 70 13:18 21.03.2020
6265 Clouds 7 1032 52 10000 7.7 60 12:39 21.03.2020
6266 Clouds 6 1032 48 10000 9.8 70 12:19 21.03.2020
6267 Clouds 6 1032 56 10000 8.7 60 11:57 21.03.2020
6268 Clouds 6 1032 56 10000 8.7 60 11:38 21.03.2020
6269 Clouds 6 1032 56 10000 8.7 60 11:38 21.03.2020
6270 Clouds 6 1032 60 10000 7.2 80 11:19 21.03.2020
6271 Clouds 6 1032 65 10000 8.7 70 10:57 21.03.2020
6272 Clouds 6 1032 65 10000 8.7 70 10:38 21.03.2020
6273 Clouds 6 1032 62 10000 7.7 80 10:20 21.03.2020
6274 Clouds 5 1032 62 10000 7.7 80 09:56 21.03.2020
6275 Clouds 5 1032 62 10000 7.2 70 09:37 21.03.2020
6276 Clouds 4 1032 62 10000 6.7 70 09:19 21.03.2020
6277 Clouds 4 1032 62 10000 6.7 70 09:19 21.03.2020
6278 Clouds 4 1032 62 10000 6.7 60 08:44 21.03.2020
6279 Clouds 4 1032 62 10000 6.7 60 08:44 21.03.2020
6280 Clouds 3 1032 60 10000 6.7 60 08:25 21.03.2020
6281 Clouds 2 1031 74 10000 4.1 40 07:52 21.03.2020
6282 Clouds 2 1031 74 10000 4.1 40 07:32 21.03.2020
6283 Clouds 1 1031 69 10000 4.1 30 06:48 21.03.2020
6284 Clouds 0 1031 69 10000 4.1 30 06:29 21.03.2020
6285 Clear 0 1031 89 10000 4.1 20 05:50 21.03.2020
6286 Clear 0 1031 89 10000 3.6 30 05:23 21.03.2020
6287 Clear 0 1031 74 10000 4.1 30 03:32 21.03.2020
6288 Clear 1 1031 69 10000 4.1 40 02:35 21.03.2020
6289 Clouds 2 1031 69 10000 5.1 50 01:42 21.03.2020
6290 Clouds 2 1031 64 10000 5.7 40 01:21 21.03.2020
6291 Clouds 3 1031 64 10000 6.2 40 00:38 21.03.2020
6292 Clouds 3 1031 60 10000 5.1 40 23:59 20.03.2020
6293 Clouds 4 1030 64 10000 5.7 40 23:41 20.03.2020
6294 Clouds 4 1030 80 10000 5.7 40 23:20 20.03.2020
6295 Clouds 4 1030 75 10000 4.6 40 22:44 20.03.2020
6296 Clouds 5 1030 75 10000 4.6 40 22:24 20.03.2020
6297 Clouds 5 1030 75 10000 6.2 40 21:58 20.03.2020
6298 Clouds 5 1029 70 10000 6.2 40 21:39 20.03.2020
6299 Clouds 6 1029 65 10000 5.7 30 21:20 20.03.2020
6300 Clouds 6 1029 65 10000 5.7 30 20:58 20.03.2020
6301 Clouds 6 1029 75 10000 4.6 20 20:40 20.03.2020
6302 Clouds 6 1028 75 10000 4.6 20 20:19 20.03.2020
6303 Clouds 7 1028 75 10000 4.6 10 19:47 20.03.2020
6304 Clouds 7 1028 75 10000 4.6 10 19:20 20.03.2020
6305 Clouds 7 1028 75 10000 4.6 10 18:57 20.03.2020
6306 Clouds 7 1028 70 10000 4.1 10 18:38 20.03.2020
6307 Clouds 7 1028 70 10000 4.1 10 18:38 20.03.2020
6308 Clouds 8 1028 65 10000 5.1 20 18:19 20.03.2020
6309 Clouds 8 1028 65 10000 5.7 10 17:56 20.03.2020
6310 Clouds 8 1028 65 10000 5.7 10 17:37 20.03.2020
6311 Clouds 8 1027 65 10000 5.1 20 17:18 20.03.2020
6312 Clouds 8 1027 65 10000 4.1 20 16:41 20.03.2020
6313 Clouds 8 1027 66 10000 4.6 360 16:21 20.03.2020
6314 Clouds 9 1028 61 10000 5.1 20 15:45 20.03.2020
6315 Clouds 9 1028 61 10000 5.1 20 15:23 20.03.2020
6316 Clouds 9 1028 66 10000 3.6 360 14:59 20.03.2020
6317 Clouds 9 1028 66 10000 3.6 360 14:59 20.03.2020
6318 Clouds 9 1028 66 10000 4.1 30 14:41 20.03.2020
6319 Clouds 9 1028 66 10000 3.6 20 14:21 20.03.2020
6320 Clouds 9 1028 66 10000 4.6 20 13:49 20.03.2020
6321 Clouds 9 1028 66 10000 4.6 20 13:25 20.03.2020
6322 Clouds 9 1028 70 10000 4.6 20 12:58 20.03.2020
6323 Clouds 8 1028 70 10000 5.1 40 12:38 20.03.2020
6324 Clouds 8 1028 70 10000 5.1 10 12:20 20.03.2020
6325 Clouds 8 1028 75 10000 4.6 30 11:39 20.03.2020
6326 Clouds 8 1028 75 10000 5.1 30 11:21 20.03.2020
6327 Rain 7 1028 75 10000 4.6 30 10:57 20.03.2020
6328 Rain 7 1028 75 10000 4.6 30 10:38 20.03.2020
6329 Rain 7 1028 75 10000 5.1 40 10:18 20.03.2020
6330 Rain 7 1027 81 10000 4.6 30 09:46 20.03.2020
6331 Rain 6 1027 81 10000 4.6 30 09:21 20.03.2020
6332 Rain 6 1027 81 10000 4.6 30 08:58 20.03.2020
6333 Rain 6 1027 81 10000 5.7 20 08:39 20.03.2020
6334 Clouds 6 1027 81 10000 5.1 30 08:19 20.03.2020
6335 Clouds 6 1027 81 10000 5.1 30 07:45 20.03.2020
6336 Clouds 6 1027 81 10000 5.1 30 07:26 20.03.2020
6337 Clouds 6 1027 81 10000 5.1 20 06:47 20.03.2020
6338 Clouds 6 1027 81 10000 5.1 20 06:29 20.03.2020
6339 Clouds 6 1026 87 10000 4.6 20 04:49 20.03.2020
6340 Clouds 6 1026 87 10000 3.6 30 03:18 20.03.2020
6341 Clouds 6 1026 87 10000 4.1 20 01:51 20.03.2020
6342 Rain 6 1026 75 10000 3.6 30 00:46 20.03.2020
6343 Rain 7 1026 81 10000 3.6 30 00:25 20.03.2020
6344 Clouds 7 1026 81 10000 3.6 30 23:44 19.03.2020
6345 Clouds 7 1026 81 10000 4.1 40 23:25 19.03.2020
6346 Clouds 7 1027 81 10000 4.1 20 22:56 19.03.2020
6347 Clouds 7 1027 81 10000 4.1 20 22:37 19.03.2020
6348 Clouds 7 1027 81 10000 4.1 40 22:18 19.03.2020
6349 Clouds 7 1026 70 10000 3.6 30 21:41 19.03.2020
6350 Clouds 7 1026 65 10000 4.6 20 21:20 19.03.2020
6351 Clouds 7 1026 65 10000 4.6 20 20:58 19.03.2020
6352 Clouds 8 1026 70 10000 4.1 20 20:39 19.03.2020
6353 Clouds 8 1026 72 0 2.67 359 20:20 19.03.2020
6354 Clouds 8 1026 70 0 2.67 359 19:55 19.03.2020
6355 Clouds 8 1026 70 0 2.67 359 19:37 19.03.2020
6356 Clouds 8 1026 71 0 2.67 359 19:18 19.03.2020
6357 Clouds 8 1026 76 10000 2.1 30 18:42 19.03.2020
6358 Clouds 9 1026 76 10000 2.1 30 18:22 19.03.2020
6359 Clouds 9 1026 76 10000 2.1 30 18:22 19.03.2020
6360 Clouds 9 1026 76 10000 2.1 20 17:58 19.03.2020
6361 Clouds 9 1026 76 10000 2.1 20 17:40 19.03.2020
6362 Clouds 9 1026 76 10000 2.6 30 17:19 19.03.2020
6363 Clouds 9 1026 76 10000 2.1 30 16:43 19.03.2020
6364 Clouds 9 1026 76 10000 2.1 30 16:23 19.03.2020
6365 Clouds 9 1026 87 10000 3.1 30 15:45 19.03.2020
6366 Clouds 9 1026 87 10000 3.1 30 15:27 19.03.2020
6367 Clouds 9 1026 81 10000 4.6 20 14:58 19.03.2020
6368 Clouds 9 1026 87 10000 2.6 10 14:40 19.03.2020
6369 Clouds 8 1026 87 10000 3.1 10 14:19 19.03.2020
6370 Clouds 8 1026 87 10000 2.6 40 13:40 19.03.2020
6371 Clouds 8 1027 87 10000 2.1 30 13:19 19.03.2020
6372 Drizzle 8 1027 87 6000 1.5 20 12:56 19.03.2020
6373 Drizzle 9 1027 87 6000 1.5 20 12:37 19.03.2020
6374 Drizzle 8 1027 87 10000 1.5 30 12:19 19.03.2020
6375 Clouds 8 1026 87 10000 1.5 90 11:42 19.03.2020
6376 Clouds 8 1026 93 10000 1.5 50 11:23 19.03.2020
6377 Drizzle 8 1026 93 7000 1.5 20 10:57 19.03.2020
6378 Drizzle 7 1026 93 7000 1.5 20 10:37 19.03.2020
6379 Drizzle 7 1026 93 5000 2.6 20 10:18 19.03.2020
6380 Drizzle 7 1026 93 8000 3.1 20 09:44 19.03.2020
6381 Drizzle 7 1026 93 8000 3.1 20 09:26 19.03.2020
6382 Drizzle 7 1026 93 6000 3.6 30 08:58 19.03.2020
6383 Drizzle 7 1025 93 5000 3.6 20 08:40 19.03.2020
6384 Clouds 7 1025 93 6000 4.1 20 08:19 19.03.2020
6385 Clouds 7 1025 93 5000 3.6 20 07:44 19.03.2020
6386 Drizzle 7 1025 93 5000 3.6 20 07:23 19.03.2020
6387 Drizzle 7 1024 93 10000 3.6 30 06:32 19.03.2020
6388 Clouds 8 1024 93 10000 3.6 10 05:47 19.03.2020
6389 Clouds 9 1023 93 10000 4.6 310 04:53 19.03.2020
6390 Clouds 9 1023 93 10000 4.6 310 04:34 19.03.2020
6391 Clouds 11 1023 81 10000 3.1 240 02:34 19.03.2020
6392 Clouds 11 1023 81 10000 3.6 250 00:57 19.03.2020
6393 Clouds 12 1023 76 10000 4.6 260 00:22 19.03.2020
6394 Clouds 11 1023 76 10000 5.7 260 23:48 18.03.2020
6395 Clouds 11 1023 76 10000 5.7 260 23:29 18.03.2020
6396 Clouds 12 1023 76 10000 3.6 250 22:56 18.03.2020
6397 Clouds 12 1023 76 10000 3.6 250 22:38 18.03.2020
6398 Clouds 12 1024 76 10000 4.6 250 22:20 18.03.2020
6399 Clouds 12 1024 81 10000 2.6 260 21:42 18.03.2020
6400 Clouds 12 1024 76 10000 2.1 300 21:21 18.03.2020
6401 Clouds 12 1024 76 10000 2.1 300 20:58 18.03.2020
6402 Clouds 12 1024 76 10000 2.1 290 20:40 18.03.2020
6403 Clouds 12 1023 76 10000 2.6 300 20:20 18.03.2020
6404 Clouds 13 1023 76 10000 2.6 300 19:56 18.03.2020
6405 Clouds 13 1023 71 10000 3.1 300 19:38 18.03.2020
6406 Clouds 13 1023 71 10000 3.1 260 19:19 18.03.2020
6407 Clouds 13 1023 71 10000 3.1 260 19:19 18.03.2020
6408 Clouds 13 1023 71 10000 4.1 250 18:41 18.03.2020
6409 Clouds 13 1023 71 10000 3.1 260 18:20 18.03.2020
6410 Clouds 14 1023 67 10000 5.1 260 17:58 18.03.2020
6411 Clouds 14 1023 67 10000 5.1 260 17:39 18.03.2020
6412 Clouds 14 1023 62 10000 6.2 250 17:21 18.03.2020
6413 Clouds 14 1023 62 10000 6.2 250 16:58 18.03.2020
6414 Clouds 14 1023 67 10000 6.7 240 16:39 18.03.2020
6415 Clouds 15 1023 62 10000 5.7 240 16:20 18.03.2020
6416 Clouds 15 1023 62 10000 6.7 250 15:45 18.03.2020
6417 Clouds 15 1023 62 10000 7.2 240 15:20 18.03.2020
6418 Clouds 15 1023 62 10000 7.7 250 14:45 18.03.2020
6419 Clouds 14 1024 62 10000 7.2 260 14:22 18.03.2020
6420 Clouds 14 1024 62 10000 7.2 260 13:59 18.03.2020
6421 Clouds 14 1024 62 10000 6.2 250 13:37 18.03.2020
6422 Clouds 14 1024 62 10000 7.2 240 13:19 18.03.2020
6423 Clouds 14 1024 62 10000 7.7 230 12:41 18.03.2020
6424 Clouds 14 1024 62 10000 7.2 240 12:20 18.03.2020
6425 Clouds 13 1025 62 10000 7.7 240 11:40 18.03.2020
6426 Clouds 13 1024 58 10000 7.2 230 11:21 18.03.2020
6427 Clouds 12 1024 58 10000 5.7 240 10:58 18.03.2020
6428 Clouds 12 1024 58 10000 5.7 240 10:39 18.03.2020
6429 Clouds 12 1024 62 10000 7.2 240 10:20 18.03.2020
6430 Clouds 11 1024 62 10000 7.2 240 09:59 18.03.2020
6431 Clouds 11 1024 61 10000 6.2 230 09:39 18.03.2020
6432 Clouds 10 1024 57 10000 6.7 230 09:21 18.03.2020
6433 Clouds 9 1024 57 10000 6.7 220 08:40 18.03.2020
6434 Clouds 9 1024 73 10000 5.1 220 08:21 18.03.2020
6435 Clouds 8 1024 76 10000 4.6 220 07:49 18.03.2020
6436 Clouds 8 1024 76 10000 4.6 220 07:31 18.03.2020
6437 Clouds 8 1024 76 10000 5.7 220 06:55 18.03.2020
6438 Clouds 8 1024 76 10000 5.7 220 06:37 18.03.2020
6439 Clouds 8 1024 65 10000 4.1 220 05:37 18.03.2020
6440 Clouds 8 1024 65 10000 4.1 200 04:32 18.03.2020
6441 Clouds 8 1025 61 10000 3.6 210 03:21 18.03.2020
6442 Clouds 8 1025 65 10000 3.1 210 02:36 18.03.2020
6443 Clouds 8 1026 65 10000 3.1 200 01:42 18.03.2020
6444 Clouds 8 1026 65 10000 2.6 200 00:45 18.03.2020
6445 Clouds 8 1026 70 10000 2.6 190 00:21 18.03.2020
6446 Clouds 8 1026 65 10000 2.6 200 23:42 17.03.2020
6447 Clouds 8 1027 70 10000 3.1 190 23:21 17.03.2020
6448 Clouds 9 1027 70 10000 3.1 190 22:46 17.03.2020
6449 Clouds 9 1027 65 10000 3.1 190 22:28 17.03.2020
6450 Clouds 9 1027 65 10000 2.1 210 21:46 17.03.2020
6451 Clouds 9 1027 65 10000 2.1 210 21:25 17.03.2020
6452 Clouds 9 1027 65 10000 3.1 190 20:58 17.03.2020
6453 Clouds 10 1027 61 10000 2.6 190 20:38 17.03.2020
6454 Clouds 10 1027 61 10000 2.6 200 20:19 17.03.2020
6455 Clouds 11 1026 63 0 3.48 224 19:42 17.03.2020
6456 Clouds 11 1027 61 10000 2.6 230 19:21 17.03.2020
6457 Clouds 11 1027 66 10000 2.6 240 18:59 17.03.2020
6458 Clouds 11 1027 66 10000 2.6 240 18:40 17.03.2020
6459 Clouds 12 1027 58 10000 3.6 230 18:22 17.03.2020
6460 Clouds 12 1027 58 10000 3.6 230 17:59 17.03.2020
6461 Clouds 13 1027 58 10000 3.6 230 17:39 17.03.2020
6462 Clouds 13 1027 54 10000 5.7 240 17:19 17.03.2020
6463 Clouds 13 1027 54 10000 5.7 240 16:43 17.03.2020
6464 Clouds 13 1027 50 10000 6.2 240 16:19 17.03.2020
6465 Clouds 13 1027 50 10000 6.2 230 15:48 17.03.2020
6466 Clouds 13 1027 50 10000 6.2 230 15:23 17.03.2020
6467 Clouds 13 1027 50 10000 5.7 240 14:49 17.03.2020
6468 Clouds 13 1027 50 10000 5.7 240 14:31 17.03.2020
6469 Rain 13 1027 50 10000 6.7 220 13:59 17.03.2020
6470 Clouds 13 1027 54 10000 6.7 240 13:41 17.03.2020
6471 Clouds 13 1028 54 10000 7.7 250 13:22 17.03.2020
6472 Clouds 12 1028 54 10000 7.7 240 12:48 17.03.2020
6473 Clouds 12 1027 58 10000 7.2 240 12:26 17.03.2020
6474 Clouds 12 1027 58 10000 7.2 240 11:59 17.03.2020
6475 Clouds 12 1027 62 0 7.7 240 11:39 17.03.2020
6476 Clouds 12 1027 62 0 7.7 240 11:39 17.03.2020
6477 Clouds 11 1027 66 10000 7.2 230 11:21 17.03.2020
6478 Clouds 10 1027 66 10000 6.2 220 10:55 17.03.2020
6479 Clouds 10 1027 66 10000 6.2 220 10:36 17.03.2020
6480 Clouds 10 1027 76 10000 5.1 230 10:18 17.03.2020
6481 Clouds 9 1027 81 10000 5.1 230 09:45 17.03.2020
6482 Clouds 8 1027 87 10000 5.1 230 09:20 17.03.2020
6483 Clouds 7 1027 87 10000 5.1 230 08:58 17.03.2020
6484 Clouds 7 1027 93 10000 3.6 230 08:40 17.03.2020
6485 Clouds 5 1027 93 8000 2.6 230 08:20 17.03.2020
6486 Clouds 5 1027 93 8000 2.1 230 07:49 17.03.2020
6487 Fog 4 1027 93 7000 4.6 260 07:21 17.03.2020
6488 Clouds 4 1026 100 10000 2.6 250 06:52 17.03.2020
6489 Fog 4 1025 93 10000 2.1 210 06:25 17.03.2020
6490 Fog 4 1025 100 10000 1.5 210 05:34 17.03.2020
6491 Clouds 5 1025 100 10000 0.5 0 03:34 17.03.2020
6492 Clouds 5 1025 100 10000 1 210 02:31 17.03.2020
6493 Clouds 6 1025 93 10000 0.5 0 01:39 17.03.2020
6494 Clouds 6 1024 93 10000 2.1 310 00:54 17.03.2020
6495 Clouds 6 1024 93 10000 0.5 0 00:19 17.03.2020
6496 Clouds 6 1024 93 10000 1 150 23:43 16.03.2020
6497 Clouds 6 1024 93 10000 1.5 160 23:22 16.03.2020
6498 Clouds 7 1024 81 10000 1 80 22:38 16.03.2020
6499 Clouds 7 1023 81 10000 1.5 90 22:20 16.03.2020
6500 Clouds 8 1023 76 10000 1.5 40 21:45 16.03.2020
6501 Clouds 8 1023 76 10000 1.5 40 21:27 16.03.2020
6502 Clouds 8 1023 76 10000 2.6 50 20:59 16.03.2020
6503 Clouds 8 1023 76 10000 4.1 20 20:40 16.03.2020
6504 Clouds 9 1023 71 10000 3.6 360 20:21 16.03.2020
6505 Clouds 9 1023 76 10000 4.1 10 19:46 16.03.2020
6506 Clouds 9 1023 76 10000 4.1 10 19:25 16.03.2020
6507 Clouds 9 1023 76 10000 4.1 10 19:25 16.03.2020
6508 Clouds 10 1022 66 10000 3.1 310 18:59 16.03.2020
6509 Clouds 10 1022 66 10000 3.6 320 18:40 16.03.2020
6510 Clouds 11 1022 62 10000 5.1 320 18:20 16.03.2020
6511 Clouds 12 1021 62 10000 4.6 320 17:46 16.03.2020
6512 Clouds 12 1021 58 10000 3.6 310 17:26 16.03.2020
6513 Clouds 13 1021 58 10000 3.6 310 16:58 16.03.2020
6514 Clouds 13 1021 58 10000 3.6 310 16:40 16.03.2020
6515 Clouds 13 1020 58 10000 4.1 330 16:22 16.03.2020
6516 Clouds 14 1020 50 10000 3.6 270 15:43 16.03.2020
6517 Clouds 14 1020 50 10000 3.6 270 15:24 16.03.2020
6518 Clouds 14 1020 54 10000 3.6 270 14:48 16.03.2020
6519 Clouds 13 1020 54 10000 3.6 270 14:25 16.03.2020
6520 Clouds 13 1019 62 10000 3.6 290 13:55 16.03.2020
6521 Clouds 13 1019 66 10000 4.6 320 13:37 16.03.2020
6522 Clouds 13 1019 66 10000 5.1 320 13:18 16.03.2020
6523 Clouds 13 1019 62 10000 4.6 310 12:42 16.03.2020
6524 Clouds 12 1019 66 10000 5.1 300 12:23 16.03.2020
6525 Clouds 12 1019 71 10000 5.1 270 11:45 16.03.2020
6526 Clouds 12 1018 71 10000 5.1 270 11:26 16.03.2020
6527 Clouds 11 1018 76 10000 5.1 280 10:47 16.03.2020
6528 Clouds 11 1018 76 10000 5.1 280 10:25 16.03.2020
6529 Clouds 11 1017 76 10000 4.6 280 09:59 16.03.2020
6530 Clouds 10 1017 76 10000 4.1 260 09:40 16.03.2020
6531 Clouds 10 1016 81 10000 2.6 250 09:20 16.03.2020
6532 Clouds 9 1016 81 10000 2.1 230 08:47 16.03.2020
6533 Clouds 9 1016 81 10000 2.1 230 08:24 16.03.2020
6534 Clouds 7 1015 81 10000 1 210 07:45 16.03.2020
6535 Clouds 7 1015 75 10000 1.5 240 07:21 16.03.2020
6536 Clouds 7 1014 81 10000 2.6 210 06:46 16.03.2020
6537 Clouds 7 1014 81 10000 2.6 210 06:23 16.03.2020
6538 Clouds 8 1013 70 10000 1.5 210 04:53 16.03.2020
6539 Clouds 10 1012 66 10000 3.1 190 02:40 16.03.2020
6540 Clouds 10 1012 76 10000 2.6 180 00:49 16.03.2020
6541 Clouds 10 1012 76 10000 2.6 180 00:30 16.03.2020
6542 Clouds 10 1012 76 10000 3.1 170 23:42 15.03.2020
6543 Clouds 11 1012 76 10000 3.1 180 23:20 15.03.2020
6544 Clouds 11 1012 76 10000 2.1 170 22:42 15.03.2020
6545 Clouds 11 1012 71 10000 1.5 220 22:22 15.03.2020
6546 Clouds 11 1012 71 10000 1.5 220 21:55 15.03.2020
6547 Clouds 11 1012 71 10000 2.6 200 21:37 15.03.2020
6548 Clouds 12 1012 66 10000 2.6 200 21:18 15.03.2020
6549 Clouds 12 1012 66 10000 3.1 200 20:42 15.03.2020
6550 Clouds 12 1012 66 10000 3.1 200 20:20 15.03.2020
6551 Clouds 12 1012 66 10000 3.1 200 19:56 15.03.2020
6552 Clouds 12 1012 66 10000 3.6 200 19:38 15.03.2020
6553 Clouds 12 1011 66 10000 3.6 190 19:19 15.03.2020
6554 Clouds 12 1011 66 10000 3.6 190 18:55 15.03.2020
6555 Clouds 13 1011 62 10000 3.1 190 18:36 15.03.2020
6556 Clouds 13 1011 62 10000 3.6 190 18:18 15.03.2020
6557 Clouds 13 1011 62 10000 3.6 180 17:40 15.03.2020
6558 Clouds 13 1011 62 10000 5.1 200 17:21 15.03.2020
6559 Clouds 13 1011 54 10000 5.7 200 16:58 15.03.2020
6560 Clouds 13 1011 54 10000 5.7 200 16:38 15.03.2020
6561 Clouds 14 1011 54 10000 6.7 200 16:19 15.03.2020
6562 Clouds 14 1011 54 10000 8.2 200 15:45 15.03.2020
6563 Clouds 14 1011 54 10000 8.2 200 15:27 15.03.2020
6564 Clouds 14 1011 54 10000 8.2 200 14:58 15.03.2020
6565 Clouds 14 1012 54 10000 8.7 200 14:38 15.03.2020
6566 Clouds 14 1012 54 10000 9.3 200 14:19 15.03.2020
6567 Clouds 14 1012 58 10000 8.7 200 13:55 15.03.2020
6568 Clouds 14 1012 54 10000 9.3 200 13:55 15.03.2020
6569 Clouds 14 1012 58 10000 8.7 200 13:36 15.03.2020
6570 Clouds 14 1013 62 10000 7.7 200 13:18 15.03.2020
6571 Clouds 14 1013 62 10000 7.7 200 13:18 15.03.2020
6572 Clouds 13 1013 62 10000 8.2 190 12:40 15.03.2020
6573 Clouds 13 1014 62 10000 8.7 200 12:21 15.03.2020
6574 Clouds 12 1014 62 10000 8.7 200 11:44 15.03.2020
6575 Clouds 12 1014 62 10000 8.7 190 11:25 15.03.2020
6576 Clouds 12 1014 62 10000 8.7 190 10:59 15.03.2020
6577 Clouds 11 1015 62 10000 7.7 190 10:40 15.03.2020
6578 Clouds 11 1015 62 10000 7.7 190 10:21 15.03.2020
6579 Clouds 10 1015 61 10000 7.7 200 09:57 15.03.2020
6580 Clouds 9 1015 66 10000 7.7 190 09:36 15.03.2020
6581 Clouds 9 1015 66 10000 7.7 180 09:18 15.03.2020
6582 Clouds 8 1015 70 10000 6.2 180 08:41 15.03.2020
6583 Clouds 7 1015 75 10000 6.2 180 08:19 15.03.2020
6584 Clouds 7 1015 70 10000 5.1 180 07:48 15.03.2020
6585 Clouds 7 1015 70 10000 5.1 170 07:22 15.03.2020
6586 Clouds 7 1015 70 10000 6.2 170 06:43 15.03.2020
6587 Clouds 6 1015 75 10000 5.7 160 05:48 15.03.2020
6588 Clouds 6 1016 75 10000 5.1 160 04:57 15.03.2020
6589 Clouds 6 1016 75 10000 5.1 160 04:38 15.03.2020
6590 Clouds 6 1016 70 10000 5.1 160 04:20 15.03.2020
6591 Clouds 5 1017 75 10000 4.6 160 03:19 15.03.2020
6592 Clouds 5 1017 75 10000 5.1 150 02:22 15.03.2020
6593 Clouds 5 1018 75 10000 5.7 140 00:59 15.03.2020
6594 Clouds 5 1018 75 10000 5.7 150 00:40 15.03.2020
6595 Clouds 5 1018 75 10000 6.2 140 00:19 15.03.2020
6596 Clouds 5 1019 75 10000 6.2 140 23:39 14.03.2020
6597 Clouds 5 1019 70 10000 6.2 140 23:20 14.03.2020
6598 Clouds 5 1019 70 10000 6.2 140 22:56 14.03.2020
6599 Clouds 5 1019 75 10000 5.1 140 22:38 14.03.2020
6600 Clouds 6 1019 75 10000 5.7 140 22:19 14.03.2020
6601 Clouds 6 1019 75 10000 5.7 140 21:55 14.03.2020
6602 Clouds 6 1019 75 10000 5.1 130 21:36 14.03.2020
6603 Clouds 6 1020 70 10000 5.1 130 21:18 14.03.2020
6604 Clouds 6 1020 70 10000 5.1 130 20:56 14.03.2020
6605 Clouds 6 1020 75 10000 5.7 130 20:38 14.03.2020
6606 Clear 6 1020 65 10000 4.1 130 20:18 14.03.2020
6607 Clear 7 1020 65 10000 4.6 130 19:41 14.03.2020
6608 Clear 7 1020 65 10000 4.1 130 19:21 14.03.2020
6609 Clear 8 1020 65 10000 4.1 130 18:41 14.03.2020
6610 Clear 8 1020 57 10000 5.1 140 18:21 14.03.2020
6611 Clear 9 1020 57 10000 5.1 130 17:43 14.03.2020
6612 Clouds 9 1020 61 10000 6.7 150 17:24 14.03.2020
6613 Clouds 9 1020 61 10000 6.7 150 16:59 14.03.2020
6614 Clouds 9 1021 61 10000 5.7 140 16:40 14.03.2020
6615 Clouds 9 1021 57 10000 5.7 150 16:21 14.03.2020
6616 Clouds 9 1021 57 10000 5.7 150 16:21 14.03.2020
6617 Clouds 10 1021 57 10000 5.7 150 15:52 14.03.2020
6618 Clouds 9 1021 57 10000 5.7 150 15:25 14.03.2020
6619 Clouds 9 1022 65 10000 5.1 140 14:46 14.03.2020
6620 Clouds 9 1022 65 10000 5.1 140 14:23 14.03.2020
6621 Clouds 9 1022 61 10000 5.7 140 13:57 14.03.2020
6622 Clouds 9 1022 61 10000 5.1 130 13:39 14.03.2020
6623 Clouds 9 1023 65 10000 5.1 120 13:20 14.03.2020
6624 Clouds 8 1023 65 10000 4.6 140 12:46 14.03.2020
6625 Clouds 8 1023 60 10000 3.6 140 12:27 14.03.2020
6626 Clouds 8 1023 60 10000 4.1 130 11:56 14.03.2020
6627 Clouds 7 1023 60 10000 4.1 130 11:38 14.03.2020
6628 Clear 6 1023 65 10000 4.1 140 11:19 14.03.2020
6629 Clear 6 1023 65 10000 4.1 150 10:44 14.03.2020
6630 Clear 5 1023 69 10000 3.1 140 10:25 14.03.2020
6631 Clear 5 1023 69 10000 3.1 140 09:57 14.03.2020
6632 Clear 4 1023 74 10000 2.6 130 09:39 14.03.2020
6633 Clear 3 1023 80 10000 2.6 130 09:19 14.03.2020
6634 Clear 2 1023 69 10000 0.5 0 08:45 14.03.2020
6635 Clear 1 1023 68 10000 0.5 0 08:22 14.03.2020
6636 Clear -2 1022 100 10000 0.5 170 07:39 14.03.2020
6637 Clear -2 1022 92 10000 1 150 07:20 14.03.2020
6638 Clear -2 1022 92 10000 1 0 06:41 14.03.2020
6639 Clear -2 1022 100 10000 0.5 150 05:49 14.03.2020
6640 Clear -2 1022 92 10000 0.5 230 04:51 14.03.2020
6641 Clear -1 1022 92 10000 0.5 0 03:25 14.03.2020
6642 Clear -1 1022 92 10000 0.5 0 02:35 14.03.2020
6643 Clear 0 1021 80 10000 2.1 220 01:27 14.03.2020
6644 Clear 1 1021 80 10000 2.1 290 00:20 14.03.2020
6645 Clouds 2 1021 74 10000 2.6 310 23:38 13.03.2020
6646 Clouds 2 1020 74 10000 2.1 310 23:18 13.03.2020
6647 Clouds 3 1020 74 10000 3.1 310 22:41 13.03.2020
6648 Clouds 3 1020 74 10000 3.6 300 22:20 13.03.2020
6649 Clouds 4 1019 69 10000 3.6 290 21:40 13.03.2020
6650 Clouds 4 1019 69 10000 3.1 290 21:18 13.03.2020
6651 Clouds 4 1018 87 10000 4.1 310 20:42 13.03.2020
6652 Clouds 5 1018 81 10000 6.2 310 20:22 13.03.2020
6653 Clouds 5 1018 81 10000 6.2 310 19:57 13.03.2020
6654 Clouds 5 1018 81 10000 6.2 320 19:39 13.03.2020
6655 Clouds 5 1017 70 10000 6.7 320 19:18 13.03.2020
6656 Clouds 6 1016 65 10000 7.2 310 18:40 13.03.2020
6657 Clouds 6 1016 70 10000 7.7 310 18:22 13.03.2020
6658 Clouds 7 1015 70 10000 7.2 310 17:42 13.03.2020
6659 Clouds 7 1015 70 10000 7.2 290 17:21 13.03.2020
6660 Clouds 8 1015 81 10000 6.2 300 16:57 13.03.2020
6661 Clouds 7 1015 81 10000 6.2 300 16:38 13.03.2020
6662 Rain 8 1014 81 10000 8.2 300 16:20 13.03.2020
6663 Clouds 8 1014 75 10000 9.3 280 15:45 13.03.2020
6664 Clouds 8 1014 75 10000 9.3 280 15:22 13.03.2020
6665 Rain 8 1013 81 10000 12.3 300 14:58 13.03.2020
6666 Rain 8 1013 76 10000 7.7 290 14:40 13.03.2020
6667 Rain 8 1012 70 10000 10.3 290 14:21 13.03.2020
6668 Clouds 9 1011 76 10000 7.7 280 13:42 13.03.2020
6669 Clouds 9 1011 81 10000 7.7 280 13:24 13.03.2020
6670 Clouds 8 1011 81 10000 7.7 280 12:59 13.03.2020
6671 Rain 8 1011 87 10000 8.2 280 12:38 13.03.2020
6672 Rain 7 1010 75 10000 10.3 280 12:20 13.03.2020
6673 Rain 7 1009 81 10000 9.8 270 11:56 13.03.2020
6674 Rain 7 1009 81 10000 9.8 270 11:37 13.03.2020
6675 Clouds 7 1009 87 10000 9.3 270 11:18 13.03.2020
6676 Rain 7 1008 87 10000 9.8 270 10:47 13.03.2020
6677 Rain 6 1008 87 10000 9.8 270 10:26 13.03.2020
6678 Rain 6 1007 87 8000 12.3 260 09:56 13.03.2020
6679 Clouds 6 1007 87 10000 11.8 250 09:38 13.03.2020
6680 Rain 6 1006 87 10000 11.8 250 09:18 13.03.2020
6681 Rain 6 1006 81 10000 12.3 240 08:41 13.03.2020
6682 Rain 5 1005 81 10000 10.8 230 08:22 13.03.2020
6683 Rain 5 1005 81 10000 9.3 230 07:45 13.03.2020
6684 Rain 6 1005 81 10000 9